精简打包之前

This commit is contained in:
2026-02-25 11:50:30 +08:00
parent af56c94efe
commit 729b283f29
25 changed files with 8615 additions and 50 deletions

View File

@ -0,0 +1,804 @@
日期,时间,经度,纬度,高程,融合高程,速度x,速度y,速度z,四元数_q0,四元数_q1,四元数_q2,四元数_q3,pitch,roll,yaw,CO2,H2O,GS温度,气体分压/压力,环境气压/压力,修正风向,修正风速,原始风向,原始风速,风温,pressure,course_elevation,course_azimuth
2026-01-15,08:37:11,1157847424,403491658,526176,568.036,-0.431397,-1.05424,-0.00270356,0.554143,0.162897,0.0906232,-0.811281,21.3936,2.06168,-110.949,434.0,4294970000,50,4.67485e-39,898,54.148,3.53296,43,4.2,7.4,,21.3936,-110.949
2026-01-15,08:37:12,1157847420,403491622,526222,568.364,0.317856,0.708263,0.0077085,0.903667,0.0823575,-0.0147862,-0.419981,2.43333,9.2896,-49.6595,434.0,4294970000,50,4.67485e-39,898,38.409,3.91526,23,3.8,7.4,,2.43333,-49.6595
2026-01-15,08:37:13,1157847493,403491592,526317,569.358,0.19251,0.606989,0.00131379,0.9508,0.0108044,-0.0263268,0.308497,-3.25233,0.246908,35.9481,435.0,4294970000,50,4.67485e-39,898,57.728,3.38187,24,4.0,7.4,,-3.25233,35.9481
2026-01-15,08:37:14,1157847552,403491608,526334,568.077,0.494951,0.722547,0.0120639,0.92956,-0.000731488,-0.0471219,0.365647,-4.99546,-2.06075,43.038,435.0,4294970000,49,4.67485e-39,899,71.9454,4.15446,26,5.0,7.4,,-4.99546,43.038
2026-01-15,08:37:15,1157847632,403491653,526355,568.048,0.738053,0.692506,-0.00551199,0.926082,0.0313723,-0.0776984,0.367899,-9.6138,0.0544119,43.3309,435.0,4294970000,49,4.67485e-39,898,75.9181,6.93926,28,7.8,7.4,,-9.6138,43.3309
2026-01-15,08:37:16,1157847728,403491731,526342,568.514,0.964757,0.869655,0.0106683,0.928709,0.0210133,-0.0316462,0.368859,-4.26029,0.901251,43.293,435.0,4294970000,49,4.67485e-39,898,113.456,9.51072,63,10.0,7.4,,-4.26029,43.293
2026-01-15,08:37:17,1157847830,403491815,526367,568.295,0.882373,0.802198,-0.00186864,0.928731,0.019612,-0.0303259,0.368991,-4.06038,0.807034,43.311,436.0,4294970000,49,4.67485e-39,899,112.715,9.73967,63,10.2,7.4,,-4.06038,43.311
2026-01-15,08:37:18,1157847918,403491891,526368,568.556,0.770966,0.712884,-0.00220221,0.928612,0.0248359,-0.0331453,0.368732,-4.58165,1.24649,43.2673,436.0,4294970000,49,4.67485e-39,898,110.755,9.96234,62,10.4,7.4,,-4.58165,43.2673
2026-01-15,08:37:19,1157847998,403491958,526392,568.498,0.72494,0.668851,0.00150071,0.929389,0.0276926,-0.0377194,0.366122,-5.18641,1.37261,42.9438,437.0,4294970000,49,4.67485e-39,899,110.02,10.182,62,10.6,7.4,,-5.18641,42.9438
2026-01-15,08:37:20,1157848079,403492023,526414,568.339,0.712296,0.668851,0.0119353,0.929583,0.0265017,-0.0342417,0.366061,-4.76502,1.39172,42.9334,437.0,4294970000,49,4.67485e-39,898,110.986,10.1798,63,10.6,7.4,,-4.76502,42.9334
2026-01-15,08:37:21,1157848164,403492088,526415,568.211,0.692253,0.686897,-0.00459407,0.928543,0.0263055,-0.0385301,0.368283,-5.21746,1.17799,43.2185,437.0,4294970000,49,4.67485e-39,899,112.279,10.0897,64,10.5,7.4,,-5.21746,43.2185
2026-01-15,08:37:22,1157848249,403492153,526410,568.456,0.699185,0.700427,-0.00147237,0.929261,0.0229442,-0.0370253,0.366846,-4.91356,0.89015,43.0504,437.0,4294970000,49,4.67485e-39,898,113.18,10.0922,65,10.5,7.4,,-4.91356,43.0504
2026-01-15,08:37:23,1157848329,403492218,526406,568.513,0.710728,0.687664,-0.00735078,0.929091,0.0245581,-0.0364428,0.367231,-4.91977,1.08518,43.0902,437.0,4294970000,50,4.67485e-39,898,113.212,10.2093,65,10.6,7.4,,-4.91977,43.0902
2026-01-15,08:37:24,1157848408,403492283,526398,568.791,0.705312,0.692438,-0.00535891,0.929026,0.0288814,-0.0370198,0.367023,-5.16312,1.52418,43.0486,437.0,4294970000,50,4.67485e-39,898,112.198,10.0874,64,10.5,7.4,,-5.16312,43.0486
2026-01-15,08:37:25,1157848491,403492348,526390,568.118,0.704869,0.695147,-0.00736932,0.928809,0.0263649,-0.0366991,0.367795,-5.024,1.26443,43.1534,437.0,4294970000,49,4.67485e-39,899,111.355,9.87086,63,10.3,7.4,,-5.024,43.1534
2026-01-15,08:37:26,1157848575,403492412,526388,568.552,0.697602,0.701938,-0.00776543,0.929213,0.0245842,-0.0381249,0.36675,-5.09983,1.01964,43.0349,437.0,4294970000,49,4.67485e-39,898,111.148,9.95938,63,10.4,7.4,,-5.09983,43.0349
2026-01-15,08:37:27,1157848656,403492477,526372,568.314,0.712533,0.690524,-0.0126902,0.928629,0.0257564,-0.0392165,0.368032,-5.26718,1.09168,43.1915,437.0,4294970000,50,4.67485e-39,899,111.278,10.1777,63,10.6,7.4,,-5.26718,43.1915
2026-01-15,08:37:28,1157848733,403492542,526357,568.582,0.725056,0.698439,-0.00466166,0.928982,0.0255822,-0.0377991,0.367301,-5.10772,1.13704,43.0982,437.0,4294970000,49,4.67485e-39,898,112.15,10.4879,64,10.9,7.4,,-5.10772,43.0982
2026-01-15,08:37:29,1157848810,403492609,526339,568.355,0.727463,0.707813,-0.00165912,0.929208,0.0249444,-0.0342734,0.367118,-4.70442,1.21851,43.0698,437.0,4294970000,50,4.67485e-39,898,112.187,10.3795,64,10.8,7.4,,-4.70442,43.0698
2026-01-15,08:37:30,1157848886,403492675,526347,568.34,0.716103,0.699016,-0.00430534,0.929205,0.0300181,-0.0368326,0.366497,-5.19005,1.65657,42.9786,437.0,4294970000,49,4.67485e-39,899,112.154,10.184,64,10.6,7.4,,-5.19005,42.9786
2026-01-15,08:37:31,1157848971,403492740,526355,568.74,0.71099,0.732633,-0.0092883,0.929136,0.0234411,-0.0363168,0.367202,-4.85923,0.971263,43.0906,437.0,4294970000,49,4.67485e-39,898,112.318,10.0521,64,10.5,7.4,,-4.85923,43.0906
2026-01-15,08:37:32,1157849057,403492804,526370,568.41,0.695103,0.703962,-0.00710248,0.926764,0.0261015,-0.037862,0.372817,-5.14331,1.15926,43.7789,437.0,4294970000,50,4.67485e-39,899,111.92,9.96855,63,10.4,7.4,,-5.14331,43.7789
2026-01-15,08:37:33,1157849141,403492867,526373,568.347,0.660863,0.72982,-0.00842205,0.916906,0.0257808,-0.033892,0.396824,-4.73909,1.1718,46.7595,437.0,4294970000,49,4.67485e-39,898,115.858,10.0935,64,10.5,7.4,,-4.73909,46.7595
2026-01-15,08:37:34,1157849225,403492926,526372,568.521,0.600395,0.790153,-0.00366857,0.901489,0.025694,-0.0342669,0.430677,-4.81393,0.966655,51.0345,437.0,4294970000,49,4.67485e-39,898,118.011,10.1476,62,10.6,7.4,,-4.81393,51.0345
2026-01-15,08:37:35,1157849312,403492980,526357,568.423,0.545751,0.834252,-0.0045222,0.885339,0.0258764,-0.0349848,0.462905,-4.92835,0.772386,55.177,437.0,4294970000,50,4.67485e-39,899,121.08,10.2312,61,10.7,7.4,,-4.92835,55.177
2026-01-15,08:37:36,1157849403,403493029,526348,568.465,0.49066,0.888836,-0.00841354,0.8703,0.0246978,-0.0348599,0.490665,-4.87143,0.50492,58.8104,437.0,4294970000,50,4.67485e-39,899,123.714,10.1968,60,10.7,7.4,,-4.87143,58.8104
2026-01-15,08:37:37,1157849503,403493074,526331,568.625,0.444179,0.900959,-0.00896646,0.856571,0.0248763,-0.0365168,0.514134,-5.05687,0.291512,61.938,437.0,4294970000,50,4.67485e-39,898,123.572,10.3624,57,10.9,7.4,,-5.05687,61.938
2026-01-15,08:37:38,1157849606,403493114,526320,568.492,0.391449,0.938451,-0.00559586,0.842161,0.0216678,-0.0340751,0.537713,-4.62889,-0.00860678,65.121,437.0,4294970000,49,4.67485e-39,899,124.58,10.5181,55,11.1,7.4,,-4.62889,65.121
2026-01-15,08:37:39,1157849712,403493150,526307,568.582,0.337139,0.95601,-0.00988557,0.82749,0.0207109,-0.0370878,0.559872,-4.85168,-0.417076,68.1865,437.0,4294970000,50,4.67485e-39,898,123.312,10.6593,51,11.3,7.4,,-4.85168,68.1865
2026-01-15,08:37:40,1157849819,403493182,526285,568.538,0.284329,0.969314,-0.00748816,0.811928,0.0221068,-0.0371624,0.582154,-4.93881,-0.423895,71.3048,437.0,4294970000,49,4.67485e-39,898,125.355,10.6481,50,11.3,7.4,,-4.93881,71.3048
2026-01-15,08:37:41,1157849929,403493207,526270,568.468,0.220556,0.984368,-0.00517097,0.79336,0.0195242,-0.0379069,0.607257,-4.81084,-0.865967,74.9046,437.0,4294970000,49,4.67485e-39,898,126.695,10.9188,48,11.6,7.4,,-4.81084,74.9046
2026-01-15,08:37:42,1157850039,403493227,526259,568.773,0.149383,1.01545,-0.00345043,0.7704,0.0221986,-0.0394592,0.635952,-5.10837,-0.919611,79.125,437.0,4294970000,49,4.67485e-39,898,128.785,11.08,46,11.8,7.4,,-5.10837,79.125
2026-01-15,08:37:43,1157850154,403493241,526249,568.532,0.0908148,1.01176,-0.0127735,0.748035,0.0192708,-0.0386786,0.662251,-4.78381,-1.28808,83.0982,437.0,4294970000,49,4.67485e-39,898,130.554,11.2703,44,12.0,7.4,,-4.78381,83.0982
2026-01-15,08:37:44,1157850270,403493249,526235,568.513,0.0437174,1.02315,-0.00430365,0.732364,0.0137257,-0.0405074,0.679569,-4.47323,-2.00921,85.8019,437.0,4294970000,49,4.67485e-39,899,130.101,11.1265,41,11.9,7.4,,-4.47323,85.8019
2026-01-15,08:37:45,1157850388,403493254,526231,568.422,0.0449134,1.01818,-0.000842101,0.729269,0.0129828,-0.040804,0.682886,-4.43059,-2.11504,86.3258,437.0,4294970000,49,4.67485e-39,898,127.443,11.1019,38,11.9,7.4,,-4.43059,86.3258
2026-01-15,08:37:46,1157850505,403493258,526240,568.784,0.04023,1.01906,-0.0136841,0.730111,0.0161958,-0.0428704,0.681791,-4.85824,-2.00208,86.1711,437.0,4294970000,49,4.67485e-39,898,127.291,10.9979,38,11.8,7.4,,-4.85824,86.1711
2026-01-15,08:37:47,1157850623,403493264,526242,568.616,0.0582931,1.0206,-0.00686456,0.730288,0.0164606,-0.0404904,0.68174,-4.67991,-1.79207,86.1413,437.0,4294970000,49,4.67485e-39,898,126.276,10.9956,37,11.8,7.4,,-4.67991,86.1413
2026-01-15,08:37:48,1157850741,403493271,526248,568.603,0.0544318,1.00223,-0.00128037,0.730072,0.016949,-0.0398698,0.681996,-4.66559,-1.70394,86.1758,437.0,4294970000,50,4.67485e-39,898,126.271,10.9084,37,11.7,7.4,,-4.66559,86.1758
2026-01-15,08:37:49,1157850857,403493277,526258,568.657,0.0482004,0.997268,-0.00503159,0.72951,0.0174466,-0.0422078,0.682444,-4.89908,-1.8495,86.2671,437.0,4294970000,50,4.67485e-39,898,127.336,11.1207,38,11.9,7.4,,-4.89908,86.2671
2026-01-15,08:37:50,1157850974,403493283,526253,568.61,0.0374311,1.00535,-0.00910842,0.729696,0.0151869,-0.042711,0.682268,-4.76455,-2.07714,86.245,437.0,4294970000,50,4.67485e-39,898,126.138,11.396,37,12.2,7.4,,-4.76455,86.245
2026-01-15,08:37:51,1157851092,403493288,526244,568.635,0.033227,1.01268,-0.00906904,0.729422,0.0159588,-0.0422632,0.682571,-4.78676,-1.97921,86.2882,437.0,4294970000,49,4.67485e-39,898,126.116,11.6878,37,12.5,7.4,,-4.78676,86.2882
2026-01-15,08:37:52,1157851208,403493293,526240,568.614,0.00893365,1.00525,-0.00387154,0.718708,0.018412,-0.0424177,0.693773,-4.96376,-1.86331,88.0646,437.0,4294970000,50,4.67485e-39,898,128.937,11.8093,38,12.6,7.4,,-4.96376,88.0646
2026-01-15,08:37:53,1157851322,403493295,526244,568.481,-0.0875946,1.01321,-0.0099838,0.688535,0.0177547,-0.0383997,0.723968,-4.50767,-1.79077,92.9513,437.0,4294970000,49,4.67485e-39,898,133.839,11.694,38,12.5,7.4,,-4.50767,92.9513
2026-01-15,08:37:54,1157851435,403493290,526261,568.573,-0.203972,1.0118,-0.00555363,0.647389,0.0168781,-0.0372779,0.761061,-4.24161,-2.00499,99.3099,437.0,4294970000,49,4.67485e-39,898,140.224,11.6805,38,12.5,7.4,,-4.24161,99.3099
2026-01-15,08:37:55,1157851548,403493273,526280,568.692,-0.318393,0.98292,-0.00483251,0.608439,0.0138549,-0.0387622,0.792532,-3.9643,-2.56146,105.068,436.0,4294970000,49,4.67485e-39,898,143.822,11.4488,36,12.3,7.4,,-3.9643,105.068
2026-01-15,08:37:56,1157851659,403493245,526301,568.873,-0.40851,0.944526,-0.0061596,0.569717,0.0121735,-0.0393402,0.820809,-3.71621,-2.9131,110.574,436.0,4294970000,50,4.67485e-39,898,146.089,11.4223,33,12.3,7.4,,-3.71621,110.574
2026-01-15,08:37:57,1157851767,403493207,526315,568.95,-0.494089,0.916452,-0.00322138,0.529758,0.00671439,-0.0401867,0.84717,-3.09312,-3.5012,116.065,436.0,4294970000,49,4.67485e-39,899,147.404,11.0797,29,12.0,7.4,,-3.09312,116.065
2026-01-15,08:37:58,1157851871,403493163,526318,569.007,-0.566462,0.861309,-0.00161581,0.490142,0.000660659,-0.0397231,0.870737,-2.2978,-3.93297,121.337,436.0,4294970000,49,4.67485e-39,898,149.466,10.8658,26,11.8,7.4,,-2.2978,121.337
2026-01-15,08:37:59,1157851966,403493118,526326,568.982,-0.630004,0.783151,6.49412e-05,0.450333,0.00200798,-0.04056,0.891937,-2.29909,-4.04888,126.513,436.0,4294970000,49,4.67485e-39,898,152.407,10.772,24,11.7,7.4,,-2.29909,126.513
2026-01-15,08:38:00,1157852053,403493069,526343,569.143,-0.717758,0.720405,0.00900896,0.406478,0.00416935,-0.039629,0.912791,-2.28276,-3.95749,132.08,436.0,4294970000,50,4.67485e-39,898,153.596,10.8323,20,11.8,7.4,,-2.28276,132.08
2026-01-15,08:38:01,1157852133,403493010,526357,569.26,-0.797449,0.642309,-0.00589846,0.357583,0.00334325,-0.0404657,0.932998,-2.01613,-4.19599,138.144,436.0,4294970000,49,4.67485e-39,898,154.202,10.8005,15,11.8,7.4,,-2.01613,138.144
2026-01-15,08:38:02,1157852207,403492942,526351,568.879,-0.866652,0.613476,0.000143114,0.309549,-0.00225857,-0.036154,0.950193,-1.03665,-4.02097,143.958,437.0,4294970000,49,4.67485e-39,898,158.11,10.7646,13,11.8,7.4,,-1.03665,143.958
2026-01-15,08:38:03,1157852277,403492868,526325,569.117,-0.870389,0.539441,-0.00361792,0.276997,-0.00740786,-0.0355041,0.960186,-0.311899,-4.14561,147.838,437.0,4294970000,49,4.67485e-39,898,157.614,10.7886,9,11.8,7.4,,-0.311899,147.838
2026-01-15,08:38:04,1157852339,403492791,526310,569.039,-0.863942,0.510906,-0.00281384,0.271667,-0.00822604,-0.0380588,0.961603,-0.278379,-4.45471,148.47,437.0,4294970000,50,4.67485e-39,898,153.813,10.999,5,12.0,7.4,,-0.278379,148.47
2026-01-15,08:38:05,1157852400,403492717,526305,569.465,-0.881606,0.502528,0.00302127,0.271199,-0.00807922,-0.0377854,0.961747,-0.283889,-4.4201,148.526,437.0,4294970000,50,4.67485e-39,898,152.707,10.886,4,11.9,7.4,,-0.283889,148.526
2026-01-15,08:38:06,1157852462,403492645,526304,568.994,-0.883712,0.508698,0.00322529,0.271509,-0.00485303,-0.0369698,0.961713,-0.615461,-4.22961,148.503,437.0,4294970000,50,4.67485e-39,898,151.615,10.7807,3,11.8,7.4,,-0.615461,148.503
2026-01-15,08:38:07,1157852524,403492572,526306,569.324,-0.893611,0.51288,-0.00451859,0.271878,-0.00234937,-0.0339563,0.96173,-0.799076,-3.81886,148.467,438.0,4294970000,50,4.67485e-39,898,150.472,10.5698,2,11.6,7.4,,-0.799076,148.467
2026-01-15,08:38:08,1157852584,403492492,526309,569.017,-0.892962,0.506339,-0.00205077,0.270566,-0.00496166,-0.0368123,0.961984,-0.594457,-4.21619,148.615,438.0,4294970000,50,4.67485e-39,898,149.516,10.7737,1,11.8,7.4,,-0.594457,148.615
2026-01-15,08:38:09,1157852642,403492410,526309,569.337,-0.871262,0.517195,-0.00180474,0.271456,-0.00908244,-0.0374805,0.961678,-0.165019,-4.4176,148.491,438.0,4294970000,50,4.67485e-39,898,150.584,10.787,2,11.8,7.4,,-0.165019,148.491
2026-01-15,08:38:10,1157852703,403492329,526315,568.94,-0.843847,0.525024,0.000824943,0.272062,-0.00835847,-0.0364132,0.961554,-0.214247,-4.27712,148.422,438.0,4294970000,50,4.67485e-39,898,150.619,10.707,2,11.7,7.4,,-0.214247,148.422
2026-01-15,08:38:11,1157852764,403492251,526323,569.473,-0.829306,0.512532,-0.00049944,0.27105,-0.00565722,-0.0357807,0.961883,-0.487834,-4.12361,148.554,437.0,4294970000,49,4.67485e-39,898,150.742,10.6259,2,11.6,7.4,,-0.487834,148.554
2026-01-15,08:38:12,1157852824,403492175,526330,569.066,-0.848281,0.516275,0.000345239,0.271782,-0.00857816,-0.039239,0.96152,-0.276916,-4.59591,148.455,437.0,4294970000,49,4.67485e-39,898,150.6,10.8075,2,11.8,7.4,,-0.276916,148.455
2026-01-15,08:38:13,1157852886,403492103,526329,569.092,-0.846523,0.508209,-0.00104353,0.269016,-0.00499381,-0.0342485,0.962514,-0.505022,-3.93495,148.798,438.0,4294970000,49,4.67485e-39,898,150.937,11.0132,2,12.0,7.4,,-0.505022,148.798
2026-01-15,08:38:14,1157852947,403492032,526328,569.013,-0.903772,0.470018,-0.00294653,0.24344,-0.00481879,-0.0292963,0.969462,-0.281947,-3.39128,151.828,438.0,4294970000,49,4.67485e-39,898,152.841,10.9814,1,12.0,7.4,,-0.281947,151.828
2026-01-15,08:38:15,1157853002,403491954,526316,569.509,-0.946316,0.388983,0.00586595,0.204864,-0.00685203,-0.0251777,0.978443,0.177208,-2.9854,156.356,437.0,4294970000,49,4.67485e-39,898,156.215,10.4772,0,11.5,7.4,,0.177208,156.356
2026-01-15,08:38:16,1157853048,403491871,526324,569.404,-0.976983,0.288334,0.00530884,0.160972,-0.00811484,-0.0251049,0.986606,0.454389,-2.98963,161.467,437.0,4294970000,49,4.67485e-39,898,160.141,10.1831,359,11.2,7.4,,0.454389,161.467
2026-01-15,08:38:17,1157853080,403491782,526335,568.966,-1.00395,0.200454,0.000402792,0.121994,-0.0109893,-0.0280469,0.992074,0.857313,-3.34461,165.966,437.0,4294970000,49,4.67485e-39,898,161.258,9.98412,356,11.0,7.4,,0.857313,165.966
2026-01-15,08:38:18,1157853104,403491694,526331,568.532,-0.987195,0.142831,0.0033202,0.0874612,-0.015312,-0.0267107,0.995692,1.47964,-3.20407,169.931,437.0,4294970000,49,4.67485e-39,898,163.102,10.0131,354,11.0,7.4,,1.47964,169.931
2026-01-15,08:38:19,1157853121,403491609,526337,568.42,-0.994188,0.0582949,0.00042371,0.0539512,-0.015682,-0.0250192,0.998107,1.63929,-2.96126,173.782,437.0,4294970000,49,4.67485e-39,898,163.513,9.62779,351,10.6,7.4,,1.63929,173.782
2026-01-15,08:38:20,1157853131,403491524,526329,568.378,-1.02073,-0.0158077,0.00584194,0.0188493,-0.0171637,-0.0234111,0.999401,1.91557,-2.72092,177.807,437.0,4294970000,49,4.67485e-39,898,161.914,9.32937,346,10.3,7.4,,1.91557,177.807
2026-01-15,08:38:21,1157853132,403491437,526321,568.48,-1.01146,-0.0824614,0.0124565,0.0158778,0.0182998,0.0246089,-0.999404,2.14118,-2.78824,-178.245,437.0,4294970000,49,4.67485e-39,898,163.658,9.14625,344,10.1,7.4,,2.14118,-178.245
2026-01-15,08:38:22,1157853126,403491351,526310,568.548,-1.00599,-0.167656,0.00211219,0.0560607,0.0159338,0.0222849,-0.998052,1.96601,-2.44869,-173.625,437.0,4294970000,49,4.67485e-39,898,162.657,8.77876,339,9.7,7.4,,1.96601,-173.625
2026-01-15,08:38:23,1157853108,403491264,526293,568.149,-0.987524,-0.247403,0.00563047,0.0988523,0.0219239,0.0205133,-0.994649,2.73245,-2.09272,-168.711,437.0,4294970000,49,4.67485e-39,898,164.074,8.40407,336,9.3,7.4,,2.73245,-168.711
2026-01-15,08:38:24,1157853080,403491178,526272,568.231,-0.945976,-0.320776,0.00232856,0.142789,0.0240044,0.019137,-0.989277,3.03597,-1.77957,-163.633,437.0,4294970000,50,4.67485e-39,898,168.008,8.32617,335,9.2,7.4,,3.03597,-163.633
2026-01-15,08:38:25,1157853045,403491095,526245,568.081,-0.917339,-0.354544,0.00617657,0.177175,0.0232667,0.0158993,-0.983776,2.94722,-1.32195,-159.627,437.0,4294970000,49,4.67485e-39,899,168.696,7.8529,332,8.7,7.4,,2.94722,-159.627
2026-01-15,08:38:26,1157853003,403491012,526235,567.916,-0.903451,-0.39336,0.00342198,0.185577,0.0242132,0.0207858,-0.982111,3.16887,-1.8276,-158.662,437.0,4294970000,50,4.67485e-39,898,168.294,7.5748,331,8.4,7.4,,3.16887,-158.662
2026-01-15,08:38:27,1157852959,403490931,526239,567.888,-0.917116,-0.394825,0.00475766,0.186237,0.0209578,0.0204768,-0.982068,2.79683,-1.85981,-158.581,437.0,4294970000,50,4.67485e-39,899,168.418,7.5607,331,8.4,7.4,,2.79683,-158.581
2026-01-15,08:38:28,1157852915,403490848,526230,568.015,-0.923943,-0.3836,0.0030032,0.186559,0.0229657,0.0210787,-0.981949,3.03644,-1.884,-158.547,437.0,4294970000,50,4.67485e-39,898,165.179,7.48211,328,8.3,7.4,,3.03644,-158.547
2026-01-15,08:38:29,1157852871,403490764,526232,567.822,-0.918227,-0.388528,0.00247195,0.183337,0.0246079,0.0226733,-0.982481,3.24877,-2.03953,-158.929,437.0,4294970000,50,4.67485e-39,899,163.695,7.60352,327,8.4,7.4,,3.24877,-158.929
2026-01-15,08:38:30,1157852826,403490681,526234,567.862,-0.915677,-0.38315,0.000469251,0.185106,0.0218312,0.0231406,-0.982204,2.94952,-2.14495,-158.721,437.0,4294970000,50,4.67485e-39,898,163.954,7.50222,327,8.3,7.4,,2.94952,-158.721
2026-01-15,08:38:31,1157852780,403490596,526241,567.751,-0.927796,-0.375091,0.00312335,0.184792,0.0248115,0.0253161,-0.982138,3.33061,-2.32854,-158.768,437.0,4294970000,50,4.67485e-39,899,162.88,7.59956,326,8.4,7.4,,3.33061,-158.768
2026-01-15,08:38:32,1157852738,403490512,526236,567.82,-0.925811,-0.363181,0.00342039,0.185652,0.0222816,0.021249,-0.982133,2.96125,-1.92049,-158.653,437.0,4294970000,50,4.67485e-39,899,165.378,7.77545,328,8.6,7.4,,2.96125,-158.653
2026-01-15,08:38:33,1157852697,403490428,526229,567.714,-0.912974,-0.381584,0.000619284,0.186887,0.023842,0.0227555,-0.981828,3.17162,-2.05335,-158.514,437.0,4294970000,50,4.67485e-39,899,165.56,8.09031,328,8.9,7.4,,3.17162,-158.514
2026-01-15,08:38:34,1157852656,403490346,526222,567.711,-0.895063,-0.422425,0.00545318,0.211287,0.0227958,0.0164861,-0.977019,2.95286,-1.29576,-155.64,437.0,4294970000,50,4.67485e-39,899,168.371,8.08756,328,8.9,7.4,,2.95286,-155.64
2026-01-15,08:38:35,1157852607,403490266,526204,567.895,-0.855946,-0.504967,0.00354485,0.253781,0.0250296,0.0125382,-0.966856,3.13955,-0.662319,-150.615,437.0,4294970000,50,4.67485e-39,898,172.831,7.68829,328,8.5,7.4,,3.13955,-150.615
2026-01-15,08:38:36,1157852549,403490189,526184,567.807,-0.796007,-0.585726,0.00311599,0.29937,0.0277999,0.0109682,-0.953669,3.41659,-0.2454,-145.162,437.0,4294970000,49,4.67485e-39,899,173.587,7.64121,324,8.4,7.4,,3.41659,-145.162
2026-01-15,08:38:37,1157852483,403490120,526171,567.673,-0.737182,-0.665307,0.00375219,0.341098,0.0251821,0.00986541,-0.939639,3.09882,-0.0780837,-140.11,437.0,4294970000,49,4.67485e-39,899,175.944,7.47005,322,8.2,7.4,,3.09882,-140.11
2026-01-15,08:38:38,1157852408,403490054,526150,568.267,-0.689307,-0.729643,-0.00433286,0.374579,0.0278495,0.0093472,-0.926729,3.36088,0.203137,-135.987,437.0,4294970000,49,4.67485e-39,899,173.413,7.04955,316,7.7,7.4,,3.36088,-135.987
2026-01-15,08:38:39,1157852327,403489994,526126,568.452,-0.644081,-0.767046,0.0016621,0.407346,0.0289819,0.00551554,-0.912797,3.29098,0.777273,-131.889,437.0,4294970000,49,4.67485e-39,898,171.532,6.41688,311,7.0,7.4,,3.29098,-131.889
2026-01-15,08:38:40,1157852242,403489936,526112,568.321,-0.595032,-0.812143,0.00153923,0.440303,0.0294846,0.004001,-0.897356,3.23572,1.07809,-127.708,437.0,4294970000,49,4.67485e-39,899,173.1,6.24007,309,6.8,7.4,,3.23572,-127.708
2026-01-15,08:38:41,1157852151,403489883,526100,568.25,-0.53742,-0.872657,0.00363869,0.472437,0.0317862,0.00194113,-0.880789,3.31539,1.52775,-123.549,437.0,4294970000,49,4.67485e-39,898,172.309,6.00493,305,6.5,7.4,,3.31539,-123.549
2026-01-15,08:38:42,1157852057,403489835,526090,568.129,-0.463245,-0.925887,0.00130176,0.506927,0.0318237,-0.00396745,-0.861392,2.91226,2.24388,-118.998,437.0,4294970000,49,4.67485e-39,899,170.861,5.69759,300,6.1,7.4,,2.91226,-118.998
2026-01-15,08:38:43,1157851954,403489794,526083,568.007,-0.362294,-0.976533,0.0010949,0.545981,0.0351518,-0.00432174,-0.837049,3.10308,2.61874,-113.707,437.0,4294970000,49,4.67485e-39,899,172.903,5.45155,298,5.8,7.4,,3.10308,-113.707
2026-01-15,08:38:44,1157851844,403489761,526075,568.033,-0.267418,-1.01241,-0.000503984,0.584462,0.037751,-0.00513473,-0.810526,3.16423,3.01146,-108.335,437.0,4294970000,49,4.67485e-39,898,172.674,4.93584,294,5.2,7.4,,3.16423,-108.335
2026-01-15,08:38:45,1157851729,403489736,526072,567.93,-0.206312,-1.02361,0.000503627,0.613766,0.0390699,-0.00314423,-0.788514,3.31119,3.0387,-104.127,437.0,4294970000,49,4.67485e-39,899,168.836,4.46249,287,4.6,7.4,,3.31119,-104.127
2026-01-15,08:38:46,1157851613,403489716,526083,567.828,-0.194356,-1.00037,0.00361152,0.621713,0.0383386,-0.00418891,-0.782295,3.14021,3.1133,-102.972,437.0,4294970000,49,4.67485e-39,898,165.002,4.34363,282,4.4,7.4,,3.14021,-102.972
2026-01-15,08:38:47,1157851497,403489696,526095,567.825,-0.195123,-0.997315,0.00259452,0.621595,0.0376815,-0.00381449,-0.782422,3.10853,3.03213,-102.995,437.0,4294970000,49,4.67485e-39,899,165.046,4.34234,282,4.4,7.4,,3.10853,-102.995
2026-01-15,08:38:48,1157851381,403489678,526102,567.692,-0.198335,-0.980782,5.00728e-05,0.62158,0.0375318,-0.00357641,-0.782443,3.11218,2.99999,-102.998,437.0,4294970000,49,4.67485e-39,898,161.175,4.30715,278,4.3,7.4,,3.11218,-102.998
2026-01-15,08:38:49,1157851266,403489658,526097,567.809,-0.200396,-0.978672,0.00355746,0.621159,0.0370427,-0.00382801,-0.782799,3.052,2.98587,-103.063,437.0,4294970000,49,4.67485e-39,899,156.125,4.29431,273,4.2,7.4,,3.052,-103.063
2026-01-15,08:38:50,1157851152,403489638,526094,567.866,-0.204937,-0.980458,0.00369942,0.621569,0.0387948,-0.00539413,-0.78238,3.09564,3.25356,-102.988,437.0,4294970000,49,4.67485e-39,898,153.597,4.12964,271,4.0,7.4,,3.09564,-102.988
2026-01-15,08:38:51,1157851037,403489618,526088,567.845,-0.199214,-0.982839,0.000261763,0.620569,0.0378855,-0.0044584,-0.783224,3.08492,3.10049,-103.143,437.0,4294970000,49,4.67485e-39,899,150.399,4.09139,268,3.9,7.4,,3.08492,-103.143
2026-01-15,08:38:52,1157850922,403489599,526070,567.757,-0.197763,-0.993265,0.00314646,0.621035,0.0374088,-0.00421648,-0.782878,3.0576,3.04647,-103.078,437.0,4294970000,49,4.67485e-39,899,151.443,3.8697,270,3.7,7.4,,3.0576,-103.078
2026-01-15,08:38:53,1157850805,403489580,526045,567.805,-0.194745,-0.979823,-9.47e-05,0.620618,0.0383703,-0.00283022,-0.783169,3.24422,2.98916,-103.133,437.0,4294970000,49,4.67485e-39,898,151.592,3.86685,270,3.7,7.4,,3.24422,-103.133
2026-01-15,08:38:54,1157850691,403489561,526034,567.795,-0.205923,-0.9781,0.00360904,0.621231,0.0382583,-0.00379197,-0.782684,3.16324,3.06999,-103.043,437.0,4294970000,50,4.67485e-39,899,151.978,3.95156,270,3.8,7.4,,3.16324,-103.043
2026-01-15,08:38:55,1157850577,403489541,526003,567.538,-0.199269,-0.97492,0.000427499,0.623909,0.0400971,-0.00745517,-0.780432,3.05458,3.54099,-102.633,437.0,4294970000,50,4.67485e-39,898,151.228,4.17645,268,4.0,7.4,,3.05458,-102.633
2026-01-15,08:38:56,1157850465,403489522,525990,567.848,-0.138566,-0.989143,0.00162081,0.643704,0.0438351,-0.0090209,-0.763965,3.17394,4.03294,-99.6618,437.0,4294970000,50,4.67485e-39,899,152.26,4.22125,266,4.0,7.4,,3.17394,-99.6618
2026-01-15,08:38:57,1157850353,403489508,525979,567.84,-0.0464023,-1.01238,0.00180388,0.676928,0.0450519,-0.0127386,-0.734559,2.8054,4.57764,-94.571,437.0,4294970000,50,4.67485e-39,898,154.6,4.06942,264,3.8,7.4,,2.8054,-94.571
2026-01-15,08:38:58,1157850239,403489502,525957,568.363,0.059275,-1.00556,0.000867248,0.711066,0.0469137,-0.0134451,-0.70143,2.67646,4.91505,-89.11,437.0,4294970000,50,4.67485e-39,899,155.363,4.05819,259,3.7,7.4,,2.67646,-89.11
2026-01-15,08:38:59,1157850124,403489506,525933,568.621,0.163699,-1.00697,0.00184223,0.740807,0.0460542,-0.0135738,-0.67,2.38446,4.96256,-84.1565,437.0,4294970000,50,4.67485e-39,898,154.784,4.0721,253,3.6,7.4,,2.38446,-84.1565
2026-01-15,08:39:00,1157850009,403489519,525915,568.827,0.239577,-0.99338,0.00340162,0.765558,0.0461649,-0.0156862,-0.641516,2.01816,5.21382,-79.8381,437.0,4294970000,50,4.67485e-39,898,144.987,3.99391,237,3.3,7.4,,2.01816,-79.8381
2026-01-15,08:39:01,1157849898,403489538,525944,569.324,0.320093,-0.969977,0.00482546,0.78879,0.04565,-0.015517,-0.612768,1.80333,5.22603,-75.6067,437.0,4294970000,50,4.67485e-39,898,136.905,4.26038,221,3.4,7.4,,1.80333,-75.6067
2026-01-15,08:39:02,1157849791,403489563,525983,568.927,0.393826,-0.939913,0.00046536,0.811337,0.0433902,-0.0185025,-0.582673,1.17709,5.27845,-71.3201,437.0,4294970000,50,4.67485e-39,898,136.71,4.40587,215,3.5,7.4,,1.17709,-71.3201
2026-01-15,08:39:03,1157849686,403489594,525996,569.422,0.457805,-0.906677,0.00150803,0.832084,0.0435489,-0.0198668,-0.55258,0.863358,5.41945,-67.1397,438.0,4294970000,49,4.67485e-39,898,133.271,4.66242,205,3.7,7.4,,0.863358,-67.1397
2026-01-15,08:39:04,1157849581,403489632,525985,569.217,0.522407,-0.873284,0.00376318,0.854228,0.0450659,-0.0209989,-0.517516,0.617072,5.66665,-62.3914,438.0,4294970000,50,4.67485e-39,898,127.725,4.80843,192,3.8,7.4,,0.617072,-62.3914
2026-01-15,08:39:05,1157849481,403489676,525980,569.534,0.591528,-0.815264,0.00665245,0.876419,0.0455174,-0.0237297,-0.478805,0.11423,5.88408,-57.2956,438.0,4294970000,49,4.67485e-39,898,128.118,4.90638,186,3.9,7.4,,0.11423,-57.2956
2026-01-15,08:39:06,1157849385,403489727,525981,569.866,0.672687,-0.772338,0.0064996,0.897495,0.0455174,-0.0236457,-0.438031,-0.147131,5.8789,-52.0416,438.0,4294970000,49,4.67485e-39,898,123.837,5.01396,174,4.0,7.4,,-0.147131,-52.0416
2026-01-15,08:39:07,1157849295,403489785,525980,569.913,0.712008,-0.737899,-0.0022199,0.91374,0.0455581,-0.0266217,-0.402858,-0.684394,6.0111,-47.6237,438.0,4294970000,49,4.67485e-39,898,115.761,5.26187,159,4.3,7.4,,-0.684394,-47.6237
2026-01-15,08:39:08,1157849207,403489848,525985,569.915,0.725387,-0.722411,-0.00260176,0.920204,0.0446079,-0.0244786,-0.388119,-0.597322,5.80315,-45.7712,438.0,4294970000,49,4.67485e-39,898,105.662,5.46312,145,4.6,7.4,,-0.597322,-45.7712
2026-01-15,08:39:09,1157849122,403489910,525998,570.171,0.740958,-0.69593,-0.00555645,0.921612,0.0418521,-0.0258631,-0.384982,-0.885143,5.57077,-45.3896,438.0,4294970000,49,4.67485e-39,898,100.191,5.47618,138,4.7,7.4,,-0.885143,-45.3896
2026-01-15,08:39:10,1157849037,403489974,525986,570.032,0.740734,-0.689119,-0.0115847,0.921576,0.0426658,-0.0257359,-0.384988,-0.835664,5.65126,-45.39,438.0,4294970000,49,4.67485e-39,898,97.3701,5.63519,135,4.9,7.4,,-0.835664,-45.39
2026-01-15,08:39:11,1157848953,403490038,525968,569.562,0.74699,-0.688188,-0.00310471,0.921458,0.0420362,-0.026162,-0.38531,-0.906554,5.60384,-45.4324,438.0,4294970000,49,4.67485e-39,898,93.2356,5.47581,130,4.8,7.4,,-0.906554,-45.4324
2026-01-15,08:39:12,1157848869,403490103,525950,569.96,0.745123,-0.699498,-0.00264189,0.921136,0.0420875,-0.0249536,-0.386154,-0.771672,5.55633,-45.5291,438.0,4294970000,49,4.67485e-39,898,90.5223,5.44774,127,4.8,7.4,,-0.771672,-45.5291
2026-01-15,08:39:13,1157848783,403490167,525936,569.866,0.717926,-0.681894,-0.0076711,0.921984,0.0416472,-0.026482,-0.384071,-0.965035,5.57559,-45.2806,438.0,4294970000,49,4.67485e-39,898,88.8829,5.30954,125,4.7,7.4,,-0.965035,-45.2806
2026-01-15,08:39:14,1157848700,403490230,525933,569.782,0.730649,-0.702965,-0.00373597,0.92091,0.0428349,-0.0272258,-0.386456,-0.976295,5.73682,-45.5825,438.0,4294970000,49,4.67485e-39,898,87.9027,5.31312,124,4.7,7.4,,-0.976295,-45.5825
2026-01-15,08:39:15,1157848615,403490293,525936,569.732,0.727547,-0.698938,-0.00574641,0.920757,0.0445164,-0.0250432,-0.386778,-0.669363,5.81774,-45.6085,438.0,4294970000,49,4.67485e-39,898,87.8355,5.30869,124,4.7,7.4,,-0.669363,-45.6085
2026-01-15,08:39:16,1157848531,403490355,525940,569.811,0.720231,-0.691701,-0.00934785,0.921169,0.0437533,-0.0267627,-0.385768,-0.890973,5.81268,-45.4946,438.0,4294970000,49,4.67485e-39,898,91.3364,5.35437,128,4.7,7.4,,-0.890973,-45.4946
2026-01-15,08:39:17,1157848448,403490417,525935,569.897,0.735636,-0.69055,-0.010543,0.920904,0.044242,-0.0276888,-0.38628,-0.963704,5.90611,-45.5651,438.0,4294970000,49,4.67485e-39,898,92.3128,5.36535,129,4.7,7.4,,-0.963704,-45.5651
2026-01-15,08:39:18,1157848365,403490481,525918,569.631,0.748672,-0.67878,-0.0089084,0.921721,0.0452101,-0.0227228,-0.384539,-0.407864,5.78684,-45.3154,438.0,4294970000,49,4.67485e-39,898,92.6424,5.35657,129,4.7,7.4,,-0.407864,-45.3154
2026-01-15,08:39:19,1157848284,403490544,525902,569.891,0.770889,-0.63447,0.00143012,0.931781,0.0462349,-0.0277677,-0.358992,-1.06303,6.09196,-42.2005,438.0,4294970000,49,4.67485e-39,898,93.0534,5.31495,126,4.7,7.4,,-1.06303,-42.2005
2026-01-15,08:39:20,1157848210,403490608,525892,569.857,0.811125,-0.557678,-0.00518359,0.949718,0.0517768,-0.0313523,-0.3072,-1.58971,6.75727,-35.9455,438.0,4294970000,49,4.67485e-39,898,95.4235,5.3707,122,4.8,7.4,,-1.58971,-35.9455
2026-01-15,08:39:21,1157848144,403490678,525880,569.337,0.889026,-0.476043,-0.0127951,0.963797,0.0511714,-0.0330184,-0.259589,-2.12512,6.6537,-30.2743,438.0,4294970000,49,4.67485e-39,898,98.5625,5.43546,119,4.9,7.4,,-2.12512,-30.2743
2026-01-15,08:39:22,1157848088,403490755,525869,569.271,0.940066,-0.400588,-0.0079466,0.973379,0.0520341,-0.0375449,-0.220038,-2.8772,6.7754,-25.6482,438.0,4294970000,50,4.67485e-39,898,96.1096,5.92467,112,5.5,7.4,,-2.8772,-25.6482
2026-01-15,08:39:23,1157848042,403490837,525851,569.38,0.982337,-0.295505,0.0023611,0.982089,0.048825,-0.0334887,-0.178875,-2.76928,6.20094,-20.7966,437.0,4294970000,50,4.67485e-39,898,96.3223,6.52833,108,6.2,7.4,,-2.76928,-20.7966
2026-01-15,08:39:24,1157848005,403490921,525856,569.087,1.02444,-0.209235,-0.00164481,0.988791,0.049631,-0.034819,-0.136441,-3.17111,6.18989,-15.8857,437.0,4294970000,50,4.67485e-39,898,92.4981,6.67322,99,6.5,7.4,,-3.17111,-15.8857
2026-01-15,08:39:25,1157847978,403491005,525860,568.738,1.04654,-0.0913634,-0.00331291,0.994801,0.049987,-0.0376331,-0.0803494,-3.8329,6.07015,-9.4394,437.0,4294970000,50,4.67485e-39,899,81.9222,6.66176,82,6.8,7.4,,-3.8329,-9.4394
2026-01-15,08:39:26,1157847967,403491093,525869,568.512,1.05027,0.00901863,0.0027082,0.997922,0.0435536,-0.0374527,-0.0292036,-4.141,5.12641,-3.5382,437.0,4294970000,49,4.67485e-39,899,73.5402,6.31777,68,6.7,7.4,,-4.141,-3.5382
2026-01-15,08:39:27,1157847970,403491186,525891,568.437,1.05685,0.0466237,0.00315684,0.998822,0.0314762,-0.0326271,-0.0173034,-3.67477,3.6777,-2.10312,437.0,4294970000,50,4.67485e-39,898,68.4962,6.19911,62,6.7,7.4,,-3.67477,-2.10312
2026-01-15,08:39:28,1157847972,403491278,525909,568.79,1.0148,-0.00498876,-0.00270954,0.998659,0.0312493,-0.0370019,-0.0183031,-4.17287,3.66619,-2.23371,437.0,4294970000,49,4.67485e-39,899,71.2526,6.41032,65,6.8,7.4,,-4.17287,-2.23371
2026-01-15,08:39:29,1157847966,403491368,525917,568.643,0.991826,-0.0268741,-0.00118964,0.998438,0.0359244,-0.0384279,-0.0187967,-4.32368,4.20904,-2.31616,437.0,4294970000,50,4.67485e-39,898,70.6286,6.83411,65,7.2,7.4,,-4.32368,-2.31616
2026-01-15,08:39:30,1157847962,403491458,525930,568.802,0.996724,-0.0411697,0.00624587,0.998374,0.0382325,-0.03788,-0.0187737,-4.25565,4.47268,-2.32097,437.0,4294970000,49,4.67485e-39,898,69.4583,7.02698,64,7.4,7.4,,-4.25565,-2.32097
2026-01-15,08:39:31,1157847957,403491548,525942,568.73,0.994782,-0.0141877,-0.00606466,0.998471,0.0371667,-0.0358521,-0.0197445,-4.02157,4.34878,-2.41864,437.0,4294970000,50,4.67485e-39,898,69.231,7.00171,64,7.4,7.4,,-4.02157,-2.41864
2026-01-15,08:39:32,1157847951,403491636,525958,568.595,0.99505,-0.00860835,0.0044565,0.998445,0.0361708,-0.037481,-0.0198624,-4.2101,4.23934,-2.43536,437.0,4294970000,50,4.67485e-39,899,68.1627,6.97909,63,7.4,7.4,,-4.2101,-2.43536
2026-01-15,08:39:33,1157847944,403491725,525966,568.802,0.993915,-0.0472423,-0.00401939,0.998252,0.0419285,-0.0353427,-0.0220335,-3.94043,4.90341,-2.69782,437.0,4294970000,49,4.67485e-39,898,74.4519,6.91357,69,7.2,7.4,,-3.94043,-2.69782
2026-01-15,08:39:34,1157847933,403491814,525968,568.992,0.99722,-0.0210996,-0.00213436,0.998248,0.0422677,-0.0359573,-0.0205094,-4.01744,4.93814,-2.52746,437.0,4294970000,49,4.67485e-39,898,73.6867,6.77463,68,7.1,7.4,,-4.01744,-2.52746
2026-01-15,08:39:35,1157847926,403491903,525980,568.644,0.996916,-0.00143393,0.00516613,0.998313,0.0424559,-0.0338051,-0.0206468,-3.76979,4.9541,-2.53291,437.0,4294970000,49,4.67485e-39,898,74.6388,6.77132,69,7.1,7.4,,-3.76979,-2.53291
2026-01-15,08:39:36,1157847923,403491970,525976,568.904,0.0858846,-0.0177982,-0.0187528,0.999057,0.0318419,-0.022838,-0.0186795,-2.54745,3.70076,-2.22475,437.0,4294970000,49,4.67485e-39,898,65.6673,7.08172,67,7.1,7.4,,-2.54745,-2.22475
2026-01-15,08:39:37,1157847913,403491976,526005,568.755,-0.00426781,-0.0274976,0.00613778,0.998568,0.0417842,-0.0258174,-0.0211816,-2.85419,4.85611,-2.55157,437.0,4294970000,50,4.67485e-39,898,59.8218,7.12516,62,7.1,7.4,,-2.85419,-2.55157
2026-01-15,08:39:38,1157847901,403491969,526030,569.024,-0.0145071,0.0059347,0.000888114,0.99803,0.0489491,-0.0330478,-0.0211493,-3.66368,5.69964,-2.61055,438.0,4294970000,49,4.67485e-39,898,58.7086,6.70239,61,6.7,7.4,,-3.66368,-2.61055
2026-01-15,08:39:39,1157847893,403491964,526045,569.081,0.0209697,0.0503903,0.00218942,0.998038,0.0494767,-0.032682,-0.0200851,-3.62654,5.75531,-2.48831,438.0,4294970000,49,4.67485e-39,898,63.9173,6.34565,66,6.4,7.4,,-3.62654,-2.48831
2026-01-15,08:39:40,1157847893,403491964,526048,568.971,0.0168895,0.061108,0.000602148,0.998172,0.047631,-0.0311792,-0.0203062,-3.45786,5.53978,-2.49837,438.0,4294970000,50,4.67485e-39,898,62.7959,6.73829,65,6.8,7.4,,-3.45786,-2.49837
2026-01-15,08:39:41,1157847894,403491963,526040,569.03,0.0332375,0.0661723,-0.000908747,0.997901,0.050695,-0.0346568,-0.0205586,-3.84679,5.90281,-2.55903,438.0,4294970000,49,4.67485e-39,898,69.9708,6.82705,72,6.9,7.4,,-3.84679,-2.55903
2026-01-15,08:39:42,1157847897,403491966,526030,568.949,0.0447944,0.0736784,0.00312667,0.998129,0.0491199,-0.0300028,-0.0206177,-3.31768,5.70848,-2.53232,439.0,4294970000,49,4.67485e-39,898,83.1115,6.92147,85,7.0,7.4,,-3.31768,-2.53232
2026-01-15,08:39:43,1157847900,403491968,526020,568.928,0.021231,0.0539257,-0.00136937,0.998377,0.0451184,-0.0284632,-0.0199178,-3.1552,5.24239,-2.43046,439.0,4294970000,50,4.67485e-39,898,77.9652,6.84324,80,6.9,7.4,,-3.1552,-2.43046
2026-01-15,08:39:44,1157847913,403491995,525996,569.097,-0.00350757,-0.0167827,0.00160529,0.847284,0.0367648,-0.0322834,-0.528881,-0.906409,5.53581,-63.994,440.0,4294970000,50,4.67485e-39,898,24.8006,6.50986,88,6.5,7.4,,-0.906409,-63.994
2026-01-15,08:39:45,1157847844,403492037,526005,567.452,0.0165774,-0.0402801,-0.00802061,0.29665,0.0368907,0.0280828,-0.95386,4.99364,-1.82289,-145.539,440.0,4294970000,49,4.67485e-39,899,112.63,5.9439,258,5.9,7.4,,4.99364,-145.539
2026-01-15,08:39:46,1157847820,403492036,526045,567.424,-0.140178,0.0163294,0.0123256,0.259739,-0.00149479,0.0284177,-0.965259,0.68055,-3.1899,-149.908,441.0,4294970000,50,4.67485e-39,899,66.8841,6.43807,218,6.4,7.4,,0.68055,-149.908
2026-01-15,08:39:47,1157847801,403491991,526097,568.055,-1.40855,-0.634086,-0.0266369,0.260406,-0.0543894,0.00105751,-0.963965,-5.98775,-1.74976,-149.685,440.0,4294970000,49,4.67485e-39,898,46.5799,8.19857,201,6.8,7.4,,-5.98775,-149.685
2026-01-15,08:39:48,1157847707,403491841,526007,568.356,-1.72208,-0.859205,0.0016496,0.25412,0.0513295,0.0258931,-0.965462,6.44685,-1.37889,-150.596,440.0,4294970000,49,4.67485e-39,898,155.759,6.331,318,7.7,7.4,,6.44685,-150.596
2026-01-15,08:39:49,1157847621,403491710,525946,567.584,-0.409222,-0.174332,-0.0149836,0.255553,0.097884,0.0369405,-0.961117,11.9496,-1.22881,-150.36,440.0,4294970000,50,4.67485e-39,899,168.373,6.91294,326,7.3,7.4,,11.9496,-150.36
2026-01-15,08:39:50,1157847611,403491688,525568,567.406,0.142645,0.0664876,-1.83884,0.259813,0.053308,0.0304573,-0.963705,6.81025,-1.78941,-149.941,440.0,4294970000,49,4.67485e-39,899,170.221,7.51671,327,7.3,7.4,,6.81025,-149.941
2026-01-15,08:39:51,1157847619,403491705,523063,567.095,0.284891,0.201806,-3.33822,0.255353,0.0244831,0.0132015,-0.966448,3.09945,-0.746784,-150.431,440.0,4294970000,49,4.67485e-39,899,157.941,8.34342,324,7.5,7.4,,3.09945,-150.431
2026-01-15,08:39:52,1157847634,403491737,519759,564.909,0.23071,0.138299,-3.16865,0.256353,0.0106021,0.0189563,-0.966339,1.73126,-1.7889,-150.323,439.0,4294970000,49,4.67485e-39,900,155.738,8.50555,318,7.7,7.4,,1.73126,-150.323
2026-01-15,08:39:53,1157847647,403491759,516685,561.851,0.0166067,-0.0417274,-2.14148,0.25651,-0.00285906,0.0110629,-0.966474,0.00854253,-1.30946,-150.283,439.0,4294970000,49,4.67485e-39,900,158.131,7.95374,316,7.6,7.4,,0.00854253,-150.283
2026-01-15,08:39:54,1157847643,403491758,515391,558.837,0.120496,0.0412887,0.222399,0.151602,0.0205657,0.0123132,-0.988151,2.54367,-1.03815,-162.59,439.0,4294970000,49,4.67485e-39,901,153.948,7.89718,316,7.8,7.4,,2.54367,-162.59
2026-01-15,08:39:55,1157847604,403491712,515599,557.955,0.112019,-0.215796,0.0905181,0.591297,-0.00655182,-0.019981,0.80618,-0.748677,-2.29079,107.506,439.0,4294970000,49,4.67485e-39,899,74.6009,8.87414,326,8.7,7.4,,-0.748677,107.506
2026-01-15,08:39:56,1157847635,403491671,515661,557.822,-0.0355617,-0.190923,0.0141063,0.931839,0.0249571,-0.0503587,0.358492,-6.41646,0.600012,42.0544,439.0,4294970000,50,4.67485e-39,900,23.5908,9.50381,340,9.4,7.4,,-6.41646,42.0544
2026-01-15,08:39:57,1157847634,403491670,515779,557.693,0.290341,0.350729,0.1152,0.927325,0.0529617,-0.0969213,0.357589,-12.5709,1.69744,41.9907,439.0,4294970000,49,4.67485e-39,899,61.651,9.63771,18,10.1,7.3,,-12.5709,41.9907
2026-01-15,08:39:58,1157847708,403491720,515878,558.194,0.791479,0.882341,0.102057,0.93027,0.0301254,-0.0456694,0.362774,-6.1329,1.32065,42.5406,440.0,4294970000,50,4.67485e-39,900,99.9043,9.61973,52,10.4,7.3,,-6.1329,42.5406
2026-01-15,08:39:59,1157847814,403491795,515951,557.786,0.83786,0.857788,0.0399702,0.92936,0.0247467,-0.0406668,0.366093,-5.37732,0.933641,42.9602,440.0,4294970000,50,4.67485e-39,900,111.002,10.0425,62,10.6,7.3,,-5.37732,42.9602
2026-01-15,08:40:00,1157847915,403491871,515983,558.191,0.786571,0.758139,0.039631,0.929952,0.0235751,-0.0372621,0.365028,-4.96352,0.957338,42.824,439.0,4294970000,49,4.67485e-39,899,114.212,10.7828,66,11.2,7.3,,-4.96352,42.824
2026-01-15,08:40:01,1157848001,403491941,516006,558.02,0.74976,0.679889,0.0128519,0.92942,0.0275399,-0.0399526,0.365818,-5.41804,1.26415,42.9124,439.0,4294970000,49,4.67485e-39,900,113.988,10.8428,66,11.2,7.3,,-5.41804,42.9124
2026-01-15,08:40:02,1157848082,403492009,516000,558.024,0.733562,0.694239,0.0201043,0.929541,0.0252165,-0.0408165,0.365584,-5.41251,0.980569,42.8958,439.0,4294970000,50,4.67485e-39,899,113.954,10.7225,66,11.1,7.3,,-5.41251,42.8958
2026-01-15,08:40:03,1157848163,403492075,516008,558.189,0.726969,0.688678,0.00874234,0.928971,0.025184,-0.0395747,0.367168,-5.28028,1.02027,43.0881,439.0,4294970000,50,4.67485e-39,900,114.149,10.629,66,11.0,7.3,,-5.28028,43.0881
2026-01-15,08:40:04,1157848238,403492139,516018,558.287,0.717952,0.69956,-0.00235679,0.928812,0.0255757,-0.0440793,0.36703,-5.77743,0.872744,43.0832,438.0,4294970000,50,4.67485e-39,900,114.089,10.7158,66,11.1,7.4,,-5.77743,43.0832
2026-01-15,08:40:05,1157848317,403492204,516012,558.302,0.729482,0.710485,-0.00113164,0.929137,0.0268839,-0.0427989,0.366264,-5.69499,1.07148,42.9784,438.0,4294970000,50,4.67485e-39,900,113.038,10.6924,65,11.1,7.4,,-5.69499,42.9784
2026-01-15,08:40:06,1157848397,403492272,515998,558.083,0.736833,0.69243,0.00864194,0.929175,0.0280108,-0.0412904,0.366259,-5.58127,1.25565,42.9683,438.0,4294970000,50,4.67485e-39,900,112.987,10.8109,65,11.2,7.4,,-5.58127,42.9683
2026-01-15,08:40:07,1157848478,403492339,515988,557.918,0.729806,0.689426,0.00286348,0.929061,0.0270361,-0.0406166,0.366694,-5.46891,1.17715,43.0246,438.0,4294970000,49,4.67485e-39,900,114.069,10.7288,66,11.1,7.4,,-5.46891,43.0246
2026-01-15,08:40:08,1157848563,403492406,515979,558.046,0.723744,0.690967,0.00404921,0.929086,0.0246489,-0.0364199,0.36724,-4.92116,1.0958,43.0909,438.0,4294970000,50,4.67485e-39,899,114.129,10.6256,66,11.0,7.4,,-4.92116,43.0909
2026-01-15,08:40:09,1157848641,403492472,515981,558.235,0.7185,0.674517,-0.00747271,0.928731,0.0284946,-0.040833,0.367396,-5.55438,1.31985,43.1056,438.0,4294970000,49,4.67485e-39,900,114.213,10.4411,66,10.8,7.4,,-5.55438,43.1056
2026-01-15,08:40:10,1157848720,403492538,515986,557.922,0.715261,0.707782,-0.00193427,0.928971,0.0254582,-0.0391182,0.367199,-5.24315,1.06867,43.0896,438.0,4294970000,50,4.67485e-39,899,114.229,10.4082,66,10.8,7.4,,-5.24315,43.0896
2026-01-15,08:40:11,1157848799,403492603,515992,557.949,0.716869,0.699752,-0.00339056,0.929212,0.0279534,-0.0411192,0.366188,-5.56048,1.25714,42.9594,438.0,4294970000,49,4.67485e-39,900,114.108,10.4147,66,10.8,7.4,,-5.56048,42.9594
2026-01-15,08:40:12,1157848880,403492668,516001,557.99,0.718841,0.725631,-0.000986376,0.929288,0.0267075,-0.0414456,0.366049,-5.54281,1.11091,42.9486,438.0,4294970000,50,4.67485e-39,899,114.157,10.3914,66,10.8,7.4,,-5.54281,42.9486
2026-01-15,08:40:13,1157848962,403492733,516000,558.37,0.714816,0.708651,-0.0114505,0.928648,0.0291164,-0.0424924,0.367368,-5.75767,1.31647,43.1039,438.0,4294970000,49,4.67485e-39,900,114.278,10.409,66,10.8,7.4,,-5.75767,43.1039
2026-01-15,08:40:14,1157849046,403492798,515987,557.996,0.709427,0.712761,-0.00812732,0.927841,0.0275768,-0.0395812,0.369843,-5.38543,1.26031,43.409,438.0,4294970000,49,4.67485e-39,900,114.462,10.6066,66,11.0,7.4,,-5.38543,43.409
2026-01-15,08:40:15,1157849127,403492862,515969,558.002,0.665255,0.75842,-0.00322552,0.918861,0.0271368,-0.038688,0.391741,-5.29973,1.12558,46.1317,438.0,4294970000,50,4.67485e-39,900,117.108,10.6899,66,11.1,7.4,,-5.29973,46.1317
2026-01-15,08:40:16,1157849207,403492921,515955,557.937,0.616939,0.799797,-0.00585486,0.903676,0.0319621,-0.0391967,0.42522,-5.62581,1.40688,50.3328,438.0,4294970000,49,4.67485e-39,900,120.274,10.7835,65,11.2,7.4,,-5.62581,50.3328
2026-01-15,08:40:17,1157849292,403492976,515941,557.994,0.56524,0.869906,-0.00205495,0.887283,0.0306653,-0.0417485,0.458308,-5.86594,0.930315,54.5918,438.0,4294970000,49,4.67485e-39,900,123.55,10.8493,64,11.3,7.4,,-5.86594,54.5918
2026-01-15,08:40:18,1157849387,403493027,515919,558.392,0.505789,0.900239,-0.00660463,0.87257,0.0289885,-0.0398024,0.486001,-5.60357,0.685222,58.2043,438.0,4294970000,49,4.67485e-39,900,126.024,10.9329,63,11.4,7.4,,-5.60357,58.2043
2026-01-15,08:40:19,1157849490,403493072,515907,558.582,0.459811,0.93036,-0.00439653,0.858479,0.025295,-0.0414324,0.510546,-5.56491,0.0647128,61.4822,438.0,4294970000,49,4.67485e-39,900,127.139,11.1004,61,11.6,7.4,,-5.56491,61.4822
2026-01-15,08:40:20,1157849595,403493114,515893,558.197,0.415613,0.94649,-0.00595372,0.844421,0.0256778,-0.0383647,0.533687,-5.29056,0.139046,64.5853,438.0,4294970000,49,4.67485e-39,900,128.071,11.2778,59,11.8,7.4,,-5.29056,64.5853
2026-01-15,08:40:21,1157849702,403493151,515888,558.21,0.35554,0.965051,-0.00325665,0.829467,0.0224014,-0.0400528,0.556667,-5.24369,-0.427511,67.7567,438.0,4294970000,49,4.67485e-39,900,129.014,11.4428,57,12.0,7.4,,-5.24369,67.7567
2026-01-15,08:40:22,1157849809,403493184,515889,558.355,0.309596,0.966077,-0.00392065,0.813968,0.0249806,-0.0390719,0.579055,-5.30996,-0.263729,70.8734,438.0,4294970000,49,4.67485e-39,899,131.057,11.4452,56,12.0,7.4,,-5.30996,70.8734
2026-01-15,08:40:23,1157849920,403493212,515898,557.82,0.236556,0.972114,-0.00469891,0.79623,0.0240988,-0.0404189,0.603162,-5.36173,-0.597512,74.323,439.0,4294970000,49,4.67485e-39,900,131.222,11.4988,53,12.1,7.4,,-5.36173,74.323
2026-01-15,08:40:24,1157850031,403493233,515911,558.34,0.161923,0.993538,-0.0119821,0.774493,0.024629,-0.0408087,0.630784,-5.41047,-0.767423,78.3641,439.0,4294970000,49,4.67485e-39,900,133.054,11.7613,51,12.4,7.3,,-5.41047,78.3641
2026-01-15,08:40:25,1157850143,403493247,515902,558.393,0.0886623,1.00802,-0.00471756,0.75033,0.0227334,-0.0434284,0.659244,-5.46006,-1.33236,82.6751,439.0,4294970000,49,4.67485e-39,900,135.257,11.7307,49,12.4,7.3,,-5.46006,82.6751
2026-01-15,08:40:26,1157850258,403493255,515904,558.385,0.0421633,1.01108,-0.00350647,0.733007,0.0206154,-0.0437872,0.678498,-5.28871,-1.68036,85.6609,439.0,4294970000,50,4.67485e-39,900,136.134,11.708,47,12.4,7.3,,-5.28871,85.6609
2026-01-15,08:40:27,1157850376,403493258,515892,558.265,0.0498655,1.01211,0.000759894,0.730008,0.0193267,-0.0451205,0.681674,-5.29206,-1.91648,86.173,439.0,4294970000,50,4.67485e-39,899,134.644,11.4933,45,12.2,7.3,,-5.29206,86.173
2026-01-15,08:40:28,1157850493,403493263,515896,558.044,0.0493644,0.989917,0.000416377,0.729997,0.0196437,-0.0455513,0.681647,-5.353,-1.92373,86.173,439.0,4294970000,49,4.67485e-39,900,133.449,11.6959,44,12.4,7.3,,-5.353,86.173
2026-01-15,08:40:29,1157850609,403493268,515909,558.163,0.0449419,1.01253,-0.00305266,0.729743,0.0191742,-0.0465296,0.681867,-5.39749,-2.04188,86.2176,440.0,4294970000,50,4.67485e-39,899,132.493,11.6646,43,12.4,7.3,,-5.39749,86.2176
2026-01-15,08:40:30,1157850727,403493274,515918,558.017,0.0517692,1.00898,0.00418826,0.729756,0.0196196,-0.0460051,0.681876,-5.38848,-1.96324,86.2135,440.0,4294970000,50,4.67485e-39,900,132.477,11.7714,43,12.5,7.3,,-5.38848,86.2135
2026-01-15,08:40:31,1157850845,403493281,515918,558.565,0.0478018,1.0119,0.000705971,0.728884,0.0214643,-0.046561,0.682715,-5.57739,-1.85911,86.3504,440.0,4294970000,50,4.67485e-39,899,132.593,11.8685,43,12.6,7.3,,-5.57739,86.3504
2026-01-15,08:40:32,1157850964,403493285,515923,557.99,0.0450269,1.01821,-0.00120012,0.729582,0.0194625,-0.0467,0.682019,-5.43391,-2.03234,86.2432,440.0,4294970000,50,4.67485e-39,899,132.484,11.8604,43,12.6,7.3,,-5.43391,86.2432
2026-01-15,08:40:33,1157851084,403493291,515920,558.324,0.0419567,1.01348,2.0301e-05,0.729499,0.0167472,-0.0461396,0.682218,-5.17365,-2.2168,86.27,440.0,4294970000,50,4.67485e-39,900,132.452,11.9615,43,12.7,7.3,,-5.17365,86.27
2026-01-15,08:40:34,1157851204,403493297,515933,557.892,0.0152967,1.00735,-0.00657727,0.722382,0.0202331,-0.0446061,0.689757,-5.29961,-1.85922,87.4455,440.0,4294970000,50,4.67485e-39,899,133.62,11.8634,43,12.6,7.3,,-5.29961,87.4455
2026-01-15,08:40:35,1157851320,403493299,515946,558.234,-0.0790365,1.00978,-0.00727005,0.693824,0.0190555,-0.0445108,0.718515,-5.11501,-2.15907,92.1064,440.0,4294970000,50,4.67485e-39,899,138.212,11.9504,43,12.7,7.3,,-5.11501,92.1064
2026-01-15,08:40:36,1157851433,403493295,515945,558.254,-0.181411,0.990908,-0.0116846,0.654814,0.0206678,-0.0431028,0.754277,-5.02748,-2.18379,98.1783,440.0,4294970000,50,4.67485e-39,899,143.2,11.9446,42,12.7,7.3,,-5.02748,98.1783
2026-01-15,08:40:37,1157851546,403493280,515938,558.514,-0.305108,0.984186,-0.0145619,0.61388,0.0172224,-0.0448816,0.787934,-4.71791,-2.85192,104.281,440.0,4294970000,50,4.67485e-39,900,147.102,12.1939,40,13.0,7.3,,-4.71791,104.281
2026-01-15,08:40:38,1157851657,403493254,515917,558.414,-0.413986,0.942259,-0.00560645,0.575248,0.0119228,-0.045926,0.816602,-4.14698,-3.52332,109.811,440.0,4294970000,49,4.67485e-39,900,149.373,12.0503,37,12.9,7.3,,-4.14698,109.811
2026-01-15,08:40:39,1157851761,403493223,515882,558.488,-0.487037,0.901219,-0.00650277,0.535617,0.0104945,-0.0471964,0.843076,-3.91398,-3.92801,115.286,440.0,4294970000,50,4.67485e-39,899,152.74,12.0417,35,12.9,7.3,,-3.91398,115.286
2026-01-15,08:40:40,1157851862,403493183,515863,558.599,-0.565441,0.863636,-0.00718559,0.495999,0.0076022,-0.0478933,0.866968,-3.47978,-4.33843,120.592,440.0,4294970000,49,4.67485e-39,900,153.83,11.9011,31,12.8,7.3,,-3.47978,120.592
2026-01-15,08:40:41,1157851959,403493134,515859,558.745,-0.635752,0.810381,0.00303557,0.457714,0.00255464,-0.0485457,0.88777,-2.80744,-4.8164,125.578,440.0,4294970000,49,4.67485e-39,899,156.698,11.6859,29,12.6,7.3,,-2.80744,125.578
2026-01-15,08:40:42,1157852051,403493080,515868,558.717,-0.700507,0.742728,0.0061466,0.413494,0.00518708,-0.0494047,0.90915,-2.88276,-4.91384,131.22,440.0,4294970000,49,4.67485e-39,899,158.118,11.2657,25,12.2,7.3,,-2.88276,131.22
2026-01-15,08:40:43,1157852137,403493020,515891,558.816,-0.755554,0.679495,0.00324888,0.366806,0.000306156,-0.0458892,0.929165,-1.96198,-4.88228,137.009,440.0,4294970000,49,4.67485e-39,900,159.744,10.8499,21,11.8,7.3,,-1.96198,137.009
2026-01-15,08:40:44,1157852215,403492953,515904,558.786,-0.823478,0.614794,-0.00274716,0.316411,-0.00459414,-0.0435084,0.947613,-1.0788,-4.89827,143.128,440.0,4294970000,49,4.67485e-39,899,163.755,11.0321,19,12.0,7.3,,-1.0788,143.128
2026-01-15,08:40:45,1157852286,403492881,515900,558.365,-0.839352,0.552645,0.00348423,0.282043,-0.0076731,-0.0416186,0.958468,-0.502392,-4.82531,147.237,440.0,4294970000,49,4.67485e-39,899,162.472,11.0302,14,12.0,7.3,,-0.502392,147.237
2026-01-15,08:40:46,1157852350,403492809,515909,558.361,-0.832607,0.515236,0.000982607,0.272831,-0.0042401,-0.039196,0.961254,-0.758454,-4.45527,148.35,440.0,4294970000,49,4.67485e-39,899,159.172,11.3372,10,12.3,7.3,,-0.758454,148.35
2026-01-15,08:40:47,1157852410,403492734,515902,558.578,-0.840753,0.512714,0.00696577,0.272175,-0.00282821,-0.0417136,0.961339,-0.989565,-4.68971,148.436,440.0,4294970000,49,4.67485e-39,899,157.076,11.2251,8,12.2,7.3,,-0.989565,148.436
2026-01-15,08:40:48,1157852470,403492657,515906,558.962,-0.857295,0.504488,0.00534727,0.27014,-0.00500622,-0.0445549,0.961777,-0.827577,-5.07296,148.67,441.0,4294970000,50,4.67485e-39,899,154.002,11.2081,5,12.2,7.3,,-0.827577,148.67
2026-01-15,08:40:49,1157852529,403492578,515899,558.783,-0.861644,0.511744,0.0123537,0.271465,-0.00658114,-0.0451606,0.961366,-0.679895,-5.18764,148.505,440.0,4294970000,49,4.67485e-39,899,153.854,11.0007,5,12.0,7.3,,-0.679895,148.505
2026-01-15,08:40:50,1157852591,403492501,515910,558.918,-0.86588,0.519382,0.00779582,0.27147,-0.00916413,-0.0444648,0.961376,-0.373678,-5.19116,148.491,440.0,4294970000,50,4.67485e-39,899,153.864,10.9936,5,12.0,7.3,,-0.373678,148.491
2026-01-15,08:40:51,1157852654,403492429,515909,558.585,-0.857354,0.519953,0.00963632,0.271994,-0.00333901,-0.0403776,0.961446,-0.890728,-4.5583,148.454,440.0,4294970000,50,4.67485e-39,899,153.848,11.0009,5,12.0,7.3,,-0.890728,148.454
2026-01-15,08:40:52,1157852717,403492352,515915,558.409,-0.869942,0.527748,0.00500807,0.272234,-0.00511325,-0.0416802,0.961314,-0.737053,-4.75715,148.418,440.0,4294970000,50,4.67485e-39,899,152.721,11.1847,4,12.2,7.3,,-0.737053,148.418
2026-01-15,08:40:53,1157852780,403492275,515910,559.194,-0.871164,0.522878,0.00728664,0.271881,-0.0074762,-0.0407539,0.961438,-0.446063,-4.72874,148.449,440.0,4294970000,50,4.67485e-39,899,152.738,10.9859,4,12.0,7.3,,-0.446063,148.449
2026-01-15,08:40:54,1157852844,403492198,515907,558.943,-0.879065,0.508336,-0.000841064,0.272922,-0.00893147,-0.0405546,0.96114,-0.28465,-4.7518,148.318,440.0,4294970000,49,4.67485e-39,899,153.597,10.9864,5,12.0,7.3,,-0.28465,148.318
2026-01-15,08:40:55,1157852907,403492124,515916,558.602,-0.8963,0.493024,0.0113643,0.269992,-0.00582471,-0.0399318,0.962016,-0.593388,-4.58773,148.681,440.0,4294970000,50,4.67485e-39,899,153.885,10.8781,5,11.9,7.3,,-0.593388,148.681
2026-01-15,08:40:56,1157852969,403492049,515917,558.593,-0.932252,0.461791,0.00446956,0.250055,-0.00480023,-0.034632,0.9676,-0.460146,-3.98113,151.048,440.0,4294970000,50,4.67485e-39,899,155.157,10.96,4,12.0,7.3,,-0.460146,151.048
2026-01-15,08:40:57,1157853025,403491970,515916,558.921,-0.979251,0.389017,0.00627677,0.211468,-0.0071754,-0.033387,0.976788,-0.00589275,-3.91427,155.58,440.0,4294970000,50,4.67485e-39,899,158.583,10.9463,3,12.0,7.3,,-0.00589275,155.58
2026-01-15,08:40:58,1157853072,403491889,515909,558.72,-1.00997,0.296209,0.00202072,0.167586,-0.00949136,-0.0307641,0.985332,0.480927,-3.65875,160.691,439.0,4294970000,50,4.67485e-39,899,160.381,10.7491,0,11.8,7.3,,0.480927,160.691
2026-01-15,08:40:59,1157853107,403491803,515909,559.026,-1.01019,0.208652,0.0121692,0.128539,-0.0111962,-0.0307914,0.991163,0.818195,-3.66531,165.208,439.0,4294970000,50,4.67485e-39,900,162.675,10.4733,358,11.5,7.3,,0.818195,165.208
2026-01-15,08:41:00,1157853131,403491715,515912,558.362,-1.01718,0.132938,0.00658606,0.0938094,-0.0117556,-0.0294286,0.995086,1.02425,-3.48503,169.21,439.0,4294970000,50,4.67485e-39,899,164.455,10.3836,356,11.4,7.3,,1.02425,169.21
2026-01-15,08:41:01,1157853146,403491626,515905,558.098,-0.999689,0.0724238,0.008378,0.0583391,-0.0113472,-0.0297449,0.997789,1.09871,-3.47987,173.287,439.0,4294970000,49,4.67485e-39,899,164.232,10.1165,352,11.1,7.3,,1.09871,173.287
2026-01-15,08:41:02,1157853154,403491538,515912,558.254,-1.018,0.0067829,0.0128086,0.0234608,-0.0164319,-0.0304384,0.999126,1.79991,-3.53335,177.267,439.0,4294970000,50,4.67485e-39,899,163.759,9.81738,348,10.8,7.3,,1.79991,177.267
2026-01-15,08:41:03,1157853155,403491448,515908,558.464,-1.00563,-0.0580812,0.00343007,0.00993949,0.0181243,0.0276777,-0.999403,2.1078,-3.15304,-178.932,440.0,4294970000,49,4.67485e-39,899,165.359,9.63718,346,10.6,7.3,,2.1078,-178.932
2026-01-15,08:41:04,1157853149,403491358,515921,558.262,-1.00022,-0.14274,0.00940327,0.0465389,0.0207037,0.0271476,-0.998333,2.51428,-2.99977,-174.741,440.0,4294970000,49,4.67485e-39,900,166.104,9.45643,343,10.4,7.3,,2.51428,-174.741
2026-01-15,08:41:05,1157853133,403491271,515945,558.297,-0.982106,-0.218472,0.00903839,0.0912834,0.0228939,0.025026,-0.995247,2.87418,-2.61906,-169.597,440.0,4294970000,49,4.67485e-39,900,167.808,8.87682,340,9.8,7.3,,2.87418,-169.597
2026-01-15,08:41:06,1157853108,403491185,515952,557.766,-0.952367,-0.311038,0.0104914,0.134944,0.0256093,0.0250324,-0.990206,3.29502,-2.44937,-164.562,440.0,4294970000,49,4.67485e-39,900,169.307,8.60871,337,9.5,7.3,,3.29502,-164.562
2026-01-15,08:41:07,1157853075,403491102,515965,557.899,-0.92474,-0.362208,0.00530121,0.173091,0.0227525,0.022614,-0.984383,3.01669,-2.10316,-160.122,439.0,4294970000,49,4.67485e-39,900,168.262,8.05099,332,8.9,7.3,,3.01669,-160.122
2026-01-15,08:41:08,1157853032,403491019,515973,557.699,-0.908748,-0.401612,-0.00423606,0.185756,0.0268688,0.0268322,-0.981862,3.59687,-2.4528,-158.663,439.0,4294970000,49,4.67485e-39,900,167.211,7.68079,330,8.5,7.3,,3.59687,-158.663
2026-01-15,08:41:09,1157852988,403490938,515987,557.329,-0.915578,-0.391221,0.00965937,0.186293,0.0226634,0.0269141,-0.981864,3.12626,-2.5492,-158.595,439.0,4294970000,49,4.67485e-39,900,166.334,7.68148,329,8.5,7.3,,3.12626,-158.595
2026-01-15,08:41:10,1157852943,403490856,516000,557.578,-0.910775,-0.379143,0.00378453,0.184464,0.0235044,0.0257753,-0.98222,3.19224,-2.4089,-158.806,439.0,4294970000,49,4.67485e-39,900,167.263,7.67542,330,8.5,7.3,,3.19224,-158.806
2026-01-15,08:41:11,1157852898,403490773,516018,557.414,-0.927244,-0.387245,0.00112471,0.184941,0.0244977,0.0268084,-0.982078,3.32718,-2.50298,-158.755,439.0,4294970000,49,4.67485e-39,900,166.143,7.67077,329,8.5,7.3,,3.32718,-158.755
2026-01-15,08:41:12,1157852853,403490688,516029,557.385,-0.938716,-0.382472,0.00619426,0.184996,0.0240123,0.0267152,-0.982083,3.27066,-2.5025,-158.747,439.0,4294970000,50,4.67485e-39,900,165.08,7.66899,328,8.5,7.3,,3.27066,-158.747
2026-01-15,08:41:13,1157852811,403490604,516033,557.525,-0.925126,-0.383246,0.00262191,0.184927,0.0250884,0.0264632,-0.982075,3.3864,-2.45165,-158.756,440.0,4294970000,50,4.67485e-39,900,164.096,7.89256,327,8.7,7.3,,3.3864,-158.756
2026-01-15,08:41:14,1157852766,403490521,516025,557.6,-0.924303,-0.391705,0.00603875,0.185536,0.0249303,0.0289077,-0.981896,3.42197,-2.72866,-158.693,440.0,4294970000,50,4.67485e-39,900,163.1,8.00565,326,8.8,7.3,,3.42197,-158.693
2026-01-15,08:41:15,1157852723,403490438,516018,557.476,-0.917568,-0.388658,-0.001582,0.185649,0.0242297,0.0266527,-0.981956,3.29549,-2.48869,-158.671,440.0,4294970000,49,4.67485e-39,900,164.284,8.09969,327,8.9,7.3,,3.29549,-158.671
2026-01-15,08:41:16,1157852678,403490355,515997,557.338,-0.899351,-0.422799,-0.000808626,0.205795,0.0271374,0.0232133,-0.977943,3.59117,-1.9658,-156.306,440.0,4294970000,50,4.67485e-39,900,166.555,8.10077,327,8.9,7.3,,3.59117,-156.306
2026-01-15,08:41:17,1157852633,403490276,515985,557.291,-0.869159,-0.494347,0.0049172,0.245622,0.0259008,0.0158892,-0.968889,3.325,-1.03699,-151.591,440.0,4294970000,50,4.67485e-39,900,169.916,7.90517,326,8.7,7.3,,3.325,-151.591
2026-01-15,08:41:18,1157852582,403490201,515974,557.576,-0.807309,-0.581817,-0.000116064,0.291852,0.0264044,0.0115069,-0.95603,3.27955,-0.378203,-146.069,441.0,4294970000,50,4.67485e-39,900,170.636,7.46433,322,8.2,7.3,,3.27955,-146.069
2026-01-15,08:41:19,1157852519,403490131,515988,557.488,-0.75067,-0.669729,0.00436204,0.334865,0.0266032,0.0106932,-0.94183,3.28353,-0.133468,-140.869,441.0,4294970000,50,4.67485e-39,900,172.96,6.99418,320,7.7,7.3,,3.28353,-140.869
2026-01-15,08:41:20,1157852444,403490064,516002,557.998,-0.697634,-0.742203,-0.00256002,0.369084,0.0295515,0.0116921,-0.928852,3.64265,0.00536888,-136.669,441.0,4294970000,50,4.67485e-39,900,170.134,6.58462,314,7.2,7.3,,3.64265,-136.669
2026-01-15,08:41:21,1157852363,403490001,516010,558.122,-0.648559,-0.780846,0.000911796,0.400983,0.0295961,0.0082284,-0.915571,3.48562,0.497587,-132.692,441.0,4294970000,49,4.67485e-39,900,168.472,6.35793,309,6.9,7.3,,3.48562,-132.692
2026-01-15,08:41:22,1157852276,403489942,516024,558.028,-0.597128,-0.817996,0.000129678,0.434519,0.0295399,0.00482704,-0.900165,3.28948,0.974666,-128.447,441.0,4294970000,50,4.67485e-39,900,172.246,6.15073,309,6.7,7.3,,3.28948,-128.447
2026-01-15,08:41:23,1157852184,403489888,516046,558.123,-0.542309,-0.855533,0.00295379,0.466776,0.0312396,0.00226528,-0.883821,3.28711,1.44417,-124.288,441.0,4294970000,50,4.67485e-39,900,170.406,5.729,304,6.2,7.3,,3.28711,-124.288
2026-01-15,08:41:24,1157852086,403489838,516062,558.111,-0.477782,-0.910731,0.00447998,0.500965,0.0354106,0.000322145,-0.864743,3.5299,2.00523,-119.778,441.0,4294970000,50,4.67485e-39,900,169.663,5.39902,300,5.8,7.3,,3.5299,-119.778
2026-01-15,08:41:25,1157851985,403489794,516080,557.935,-0.388947,-0.960474,-0.00206951,0.53802,0.0392008,-0.00382008,-0.842011,3.54939,2.79208,-114.767,441.0,4294970000,50,4.67485e-39,900,171.365,5.14716,298,5.5,7.3,,3.54939,-114.767
2026-01-15,08:41:26,1157851878,403489759,516094,558.065,-0.268966,-0.992481,-0.00573546,0.577186,0.0372829,-0.00675917,-0.815733,3.03966,3.10385,-109.362,441.0,4294970000,49,4.67485e-39,900,166.281,4.95903,288,5.1,7.3,,3.03966,-109.362
2026-01-15,08:41:27,1157851766,403489733,516099,557.872,-0.207875,-1.01295,-0.000550692,0.609885,0.0374585,-0.0045063,-0.791591,3.08463,3.03268,-104.701,441.0,4294970000,49,4.67485e-39,899,168.302,4.77984,286,4.9,7.3,,3.08463,-104.701
2026-01-15,08:41:28,1157851649,403489713,516103,557.526,-0.18251,-1.01213,0.000634402,0.622075,0.0384025,-0.00276932,-0.78201,3.24588,2.99205,-102.92,441.0,4294970000,49,4.67485e-39,900,170.012,4.77287,286,4.9,7.3,,3.24588,-102.92
2026-01-15,08:41:29,1157851530,403489694,516123,557.719,-0.194436,-0.99678,0.00227859,0.621586,0.0388194,-0.00386295,-0.782374,3.20705,3.11802,-102.987,441.0,4294970000,49,4.67485e-39,899,170.036,4.76007,286,4.9,7.3,,3.20705,-102.987
2026-01-15,08:41:30,1157851413,403489674,516134,557.786,-0.197334,-0.984524,-0.000923486,0.6215,0.0382659,-0.00419332,-0.782468,3.13423,3.10764,-103.004,441.0,4294970000,49,4.67485e-39,899,163.844,4.56696,280,4.6,7.3,,3.13423,-103.004
2026-01-15,08:41:31,1157851297,403489654,516140,557.458,-0.202574,-0.97205,0.00013951,0.621468,0.0400244,-0.00444026,-0.782404,3.27427,3.25574,-102.994,440.0,4294970000,49,4.67485e-39,900,163.923,4.55875,280,4.6,7.3,,3.27427,-102.994
2026-01-15,08:41:32,1157851182,403489634,516161,557.64,-0.204594,-0.976563,-0.00141039,0.621541,0.0372271,-0.00336229,-0.78249,3.1003,2.95879,-103.006,440.0,4294970000,49,4.67485e-39,899,163.954,4.55768,280,4.6,7.3,,3.1003,-103.006
2026-01-15,08:41:33,1157851066,403489613,516175,557.621,-0.197629,-0.973727,0.0011501,0.6211,0.039466,-0.00358718,-0.782729,3.2866,3.13761,-103.053,440.0,4294970000,49,4.67485e-39,900,153.382,4.34542,270,4.2,7.3,,3.2866,-103.053
2026-01-15,08:41:34,1157850951,403489593,516186,557.496,-0.196469,-0.978619,0.000687677,0.620744,0.0391951,-0.00404451,-0.783023,3.23115,3.15778,-103.107,440.0,4294970000,49,4.67485e-39,900,151.134,4.28557,268,4.1,7.3,,3.23115,-103.107
2026-01-15,08:41:35,1157850836,403489572,516204,557.564,-0.20039,-0.972638,-0.00137418,0.621029,0.0393332,-0.00457285,-0.782786,3.20469,3.21627,-103.064,440.0,4294970000,49,4.67485e-39,899,151.213,4.27848,268,4.1,7.3,,3.20469,-103.064
2026-01-15,08:41:36,1157850721,403489552,516221,557.613,-0.20066,-0.977289,-0.00430821,0.620991,0.0396163,-0.00345084,-0.782808,3.31023,3.13568,-103.068,440.0,4294970000,50,4.67485e-39,900,149.932,4.19978,267,4.0,7.3,,3.31023,-103.068
2026-01-15,08:41:37,1157850606,403489531,516228,557.512,-0.193045,-0.97576,0.00125382,0.622137,0.0386073,-0.00470416,-0.781942,3.12578,3.18049,-102.907,440.0,4294970000,49,4.67485e-39,899,147.417,4.25201,264,4.0,7.3,,3.12578,-102.907
2026-01-15,08:41:38,1157850493,403489511,516246,557.7,-0.145957,-0.984721,0.00345983,0.639497,0.04238,-0.00680274,-0.767595,3.23118,3.71278,-100.306,440.0,4294970000,49,4.67485e-39,900,149.924,4.25556,264,4.0,7.3,,3.23118,-100.306
2026-01-15,08:41:39,1157850379,403489495,516270,557.505,-0.0683358,-1.00685,0.00112741,0.67139,0.045767,-0.0106845,-0.739613,3.05857,4.43774,-95.4248,440.0,4294970000,50,4.67485e-39,900,152.664,4.28803,262,4.0,7.3,,3.05857,-95.4248
2026-01-15,08:41:40,1157850265,403489487,516279,558.092,0.0391086,-1.0168,-0.00196106,0.705457,0.0484292,-0.0116665,-0.707,2.982,4.87299,-90.0049,440.0,4294970000,50,4.67485e-39,900,157.892,4.30219,262,4.0,7.3,,2.982,-90.0049
2026-01-15,08:41:41,1157850149,403489488,516297,558.485,0.141493,-1.01,-0.00107093,0.736439,0.0487297,-0.0131793,-0.674618,2.65603,5.14392,-84.8697,440.0,4294970000,50,4.67485e-39,900,162.875,4.31327,262,4.0,7.3,,2.65603,-84.8697
2026-01-15,08:41:42,1157850034,403489499,516312,558.584,0.225464,-1.00501,-0.00118294,0.762442,0.0466497,-0.0151018,-0.645197,2.13021,5.20342,-80.3866,440.0,4294970000,50,4.67485e-39,899,153.902,4.35379,247,3.8,7.3,,2.13021,-80.3866
2026-01-15,08:41:43,1157849919,403489517,516314,558.669,0.300525,-0.977456,-5.94e-05,0.784553,0.047056,-0.0155882,-0.618077,1.93189,5.34572,-76.378,440.0,4294970000,50,4.67485e-39,900,139.593,4.41916,225,3.6,7.3,,1.93189,-76.378
2026-01-15,08:41:44,1157849807,403489542,516315,558.701,0.379488,-0.935191,0.0048286,0.807686,0.0463738,-0.0175966,-0.587523,1.49377,5.48742,-71.9992,440.0,4294970000,50,4.67485e-39,899,135.439,4.50385,214,3.6,7.3,,1.49377,-71.9992
2026-01-15,08:41:45,1157849698,403489573,516303,558.737,0.441267,-0.914542,0.000832724,0.828849,0.0453725,-0.0192421,-0.557297,1.07011,5.54831,-67.7849,440.0,4294970000,50,4.67485e-39,899,129.554,4.87848,201,3.9,7.3,,1.07011,-67.7849
2026-01-15,08:41:46,1157849593,403489610,516289,558.754,0.49875,-0.874912,-0.00228567,0.850376,0.047478,-0.0225311,-0.523544,0.652882,5.98999,-63.2086,440.0,4294970000,50,4.67485e-39,899,124.575,5.20252,189,4.2,7.3,,0.652882,-63.2086
2026-01-15,08:41:47,1157849491,403489654,516286,559.453,0.585034,-0.835907,-0.000614453,0.872858,0.0467845,-0.0220014,-0.485227,0.400756,5.9139,-58.1234,440.0,4294970000,50,4.67485e-39,899,122.454,5.51906,180,4.5,7.3,,0.400756,-58.1234
2026-01-15,08:41:48,1157849397,403489703,516302,559.516,0.648801,-0.777382,-0.000465684,0.894524,0.0490322,-0.0254922,-0.44359,-0.120696,6.33524,-52.7638,440.0,4294970000,50,4.67485e-39,899,124.494,5.40711,176,4.4,7.3,,-0.120696,-52.7638
2026-01-15,08:41:49,1157849307,403489759,516304,559.649,0.717593,-0.727357,-0.00450716,0.91186,0.0480269,-0.0264855,-0.406822,-0.528615,6.26631,-48.1201,440.0,4294970000,49,4.67485e-39,899,116.608,5.9616,161,5.0,7.3,,-0.528615,-48.1201
2026-01-15,08:41:50,1157849223,403489821,516309,559.605,0.736835,-0.710425,-0.00838008,0.920271,0.0449859,-0.0234099,-0.387982,-0.468689,5.79528,-45.7472,440.0,4294970000,50,4.67485e-39,899,118.818,5.96839,161,5.0,7.3,,-0.468689,-45.7472
2026-01-15,08:41:51,1157849138,403489885,516309,559.709,0.732794,-0.701874,-0.000610623,0.921066,0.0457633,-0.0253465,-0.385876,-0.651725,5.9625,-45.4993,441.0,4294970000,49,4.67485e-39,899,112.965,6.21659,154,5.3,7.3,,-0.651725,-45.4993
2026-01-15,08:41:52,1157849055,403489949,516322,559.869,0.736639,-0.694901,-0.0068382,0.921157,0.0456292,-0.0272279,-0.385548,-0.858267,6.03167,-45.4718,441.0,4294970000,49,4.67485e-39,899,101.666,6.3987,141,5.6,7.3,,-0.858267,-45.4718
2026-01-15,08:41:53,1157848972,403490013,516338,559.957,0.734317,-0.694997,-0.00406908,0.921383,0.045674,-0.023098,-0.385271,-0.422326,5.8529,-45.4089,441.0,4294970000,49,4.67485e-39,899,101.678,6.39843,141,5.6,7.3,,-0.422326,-45.4089
2026-01-15,08:41:54,1157848888,403490077,516339,559.993,0.729898,-0.685517,-0.00735985,0.921586,0.0458692,-0.0245808,-0.38467,-0.574019,5.93895,-45.3444,441.0,4294970000,49,4.67485e-39,899,96.5918,6.22576,135,5.5,7.3,,-0.574019,-45.3444
2026-01-15,08:41:55,1157848804,403490141,516331,559.446,0.723796,-0.678643,-0.00667323,0.921639,0.0457564,-0.0255866,-0.384492,-0.686314,5.97142,-45.3293,441.0,4294970000,49,4.67485e-39,899,96.5627,6.21848,135,5.5,7.3,,-0.686314,-45.3293
2026-01-15,08:41:56,1157848721,403490205,516330,559.928,0.723055,-0.683276,-0.00517343,0.921204,0.0450407,-0.0257476,-0.385605,-0.727829,5.90366,-45.468,441.0,4294970000,49,4.67485e-39,899,95.6635,6.11078,134,5.4,7.3,,-0.727829,-45.468
2026-01-15,08:41:57,1157848638,403490269,516328,559.599,0.733901,-0.690873,-0.000249664,0.921591,0.0427914,-0.0281579,-0.384767,-1.08708,5.77178,-45.3795,441.0,4294970000,49,4.67485e-39,899,95.8417,6.12046,134,5.4,7.3,,-1.08708,-45.3795
2026-01-15,08:41:58,1157848553,403490333,516329,559.763,0.725762,-0.687686,-0.00502073,0.921188,0.0441447,-0.0252586,-0.38578,-0.714865,5.78724,-45.4859,441.0,4294970000,49,4.67485e-39,899,94.7881,6.10365,133,5.4,7.3,,-0.714865,-45.4859
2026-01-15,08:41:59,1157848468,403490396,516334,559.75,0.722867,-0.701176,-0.00102815,0.920947,0.045938,-0.0277944,-0.385971,-0.901525,6.08995,-45.5286,441.0,4294970000,49,4.67485e-39,899,93.11,5.99361,131,5.3,7.3,,-0.901525,-45.5286
2026-01-15,08:42:00,1157848384,403490460,516336,559.908,0.727108,-0.685757,-0.00210488,0.921094,0.0446324,-0.0262037,-0.385885,-0.792265,5.88095,-45.5057,441.0,4294970000,49,4.67485e-39,899,93.1622,5.97865,131,5.3,7.3,,-0.792265,-45.5057
2026-01-15,08:42:01,1157848301,403490525,516333,560.13,0.758114,-0.642566,-0.00885924,0.928995,0.0492187,-0.0282413,-0.365715,-0.94389,6.43799,-43.0321,441.0,4294970000,49,4.67485e-39,899,95.6994,5.96852,131,5.3,7.3,,-0.94389,-43.0321
2026-01-15,08:42:02,1157848224,403490588,516330,559.436,0.804399,-0.580875,-0.00801607,0.945916,0.053308,-0.0317074,-0.318427,-1.49202,6.95517,-37.3033,441.0,4294970000,50,4.67485e-39,899,101.309,5.98328,131,5.3,7.3,,-1.49202,-37.3033
2026-01-15,08:42:03,1157848157,403490656,516331,559.484,0.854171,-0.488533,-0.00495229,0.961051,0.0542588,-0.036607,-0.268509,-2.36283,7.12671,-31.3692,441.0,4294970000,49,4.67485e-39,900,102.357,6.31213,126,5.7,7.3,,-2.36283,-31.3692
2026-01-15,08:42:04,1157848099,403490730,516342,559.304,0.924263,-0.419369,-0.00649446,0.971607,0.0544216,-0.0358913,-0.227443,-2.57873,7.01977,-26.5104,441.0,4294970000,49,4.67485e-39,899,105.223,6.69636,124,6.1,7.3,,-2.57873,-26.5104
2026-01-15,08:42:05,1157848050,403490809,516342,559.039,0.98621,-0.327913,-0.00777193,0.980472,0.0535676,-0.0363982,-0.185687,-2.95119,6.81862,-21.6253,441.0,4294970000,49,4.67485e-39,900,101.507,7.15668,115,6.7,7.3,,-2.95119,-21.6253
2026-01-15,08:42:06,1157848011,403490891,516345,559.071,1.01183,-0.24258,-0.000668594,0.987129,0.0554819,-0.0412168,-0.144217,-3.74836,6.98983,-16.8541,441.0,4294970000,50,4.67485e-39,899,98.4617,7.42187,107,7.1,7.3,,-3.74836,-16.8541
2026-01-15,08:42:07,1157847982,403490976,516346,558.917,1.06248,-0.111815,0.00290173,0.993576,0.0542831,-0.0405269,-0.0906556,-4.05397,6.63329,-10.6624,441.0,4294970000,49,4.67485e-39,899,102.781,7.57294,105,7.3,7.3,,-4.05397,-10.6624
2026-01-15,08:42:08,1157847968,403491066,516372,558.535,1.04537,0.00468238,-0.00266345,0.997369,0.0468371,-0.0409199,-0.0372546,-4.48168,5.55375,-4.49613,441.0,4294970000,50,4.67485e-39,899,100.808,7.62094,97,7.5,7.3,,-4.48168,-4.49613
2026-01-15,08:42:09,1157847967,403491158,516383,558.538,1.05414,0.0130505,-0.00718372,0.998327,0.039144,-0.038034,-0.0191134,-4.26962,4.57927,-2.36458,441.0,4294970000,50,4.67485e-39,900,87.7654,7.67518,82,7.8,7.3,,-4.26962,-2.36458
2026-01-15,08:42:10,1157847964,403491251,516380,558.268,1.02475,-0.0151786,-0.000592587,0.998154,0.0426397,-0.0385631,-0.0195674,-4.31964,4.98438,-2.43437,442.0,4294970000,50,4.67485e-39,900,85.4194,7.7668,80,7.9,7.3,,-4.31964,-2.43437
2026-01-15,08:42:11,1157847959,403491342,516391,558.521,0.99916,-0.0160169,-0.00666289,0.998203,0.0416966,-0.038937,-0.0183568,-4.37068,4.87177,-2.29324,442.0,4294970000,50,4.67485e-39,899,72.968,7.76618,68,8.1,7.3,,-4.37068,-2.29324
2026-01-15,08:42:12,1157847955,403491433,516399,558.43,0.999754,-0.0248879,-0.00134058,0.998045,0.0427722,-0.0404917,-0.020921,-4.53346,5.01123,-2.60036,442.0,4294970000,50,4.67485e-39,900,71.5879,7.85185,67,8.2,7.3,,-4.53346,-2.60036
2026-01-15,08:42:13,1157847951,403491524,516379,558.475,0.989239,-0.020464,-0.00626259,0.998309,0.0398074,-0.0375204,-0.0196834,-4.20655,4.6565,-2.43034,442.0,4294970000,50,4.67485e-39,899,71.5285,7.95257,67,8.3,7.3,,-4.20655,-2.43034
2026-01-15,08:42:14,1157847947,403491613,516373,558.383,0.982991,-0.0177787,0.00327418,0.998336,0.0389164,-0.0381912,-0.0187399,-4.28986,4.55195,-2.32149,442.0,4294970000,50,4.67485e-39,899,66.5615,7.6737,62,8.1,7.3,,-4.28986,-2.32149
2026-01-15,08:42:15,1157847943,403491702,516364,558.728,0.990467,-0.021075,0.00443966,0.998153,0.0413322,-0.0399687,-0.0196168,-4.48361,4.83831,-2.44146,442.0,4294970000,50,4.67485e-39,899,72.7733,7.77002,68,8.1,7.3,,-4.48361,-2.44146
2026-01-15,08:42:16,1157847939,403491790,516360,558.545,0.996515,-0.0216137,-0.00410797,0.998244,0.0395947,-0.0396233,-0.0192791,-4.44985,4.63614,-2.3932,442.0,4294970000,49,4.67485e-39,900,72.8476,7.77015,68,8.1,7.3,,-4.44985,-2.3932
2026-01-15,08:42:17,1157847934,403491880,516342,558.348,1.01004,-0.0224012,0.00104038,0.998189,0.0400699,-0.0394994,-0.0212743,-4.42514,4.69925,-2.62374,441.0,4294970000,50,4.67485e-39,899,73.6518,7.87872,69,8.2,7.3,,-4.42514,-2.62374
2026-01-15,08:42:18,1157847930,403491958,516280,558.828,0.180223,0.0111836,-0.016748,0.999121,0.0362373,0.0119818,-0.017334,1.44405,4.13023,-1.93595,441.0,4294970000,49,4.67485e-39,900,67.1325,7.91903,68,8.0,7.3,,1.44405,-1.93595
2026-01-15,08:42:19,1157847926,403491971,516280,558.659,0.0282349,-0.0164909,0.00376309,0.998321,0.0459941,-0.0282473,-0.0210113,-3.1225,5.34577,-2.55738,441.0,4294970000,50,4.67485e-39,899,66.0158,8.00302,68,8.0,7.3,,-3.1225,-2.55738
2026-01-15,08:42:20,1157847924,403491973,516280,558.934,-0.0228778,-0.00350658,0.00652101,0.998641,0.0406112,-0.0257091,-0.0201664,-2.84958,4.71829,-2.43131,441.0,4294970000,50,4.67485e-39,900,63.7044,7.71262,66,7.7,7.3,,-2.84958,-2.43131
2026-01-15,08:42:21,1157847921,403491972,516268,558.762,-0.019157,0.0163404,0.0027241,0.998374,0.0437434,-0.0308328,-0.0196475,-3.43125,5.09006,-2.40753,441.0,4294970000,50,4.67485e-39,899,56.7799,7.2966,59,7.3,7.3,,-3.43125,-2.40753
2026-01-15,08:42:22,1157847920,403491970,516256,558.715,-0.00693427,0.0299991,-0.000150005,0.997893,0.0502464,-0.0356496,-0.0203284,-3.96294,5.8533,-2.5369,441.0,4294970000,50,4.67485e-39,899,56.7943,6.97895,59,7.0,7.3,,-3.96294,-2.5369
2026-01-15,08:42:23,1157847924,403491971,516251,558.585,-0.00872051,0.029276,-0.00580441,0.998088,0.0468611,-0.0353328,-0.0193746,-3.94046,5.45961,-2.41224,441.0,4294970000,49,4.67485e-39,899,63.8753,6.97841,66,7.0,7.3,,-3.94046,-2.41224
2026-01-15,08:42:24,1157847928,403491973,516242,558.565,-0.0127404,0.0111572,-0.00362147,0.998543,0.041515,-0.0285155,-0.01939,-3.17249,4.82714,-2.3588,441.0,4294970000,49,4.67485e-39,899,70.8158,6.79404,73,6.8,7.3,,-3.17249,-2.3588
2026-01-15,08:42:25,1157847929,403491973,516233,558.64,-0.0087392,0.00897487,0.00675456,0.998401,0.0434056,-0.0306607,-0.0192566,-3.41434,5.04947,-2.36064,441.0,4294970000,50,4.67485e-39,900,70.8906,6.99374,73,7.0,7.3,,-3.41434,-2.36064
2026-01-15,08:42:26,1157847930,403491973,516218,558.876,0.00502085,0.0115119,0.000914395,0.998401,0.0452129,-0.027639,-0.0196698,-3.06191,5.25024,-2.39788,441.0,4294970000,49,4.67485e-39,899,70.9292,6.88745,73,6.9,7.3,,-3.06191,-2.39788
2026-01-15,08:42:27,1157847930,403491973,516209,558.858,-0.0181493,-0.00347151,-0.00306094,0.998458,0.0440465,-0.0275878,-0.0194888,-3.05977,5.11564,-2.37329,441.0,4294970000,49,4.67485e-39,900,63.8312,7.0114,66,7.0,7.3,,-3.05977,-2.37329
2026-01-15,08:42:28,1157847941,403491989,516167,558.748,0.00591428,0.0414101,0.00452949,0.893816,0.0361511,-0.0380416,-0.445352,-2.05203,5.65736,-53.0757,441.0,4294970000,49,4.67485e-39,900,23.4728,6.47808,76,6.5,7.3,,-2.05203,-53.0757
2026-01-15,08:42:29,1157847888,403492038,516168,558.145,0.0131623,-0.0747558,0.00382856,0.353749,0.0416396,0.023432,-0.934119,5.4155,-0.824046,-138.566,441.0,4294970000,49,4.67485e-39,900,32.0086,5.84891,106,5.9,7.3,,5.4155,-138.566
2026-01-15,08:42:30,1157847852,403492038,516206,557.402,-0.0709674,0.0273386,0.0102471,0.272715,0.00600933,0.0284307,-0.961656,1.551,-2.9478,-148.385,441.0,4294970000,49,4.67485e-39,900,86.7114,6.33154,61,6.3,7.3,,1.551,-148.385
2026-01-15,08:42:31,1157847836,403492004,516274,557.42,-1.22653,-0.597495,-0.0184469,0.27391,-0.0637311,-0.00190389,-0.959639,-7.08663,-1.80523,-148.038,440.0,4294970000,49,4.67485e-39,899,112.285,5.92824,28,7.0,7.3,,-7.08663,-148.038
2026-01-15,08:42:32,1157847742,403491863,516187,558.279,-1.81352,-0.987229,-0.00609989,0.267391,0.0406401,0.023255,-0.96245,5.20222,-1.32519,-149.018,440.0,4294970000,49,4.67485e-39,900,137.236,6.78552,301,7.7,7.3,,5.20222,-149.018
2026-01-15,08:42:33,1157847641,403491719,516122,557.544,-0.607648,-0.326443,0.0002318,0.266151,0.120404,0.043943,-0.955372,14.683,-1.1772,-149.029,440.0,4294970000,50,4.67485e-39,900,163.159,6.77264,321,7.3,7.3,,14.683,-149.029
2026-01-15,08:42:34,1157847624,403491688,515933,557.01,0.10417,0.0509882,-1.37713,0.269713,0.0572976,0.0283534,-0.960816,7.20436,-1.36185,-148.737,441.0,4294970000,50,4.67485e-39,900,172.178,7.50793,323,7.4,7.2,,7.20436,-148.737
2026-01-15,08:42:35,1157847631,403491702,513695,557.25,0.265237,0.187021,-3.31993,0.268916,0.026016,0.0184836,-0.962635,3.44172,-1.23966,-148.832,441.0,4294970000,50,4.67485e-39,900,157.254,8.23239,321,7.4,7.2,,3.44172,-148.832
2026-01-15,08:42:36,1157847650,403491733,510375,555.029,0.235624,0.131126,-3.18892,0.269939,0.0145825,0.0174597,-0.962609,2.14928,-1.47616,-148.709,441.0,4294970000,50,4.67485e-39,900,156.229,8.49656,317,7.7,7.2,,2.14928,-148.709
2026-01-15,08:42:37,1157847663,403491758,507227,551.969,0.0637855,0.0243486,-2.54461,0.27147,-0.00653748,0.0105434,-0.962367,-0.392994,-1.36634,-148.5,441.0,4294970000,50,4.67485e-39,901,155.622,8.21478,313,7.7,7.2,,-0.392994,-148.5
2026-01-15,08:42:38,1157847651,403491757,505465,549.207,0.127247,0.0852812,0.0299786,0.260041,0.033505,0.0335708,-0.964432,4.70883,-2.72212,-149.943,441.0,4294970000,50,4.67485e-39,901,162.928,8.09645,312,8.0,7.2,,4.70883,-149.943
2026-01-15,08:42:39,1157847607,403491723,505662,547.672,0.15153,-0.117772,0.159976,0.472644,-0.0137482,-0.0267238,0.880741,-0.0598515,-3.44406,123.571,441.0,4294970000,50,4.67485e-39,901,81.6781,9.08776,317,9.0,7.2,,-0.0598515,123.571
2026-01-15,08:42:40,1157847632,403491673,505723,548.206,-0.082468,-0.180634,0.024895,0.926341,0.0310649,-0.0526841,0.371687,-6.933,1.06154,43.6644,441.0,4294970000,50,4.67485e-39,901,30.7902,10.4578,346,10.3,7.2,,-6.933,43.6644
2026-01-15,08:42:41,1157847633,403491670,505790,547.603,0.155794,0.259413,0.11861,0.929424,0.0500257,-0.0795311,0.356853,-10.5768,2.11223,41.8163,441.0,4294970000,50,4.67485e-39,901,65.8148,10.2828,23,10.6,7.2,,-10.5768,41.8163
2026-01-15,08:42:42,1157847694,403491711,505892,548.106,0.789465,0.919947,0.100293,0.930964,0.0341537,-0.0451804,0.360693,-6.24433,1.78714,42.2624,441.0,4294970000,50,4.67485e-39,901,88.7743,9.42944,42,10.4,7.2,,-6.24433,42.2624
2026-01-15,08:42:43,1157847803,403491785,505949,547.889,0.80738,0.892004,0.0598339,0.929793,0.0264201,-0.0394218,0.365012,-5.31333,1.17126,42.8161,441.0,4294970000,49,4.67485e-39,901,113.117,9.63599,64,10.2,7.2,,-5.31333,42.8161
2026-01-15,08:42:44,1157847907,403491860,505961,547.663,0.774159,0.800442,0.0309443,0.929877,0.0239717,-0.0357159,0.365347,-4.81536,1.06295,42.858,441.0,4294970000,50,4.67485e-39,901,115.628,10.1611,67,10.6,7.2,,-4.81536,42.858
2026-01-15,08:42:45,1157847996,403491930,505958,547.827,0.745658,0.70011,0.0204365,0.929624,0.0273267,-0.0390979,0.365409,-5.31725,1.2796,42.8605,441.0,4294970000,49,4.67485e-39,901,115.175,10.4398,67,10.8,7.2,,-5.31725,42.8605
2026-01-15,08:42:46,1157848080,403491999,505957,548.043,0.725418,0.675823,0.018873,0.929122,0.0288522,-0.0396624,0.366506,-5.44317,1.41274,42.9911,441.0,4294970000,49,4.67485e-39,901,115.213,10.356,67,10.7,7.2,,-5.44317,42.9911
2026-01-15,08:42:47,1157848163,403492066,505944,547.704,0.718947,0.66634,0.0141465,0.928986,0.0293847,-0.0442984,0.366278,-5.96027,1.2759,42.9731,442.0,4294970000,49,4.67485e-39,901,115.156,10.3621,67,10.7,7.2,,-5.96027,42.9731
2026-01-15,08:42:48,1157848246,403492132,505927,548.014,0.714863,0.66287,-0.000869543,0.929137,0.0253586,-0.0407592,0.366607,-5.41344,0.992216,43.0214,442.0,4294970000,50,4.67485e-39,901,115.134,10.3642,67,10.7,7.2,,-5.41344,43.0214
2026-01-15,08:42:49,1157848326,403492198,505906,547.744,0.725654,0.666819,0.00272137,0.929251,0.026025,-0.038659,0.366497,-5.21715,1.15261,42.9993,442.0,4294970000,49,4.67485e-39,901,115.175,10.3648,67,10.7,7.2,,-5.21715,42.9993
2026-01-15,08:42:50,1157848400,403492264,505890,547.759,0.722962,0.66566,0.00430323,0.928726,0.0325757,-0.0434946,0.366762,-6.00941,1.64826,43.0156,443.0,4294970000,49,4.67485e-39,901,114.213,10.3502,66,10.7,7.2,,-6.00941,43.0156
2026-01-15,08:42:51,1157848476,403492330,505874,547.875,0.736379,0.674347,0.00224289,0.92871,0.0333688,-0.0402535,0.367103,-5.69739,1.86754,43.0463,442.0,4294970000,49,4.67485e-39,901,114.326,10.3484,66,10.7,7.2,,-5.69739,43.0463
2026-01-15,08:42:52,1157848558,403492397,505873,547.779,0.716834,0.705773,-0.000326384,0.929118,0.027808,-0.0412798,0.366418,-5.57182,1.23344,42.9889,442.0,4294970000,50,4.67485e-39,900,114.25,10.2103,66,10.6,7.2,,-5.57182,42.9889
2026-01-15,08:42:53,1157848637,403492462,505847,548.319,0.715494,0.685785,-0.0118398,0.92832,0.0299754,-0.0424771,0.36813,-5.7934,1.40425,43.1943,443.0,4294970000,49,4.67485e-39,901,114.427,10.2325,66,10.6,7.2,,-5.7934,43.1943
2026-01-15,08:42:54,1157848715,403492528,505827,548.06,0.722702,0.700653,-0.000965158,0.928897,0.0281,-0.0409181,0.366997,-5.54627,1.27644,43.0582,443.0,4294970000,50,4.67485e-39,901,114.341,10.2186,66,10.6,7.2,,-5.54627,43.0582
2026-01-15,08:42:55,1157848794,403492594,505807,547.976,0.706736,0.710944,0.00176587,0.928477,0.0297275,-0.042076,0.3678,-5.73963,1.39675,43.1534,443.0,4294970000,50,4.67485e-39,901,114.3,10.4037,66,10.8,7.2,,-5.73963,43.1534
2026-01-15,08:42:56,1157848872,403492658,505800,547.922,0.719102,0.709076,-0.000754255,0.928547,0.029801,-0.0435112,0.367451,-5.8954,1.34616,43.1139,443.0,4294970000,49,4.67485e-39,901,114.321,10.4101,66,10.8,7.2,,-5.8954,43.1139
2026-01-15,08:42:57,1157848952,403492724,505790,547.737,0.730257,0.718894,0.00622808,0.928493,0.0306375,-0.044921,0.367348,-6.08102,1.37678,43.1015,443.0,4294970000,49,4.67485e-39,901,114.399,10.4053,66,10.8,7.2,,-6.08102,43.1015
2026-01-15,08:42:58,1157849038,403492790,505797,547.65,0.728516,0.710581,0.00232994,0.928363,0.0292347,-0.040917,0.36825600000000003,-5.59584,1.39026,43.209,443.0,4294970000,50,4.67485e-39,901,114.458,10.4137,66,10.8,7.2,,-5.59584,43.209
2026-01-15,08:42:59,1157849123,403492854,505803,547.845,0.692553,0.743801,-0.000615262,0.920692,0.0292495,-0.040472,0.387083,-5.57655,1.29707,45.5465,443.0,4294970000,50,4.67485e-39,901,117.794,10.4238,67,10.8,7.2,,-5.57655,45.5465
2026-01-15,08:43:00,1157849207,403492916,505805,547.725,0.640816,0.772198,0.000231057,0.906221,0.0324191,-0.041586,0.419503,-5.88773,1.37495,49.6131,443.0,4294970000,50,4.67485e-39,901,120.702,10.6244,66,11.0,7.2,,-5.88773,49.6131
2026-01-15,08:43:01,1157849295,403492972,505811,547.568,0.570777,0.823778,0.00294936,0.890421,0.0315392,-0.0421657,0.452081,-5.94735,1.03944,53.7852,443.0,4294970000,49,4.67485e-39,901,124.771,10.7107,66,11.1,7.2,,-5.94735,53.7852
2026-01-15,08:43:02,1157849392,403493022,505819,547.711,0.517596,0.874168,0.00213903,0.874109,0.0293832,-0.0424106,0.482981,-5.88509,0.599154,57.8184,442.0,4294970000,50,4.67485e-39,901,125.603,10.9542,63,11.4,7.2,,-5.88509,57.8184
2026-01-15,08:43:03,1157849492,403493068,505828,547.881,0.475713,0.889169,0.000850914,0.860247,0.0289561,-0.0420116,0.507319,-5.83524,0.414264,61.0422,442.0,4294970000,50,4.67485e-39,901,125.688,10.9212,60,11.4,7.2,,-5.83524,61.0422
2026-01-15,08:43:04,1157849594,403493110,505819,547.975,0.422338,0.913995,0.000117937,0.847155,0.026249,-0.0403235,0.529163,-5.51507,0.103533,63.9804,442.0,4294970000,50,4.67485e-39,901,127.452,11.0985,59,11.6,7.2,,-5.51507,63.9804
2026-01-15,08:43:05,1157849698,403493148,505820,548.238,0.362605,0.951488,0.00232371,0.83178,0.0251899,-0.0428279,0.552877,-5.68781,-0.313962,67.2439,442.0,4294970000,50,4.67485e-39,901,127.398,11.5348,56,12.1,7.2,,-5.68781,67.2439
2026-01-15,08:43:06,1157849805,403493182,505814,548.147,0.322977,0.965904,0.0014289,0.817153,0.0259104,-0.0407075,0.574398,-5.52622,-0.254398,70.2262,443.0,4294970000,50,4.67485e-39,901,128.207,11.8133,54,12.4,7.2,,-5.52622,70.2262
2026-01-15,08:43:07,1157849916,403493210,505815,547.864,0.249558,0.997999,-0.00110942,0.799126,0.0247376,-0.0429116,0.59912,-5.63739,-0.68413,73.7583,443.0,4294970000,50,4.67485e-39,901,129.582,11.8642,52,12.5,7.2,,-5.63739,73.7583
2026-01-15,08:43:08,1157850029,403493232,505808,547.711,0.187785,0.997362,-0.00842545,0.778529,0.0217542,-0.0410519,0.625886,-5.23025,-1.00786,77.6457,443.0,4294970000,50,4.67485e-39,901,131.377,11.6515,50,12.3,7.2,,-5.23025,77.6457
2026-01-15,08:43:09,1157850143,403493247,505810,547.796,0.107333,0.993042,0.000382678,0.75429,0.0220024,-0.0435522,0.654726,-5.42369,-1.37214,81.9873,443.0,4294970000,50,4.67485e-39,901,132.438,11.7185,47,12.4,7.2,,-5.42369,81.9873
2026-01-15,08:43:10,1157850259,403493256,505813,548.024,0.0653137,0.998237,-0.000894493,0.735455,0.0205638,-0.044389,0.675805,-5.34159,-1.71232,85.2456,443.0,4294970000,50,4.67485e-39,901,134.675,11.7149,46,12.4,7.2,,-5.34159,85.2456
2026-01-15,08:43:11,1157850375,403493261,505813,547.909,0.0567037,0.983963,-0.00132586,0.729837,0.0185108,-0.0459581,0.681823,-5.29783,-2.052,86.2053,443.0,4294970000,50,4.67485e-39,901,132.373,11.8929,43,12.6,7.2,,-5.29783,86.2053
2026-01-15,08:43:12,1157850492,403493266,505812,547.912,0.0427692,1.00447,0.00196602,0.729923,0.0173669,-0.0478516,0.681631,-5.36721,-2.29588,86.1951,443.0,4294970000,50,4.67485e-39,901,130.226,11.9437,41,12.7,7.2,,-5.36721,86.1951
2026-01-15,08:43:13,1157850609,403493271,505807,547.707,0.0689245,1.00041,-0.00171221,0.729566,0.019322,-0.0445294,0.682185,-5.2409,-1.87393,86.2476,443.0,4294970000,49,4.67485e-39,901,130.378,11.9649,41,12.7,7.2,,-5.2409,86.2476
2026-01-15,08:43:14,1157850726,403493276,505820,547.884,0.0622081,0.993987,-0.000574315,0.729997,0.0177953,-0.0452354,0.681719,-5.18161,-2.05413,86.182,443.0,4294970000,50,4.67485e-39,900,130.258,11.9643,41,12.7,7.2,,-5.18161,86.182
2026-01-15,08:43:15,1157850844,403493282,505828,547.804,0.0680863,1.00043,-0.00235736,0.729845,0.0183844,-0.0442562,0.681931,-5.14524,-1.92905,86.2054,443.0,4294970000,49,4.67485e-39,901,130.382,11.764,41,12.5,7.2,,-5.14524,86.2054
2026-01-15,08:43:16,1157850961,403493289,505834,547.617,0.0606153,1.01506,-0.00145509,0.729261,0.0194915,-0.0442549,0.682525,-5.23037,-1.84051,86.2983,443.0,4294970000,49,4.67485e-39,901,130.474,11.8492,41,12.6,7.2,,-5.23037,86.2983
2026-01-15,08:43:17,1157851078,403493295,505840,547.685,0.048683,1.002,0.000961501,0.729355,0.020134,-0.0454615,0.682327,-5.38213,-1.88059,86.2788,443.0,4294970000,49,4.67485e-39,901,130.395,11.7512,41,12.5,7.2,,-5.38213,86.2788
2026-01-15,08:43:18,1157851195,403493299,505865,547.661,0.0362855,1.0014,0.00617032,0.725533,0.0199239,-0.044828,0.686437,-5.30217,-1.8782,86.9213,443.0,4294970000,49,4.67485e-39,901,131.003,11.8508,41,12.6,7.2,,-5.30217,86.9213
2026-01-15,08:43:19,1157851311,403493302,505875,548.021,-0.0322381,0.99801,-0.000791865,0.700263,0.022847,-0.0422293,0.712269,-5.26121,-1.62058,91.0551,443.0,4294970000,49,4.67485e-39,901,135.132,11.8565,41,12.6,7.2,,-5.26121,91.0551
2026-01-15,08:43:20,1157851427,403493296,505888,547.86,-0.154128,1.00291,-0.00307613,0.662185,0.0183057,-0.0424301,0.747915,-4.79446,-2.25605,97.0599,443.0,4294970000,49,4.67485e-39,901,140.02,11.9212,40,12.7,7.2,,-4.79446,97.0599
2026-01-15,08:43:21,1157851541,403493282,505903,548.088,-0.267868,0.97707,-0.00171555,0.619878,0.015184,-0.042138,0.783419,-4.36083,-2.71336,103.406,443.0,4294970000,49,4.67485e-39,901,144.152,12.0959,38,12.9,7.2,,-4.36083,103.406
2026-01-15,08:43:22,1157851652,403493259,505913,548.216,-0.372055,0.950427,-0.00807528,0.581879,0.0138806,-0.0435741,0.811988,-4.20107,-3.13914,108.872,443.0,4294970000,49,4.67485e-39,901,145.252,12.3414,34,13.2,7.2,,-4.20107,108.872
2026-01-15,08:43:23,1157851760,403493226,505920,548.458,-0.452022,0.896666,-0.00330929,0.542022,0.0117834,-0.0452437,0.839063,-3.94651,-3.62958,114.41,443.0,4294970000,50,4.67485e-39,901,148.668,12.0374,32,12.9,7.2,,-3.94651,114.41
2026-01-15,08:43:24,1157851862,403493187,505912,548.499,-0.545856,0.854935,0.000204819,0.501429,0.00452201,-0.0459573,0.863966,-3.0901,-4.30069,119.865,443.0,4294970000,50,4.67485e-39,901,149.882,11.6904,28,12.6,7.2,,-3.0901,119.865
2026-01-15,08:43:25,1157851959,403493140,505911,548.59,-0.602199,0.797608,-0.000203588,0.462849,0.00448803,-0.0476357,0.885145,-2.98332,-4.60518,124.918,443.0,4294970000,49,4.67485e-39,901,150.668,11.478,24,12.4,7.2,,-2.98332,124.918
2026-01-15,08:43:26,1157852050,403493088,505897,548.542,-0.671816,0.743043,-0.00134278,0.421658,0.000699193,-0.0468321,0.905544,-2.33623,-4.83599,130.171,443.0,4294970000,50,4.67485e-39,900,154.879,11.3702,23,12.3,7.2,,-2.33623,130.171
2026-01-15,08:43:27,1157852134,403493031,505907,548.658,-0.759531,0.691827,0.0086252,0.37474,0.00071717,-0.0464487,0.925965,-2.0713,-4.90733,136.032,443.0,4294970000,50,4.67485e-39,901,158.702,11.0354,21,12.0,7.2,,-2.0713,136.032
2026-01-15,08:43:28,1157852213,403492969,505910,548.624,-0.827235,0.617952,-0.00320109,0.324773,-0.00181801,-0.042742,0.944824,-1.3941,-4.7023,142.128,443.0,4294970000,50,4.67485e-39,901,160.537,10.9102,17,11.9,7.2,,-1.3941,142.128
2026-01-15,08:43:29,1157852284,403492898,505902,548.689,-0.843917,0.550704,-6.87e-05,0.285946,-0.00315469,-0.0390713,0.957444,-0.934243,-4.39529,146.79,443.0,4294970000,50,4.67485e-39,901,163.075,11.029,15,12.0,7.2,,-0.934243,146.79
2026-01-15,08:43:30,1157852347,403492821,505894,548.29,-0.857677,0.519933,0.000883784,0.27085,-0.00712489,-0.0415076,0.9617,-0.503137,-4.80154,148.574,443.0,4294970000,50,4.67485e-39,901,159.392,11.2128,10,12.2,7.2,,-0.503137,148.574
2026-01-15,08:43:31,1157852409,403492742,505897,548.49,-0.837709,0.511719,0.000937052,0.271402,-0.00589035,-0.0428066,0.961496,-0.682374,-4.9063,148.515,443.0,4294970000,50,4.67485e-39,901,156.064,11.5261,7,12.5,7.2,,-0.682374,148.515
2026-01-15,08:43:32,1157852469,403492667,505896,548.654,-0.816195,0.523098,3.08672e-05,0.273967,-0.00214765,-0.0411677,0.960855,-1.0561,-4.60631,148.225,443.0,4294970000,50,4.67485e-39,901,154.767,11.4381,6,12.4,7.2,,-1.0561,148.225
2026-01-15,08:43:33,1157852529,403492592,505891,548.389,-0.846135,0.514226,0.00589936,0.271023,-0.0052773,-0.0438741,0.961558,-0.78119,-5.00542,148.563,443.0,4294970000,50,4.67485e-39,900,153.956,11.2137,5,12.2,7.2,,-0.78119,148.563
2026-01-15,08:43:34,1157852590,403492515,505889,548.438,-0.835915,0.524217,-0.00145202,0.272034,-0.00503794,-0.0430265,0.961312,-0.786371,-4.90358,148.443,443.0,4294970000,50,4.67485e-39,901,153.908,10.9183,5,11.9,7.2,,-0.786371,148.443
2026-01-15,08:43:35,1157852650,403492438,505887,548.669,-0.818072,0.533427,0.00141033,0.273247,-0.00287298,-0.0404662,0.961088,-0.950776,-4.55236,148.307,443.0,4294970000,50,4.67485e-39,901,153.838,11.03,5,12.0,7.2,,-0.950776,148.307
2026-01-15,08:43:36,1157852712,403492359,505911,548.208,-0.848068,0.528697,0.00473087,0.269643,-0.00649568,-0.043772,0.961943,-0.636541,-5.03287,148.721,443.0,4294970000,50,4.67485e-39,900,154.201,11.0059,5,12.0,7.2,,-0.636541,148.721
2026-01-15,08:43:37,1157852774,403492280,505916,548.421,-0.837572,0.533339,-0.00103755,0.272998,-0.00587653,-0.0426824,0.961049,-0.68814,-4.89102,148.325,443.0,4294970000,49,4.67485e-39,901,153.81,11.1126,5,12.1,7.2,,-0.68814,148.325
2026-01-15,08:43:38,1157852836,403492205,505929,548.66,-0.839001,0.531144,0.000170879,0.272571,-0.00753751,-0.0434823,0.961123,-0.528034,-5.03147,148.368,443.0,4294970000,50,4.67485e-39,900,153.848,11.0123,5,12.0,7.1,,-0.528034,148.368
2026-01-15,08:43:39,1157852900,403492132,505958,548.605,-0.872161,0.522749,0.000479852,0.271438,-0.00736305,-0.0405652,0.961573,-0.450476,-4.7046,148.502,443.0,4294970000,50,4.67485e-39,901,152.793,10.9852,4,12.0,7.1,,-0.450476,148.502
2026-01-15,08:43:40,1157852963,403492061,505966,548.545,-0.893798,0.492728,0.0063084,0.253936,-0.00382844,-0.0351873,0.966573,-0.599923,-4.01258,150.592,443.0,4294970000,49,4.67485e-39,901,154.895,10.7814,4,11.8,7.1,,-0.599923,150.592
2026-01-15,08:43:41,1157853018,403491984,505965,548.43,-0.948422,0.42179,-0.00646787,0.21802,-0.00745825,-0.0323246,0.97538,0.0260377,-3.80234,154.811,443.0,4294970000,50,4.67485e-39,900,156.87,10.5621,2,11.6,7.1,,0.0260377,154.811
2026-01-15,08:43:42,1157853065,403491901,505967,548.7,-0.987878,0.320154,-0.00076053,0.175127,-0.0101097,-0.0321128,0.98397,0.49552,-3.82702,159.812,443.0,4294970000,50,4.67485e-39,901,160.665,10.4619,1,11.5,7.1,,0.49552,159.812
2026-01-15,08:43:43,1157853102,403491818,505971,548.666,-0.977837,0.232731,0.00124193,0.13408,-0.00888711,-0.0284371,0.990522,0.571866,-3.36667,164.578,444.0,4294970000,50,4.67485e-39,900,164.357,10.4956,0,11.5,7.1,,0.571866,164.578
2026-01-15,08:43:44,1157853129,403491733,505987,548.282,-0.984661,0.165041,0.0026948,0.0987857,-0.00886503,-0.0281663,0.994671,0.691668,-3.3131,168.649,444.0,4294970000,50,4.67485e-39,901,165.157,10.2056,357,11.2,7.1,,0.691668,168.649
2026-01-15,08:43:45,1157853148,403491647,505999,548.237,-1.00139,0.0829969,0.00351769,0.0654144,-0.0102528,-0.0284334,0.9974,0.95881,-3.32919,172.48,444.0,4294970000,50,4.67485e-39,901,167.773,10.1031,356,11.1,7.1,,0.95881,172.48
2026-01-15,08:43:46,1157853157,403491559,506017,547.4,-1.0104,0.0176601,-0.00269233,0.0307431,-0.0121906,-0.0286043,0.999044,1.29504,-3.32057,176.45,444.0,4294970000,50,4.67485e-39,900,166.221,9.61209,351,10.6,7.1,,1.29504,176.45
2026-01-15,08:43:47,1157853161,403491470,506023,548.119,-1.01227,-0.0411532,-0.00278198,0.00419643,0.0140544,0.0259965,-0.999554,1.62263,-2.97363,-179.574,444.0,4294970000,50,4.67485e-39,901,166.885,9.1198,348,10.1,7.1,,1.62263,-179.574
2026-01-15,08:43:48,1157853156,403491381,506023,548.257,-0.995815,-0.125347,-0.00223063,0.0404087,0.0159762,0.0240306,-0.998767,1.94027,-2.67904,-175.425,444.0,4294970000,49,4.67485e-39,900,168.685,8.94281,346,9.9,7.1,,1.94027,-175.425
2026-01-15,08:43:49,1157853142,403491294,506032,547.947,-0.979886,-0.210017,0.00473877,0.0823755,0.0194622,0.0230512,-0.996145,2.44011,-2.45073,-170.61,444.0,4294970000,50,4.67485e-39,901,169.958,8.46373,343,9.4,7.1,,2.44011,-170.61
2026-01-15,08:43:50,1157853118,403491210,506041,548.11,-0.945163,-0.290953,0.00302617,0.127415,0.0179076,0.0210235,-0.991465,2.34232,-2.12952,-165.41,444.0,4294970000,49,4.67485e-39,901,171.728,7.99573,340,8.9,7.1,,2.34232,-165.41
2026-01-15,08:43:51,1157853084,403491127,506067,547.595,-0.933434,-0.356857,0.0051894,0.165983,0.021318,0.0214283,-0.985665,2.81676,-2.01783,-160.944,444.0,4294970000,49,4.67485e-39,901,173.695,7.69737,338,8.6,7.1,,2.81676,-160.944
2026-01-15,08:43:52,1157853042,403491044,506093,547.493,-0.9182,-0.382142,-0.000502172,0.184361,0.0217465,0.0222943,-0.982365,2.92049,-2.05352,-158.806,444.0,4294970000,49,4.67485e-39,901,172.481,7.32289,335,8.2,7.1,,2.92049,-158.806
2026-01-15,08:43:53,1157852994,403490960,506118,547.698,-0.898296,-0.38013,-0.00241226,0.185746,0.0217553,0.0243236,-0.982056,2.96751,-2.27803,-158.65,444.0,4294970000,49,4.67485e-39,901,169.539,7.46736,332,8.3,7.1,,2.96751,-158.65
2026-01-15,08:43:54,1157852945,403490878,506136,547.657,-0.905098,-0.371051,-0.00173808,0.185338,0.0221633,0.0272366,-0.982047,3.07429,-2.59916,-158.706,444.0,4294970000,49,4.67485e-39,901,167.53,7.7777,330,8.6,7.1,,3.07429,-158.706
2026-01-15,08:43:55,1157852900,403490795,506156,547.468,-0.91418,-0.366831,0.00258353,0.184936,0.0228711,0.0280104,-0.982085,3.16933,-2.67282,-158.757,444.0,4294970000,49,4.67485e-39,901,167.529,7.86833,330,8.7,7.1,,3.16933,-158.757
2026-01-15,08:43:56,1157852862,403490714,506169,547.424,-0.919634,-0.368474,-0.00363745,0.185921,0.0198588,0.0260087,-0.98202,2.79016,-2.50765,-158.631,444.0,4294970000,49,4.67485e-39,901,166.39,7.47261,329,8.3,7.1,,2.79016,-158.631
2026-01-15,08:43:57,1157852824,403490633,506176,547.518,-0.928782,-0.374911,-0.00386721,0.184693,0.0189391,0.0225672,-0.982355,2.61068,-2.14243,-158.765,444.0,4294970000,50,4.67485e-39,901,165.996,7.16747,329,8.0,7.1,,2.61068,-158.765
2026-01-15,08:43:58,1157852782,403490550,506179,547.7,-0.92908,-0.385624,-0.00225498,0.184794,0.0203356,0.0235992,-0.982283,2.79004,-2.2291,-158.757,444.0,4294970000,50,4.67485e-39,901,165.849,7.07004,329,7.9,7.1,,2.79004,-158.757
2026-01-15,08:43:59,1157852737,403490466,506192,547.568,-0.934184,-0.381907,-0.000616549,0.185705,0.021778,0.0239333,-0.982073,2.96168,-2.23366,-158.654,444.0,4294970000,49,4.67485e-39,901,167.232,7.35222,330,8.2,7.1,,2.96168,-158.654
2026-01-15,08:44:00,1157852690,403490382,506198,547.486,-0.915571,-0.410281,-0.00514775,0.201276,0.0233708,0.0209099,-0.979033,3.10597,-1.80991,-156.826,444.0,4294970000,50,4.67485e-39,901,167.792,7.16865,329,8.0,7.1,,3.10597,-156.826
2026-01-15,08:44:01,1157852642,403490302,506191,547.39,-0.865109,-0.46552,-0.00559289,0.239024,0.0233807,0.0171392,-0.970581,3.07155,-1.26785,-152.375,444.0,4294970000,50,4.67485e-39,901,173.296,7.27259,330,8.1,7.1,,3.07155,-152.375
2026-01-15,08:44:02,1157852589,403490227,506176,547.399,-0.833342,-0.54637,-0.00264416,0.284426,0.0244724,0.0129472,-0.958298,3.11113,-0.625124,-146.966,443.0,4294970000,49,4.67485e-39,901,175.834,7.07771,328,7.9,7.1,,3.11113,-146.966
2026-01-15,08:44:03,1157852529,403490155,506155,547.509,-0.762848,-0.626154,-0.00258166,0.328682,0.0264674,0.00911245,-0.944026,3.2083,0.0111318,-141.617,443.0,4294970000,50,4.67485e-39,901,176.711,6.82739,325,7.6,7.1,,3.2083,-141.617
2026-01-15,08:44:04,1157852458,403490089,506127,547.483,-0.699119,-0.696425,0.000895535,0.36449,0.0247558,0.0101422,-0.930823,3.06587,-0.0478995,-137.243,443.0,4294970000,50,4.67485e-39,901,177.288,6.56531,323,7.3,7.1,,3.06587,-137.243
2026-01-15,08:44:05,1157852378,403490027,506106,547.51,-0.658826,-0.748572,-0.00729303,0.396346,0.0264269,0.00766647,-0.917689,3.12902,0.394673,-133.28,443.0,4294970000,50,4.67485e-39,901,176.59,6.02271,318,6.7,7.1,,3.12902,-133.28
2026-01-15,08:44:06,1157852294,403489970,506072,547.872,-0.607383,-0.791296,-0.00734834,0.43022,0.0273951,0.00440904,-0.902298,3.05157,0.896067,-129.002,443.0,4294970000,50,4.67485e-39,901,174.342,5.60484,312,6.2,7.1,,3.05157,-129.002
2026-01-15,08:44:07,1157852204,403489917,506038,547.756,-0.560689,-0.849444,-0.00735112,0.46103,0.0276985,0.00227305,-0.886949,2.93678,1.2341,-125.047,443.0,4294970000,50,4.67485e-39,901,171.409,5.39244,306,5.9,7.1,,2.93678,-125.047
2026-01-15,08:44:08,1157852108,403489869,506022,547.797,-0.490342,-0.898917,-0.00580387,0.494907,0.0309183,0.000239843,-0.868396,3.09204,1.73249,-120.604,443.0,4294970000,50,4.67485e-39,901,173.193,5.42908,304,5.9,7.1,,3.09204,-120.604
2026-01-15,08:44:09,1157852007,403489827,505997,547.531,-0.40935,-0.938397,-0.00844597,0.532865,0.0346943,-0.0028598,-0.845484,3.18862,2.40016,-115.499,443.0,4294970000,50,4.67485e-39,901,173.672,4.98593,301,5.4,7.1,,3.18862,-115.499
2026-01-15,08:44:10,1157851900,403489793,505973,547.564,-0.299438,-0.99647,-0.00980672,0.571949,0.0350985,-0.00500605,-0.819522,2.96956,2.77551,-110.113,443.0,4294970000,50,4.67485e-39,901,172.352,4.50582,296,4.8,7.1,,2.96956,-110.113
2026-01-15,08:44:11,1157851787,403489768,505939,547.49,-0.213511,-1.01508,-0.0104846,0.605611,0.0357996,-0.00366993,-0.794946,3.00805,2.82397,-105.331,443.0,4294970000,50,4.67485e-39,901,175.657,4.50758,296,4.8,7.1,,3.00805,-105.331
2026-01-15,08:44:12,1157851673,403489749,505926,547.546,-0.189361,-1.0077,-0.0038304,0.621711,0.0336279,-0.00439632,-0.782512,2.70339,2.79438,-103.007,443.0,4294970000,50,4.67485e-39,901,176.021,4.49067,296,4.8,7.1,,2.70339,-103.007
2026-01-15,08:44:13,1157851556,403489731,505915,547.475,-0.198346,-0.996238,-0.00711906,0.621351,0.0346216,-0.00348168,-0.782759,2.85897,2.78217,-103.053,442.0,4294970000,49,4.67485e-39,901,175.978,4.48264,296,4.8,7.1,,2.85897,-103.053
2026-01-15,08:44:14,1157851438,403489713,505901,547.464,-0.198874,-0.993207,-0.00372364,0.621432,0.0358041,-0.00371619,-0.782641,2.94794,2.88818,-103.033,442.0,4294970000,49,4.67485e-39,901,173.325,4.17895,291,4.4,7.1,,2.94794,-103.033
2026-01-15,08:44:15,1157851321,403489694,505900,547.462,-0.211685,-0.981332,-0.00588179,0.621225,0.0358591,-0.003293,-0.782804,2.98381,2.85335,-103.063,442.0,4294970000,50,4.67485e-39,901,173.44,4.16551,291,4.4,7.2,,2.98381,-103.063
2026-01-15,08:44:16,1157851206,403489674,505897,547.395,-0.210132,-0.983014,-0.00594717,0.620995,0.0363147,-0.0041757,-0.782962,2.96258,2.96433,-103.093,442.0,4294970000,50,4.67485e-39,901,173.338,4.16778,291,4.4,7.2,,2.96258,-103.093
2026-01-15,08:44:17,1157851090,403489655,505900,547.404,-0.206854,-0.976668,-0.00810197,0.621256,0.0342944,-0.00587821,-0.782835,2.65909,2.97351,-103.068,442.0,4294970000,50,4.67485e-39,901,173.529,4.16953,291,4.4,7.2,,2.65909,-103.068
2026-01-15,08:44:18,1157850974,403489634,505916,547.467,-0.209179,-0.970511,-0.00795452,0.621466,0.035468,-0.0047941,-0.782623,2.8408,2.96096,-103.029,443.0,4294970000,49,4.67485e-39,901,173.58,4.16621,291,4.4,7.2,,2.8408,-103.029
2026-01-15,08:44:19,1157850860,403489613,505935,547.41,-0.208491,-0.974125,-0.00452146,0.621044,0.0367061,-0.00343304,-0.782908,3.05042,2.92586,-103.083,443.0,4294970000,49,4.67485e-39,901,173.433,4.1686,291,4.4,7.2,,3.05042,-103.083
2026-01-15,08:44:20,1157850746,403489592,505960,547.557,-0.198865,-0.984097,-0.00976531,0.620861,0.0356483,-0.00287186,-0.783104,2.99624,2.79907,-103.118,443.0,4294970000,50,4.67485e-39,901,173.444,4.17918,291,4.4,7.2,,2.99624,-103.118
2026-01-15,08:44:21,1157850631,403489571,505991,547.424,-0.205686,-0.977923,-0.00724312,0.620742,0.0368496,-0.00558144,-0.783129,2.91133,3.12787,-103.124,443.0,4294970000,49,4.67485e-39,901,173.298,4.17224,291,4.4,7.2,,2.91133,-103.124
2026-01-15,08:44:22,1157850517,403489550,506017,547.477,-0.165879,-0.987931,-0.00606174,0.634737,0.0393213,-0.00728352,-0.771692,2.94891,3.51124,-101.041,443.0,4294970000,49,4.67485e-39,901,174.438,4.17694,291,4.4,7.2,,2.94891,-101.041
2026-01-15,08:44:23,1157850403,403489532,506036,547.696,-0.0886712,-1.00087,-0.00419422,0.665527,0.0421028,-0.00992784,-0.745119,2.83915,4.0673,-96.3649,443.0,4294970000,50,4.67485e-39,901,171.172,3.81077,284,3.9,7.2,,2.83915,-96.3649
2026-01-15,08:44:24,1157850287,403489523,506034,548.034,0.0129188,-1.00975,-0.00568359,0.700177,0.0444497,-0.0124659,-0.712475,2.62996,4.59425,-90.8987,443.0,4294970000,49,4.67485e-39,901,174.466,3.81671,284,3.9,7.2,,2.62996,-90.8987
2026-01-15,08:44:25,1157850170,403489524,506026,547.893,0.117621,-1.00326,-0.00755771,0.731279,0.0435844,-0.0118333,-0.680582,2.40838,4.58444,-85.7969,443.0,4294970000,49,4.67485e-39,901,155.432,3.91063,256,3.5,7.2,,2.40838,-85.7969
2026-01-15,08:44:26,1157850054,403489534,506018,548.378,0.203152,-0.996367,-0.00896255,0.75848,0.0432072,-0.014021,-0.650112,2.00074,4.80882,-81.1234,443.0,4294970000,49,4.67485e-39,901,137.534,3.86309,230,3.1,7.2,,2.00074,-81.1234
2026-01-15,08:44:27,1157849938,403489552,506017,548.365,0.281734,-0.984883,-0.00477162,0.781135,0.043622,-0.0155915,-0.622641,1.71717,5.02617,-77.0468,444.0,4294970000,49,4.67485e-39,901,132.745,4.18147,218,3.3,7.2,,1.71717,-77.0468
2026-01-15,08:44:28,1157849825,403489576,506004,548.835,0.353819,-0.938006,-0.0099198,0.804537,0.0414178,-0.015876,-0.592243,1.34743,4.90358,-72.6634,444.0,4294970000,50,4.67485e-39,901,128.036,4.24297,206,3.3,7.2,,1.34743,-72.6634
2026-01-15,08:44:29,1157849717,403489607,505996,548.414,0.422791,-0.914991,-0.00664402,0.825893,0.0393619,-0.0156967,-0.562232,1.05056,4.74308,-68.4522,444.0,4294970000,50,4.67485e-39,901,127.508,4.17547,200,3.2,7.2,,1.05056,-68.4522
2026-01-15,08:44:30,1157849612,403489642,505994,548.692,0.485492,-0.877042,-0.00886913,0.846626,0.0428249,-0.0185386,-0.530138,0.80312,5.28934,-64.0753,445.0,4294970000,50,4.67485e-39,901,128.719,4.08318,196,3.1,7.2,,0.80312,-64.0753
2026-01-15,08:44:31,1157849510,403489683,505995,548.982,0.55309,-0.843694,-0.00745322,0.868807,0.0461268,-0.0215767,-0.492524,0.455258,5.82068,-59.0787,445.0,4294970000,50,4.67485e-39,900,127.534,4.20507,188,3.2,7.2,,0.455258,-59.0787
2026-01-15,08:44:32,1157849414,403489731,506004,549.776,0.655577,-0.789072,-0.00119004,0.891196,0.0429608,-0.0250499,-0.450884,-0.338539,5.69144,-53.6933,445.0,4294970000,50,4.67485e-39,901,126.313,4.52352,179,3.5,7.2,,-0.338539,-53.6933
2026-01-15,08:44:33,1157849324,403489786,506012,549.446,0.702964,-0.743763,-0.00634847,0.909922,0.042534,-0.0226595,-0.411971,-0.354765,5.51372,-48.7383,445.0,4294970000,50,4.67485e-39,901,123.863,4.80554,170,3.8,7.2,,-0.354765,-48.7383
2026-01-15,08:44:34,1157849239,403489845,506033,549.496,0.721586,-0.728087,-0.0128877,0.919187,0.0413365,-0.0241044,-0.390905,-0.687363,5.44273,-46.1135,445.0,4294970000,50,4.67485e-39,900,126.224,4.8108,170,3.8,7.2,,-0.687363,-46.1135
2026-01-15,08:44:35,1157849153,403489909,506023,549.22,0.723607,-0.697754,-0.0149383,0.92122,0.0429377,-0.0237485,-0.385936,-0.608122,5.59256,-45.4946,444.0,4294970000,50,4.67485e-39,900,118.853,4.94942,160,4.0,7.2,,-0.608122,-45.4946
2026-01-15,08:44:36,1157849070,403489974,506015,549.505,0.724385,-0.690229,-0.0102672,0.921485,0.040969,-0.0235581,-0.385529,-0.677726,5.37551,-45.4419,444.0,4294970000,50,4.67485e-39,901,118.942,4.94337,160,4.0,7.2,,-0.677726,-45.4419
2026-01-15,08:44:37,1157848987,403490038,506005,549.241,0.726265,-0.704915,-0.00586231,0.921009,0.0422475,-0.0249529,-0.386438,-0.762782,5.57346,-45.5644,444.0,4294970000,50,4.67485e-39,900,111.421,4.99982,151,4.1,7.2,,-0.762782,-45.5644
2026-01-15,08:44:38,1157848904,403490102,505979,549.542,0.724465,-0.68102,-0.010914,0.921287,0.0408588,-0.0232696,-0.38603,-0.64925,5.3514,-45.5022,444.0,4294970000,49,4.67485e-39,900,99.5135,5.14965,137,4.4,7.2,,-0.64925,-45.5022
2026-01-15,08:44:39,1157848821,403490166,505961,549.324,0.723822,-0.692401,-0.0105972,0.921234,0.0418142,-0.0216291,-0.38615,-0.433067,5.37967,-45.5072,444.0,4294970000,50,4.67485e-39,901,99.4754,5.16054,137,4.4,7.2,,-0.433067,-45.5072
2026-01-15,08:44:40,1157848740,403490229,505939,549.297,0.715301,-0.684803,-0.0109983,0.922125,0.0393909,-0.0224586,-0.384225,-0.638867,5.15884,-45.2725,444.0,4294970000,50,4.67485e-39,901,99.5915,5.15419,137,4.4,7.2,,-0.638867,-45.2725
2026-01-15,08:44:41,1157848657,403490293,505922,549.666,0.719403,-0.698072,-0.0133424,0.921055,0.0417545,-0.0222934,-0.386545,-0.503499,5.40307,-45.5604,444.0,4294970000,50,4.67485e-39,900,99.375,5.16505,137,4.4,7.1,,-0.503499,-45.5604
2026-01-15,08:44:42,1157848573,403490356,505908,549.199,0.707809,-0.692376,-0.00560379,0.921775,0.0406424,-0.023004,-0.384902,-0.637327,5.31593,-45.3604,444.0,4294970000,50,4.67485e-39,901,93.6661,4.98402,130,4.3,7.1,,-0.637327,-45.3604
2026-01-15,08:44:43,1157848490,403490418,505907,549.34,0.687488,-0.675117,-0.00770543,0.922202,0.0409363,-0.0226385,-0.383869,-0.5917,5.33019,-45.2302,444.0,4294970000,50,4.67485e-39,900,91.6686,5.04304,128,4.4,7.1,,-0.5917,-45.2302
2026-01-15,08:44:44,1157848409,403490480,505908,549.308,0.706017,-0.688662,-0.0116922,0.921792,0.0387476,-0.0218801,-0.385122,-0.601237,5.06575,-45.38,444.0,4294970000,49,4.67485e-39,900,92.5896,5.06738,129,4.4,7.1,,-0.601237,-45.38
2026-01-15,08:44:45,1157848327,403490542,505915,548.843,0.739979,-0.673851,-0.00932216,0.926555,0.0442065,-0.0233945,-0.372819,-0.595388,5.70324,-43.8698,444.0,4294970000,49,4.67485e-39,901,93.4509,5.0605,128,4.4,7.1,,-0.595388,-43.8698
2026-01-15,08:44:46,1157848250,403490604,505922,549.535,0.787845,-0.588069,-0.00940237,0.943734,0.0479535,-0.0243962,-0.3263,-0.845351,6.11077,-38.194,443.0,4294970000,49,4.67485e-39,901,98.9941,5.04933,128,4.4,7.1,,-0.845351,-38.194
2026-01-15,08:44:47,1157848183,403490670,505940,549.441,0.852349,-0.508409,-0.0039038,0.959844,0.0481237,-0.0298624,-0.274756,-1.76982,6.24916,-32.0466,443.0,4294970000,50,4.67485e-39,900,104.021,5.24476,127,4.6,7.1,,-1.76982,-32.0466
2026-01-15,08:44:48,1157848124,403490742,505955,549.02,0.885644,-0.434868,-0.010171,0.970791,0.0496229,-0.0302994,-0.232774,-2.04759,6.34595,-27.0829,443.0,4294970000,49,4.67485e-39,901,101.406,5.43808,119,4.9,7.1,,-2.04759,-27.0829
2026-01-15,08:44:49,1157848074,403490817,505959,548.957,0.938945,-0.343164,-0.00506767,0.97964,0.0490769,-0.0342916,-0.191626,-2.77314,6.28268,-22.2895,443.0,4294970000,49,4.67485e-39,901,103.46,5.58317,116,5.1,7.1,,-2.77314,-22.2895
2026-01-15,08:44:50,1157848036,403490898,505980,548.725,0.977183,-0.268454,-0.00476742,0.986482,0.0502588,-0.0375813,-0.151378,-3.37867,6.35782,-17.6372,443.0,4294970000,49,4.67485e-39,900,101.096,5.97696,109,5.6,7.1,,-3.37867,-17.6372
2026-01-15,08:44:51,1157848006,403490984,505994,548.951,1.03134,-0.16279,-0.00121282,0.992969,0.0522564,-0.0332946,-0.10086,-3.18637,6.35414,-11.7775,443.0,4294970000,49,4.67485e-39,901,103.552,6.52389,106,6.2,7.1,,-3.18637,-11.7775
2026-01-15,08:44:52,1157847987,403491074,506016,548.549,1.04384,-0.0556215,-0.000278843,0.997117,0.0495562,-0.0340794,-0.0462687,-3.63391,5.86548,-5.50013,444.0,4294970000,49,4.67485e-39,901,108.593,6.71119,105,6.4,7.1,,-3.63391,-5.50013
2026-01-15,08:44:53,1157847981,403491164,506038,548.334,1.00825,0.00330555,-0.00644677,0.998237,0.0425297,-0.0366984,-0.01919,-4.1082,4.96496,-2.38096,444.0,4294970000,49,4.67485e-39,901,107.344,6.8272,101,6.6,7.1,,-4.1082,-2.38096
2026-01-15,08:44:54,1157847983,403491256,506040,548.316,0.993897,-0.018687,-0.00955135,0.998339,0.0414655,-0.03548,-0.018474,-3.97466,4.83652,-2.28832,444.0,4294970000,49,4.67485e-39,901,92.2156,6.98717,86,7.0,7.1,,-3.97466,-2.28832
2026-01-15,08:44:55,1157847982,403491347,506036,548.463,0.998347,-0.0224061,-0.00535707,0.998496,0.0391653,-0.0331125,-0.0193638,-3.70465,4.56945,-2.37,444.0,4294970000,50,4.67485e-39,901,86.0325,6.98325,80,7.1,7.1,,-3.70465,-2.37
2026-01-15,08:44:56,1157847977,403491436,506042,548.497,0.984777,-0.0296314,0.000234458,0.998302,0.043193,-0.0343515,-0.01864,-3.8406,5.03265,-2.30836,444.0,4294970000,49,4.67485e-39,900,73.5964,6.98763,68,7.3,7.1,,-3.8406,-2.30836
2026-01-15,08:44:57,1157847971,403491524,506040,548.347,0.989317,-0.0240777,-0.00995587,0.997988,0.0457714,-0.0392692,-0.019552,-4.39294,5.34628,-2.45007,444.0,4294970000,50,4.67485e-39,901,72.4309,7.06402,67,7.4,7.1,,-4.39294,-2.45007
2026-01-15,08:44:58,1157847968,403491614,506027,548.313,0.999493,-0.0157578,-0.0112768,0.998203,0.0441437,-0.0345395,-0.0211999,-3.84675,5.15222,-2.60664,444.0,4294970000,50,4.67485e-39,901,78.6427,6.95231,73,7.2,7.1,,-3.84675,-2.60664
2026-01-15,08:44:59,1157847965,403491703,506028,548.372,0.989328,-0.0113013,0.00248425,0.998261,0.0429857,-0.0347042,-0.0205701,-3.87179,5.01725,-2.53079,444.0,4294970000,50,4.67485e-39,900,78.734,6.85057,73,7.1,7.1,,-3.87179,-2.53079
2026-01-15,08:45:00,1157847961,403491793,506007,548.442,0.987478,-0.01906,-0.0065445,0.998294,0.0431907,-0.0333831,-0.0207139,-3.71926,5.03754,-2.54118,444.0,4294970000,49,4.67485e-39,901,80.9829,6.69493,75,6.9,7.1,,-3.71926,-2.54118
2026-01-15,08:45:01,1157847957,403491882,505979,548.341,0.996964,-0.0257528,-0.00078139,0.998152,0.0454076,-0.0348578,-0.0203903,-3.88419,5.29522,-2.5204,444.0,4294970000,50,4.67485e-39,901,80.1114,6.68319,74,6.9,7.1,,-3.88419,-2.5204
2026-01-15,08:45:02,1157847954,403491968,505917,548.361,0.370914,0.00494863,-0.00617127,0.998018,0.044632,0.0404721,-0.0181491,4.7271,5.04416,-1.87547,444.0,4294970000,50,4.67485e-39,901,69.706,6.65823,69,6.8,7.1,,4.7271,-1.87547
2026-01-15,08:45:03,1157847951,403491989,505919,548.667,0.0407894,-0.0248184,0.00233819,0.998431,0.0487716,-0.0164534,-0.0220305,-1.75975,5.63373,-2.61483,444.0,4294970000,50,4.67485e-39,901,71.9831,6.61044,74,6.6,7.1,,-1.75975,-2.61483
2026-01-15,08:45:04,1157847950,403491992,505908,548.648,-0.0287087,-0.00404636,0.00292949,0.998606,0.0420367,-0.0229197,-0.022223,-2.51669,4.87965,-2.65713,444.0,4294970000,50,4.67485e-39,901,63.3846,6.51614,66,6.5,7.1,,-2.51669,-2.65713
2026-01-15,08:45:05,1157847948,403491991,505895,548.525,-0.0181358,0.0123594,-0.0067696,0.998171,0.0470205,-0.0310237,-0.0219426,-3.43263,5.47483,-2.68299,444.0,4294970000,50,4.67485e-39,901,69.5073,6.39556,72,6.4,7.1,,-3.43263,-2.68299
2026-01-15,08:45:06,1157847949,403491990,505880,548.58,-0.0275691,0.0137742,-0.00358923,0.998587,0.0421093,-0.0239328,-0.0218785,-2.63417,4.89,-2.62291,444.0,4294970000,50,4.67485e-39,901,68.3625,6.3977,71,6.4,7.1,,-2.63417,-2.62291
2026-01-15,08:45:07,1157847948,403491989,505859,548.696,-0.00947942,0.0150817,-0.00716735,0.998333,0.0461544,-0.0271652,-0.0215299,-2.99542,5.36264,-2.61137,444.0,4294970000,50,4.67485e-39,901,69.5841,6.29,72,6.3,7.1,,-2.99542,-2.61137
2026-01-15,08:45:08,1157847951,403491989,505851,548.669,-0.0100741,0.0261206,-0.00117542,0.998231,0.0471428,-0.0291878,-0.0214447,-3.22485,5.48177,-2.61595,444.0,4294970000,50,4.67485e-39,901,75.5791,6.27746,78,6.3,7.1,,-3.22485,-2.61595
2026-01-15,08:45:09,1157847956,403491992,505841,548.381,-0.0143104,0.00798256,-0.00806281,0.998619,0.0423321,-0.0219065,-0.0220974,-2.40052,4.91034,-2.63839,444.0,4294970000,50,4.67485e-39,901,77.4415,6.09608,80,6.1,7.1,,-2.40052,-2.63839
2026-01-15,08:45:10,1157847955,403491992,505821,548.659,-0.0375997,-0.0110423,0.00271095,0.998284,0.0485551,-0.0243595,-0.0218889,-2.66597,5.63111,-2.6435,443.0,4294970000,50,4.67485e-39,901,78.3171,6.11799,81,6.1,7.1,,-2.66597,-2.6435
2026-01-15,08:45:11,1157847965,403492003,505784,548.546,-0.0147071,0.0726596,0.00352458,0.921507,0.0349745,-0.0361243,-0.385093,-2.27201,5.29941,-45.4681,443.0,4294970000,50,4.67485e-39,901,35.4432,5.96972,81,6.0,7.1,,-2.27201,-45.4681
2026-01-15,08:45:12,1157847925,403492059,505785,548.194,0.00887578,-0.0949173,0.0108858,0.410389,0.0381683,0.0210901,-0.910867,4.98237,-0.407969,-131.52,443.0,4294970000,50,4.67485e-39,901,12.6877,5.06955,118,5.1,7.1,,4.98237,-131.52
2026-01-15,08:45:13,1157847881,403492064,505802,547.116,-0.0688572,0.0202743,-0.00553354,0.267422,0.00755884,0.0303772,-0.963071,1.76549,-3.12404,-149.022,444.0,4294970000,50,4.67485e-39,901,74.3423,5.6374,74,5.6,7.1,,1.76549,-149.022
2026-01-15,08:45:14,1157847875,403492034,505869,547.361,-1.14346,-0.546816,-0.00903066,0.268554,-0.0721154,-0.00183303,-0.96056,-8.02105,-2.03802,-148.628,444.0,4294970000,49,4.67485e-39,901,104.376,6.12231,36,7.0,7.1,,-8.02105,-148.628
2026-01-15,08:45:15,1157847791,403491897,505811,547.807,-1.88772,-1.03562,-0.00488843,0.263627,0.0318536,0.0198217,-0.963895,4.12102,-1.23048,-149.462,444.0,4294970000,50,4.67485e-39,901,148.401,6.4026,312,7.7,7.1,,4.12102,-149.462
2026-01-15,08:45:16,1157847683,403491744,505736,547.391,-0.832576,-0.497294,-0.00867289,0.263007,0.120855,0.0431406,-0.956222,14.7048,-1.12165,-149.398,444.0,4294970000,49,4.67485e-39,901,165.704,6.60642,330,7.4,7.1,,14.7048,-149.398
2026-01-15,08:45:17,1157847654,403491701,505632,547.194,0.062763,-0.00692257,-1.06793,0.265132,0.0555889,0.0285585,-0.962185,7.01483,-1.4712,-149.29,444.0,4294970000,49,4.67485e-39,901,176.264,7.43696,332,7.4,7.1,,7.01483,-149.29
2026-01-15,08:45:18,1157847659,403491715,503672,547.166,0.261779,0.142694,-3.26646,0.266751,0.0282156,0.0205864,-0.963132,3.74628,-1.41284,-149.096,444.0,4294970000,49,4.67485e-39,901,159.197,8.29426,330,7.5,7.1,,3.74628,-149.096
2026-01-15,08:45:19,1157847674,403491746,500366,545.908,0.23849,0.11454,-3.22913,0.26314,0.00784747,0.0115138,-0.964657,1.21483,-1.03648,-149.506,443.0,4294970000,49,4.67485e-39,902,157.677,8.72485,322,7.9,7.1,,1.21483,-149.506
2026-01-15,08:45:20,1157847681,403491773,497179,542.158,0.105969,-0.00311469,-2.77864,0.261666,-0.00492641,0.0112531,-0.96508,-0.207406,-1.39245,-149.668,443.0,4294970000,49,4.67485e-39,902,155.014,8.33412,315,7.7,7.1,,-0.207406,-149.668
2026-01-15,08:45:21,1157847677,403491775,495136,538.617,0.0195836,0.0767549,-0.152845,0.270041,0.0371131,0.0274576,-0.961741,4.94631,-1.88508,-148.725,444.0,4294970000,49,4.67485e-39,903,166.809,7.89691,315,7.9,7.1,,4.94631,-148.725
2026-01-15,08:45:22,1157847646,403491744,495252,537.317,0.125109,-0.0574732,0.186771,0.378945,-0.0230871,-0.016553,0.924983,1.72872,-2.7596,135.413,444.0,4294970000,49,4.67485e-39,902,94.3011,8.2661,318,8.2,7.1,,1.72872,135.413
2026-01-15,08:45:23,1157847659,403491688,495332,538.289,-0.11339,-0.242006,0.0223578,0.910167,0.0346161,-0.0400662,0.410845,-5.81893,1.73339,48.5039,444.0,4294970000,49,4.67485e-39,902,36.5179,9.83066,347,9.6,7.1,,-5.81893,48.5039
2026-01-15,08:45:24,1157847661,403491679,495387,537.733,0.0736265,0.108233,0.125123,0.930957,0.0437144,-0.066681,0.356317,-8.93524,1.96517,41.7375,445.0,4294970000,49,4.67485e-39,902,46.2494,9.65359,4,9.8,7.1,,-8.93524,41.7375
2026-01-15,08:45:25,1157847705,403491711,495531,537.72,0.805624,0.882863,0.106623,0.930785,0.0316725,-0.0444169,0.361474,-6.06118,1.54731,42.369,446.0,4294970000,49,4.67485e-39,902,86.9138,9.14048,40,10.1,7.1,,-6.06118,42.369
2026-01-15,08:45:26,1157847809,403491784,495606,537.826,0.85188,0.921796,0.0559938,0.930576,0.0239077,-0.037047,0.363433,-4.95275,1.01046,42.6253,445.0,4294970000,50,4.67485e-39,902,111.301,9.28445,62,9.9,7.1,,-4.95275,42.6253
2026-01-15,08:45:27,1157847911,403491861,495642,537.483,0.815891,0.809937,0.0325449,0.929947,0.0252365,-0.0359999,0.365057,-4.89832,1.18785,42.818,445.0,4294970000,50,4.67485e-39,902,113.995,9.73457,65,10.2,7.1,,-4.89832,42.818
2026-01-15,08:45:28,1157848003,403491934,495665,537.399,0.761594,0.755149,0.0250745,0.929265,0.023807,-0.031609,0.367288,-4.37247,1.20844,43.0894,445.0,4294970000,50,4.67485e-39,902,113.72,9.96649,65,10.4,7.1,,-4.37247,43.0894
2026-01-15,08:45:29,1157848087,403492001,495670,537.474,0.739812,0.710898,0.00757559,0.929417,0.0247599,-0.0351061,0.366522,-4.78476,1.16678,42.9987,446.0,4294970000,50,4.67485e-39,902,112.388,9.9813,64,10.4,7.1,,-4.78476,42.9987
2026-01-15,08:45:30,1157848165,403492067,495670,537.545,0.728001,0.673928,0.00936081,0.929639,0.0261298,-0.0376095,0.365614,-5.10838,1.21287,42.8871,446.0,4294970000,50,4.67485e-39,902,112.198,9.90981,64,10.3,7.1,,-5.10838,42.8871
2026-01-15,08:45:31,1157848245,403492130,495683,537.977,0.724464,0.691333,0.00779817,0.929277,0.0233102,-0.0364173,0.366846,-4.86408,0.954907,43.0473,445.0,4294970000,50,4.67485e-39,902,111.272,9.97795,63,10.4,7.1,,-4.86408,43.0473
2026-01-15,08:45:32,1157848322,403492195,495672,537.754,0.729656,0.692072,0.00495427,0.928972,0.0254598,-0.0380842,0.367305,-5.13299,1.1119,43.0999,445.0,4294970000,50,4.67485e-39,902,111.323,10.0802,63,10.5,7.1,,-5.13299,43.0999
2026-01-15,08:45:33,1157848400,403492260,495658,537.737,0.73717,0.686122,0.00286817,0.928951,0.0266578,-0.0384454,0.367235,-5.22193,1.22513,43.0873,445.0,4294970000,50,4.67485e-39,902,111.297,10.1883,63,10.6,7.1,,-5.22193,43.0873
2026-01-15,08:45:34,1157848478,403492326,495643,537.794,0.721231,0.688554,0.00848898,0.929278,0.0270539,-0.0356451,0.366661,-4.93893,1.38862,43.0082,444.0,4294970000,50,4.67485e-39,902,111.181,10.0789,63,10.5,7.1,,-4.93893,43.0082
2026-01-15,08:45:35,1157848555,403492392,495634,537.813,0.745345,0.693171,0.00768392,0.929073,0.0312607,-0.035204,0.366889,-5.06921,1.85579,43.019,444.0,4294970000,50,4.67485e-39,902,112.495,9.90172,64,10.3,7.1,,-5.06921,43.019
2026-01-15,08:45:36,1157848634,403492458,495628,538.056,0.723962,0.704226,-0.00487823,0.929162,0.024599,-0.0388213,0.366804,-5.17484,0.991552,43.0435,444.0,4294970000,50,4.67485e-39,902,112.394,9.88343,64,10.3,7.1,,-5.17484,43.0435
2026-01-15,08:45:37,1157848714,403492523,495618,537.672,0.730026,0.696309,-0.000566014,0.92889,0.027397,-0.0411446,0.367043,-5.54091,1.19141,43.0676,444.0,4294970000,50,4.67485e-39,902,112.409,9.99348,64,10.4,7.1,,-5.54091,43.0676
2026-01-15,08:45:38,1157848796,403492589,495611,537.968,0.724717,0.693451,-0.00371475,0.929249,0.0247625,-0.0352293,0.366936,-4.79853,1.15973,43.05,444.0,4294970000,50,4.67485e-39,902,112.221,10.1924,64,10.6,7.1,,-4.79853,43.05
2026-01-15,08:45:39,1157848877,403492655,495602,537.643,0.744912,0.696082,0.00020849,0.929123,0.0254507,-0.0364041,0.367094,-4.95307,1.18294,43.0698,444.0,4294970000,49,4.67485e-39,902,113.497,10.0154,65,10.4,7.1,,-4.95307,43.0698
2026-01-15,08:45:40,1157848955,403492722,495604,537.581,0.736081,0.693746,0.00273596,0.929336,0.0269413,-0.036119,0.366476,-4.98451,1.35763,42.9868,444.0,4294970000,50,4.67485e-39,902,112.335,9.99625,64,10.4,7.1,,-4.98451,42.9868
2026-01-15,08:45:41,1157849037,403492787,495604,537.468,0.721295,0.714661,-0.00114223,0.92863,0.0262254,-0.0363478,0.36829,-4.98131,1.2617,43.2143,444.0,4294970000,50,4.67485e-39,902,112.585,9.87557,64,10.3,7.1,,-4.98131,43.2143
2026-01-15,08:45:42,1157849116,403492852,495584,537.681,0.704013,0.708861,-0.000985315,0.922295,0.0341033,-0.0381122,0.383089,-5.53407,1.94076,45.0221,445.0,4294970000,50,4.67485e-39,902,114.407,9.90519,64,10.3,7.1,,-5.53407,45.0221
2026-01-15,08:45:43,1157849202,403492915,495564,537.676,0.63142,0.772852,-0.00584389,0.908774,0.0283487,-0.0333386,0.414987,-4.82597,1.37188,49.033,444.0,4294970000,50,4.67485e-39,902,117.248,9.86325,63,10.3,7.1,,-4.82597,49.033
2026-01-15,08:45:44,1157849295,403492971,495552,537.846,0.571515,0.836019,-0.00188644,0.893127,0.0249095,-0.0315776,0.448003,-4.5156,0.931252,53.245,444.0,4294970000,50,4.67485e-39,902,121.474,9.84526,63,10.3,7.1,,-4.5156,53.245
2026-01-15,08:45:45,1157849388,403493022,495540,537.712,0.516312,0.84781,0.0063552,0.877036,0.0269282,-0.0358195,0.47833,-5.08293,0.745959,57.1866,444.0,4294970000,50,4.67485e-39,902,123.172,10.0358,61,10.5,7.1,,-5.08293,57.1866
2026-01-15,08:45:46,1157849484,403493068,495523,537.717,0.47164,0.876158,0.00156116,0.862435,0.0258447,-0.036505,0.504188,-5.10805,0.446887,60.6065,444.0,4294970000,50,4.67485e-39,902,125.465,10.2241,60,10.7,7.1,,-5.10805,60.6065
2026-01-15,08:45:47,1157849584,403493110,495515,537.756,0.436526,0.89832,0.00033233,0.849553,0.026824,-0.038687,0.525399,-5.38956,0.283436,63.4601,444.0,4294970000,50,4.67485e-39,902,125.087,10.4828,57,11.0,7.1,,-5.38956,63.4601
2026-01-15,08:45:48,1157849687,403493148,495504,537.657,0.372576,0.948791,-0.0100461,0.833936,0.027044,-0.0373245,0.549933,-5.27891,0.23329,66.7993,444.0,4294970000,50,4.67485e-39,902,126.229,10.7246,55,11.3,7.1,,-5.27891,66.7993
2026-01-15,08:45:49,1157849797,403493181,495496,537.785,0.314673,0.963789,0.00184914,0.818857,0.0251586,-0.0396779,0.572072,-5.3807,-0.241415,69.8946,444.0,4294970000,50,4.67485e-39,902,127.205,10.5933,53,11.2,7.1,,-5.3807,69.8946
2026-01-15,08:45:50,1157849910,403493209,495527,537.587,0.275242,0.97721,0.00761399,0.802054,0.0234908,-0.0382684,0.595562,-5.12757,-0.454528,73.2169,444.0,4294970000,50,4.67485e-39,902,129.436,10.7908,52,11.4,7.1,,-5.12757,73.2169
2026-01-15,08:45:51,1157850026,403493231,495543,537.63,0.20515,0.98894,-0.0035704,0.781919,0.0228959,-0.0362696,0.621903,-4.88776,-0.535243,77.0229,444.0,4294970000,50,4.67485e-39,902,131.008,10.9622,50,11.6,7.0,,-4.88776,77.0229
2026-01-15,08:45:52,1157850140,403493247,495558,537.955,0.129844,0.981644,-0.00871412,0.757984,0.021473,-0.0404812,0.650661,-5.12438,-1.15796,81.344,444.0,4294970000,49,4.67485e-39,902,131.995,11.1352,47,11.8,7.0,,-5.12438,81.344
2026-01-15,08:45:53,1157850255,403493256,495575,538.173,0.0657981,0.991735,-0.0047298,0.736582,0.0179879,-0.0413995,0.674841,-4.89168,-1.6897,85.069,444.0,4294970000,49,4.67485e-39,902,134.62,11.2183,46,11.9,7.0,,-4.89168,85.069
2026-01-15,08:45:54,1157850370,403493261,495610,538.113,0.0338301,0.993235,-0.00310982,0.729229,0.0167312,-0.043788,0.682662,-4.97453,-2.03555,86.3167,444.0,4294970000,49,4.67485e-39,902,132.578,11.3727,43,12.1,7.0,,-4.97453,86.3167
2026-01-15,08:45:55,1157850485,403493264,495629,537.905,0.0728436,0.988696,-0.0081344,0.730334,0.0198301,-0.0419976,0.681509,-5.07041,-1.62693,86.1171,444.0,4294970000,49,4.67485e-39,902,131.42,11.4881,42,12.2,7.0,,-5.07041,86.1171
2026-01-15,08:45:56,1157850604,403493267,495662,537.695,0.0626946,1.01852,-0.00425844,0.730035,0.0178017,-0.0419757,0.681887,-4.90887,-1.79772,86.1772,444.0,4294970000,49,4.67485e-39,902,131.51,11.5592,42,12.3,7.0,,-4.90887,86.1772
2026-01-15,08:45:57,1157850723,403493274,495672,537.379,0.0737981,1.02115,-0.00741943,0.729983,0.0203359,-0.0373227,0.682143,-4.71732,-1.22065,86.176,444.0,4294970000,49,4.67485e-39,902,131.664,11.2657,42,12.0,7.0,,-4.71732,86.176
2026-01-15,08:45:58,1157850843,403493280,495699,537.375,0.0599889,1.00612,0.00998991,0.730144,0.0181581,-0.0393915,0.681915,-4.72041,-1.56447,86.1585,444.0,4294970000,49,4.67485e-39,902,131.537,11.2664,42,12.0,7.0,,-4.72041,86.1585
2026-01-15,08:45:59,1157850958,403493285,495735,537.69,0.0553332,0.995822,0.00625543,0.729935,0.0204876,-0.0395539,0.682064,-4.91613,-1.38314,86.1823,445.0,4294970000,50,4.67485e-39,902,131.575,11.0721,42,11.8,7.0,,-4.91613,86.1823
2026-01-15,08:46:00,1157851073,403493288,495755,537.425,0.0447483,0.997625,-0.00315268,0.729098,0.0211471,-0.0407409,0.682869,-5.06559,-1.42703,86.319,445.0,4294970000,50,4.67485e-39,902,131.652,11.1658,42,11.9,7.0,,-5.06559,86.319
2026-01-15,08:46:01,1157851188,403493292,495773,537.578,0.03943,1.02174,0.0081454,0.725945,0.0207355,-0.0416557,0.686177,-5.10277,-1.55695,86.8496,445.0,4294970000,50,4.67485e-39,902,132.405,10.751,42,11.5,7.0,,-5.10277,86.8496
2026-01-15,08:46:02,1157851304,403493295,495808,537.893,-0.0235417,1.02441,0.0104366,0.705964,0.0225409,-0.0396335,0.706778,-5.03872,-1.39206,90.1339,445.0,4294970000,50,4.67485e-39,902,135.677,10.7464,42,11.5,7.0,,-5.03872,90.1339
2026-01-15,08:46:03,1157851419,403493293,495846,537.835,-0.137781,1.01124,-0.00863258,0.668536,0.0202462,-0.033414,0.742652,-4.2871,-1.29638,96.0685,445.0,4294970000,50,4.67485e-39,902,141.581,10.6436,42,11.4,7.0,,-4.2871,96.0685
2026-01-15,08:46:04,1157851531,403493282,495872,537.621,-0.232992,0.990082,-0.00457586,0.629107,0.023243,-0.033075,0.776267,-4.45675,-1.27058,102.013,445.0,4294970000,50,4.67485e-39,902,146.359,10.939,41,11.7,7.0,,-4.45675,102.013
2026-01-15,08:46:05,1157851642,403493261,495892,537.836,-0.333057,0.962313,0.00529858,0.588222,0.0161508,-0.0320478,0.807903,-3.65816,-1.88261,107.952,445.0,4294970000,50,4.67485e-39,902,150.146,11.0138,39,11.8,7.0,,-3.65816,107.952
2026-01-15,08:46:06,1157851749,403493231,495912,537.749,-0.440223,0.932141,0.00358545,0.551409,0.0163263,-0.030739,0.833508,-3.50412,-1.90842,113.093,445.0,4294970000,50,4.67485e-39,902,151.061,10.5486,35,11.4,7.0,,-3.50412,113.093
2026-01-15,08:46:07,1157851854,403493193,495951,537.776,-0.520789,0.876795,-0.00500959,0.510556,0.0172521,-0.0316827,0.859088,-3.55451,-2.11434,118.628,445.0,4294970000,50,4.67485e-39,902,152.253,10.4197,31,11.3,7.0,,-3.55451,118.628
2026-01-15,08:46:08,1157851952,403493146,495950,538.05,-0.616723,0.821328,-0.00628949,0.468287,0.00782333,-0.0333817,0.882911,-2.5839,-2.9621,124.194,444.0,4294970000,50,4.67485e-39,902,155.635,10.3889,29,11.3,7.0,,-2.5839,124.194
2026-01-15,08:46:09,1157852043,403493094,495949,537.958,-0.655447,0.73961,0.00303586,0.427166,0.00805003,-0.0314464,0.90359,-2.37368,-2.8659,129.465,444.0,4294970000,50,4.67485e-39,902,156.523,10.3967,25,11.3,7.0,,-2.37368,129.465
2026-01-15,08:46:10,1157852126,403493036,495962,538.065,-0.755464,0.668462,-0.00420526,0.379935,0.0042323,-0.0331459,0.92441,-1.89189,-3.3308,135.379,444.0,4294970000,50,4.67485e-39,902,159.18,10.0506,22,11.0,7.0,,-1.89189,135.379
2026-01-15,08:46:11,1157852200,403492974,495961,538.371,-0.802237,0.59146,0.00553411,0.330206,0.00706738,-0.0340797,0.943267,-2.05405,-3.42075,141.485,445.0,4294970000,50,4.67485e-39,902,162.067,10.0502,19,11.0,7.0,,-2.05405,141.485
2026-01-15,08:46:12,1157852267,403492903,495966,538.398,-0.869048,0.537052,0.00422495,0.287801,0.00188683,-0.0364986,0.956993,-1.41087,-3.94493,146.584,445.0,4294970000,50,4.67485e-39,902,166.179,9.92329,18,10.9,7.0,,-1.41087,146.584
2026-01-15,08:46:13,1157852329,403492826,495983,538.48,-0.897128,0.517202,-0.00294705,0.269243,-0.00285921,-0.0363674,0.962381,-0.806812,-4.10306,148.78,445.0,4294970000,50,4.67485e-39,902,162.952,9.8882,13,10.9,7.0,,-0.806812,148.78
2026-01-15,08:46:14,1157852391,403492747,495979,538.42,-0.858873,0.509473,-0.00319814,0.271398,-0.00490748,-0.0361007,0.961778,-0.581921,-4.13545,148.516,446.0,4294970000,50,4.67485e-39,902,158.326,9.61253,9,10.6,7.0,,-0.581921,148.516
2026-01-15,08:46:15,1157852451,403492672,495985,538.679,-0.862647,0.483061,-0.00151924,0.269791,-0.00154391,-0.0386889,0.96214,-1.02601,-4.3184,148.722,446.0,4294970000,49,4.67485e-39,902,157.287,9.71719,8,10.7,7.0,,-1.02601,148.722
2026-01-15,08:46:16,1157852508,403492597,495983,538.332,-0.871662,0.500432,-0.00255561,0.272229,-0.00242838,-0.0421723,0.961305,-1.0482,-4.72784,148.431,446.0,4294970000,49,4.67485e-39,902,155.914,10.0996,7,11.1,7.0,,-1.0482,148.431
2026-01-15,08:46:17,1157852567,403492520,495975,537.774,-0.8809,0.525162,-0.0013043,0.270512,-0.000311677,-0.0394792,0.961907,-1.18961,-4.3668,148.642,446.0,4294970000,50,4.67485e-39,902,156.233,10.3816,7,11.4,7.0,,-1.18961,148.642
2026-01-15,08:46:18,1157852631,403492443,495967,537.85,-0.884819,0.532592,0.00615091,0.27121,-0.00504301,-0.0376094,0.961772,-0.613102,-4.30631,148.538,446.0,4294970000,49,4.67485e-39,902,155.057,10.4726,6,11.5,7.0,,-0.613102,148.538
2026-01-15,08:46:19,1157852695,403492364,495964,538.185,-0.8748,0.530792,0.00182206,0.271698,-0.00577788,-0.0371781,0.961647,-0.520857,-4.28126,148.477,446.0,4294970000,50,4.67485e-39,902,155.009,10.3823,6,11.4,7.0,,-0.520857,148.477
2026-01-15,08:46:20,1157852758,403492287,495966,538.123,-0.864287,0.524301,0.00970432,0.272441,-0.00411592,-0.0338711,0.961567,-0.603969,-3.8641,148.393,446.0,4294970000,49,4.67485e-39,902,153.827,10.1927,5,11.2,7.0,,-0.603969,148.393
2026-01-15,08:46:21,1157852821,403492211,495977,538.014,-0.837078,0.527326,-0.00877869,0.274014,-0.00531824,-0.0337345,0.961119,-0.473565,-3.88578,148.201,446.0,4294970000,49,4.67485e-39,902,153.71,10.0155,5,11.0,7.0,,-0.473565,148.201
2026-01-15,08:46:22,1157852883,403492137,495974,538.031,-0.862485,0.520192,0.00361739,0.27099,-0.000465981,-0.0359197,0.961912,-1.0642,-3.97797,148.581,446.0,4294970000,49,4.67485e-39,902,154.016,9.99648,5,11.0,7.0,,-1.0642,148.581
2026-01-15,08:46:23,1157852944,403492060,495966,538.077,-0.862083,0.491875,-0.00150329,0.258313,0.00142974,-0.0326502,0.965508,-1.1248,-3.57333,150.09,446.0,4294970000,49,4.67485e-39,902,155.527,10.0114,5,11.0,7.0,,-1.1248,150.09
2026-01-15,08:46:24,1157853001,403491982,495968,538.101,-0.917346,0.424478,-0.00463333,0.224292,-0.00314149,-0.0285838,0.974098,-0.384028,-3.27345,154.089,446.0,4294970000,49,4.67485e-39,902,159.463,9.9918,5,11.0,7.0,,-0.384028,154.089
2026-01-15,08:46:25,1157853050,403491903,495943,538.128,-0.96615,0.342853,-0.00774045,0.17985,-0.00486,-0.027004,0.983311,-0.00891352,-3.14476,159.282,446.0,4294970000,50,4.67485e-39,902,164.655,9.87729,5,10.9,7.0,,-0.00891352,159.282
2026-01-15,08:46:26,1157853093,403491823,495927,537.631,-0.982747,0.276228,0.000937535,0.138664,-0.00603498,-0.0206382,0.990106,0.356808,-2.43842,164.06,446.0,4294970000,49,4.67485e-39,902,168.428,9.58164,4,10.6,7.0,,0.356808,164.06
2026-01-15,08:46:27,1157853122,403491737,495920,537.787,-1.00141,0.167451,0.0024357,0.10195,-0.00585662,-0.0250717,0.994456,0.374526,-2.92705,168.296,446.0,4294970000,50,4.67485e-39,902,168.033,9.28558,0,10.3,7.0,,0.374526,168.296
2026-01-15,08:46:28,1157853139,403491646,495911,537.832,-1.01002,0.0915143,0.00323127,0.0709129,-0.0101673,-0.0278868,0.997041,0.935144,-3.2712,171.85,445.0,4294970000,50,4.67485e-39,902,169.256,9.29026,358,10.3,7.0,,0.935144,171.85
2026-01-15,08:46:29,1157853151,403491557,495900,537.371,-0.995281,0.0296671,0.0083073,0.0366226,-0.013611,-0.0258172,0.998903,1.44991,-3.01489,175.775,445.0,4294970000,50,4.67485e-39,902,169.866,9.2142,355,10.2,7.0,,1.44991,175.775
2026-01-15,08:46:30,1157853155,403491468,495900,537.835,-0.995045,-0.0331103,0.00352503,0.00129109,-0.0127813,-0.0231804,0.999649,1.46095,-2.65925,179.831,445.0,4294970000,50,4.67485e-39,902,170.627,8.92174,352,9.9,7.0,,1.46095,179.831
2026-01-15,08:46:31,1157853153,403491381,495902,537.537,-0.987811,-0.0979959,0.00105426,0.0349157,0.0130417,0.0206172,-0.999093,1.57592,-2.3099,-176.042,445.0,4294970000,50,4.67485e-39,902,173.626,8.72677,351,9.7,7.0,,1.57592,-176.042
2026-01-15,08:46:32,1157853142,403491293,495899,537.54,-0.999964,-0.18513,0.0039875,0.0761952,0.0151047,0.02098,-0.996758,1.90894,-2.26647,-171.308,445.0,4294970000,50,4.67485e-39,902,173.667,8.02129,347,9.0,7.0,,1.90894,-171.308
2026-01-15,08:46:33,1157853122,403491207,495900,537.441,-0.95986,-0.274315,0.00905031,0.120843,0.0179357,0.0185445,-0.992336,2.29711,-1.86235,-166.163,445.0,4294970000,50,4.67485e-39,902,175.084,7.55824,344,8.5,7.0,,2.29711,-166.163
2026-01-15,08:46:34,1157853091,403491122,495920,537.311,-0.93014,-0.355852,0.00666907,0.161806,0.0189603,0.0184544,-0.986468,2.48643,-1.73657,-161.42,445.0,4294970000,50,4.67485e-39,902,177.648,7.46844,343,8.4,7.0,,2.48643,-161.42
2026-01-15,08:46:35,1157853052,403491039,495940,537.144,-0.918523,-0.395869,0.00864538,0.184111,0.0178365,0.0180753,-0.982577,2.39051,-1.66068,-158.821,445.0,4294970000,50,4.67485e-39,902,175.571,7.29928,338,8.2,7.0,,2.39051,-158.821
2026-01-15,08:46:36,1157853008,403490958,495954,537.121,-0.905473,-0.40677,0.00767575,0.184986,0.0142346,0.0193437,-0.982448,2.01314,-1.8776,-158.718,445.0,4294970000,49,4.67485e-39,902,173.515,7.02937,336,7.9,7.0,,2.01314,-158.718
2026-01-15,08:46:37,1157852963,403490876,495964,537.249,-0.923857,-0.41409,0.00216447,0.184312,0.0132112,0.0208389,-0.982558,1.92812,-2.06905,-158.798,446.0,4294970000,50,4.67485e-39,902,172.179,6.82203,335,7.7,7.0,,1.92812,-158.798
2026-01-15,08:46:38,1157852917,403490792,495964,537.283,-0.925572,-0.376118,-0.000822778,0.184772,0.0171315,0.0197908,-0.982433,2.34851,-1.86733,-158.747,446.0,4294970000,50,4.67485e-39,902,169.152,6.84204,332,7.7,7.0,,2.34851,-158.747
2026-01-15,08:46:39,1157852872,403490706,495962,537.344,-0.928814,-0.376163,0.0012335,0.186235,0.0196376,0.0233075,-0.982032,2.70849,-2.20693,-158.587,446.0,4294970000,49,4.67485e-39,902,171.496,6.81923,334,7.7,7.0,,2.70849,-158.587
2026-01-15,08:46:40,1157852827,403490621,495960,537.413,-0.914108,-0.358583,-0.00389263,0.185128,0.0200857,0.0214055,-0.982276,2.71617,-1.98608,-158.712,445.0,4294970000,50,4.67485e-39,902,169.255,6.74999,332,7.6,7.0,,2.71617,-158.712
2026-01-15,08:46:41,1157852784,403490539,495962,537.145,-0.899558,-0.359698,-1.95e-05,0.185135,0.0170052,0.0224465,-0.98231,2.39125,-2.16848,-158.71,445.0,4294970000,49,4.67485e-39,902,169.149,6.46511,332,7.3,7.0,,2.39125,-158.71
2026-01-15,08:46:42,1157852742,403490458,495955,537.16,-0.910542,-0.370652,0.000509559,0.183506,0.0153695,0.0236474,-0.982614,2.22858,-2.34209,-158.901,445.0,4294970000,50,4.67485e-39,902,170.032,6.54857,333,7.4,7.0,,2.22858,-158.901
2026-01-15,08:46:43,1157852701,403490377,495940,537.104,-0.930624,-0.366214,0.00736308,0.198752,0.0161917,0.011902,-0.979844,2.08972,-0.968365,-157.097,444.0,4294970000,49,4.67485e-39,902,173.136,6.70393,334,7.6,7.0,,2.08972,-157.097
2026-01-15,08:46:44,1157852658,403490296,495919,537.096,-0.888608,-0.458152,-0.00537183,0.232667,0.0175872,0.0103137,-0.972343,2.23531,-0.680854,-153.111,444.0,4294970000,50,4.67485e-39,902,177.942,6.70245,336,7.6,7.0,,2.23531,-153.111
2026-01-15,08:46:45,1157852605,403490220,495914,537.138,-0.822486,-0.55672,0.00301414,0.27748,0.0176513,0.00891352,-0.960528,2.227,-0.420194,-147.793,444.0,4294970000,50,4.67485e-39,902,177.717,6.5486,333,7.4,7.0,,2.227,-147.793
2026-01-15,08:46:46,1157852543,403490147,495931,537.288,-0.778832,-0.633469,0.0036569,0.321973,0.017065,0.008545,-0.946557,2.16695,-0.297469,-142.444,444.0,4294970000,49,4.67485e-39,902,175.838,5.95814,331,6.8,7.0,,2.16695,-142.444
2026-01-15,08:46:47,1157852473,403490080,495950,537.374,-0.725767,-0.69941,0.0112873,0.361507,0.0145567,0.00485911,-0.932243,1.75675,0.0839814,-137.618,444.0,4294970000,49,4.67485e-39,902,172.713,5.66651,330,6.5,7.0,,1.75675,-137.618
2026-01-15,08:46:48,1157852394,403490014,495985,537.471,-0.6719,-0.753244,0.00139657,0.393383,0.0202657,0.00583161,-0.919133,2.39824,0.299616,-133.662,443.0,4294970000,49,4.67485e-39,902,172.62,5.20559,327,6.0,7.0,,2.39824,-133.662
2026-01-15,08:46:49,1157852308,403489954,495987,537.922,-0.603874,-0.79345,-0.035184,0.426531,0.0238354,0.000984516,-0.904158,2.51868,1.06417,-129.475,443.0,4294970000,49,4.67485e-39,902,174.053,5.17817,322,5.9,7.0,,2.51868,-129.475
2026-01-15,08:46:50,1157852216,403489899,495982,537.247,-0.583823,-0.825423,0.000921632,0.455216,0.0258152,-0.00118491,-0.890006,2.57206,1.46922,-125.799,443.0,4294970000,50,4.67485e-39,902,173.639,4.99002,319,5.7,7.0,,2.57206,-125.799
2026-01-15,08:46:51,1157852121,403489847,496004,537.248,-0.49675,-0.905484,-0.00103501,0.489208,0.0270531,0.000734422,-0.871747,2.74488,1.44512,-121.374,443.0,4294970000,50,4.67485e-39,902,176.597,4.81321,312,5.4,7.0,,2.74488,-121.374
2026-01-15,08:46:52,1157852019,403489804,496011,537.068,-0.403381,-0.952474,0.0038068,0.526053,0.0254149,-0.00248771,-0.850069,2.32654,1.77625,-116.471,443.0,4294970000,50,4.67485e-39,902,176.723,4.41625,307,4.9,7.0,,2.32654,-116.471
2026-01-15,08:46:53,1157851910,403489769,496019,537.103,-0.31902200000000003,-0.984235,0.000822157,0.566422,0.0287352,0.00239274,-0.823611,2.86871,1.6417,-110.932,443.0,4294970000,50,4.67485e-39,902,175.807,4.44089,305,4.9,7.0,,2.86871,-110.932
2026-01-15,08:46:54,1157851797,403489740,496023,537.126,-0.237497,-1.00693,-0.00385885,0.60021,0.0297096,-0.00460946,-0.799277,2.40497,2.4687,-106.147,444.0,4294970000,50,4.67485e-39,902,176.371,4.03663,300,4.4,7.0,,2.40497,-106.147
2026-01-15,08:46:55,1157851682,403489717,496024,537.015,-0.216647,-0.999513,0.00153173,0.620571,0.0319769,-0.00369989,-0.78349,2.60891,2.60993,-103.186,444.0,4294970000,50,4.67485e-39,902,176.069,3.74993,298,4.1,7.0,,2.60891,-103.186
2026-01-15,08:46:56,1157851565,403489697,496026,536.902,-0.206762,-0.98819,-0.00490385,0.621846,0.0329668,-0.00263401,-0.782441,2.76943,2.58942,-102.993,444.0,4294970000,50,4.67485e-39,902,176.036,3.75637,298,4.1,7.0,,2.76943,-102.993
2026-01-15,08:46:57,1157851448,403489679,496025,537.035,-0.191151,-0.975268,0.000660251,0.621194,0.0278306,-0.000751279,-0.783162,2.44507,2.05096,-103.122,444.0,4294970000,50,4.67485e-39,902,176.599,3.774,298,4.1,7.0,,2.44507,-103.122
2026-01-15,08:46:58,1157851333,403489662,496027,537.0,-0.195384,-0.965572,-0.00452774,0.621535,0.0286041,-0.00046917,-0.782864,2.53366,2.082,-103.068,445.0,4294970000,50,4.67485e-39,902,176.53,3.76887,298,4.1,7.0,,2.53366,-103.068
2026-01-15,08:46:59,1157851218,403489644,496039,536.955,-0.192218,-0.975413,-0.000528149,0.62138,0.0298846,0.000152162,-0.782939,2.69321,2.11725,-103.083,445.0,4294970000,50,4.67485e-39,902,176.247,3.6126,296,3.9,7.0,,2.69321,-103.083
2026-01-15,08:47:00,1157851105,403489625,496042,536.935,-0.219336,-0.971928,-0.00294404,0.622111,0.028529,-0.00111531,-0.782408,2.47928,2.13644,-102.983,445.0,4294970000,50,4.67485e-39,902,176.403,3.58339,296,3.9,7.0,,2.47928,-102.983
2026-01-15,08:47:01,1157850991,403489605,496045,536.955,-0.224044,-0.975319,0.00058595,0.620196,0.0288439,-0.00015802,-0.783916,2.58089,2.06681,-103.262,445.0,4294970000,49,4.67485e-39,902,176.202,3.58382,296,3.9,7.0,,2.58089,-103.262
2026-01-15,08:47:02,1157850876,403489584,496036,537.054,-0.208187,-0.983084,-0.00481316,0.62035,0.027609,-0.002162,-0.783836,2.32699,2.15928,-103.246,445.0,4294970000,49,4.67485e-39,902,176.267,3.59914,296,3.9,7.0,,2.32699,-103.246
2026-01-15,08:47:03,1157850761,403489564,496039,536.994,-0.219816,-0.968151,-0.00161446,0.62125,0.0310442,-0.00364316,-0.782989,2.52706,2.5404,-103.092,445.0,4294970000,50,4.67485e-39,902,175.978,3.58507,296,3.9,7.0,,2.52706,-103.092
2026-01-15,08:47:04,1157850647,403489545,496040,537.005,-0.214032,-0.962005,-0.00545513,0.622282,0.0293309,-0.00266092,-0.782239,2.44033,2.33299,-102.952,445.0,4294970000,49,4.67485e-39,902,176.364,3.58785,296,3.9,7.0,,2.44033,-102.952
2026-01-15,08:47:05,1157850535,403489526,496034,536.926,-0.184187,-0.967979,-0.00985404,0.631631,0.0304301,-0.00712379,-0.774639,2.18626,2.83831,-101.567,445.0,4294970000,49,4.67485e-39,902,176.35,3.5941,296,3.9,7.0,,2.18626,-101.567
2026-01-15,08:47:06,1157850424,403489509,496027,537.101,-0.121089,-0.98854,0.00114117,0.66093,0.0369342,-0.0106471,-0.749463,2.36646,3.71773,-97.114,445.0,4294970000,50,4.67485e-39,902,173.605,3.58243,296,3.9,7.0,,2.36646,-97.114
2026-01-15,08:47:07,1157850312,403489499,496019,537.227,-0.0111792,-1.00406,-0.00873992,0.696002,0.0351544,-0.0122456,-0.717075,1.9125,3.81522,-91.6518,445.0,4294970000,49,4.67485e-39,902,169.149,3.17473,298,3.5,7.0,,1.9125,-91.6518
2026-01-15,08:47:08,1157850197,403489499,495989,537.653,0.0973935,-1.00101,-0.00374435,0.727828,0.0374957,-0.0121013,-0.684627,1.93286,4.0827,-86.4336,445.0,4294970000,49,4.67485e-39,902,164.251,3.19183,298,3.5,7.0,,1.93286,-86.4336
2026-01-15,08:47:09,1157850082,403489509,495976,537.709,0.202126,-1.01157,-0.00267676,0.754726,0.0368457,-0.0126092,-0.654883,1.6749,4.13852,-81.8425,445.0,4294970000,49,4.67485e-39,902,175.2,3.30415,282,3.3,7.0,,1.6749,-81.8425
2026-01-15,08:47:10,1157849968,403489527,495972,537.765,0.271814,-0.994096,-0.0101527,0.778033,0.0368265,-0.0124313,-0.62702,1.538,4.18203,-77.6805,446.0,4294970000,50,4.67485e-39,902,159.313,3.58618,253,3.1,7.0,,1.538,-77.6805
2026-01-15,08:47:11,1157849855,403489550,495968,538.077,0.335607,-0.956553,0.00366219,0.800627,0.0399545,-0.0130154,-0.597688,1.54269,4.56387,-73.4285,446.0,4294970000,50,4.67485e-39,902,141.638,4.00985,225,3.2,7.0,,1.54269,-73.4285
2026-01-15,08:47:12,1157849745,403489579,495974,537.601,0.40895,-0.935809,-0.0074443,0.822567,0.0373039,-0.0125929,-0.567303,1.23825,4.34036,-69.1442,446.0,4294970000,50,4.67485e-39,902,129.06,4.273,203,3.3,7.0,,1.23825,-69.1442
2026-01-15,08:47:13,1157849639,403489614,495976,537.905,0.457711,-0.884527,-0.00431685,0.843799,0.0396717,-0.0152836,-0.534973,0.954316,4.77943,-64.7148,446.0,4294970000,49,4.67485e-39,902,129.478,4.16683,198,3.2,7.0,,0.954316,-64.7148
2026-01-15,08:47:14,1157849538,403489655,495985,538.046,0.528101,-0.838649,-0.0140947,0.865607,0.0393169,-0.0182691,-0.498843,0.435384,4.95087,-59.8947,445.0,4294970000,50,4.67485e-39,902,131.26,4.1747,194,3.2,7.0,,0.435384,-59.8947
2026-01-15,08:47:15,1157849443,403489703,495997,538.872,0.630773,-0.78186,0.000311248,0.888515,0.0398216,-0.0182892,-0.45675,0.222124,5.01856,-54.406,445.0,4294970000,50,4.67485e-39,902,137.001,4.19128,194,3.2,7.0,,0.222124,-54.406
2026-01-15,08:47:16,1157849352,403489757,495984,539.124,0.694486,-0.743155,-0.0129621,0.906511,0.0388558,-0.0201919,-0.419904,-0.227874,5.01468,-49.7217,445.0,4294970000,50,4.67485e-39,902,141.534,4.20204,194,3.2,7.0,,-0.227874,-49.7217
2026-01-15,08:47:17,1157849266,403489816,495971,538.556,0.738492,-0.698404,-0.00947342,0.919418,0.0365317,-0.0229396,-0.39091,-0.78051,4.88318,-46.1042,445.0,4294970000,50,4.67485e-39,902,145.125,4.2009,194,3.2,7.0,,-0.78051,-46.1042
2026-01-15,08:47:18,1157849183,403489881,495950,538.526,0.72804,-0.694561,-0.0124005,0.921483,0.0357199,-0.0181413,-0.386347,-0.334249,4.58026,-45.51,445.0,4294970000,50,4.67485e-39,902,145.554,4.1887,194,3.2,7.0,,-0.334249,-45.51
2026-01-15,08:47:19,1157849098,403489947,495919,538.191,0.730857,-0.71144,-0.00146986,0.921701,0.0361412,-0.018648,-0.385763,-0.37199,4.64708,-45.4404,445.0,4294970000,50,4.67485e-39,902,145.433,4.20056,194,3.2,7.0,,-0.37199,-45.4404
2026-01-15,08:47:20,1157849014,403490012,495895,538.316,0.714594,-0.69665,-0.0107412,0.921937,0.0371061,-0.0207036,-0.385004,-0.550253,4.83985,-45.3577,445.0,4294970000,50,4.67485e-39,902,145.533,4.17826,194,3.2,7.0,,-0.550253,-45.3577
2026-01-15,08:47:21,1157848932,403490076,495892,538.921,0.696833,-0.70805,-0.00263518,0.921189,0.0364022,-0.022546,-0.386753,-0.766754,4.84841,-45.5852,445.0,4294970000,50,4.67485e-39,902,145.084,4.17091,194,3.2,7.0,,-0.766754,-45.5852
2026-01-15,08:47:22,1157848850,403490139,495889,538.456,0.702736,-0.693029,-0.0173863,0.921352,0.0334141,-0.0204703,-0.386749,-0.680453,4.44011,-45.5713,445.0,4294970000,49,4.67485e-39,902,134.649,4.38669,180,3.4,7.0,,-0.680453,-45.5713
2026-01-15,08:47:23,1157848768,403490202,495885,538.782,0.716181,-0.7073,-0.000147454,0.921626,0.033025,-0.0197936,-0.386164,-0.629079,4.36849,-45.495,445.0,4294970000,50,4.67485e-39,902,134.7,4.40644,180,3.4,7.0,,-0.629079,-45.495
2026-01-15,08:47:24,1157848684,403490265,495881,538.569,0.706321,-0.714162,-0.00647967,0.921564,0.0357045,-0.0198241,-0.386072,-0.513951,4.65319,-45.4849,444.0,4294970000,49,4.67485e-39,902,134.555,4.40437,180,3.4,7.0,,-0.513951,-45.4849
2026-01-15,08:47:25,1157848600,403490328,495880,538.543,0.709207,-0.704555,-0.0114817,0.921794,0.0371251,-0.0207986,-0.385337,-0.557696,4.84628,-45.3996,444.0,4294970000,49,4.67485e-39,902,134.736,4.39954,180,3.4,7.0,,-0.557696,-45.3996
2026-01-15,08:47:26,1157848518,403490392,495888,538.646,0.710808,-0.707748,-0.00265282,0.921607,0.0367891,-0.0197202,-0.385874,-0.455913,4.76321,-45.4602,444.0,4294970000,50,4.67485e-39,902,134.674,4.40299,180,3.4,7.0,,-0.455913,-45.4602
2026-01-15,08:47:27,1157848435,403490457,495905,538.523,0.709154,-0.711741,-0.014238,0.921819,0.0355317,-0.0198369,-0.385479,-0.525941,4.63514,-45.4113,444.0,4294970000,49,4.67485e-39,902,134.661,4.4046,180,3.4,7.0,,-0.525941,-45.4113
2026-01-15,08:47:28,1157848352,403490519,495909,538.304,0.71151,-0.69064,-0.00698107,0.924427,0.0413325,-0.0207109,-0.378546,-0.401042,5.28482,-44.5592,444.0,4294970000,50,4.67485e-39,902,135.536,4.39151,180,3.4,7.0,,-0.401042,-44.5592
2026-01-15,08:47:29,1157848274,403490580,495925,538.777,0.765304,-0.600795,-0.00345568,0.941357,0.0443545,-0.0251186,-0.333539,-1.01445,5.75564,-39.0741,444.0,4294970000,49,4.67485e-39,902,141.131,4.37269,180,3.4,7.0,,-1.01445,-39.0741
2026-01-15,08:47:30,1157848207,403490645,495944,538.527,0.827759,-0.518685,-0.00641196,0.958914,0.0438812,-0.0266403,-0.279013,-1.52463,5.68533,-32.5247,444.0,4294970000,50,4.67485e-39,902,147.562,4.37642,180,3.4,7.0,,-1.52463,-32.5247
2026-01-15,08:47:31,1157848149,403490716,495954,538.453,0.875926,-0.4492,-0.0101157,0.969922,0.046783,-0.0312828,-0.23682,-2.20806,6.06489,-27.5612,444.0,4294970000,49,4.67485e-39,902,141.515,4.66,166,3.7,7.0,,-2.20806,-27.5612
2026-01-15,08:47:32,1157848097,403490792,495958,538.294,0.937636,-0.370659,-0.0134336,0.978676,0.0478261,-0.0359337,-0.196507,-2.95448,6.19348,-22.8682,444.0,4294970000,50,4.67485e-39,902,121.495,5.66852,137,4.9,7.0,,-2.95448,-22.8682
2026-01-15,08:47:33,1157848056,403490875,495963,538.136,0.975974,-0.278529,-0.000703803,0.985671,0.0475743,-0.0347625,-0.158055,-3.06644,6.02324,-18.3827,444.0,4294970000,49,4.67485e-39,902,99.1039,6.1552,108,5.8,7.0,,-3.06644,-18.3827
2026-01-15,08:47:34,1157848025,403490963,495971,537.98,1.01889,-0.183095,-0.00650052,0.992306,0.0474109,-0.0324005,-0.109687,-3.09007,5.81719,-12.7734,444.0,4294970000,50,4.67485e-39,902,84.7426,6.50629,88,6.5,7.0,,-3.09007,-12.7734
2026-01-15,08:47:35,1157848007,403491055,495984,537.516,1.02657,-0.0616691,0.00611167,0.997415,0.0426115,-0.0250424,-0.0521543,-2.60865,5.032,-6.10155,444.0,4294970000,50,4.67485e-39,902,84.1203,6.47486,81,6.6,7.0,,-2.60865,-6.10155
2026-01-15,08:47:36,1157848000,403491142,496031,537.751,0.998389,0.00316558,3.25617e-06,0.998642,0.0370214,-0.0320207,-0.0178223,-3.59132,4.31483,-2.18032,444.0,4294970000,50,4.67485e-39,902,72.7511,6.83766,67,7.2,7.0,,-3.59132,-2.18032
2026-01-15,08:47:37,1157847998,403491229,496050,537.617,1.02769,-0.0028955,-0.0107537,0.998638,0.0357074,-0.0341726,-0.0167069,-3.84536,4.16495,-2.05691,444.0,4294970000,50,4.67485e-39,902,66.6433,6.93572,61,7.4,7.0,,-3.84536,-2.05691
2026-01-15,08:47:38,1157847994,403491317,496067,537.808,1.01353,-0.0279914,-0.00910045,0.998425,0.038893,-0.035513,-0.0193221,-3.98045,4.54446,-2.37552,444.0,4294970000,50,4.67485e-39,902,67.3785,6.97601,62,7.4,7.0,,-3.98045,-2.37552
2026-01-15,08:47:39,1157847992,403491409,496084,537.597,1.03638,-0.0166967,-0.00919147,0.998717,0.0357484,-0.0294265,-0.0204857,-3.28583,4.17112,-2.47003,444.0,4294970000,50,4.67485e-39,902,72.6499,6.93962,67,7.3,7.0,,-3.28583,-2.47003
2026-01-15,08:47:40,1157847987,403491500,496091,537.696,1.00431,-0.0332069,0.00171247,0.998619,0.0381399,-0.0301598,-0.0198799,-3.36658,4.44563,-2.41178,444.0,4294970000,50,4.67485e-39,902,70.6673,6.7335,65,7.1,7.0,,-3.36658,-2.41178
2026-01-15,08:47:41,1157847981,403491590,496110,537.733,0.985599,-0.0203313,0.00719748,0.998534,0.0407232,-0.029522,-0.0200194,-3.28663,4.74096,-2.43337,444.0,4294970000,50,4.67485e-39,902,71.5094,6.74322,66,7.1,7.0,,-3.28663,-2.43337
2026-01-15,08:47:42,1157847979,403491681,496129,537.866,1.00882,-0.0238122,-0.00475943,0.998589,0.038772,-0.0301119,-0.0202402,-3.35795,4.51928,-2.45501,444.0,4294970000,50,4.67485e-39,902,65.5001,6.54188,60,7.0,7.0,,-3.35795,-2.45501
2026-01-15,08:47:43,1157847976,403491772,496111,537.799,0.984122,-0.0260634,-0.00675969,0.998578,0.0383804,-0.0304604,-0.0210142,-3.39536,4.4779,-2.54408,444.0,4294970000,50,4.67485e-39,902,64.163,6.53736,59,7.0,7.0,,-3.39536,-2.54408
2026-01-15,08:47:44,1157847972,403491863,496109,537.561,0.977465,-0.0247341,-0.00756497,0.9985,0.0400461,-0.0319259,-0.0193736,-3.56661,4.66747,-2.36867,445.0,4294970000,50,4.67485e-39,902,63.2662,6.52695,58,7.0,7.0,,-3.56661,-2.36867
2026-01-15,08:47:45,1157847969,403491952,496081,537.773,0.56518,-0.00982498,-0.00382916,0.998119,0.0395292,0.0432781,-0.0179458,5.03813,4.4542,-1.86419,445.0,4294970000,49,4.67485e-39,902,59.8717,6.80769,58,7.1,7.0,,5.03813,-1.86419
2026-01-15,08:47:46,1157847965,403491979,496090,538.286,0.0917929,-0.0301739,0.00707127,0.998848,0.0409313,-0.0115302,-0.0222503,-1.21556,4.72112,-2.60251,445.0,4294970000,50,4.67485e-39,902,64.3309,6.68604,66,6.7,7.0,,-1.21556,-2.60251
2026-01-15,08:47:47,1157847946,403491981,496220,538.086,-0.0792946,-1.35736,-0.0366775,0.990181,-0.138041,-0.00530551,-0.0214105,-0.940785,-15.8548,-2.34659,445.0,4294970000,49,4.67485e-39,902,68.2818,7.43112,67,6.2,7.0,,-0.940785,-2.34659
2026-01-15,08:47:48,1157847680,403491969,496263,537.083,-0.194458,-4.4715,0.0146238,0.980726,-0.193901,-0.0162575,-0.0177446,-2.22206,-22.3376,-1.63453,446.0,4294970000,50,4.67485e-39,902,72.9654,10.0727,65,6.0,7.0,,-2.22206,-1.63453
2026-01-15,08:47:49,1157847196,403491956,496045,537.491,-0.133759,-1.79601,0.0435933,0.988358,0.148222,-0.0263515,-0.0220063,-2.61183,17.1263,-2.94453,446.0,4294970000,50,4.67485e-39,902,66.1217,7.99408,63,6.4,7.0,,-2.61183,-2.94453
2026-01-15,08:47:50,1157847026,403491945,496167,537.463,-0.0505161,-0.700111,-0.00742281,0.997513,0.0630284,-0.021713,-0.0229053,-2.31731,7.28765,-2.77861,446.0,4294970000,50,4.67485e-39,902,54.748,7.08526,54,6.5,7.0,,-2.31731,-2.77861
2026-01-15,08:47:51,1157846964,403491938,496193,538.086,-0.0403633,-0.328538,-0.00877441,0.997416,0.0626459,-0.0252442,-0.0244673,-2.71086,7.25895,-2.98263,446.0,4294970000,50,4.67485e-39,902,51.9823,6.57909,53,6.3,7.0,,-2.71086,-2.98263
2026-01-15,08:47:52,1157846947,403491935,496190,537.999,-0.0201425,-0.038765,-0.000681878,0.998529,0.0462489,-0.0162221,-0.0231991,-1.73362,5.34565,-2.74299,446.0,4294970000,49,4.67485e-39,902,51.5404,5.64273,54,5.6,7.0,,-1.73362,-2.74299
2026-01-15,08:47:53,1157846945,403491932,496198,538.048,-0.00519718,0.0321062,-0.000493596,0.998563,0.0428746,-0.0218837,-0.0235626,-2.38919,4.97603,-2.80748,446.0,4294970000,49,4.67485e-39,902,50.2081,5.57884,53,5.6,7.0,,-2.38919,-2.80748
2026-01-15,08:47:54,1157846949,403491929,496221,537.871,-0.00896279,0.0485229,0.00453377,0.99841,0.0433781,-0.027839,-0.0228411,-3.0732,5.04988,-2.75685,446.0,4294970000,49,4.67485e-39,902,52.2219,5.66688,55,5.7,7.0,,-3.0732,-2.75685
2026-01-15,08:47:55,1157846936,403491918,496229,537.992,0.00360718,-0.0959727,-0.0161335,0.94836,0.0365815,-0.0139896,0.314769,-2.84117,3.47752,36.6394,446.0,4294970000,50,4.67485e-39,902,105.516,6.09433,69,6.0,7.0,,-2.84117,36.6394
2026-01-15,08:47:56,1157846857,403491927,496258,537.273,-0.137795,0.0019257,0.0186105,0.54985,0.0127255,-0.0338147,0.834482,-3.34963,-2.43678,113.317,446.0,4294970000,50,4.67485e-39,902,178.299,7.36265,68,7.5,7.0,,-3.34963,113.317
2026-01-15,08:47:57,1157846859,403491918,496274,537.49,-0.0895068,0.323077,-0.0149818,0.533192,0.0423388,-0.0731201,0.841765,-8.58425,-4.52185,115.646,445.0,4294970000,50,4.67485e-39,902,179.501,8.30706,63,8.4,7.0,,-8.58425,115.646
2026-01-15,08:47:58,1157846957,403491891,496324,537.464,-0.743549,2.1608,0.00391556,0.535579,0.105463,-0.106912,0.831025,-16.8475,-3.87807,114.981,445.0,4294970000,50,4.67485e-39,902,166.881,9.27507,45,10.5,6.9,,-16.8475,114.981
2026-01-15,08:47:59,1157847259,403491803,496278,536.782,-1.18622,3.15284,0.0178523,0.539244,0.0460422,-0.060838,0.838687,-8.21299,-3.03459,114.747,445.0,4294970000,50,4.67485e-39,902,158.271,9.31121,32,11.8,6.9,,-8.21299,114.747
2026-01-15,08:48:00,1157847612,403491697,496211,536.538,-0.863631,2.13427,-0.00564306,0.537574,-0.0806933,0.0192237,0.839127,8.9808,-3.16292,114.47,445.0,4294970000,50,4.67485e-39,902,153.03,10.9448,33,12.7,6.9,,8.9808,114.47
2026-01-15,08:48:01,1157847780,403491648,496147,537.791,-0.0874974,0.0562057,-0.23582,0.539459,-0.0381552,-0.00211929,0.841144,3.54922,-2.5689,114.582,445.0,4294970000,50,4.67485e-39,902,150.504,12.8805,36,13.0,6.9,,3.54922,114.582
2026-01-15,08:48:02,1157847764,403491651,495288,537.686,0.115607,-0.414756,-2.57786,0.541415,-0.0141317,-0.023627,0.840305,-0.105093,-3.15367,114.423,445.0,4294970000,50,4.67485e-39,902,142.853,12.6323,31,12.1,6.9,,-0.105093,114.423
2026-01-15,08:48:03,1157847715,403491666,492281,535.257,0.128052,-0.233401,-3.40287,0.537408,-0.0121351,-0.0393703,0.842315,-1.2534,-4.55363,114.982,444.0,4294970000,50,4.67485e-39,902,139.67,11.8812,28,11.2,6.9,,-1.2534,114.982
2026-01-15,08:48:04,1157847680,403491686,488940,532.297,0.0455426,-0.139215,-3.10656,0.54295,0.0157744,-0.0361996,0.838836,-3.77155,-2.50459,114.264,445.0,4294970000,50,4.67485e-39,903,132.967,11.397,22,10.7,6.9,,-3.77155,114.264
2026-01-15,08:48:05,1157847659,403491702,486127,529.391,0.236633,-0.226239,-1.42167,0.54885,0.00669204,-0.0341008,0.835198,-2.78649,-2.84753,113.456,445.0,4294970000,50,4.67485e-39,903,131.922,11.3569,19,10.9,6.9,,-2.78649,113.456
2026-01-15,08:48:06,1157847649,403491699,485548,527.644,-0.187112,0.081566,0.360552,0.751286,-0.0020561,-0.0296636,0.659307,-2.3993,-2.42114,82.5953,445.0,4294970000,50,4.67485e-39,903,103.712,10.6729,22,10.8,6.9,,-2.3993,82.5953
2026-01-15,08:48:07,1157847695,403491669,485739,526.74,-0.0179301,-0.0952873,0.0656577,0.932033,0.0341733,-0.0257876,0.359834,-4.16728,2.59443,42.1293,445.0,4294970000,50,4.67485e-39,903,71.3451,10.4903,29,10.4,6.9,,-4.16728,42.1293
2026-01-15,08:48:08,1157847703,403491677,485847,526.79,0.544601,0.546836,0.0938664,0.9264,0.0530559,-0.0931682,0.360953,-12.1774,1.82002,42.3838,446.0,4294970000,50,4.67485e-39,903,90.6458,8.73502,44,9.3,6.9,,-12.1774,42.3838
2026-01-15,08:48:09,1157847790,403491742,485885,526.844,0.813725,0.847414,0.0703087,0.930666,0.0217037,-0.0336187,0.363675,-4.49474,0.916518,42.6552,446.0,4294970000,50,4.67485e-39,903,108.322,8.48934,59,9.1,6.9,,-4.49474,42.6552
2026-01-15,08:48:10,1157847891,403491821,485922,527.131,0.792797,0.794799,0.035887,0.929887,0.0211299,-0.0270443,0.36624,-3.77154,1.11913,42.9607,446.0,4294970000,50,4.67485e-39,903,113.417,8.92688,64,9.4,6.9,,-3.77154,42.9607
2026-01-15,08:48:11,1157847980,403491895,485932,526.723,0.762886,0.723042,0.025378,0.930072,0.0181023,-0.0275306,0.365895,-3.696,0.776695,42.928,446.0,4294970000,50,4.67485e-39,903,113.792,9.39566,65,9.8,6.9,,-3.696,42.928
2026-01-15,08:48:12,1157848060,403491964,485929,527.211,0.724608,0.685082,0.033088,0.929151,0.0274676,-0.0275737,0.367647,-4.09683,1.76782,43.1154,446.0,4294970000,50,4.67485e-39,903,113.849,9.21959,65,9.6,6.9,,-4.09683,43.1154
2026-01-15,08:48:13,1157848140,403492028,485947,527.034,0.718985,0.665073,0.0149486,0.92961,0.0261654,-0.0298758,0.366398,-4.28543,1.53751,42.9685,446.0,4294970000,50,4.67485e-39,903,114.833,8.95185,66,9.3,6.9,,-4.28543,42.9685
2026-01-15,08:48:14,1157848216,403492093,485940,526.973,0.710554,0.681186,0.0188095,0.929511,0.0253315,-0.0311443,0.366603,-4.38607,1.39412,42.9987,445.0,4294970000,50,4.67485e-39,903,113.822,8.91777,65,9.3,6.9,,-4.38607,42.9987
2026-01-15,08:48:15,1157848296,403492158,485937,527.401,0.73178,0.703818,0.00948729,0.929271,0.0221326,-0.0294231,0.367561,-4.0691,1.12052,43.1246,445.0,4294970000,50,4.67485e-39,903,114.112,8.90776,65,9.3,6.9,,-4.0691,43.1246
2026-01-15,08:48:16,1157848376,403492223,485936,526.761,0.73989,0.699282,0.00563739,0.929705,0.0216123,-0.0305576,0.366398,-4.16689,1.02233,42.9849,445.0,4294970000,50,4.67485e-39,903,113.937,9.0125,65,9.4,6.9,,-4.16689,42.9849
2026-01-15,08:48:17,1157848453,403492288,485922,526.954,0.73831,0.688477,0.0137523,0.929331,0.0235299,-0.0320516,0.3671,-4.40778,1.16108,43.0681,445.0,4294970000,50,4.67485e-39,903,113.097,8.80753,64,9.2,6.9,,-4.40778,43.0681
2026-01-15,08:48:18,1157848532,403492353,485912,527.096,0.738128,0.699383,0.0131471,0.929042,0.024815,-0.0293828,0.36797,-4.17847,1.40683,43.1663,445.0,4294970000,50,4.67485e-39,903,114.263,8.81584,65,9.2,6.9,,-4.17847,43.1663
2026-01-15,08:48:19,1157848613,403492420,485891,526.895,0.745738,0.697397,0.0102389,0.929176,0.0245861,-0.0290097,0.367676,-4.12858,1.39944,43.1303,445.0,4294970000,50,4.67485e-39,903,114.263,8.82027,65,9.2,6.9,,-4.12858,43.1303
2026-01-15,08:48:20,1157848692,403492486,485869,526.953,0.739743,0.683136,0.0109302,0.929652,0.0227391,-0.0273421,0.366718,-3.87155,1.27652,43.0153,444.0,4294970000,50,4.67485e-39,903,113.99,8.92797,65,9.3,6.9,,-3.87155,43.0153
2026-01-15,08:48:21,1157848772,403492552,485848,527.018,0.739595,0.679276,0.00864829,0.929765,0.0233514,-0.0256473,0.366517,-3.71617,1.41397,42.9864,444.0,4294970000,50,4.67485e-39,903,112.91,8.91454,64,9.3,6.9,,-3.71617,42.9864
2026-01-15,08:48:22,1157848850,403492618,485842,526.877,0.718674,0.6895,0.00172405,0.929014,0.0250143,-0.0316499,0.367838,-4.42848,1.33307,43.1533,444.0,4294970000,50,4.67485e-39,903,112.947,9.00015,64,9.4,6.9,,-4.42848,43.1533
2026-01-15,08:48:23,1157848931,403492683,485831,526.99,0.740593,0.695769,0.00529855,0.929551,0.0227382,-0.026973,0.367001,-3.83252,1.29078,43.0497,444.0,4294970000,50,4.67485e-39,903,113.09,8.8015,64,9.2,6.9,,-3.83252,43.0497
2026-01-15,08:48:24,1157849010,403492749,485825,527.044,0.740456,0.684455,0.00382996,0.929442,0.0258478,-0.0291599,0.366904,-4.19652,1.53134,43.0311,444.0,4294970000,50,4.67485e-39,903,113.064,8.81221,64,9.2,6.9,,-4.19652,43.0311
2026-01-15,08:48:25,1157849088,403492814,485807,526.946,0.710872,0.701657,0.00438141,0.926714,0.0256915,-0.030207,0.373669,-4.31227,1.43916,43.8695,444.0,4294970000,50,4.67485e-39,903,113.738,8.89791,64,9.3,6.9,,-4.31227,43.8695
2026-01-15,08:48:26,1157849167,403492877,485776,526.795,0.691269,0.755618,0.00379728,0.915527,0.029252,-0.0265268,0.400313,-4.12871,1.85731,47.1711,444.0,4294970000,50,4.67485e-39,903,118.176,9.0119,65,9.4,6.9,,-4.12871,47.1711
2026-01-15,08:48:27,1157849251,403492935,485749,526.714,0.634275,0.825149,0.00451308,0.899964,0.0287481,-0.0277097,0.434132,-4.29214,1.59103,51.4484,444.0,4294970000,50,4.67485e-39,903,121.479,8.97853,64,9.4,6.9,,-4.29214,51.4484
2026-01-15,08:48:28,1157849341,403492989,485711,526.869,0.579137,0.867378,-0.00363568,0.883715,0.0278904,-0.0269157,0.466417,-4.22045,1.38979,55.6023,444.0,4294970000,50,4.67485e-39,903,125.575,9.08306,64,9.5,6.9,,-4.22045,55.6023
2026-01-15,08:48:29,1157849438,403493038,485694,526.802,0.521319,0.913777,0.0117199,0.868917,0.0230518,-0.0240296,0.493836,-3.69997,0.937527,59.1962,444.0,4294970000,50,4.67485e-39,903,129.112,9.17019,64,9.6,6.9,,-3.69997,59.1962
2026-01-15,08:48:30,1157849538,403493081,485682,526.912,0.466532,0.950778,-0.00235503,0.855217,0.0228914,-0.0269009,0.517065,-3.99619,0.651107,62.2962,444.0,4294970000,50,4.67485e-39,903,130.138,9.12611,62,9.6,6.9,,-3.99619,62.2962
2026-01-15,08:48:31,1157849641,403493121,485648,526.891,0.418537,0.940094,0.00754667,0.840814,0.0224845,-0.0299958,0.540025,-4.2858,0.311065,65.4156,445.0,4294970000,50,4.67485e-39,903,129.926,9.20438,59,9.7,6.9,,-4.2858,65.4156
2026-01-15,08:48:32,1157849748,403493156,485634,527.2,0.381505,0.957719,-0.00101637,0.825899,0.0250643,-0.0294179,0.562492,-4.40436,0.477374,68.5016,445.0,4294970000,50,4.67485e-39,903,131.894,9.40029,58,9.9,6.9,,-4.40436,68.5016
2026-01-15,08:48:33,1157849861,403493187,485613,527.224,0.310427,0.946292,0.0037275,0.80981,0.0207229,-0.0306754,0.585523,-4.2412,-0.135549,71.747,445.0,4294970000,50,4.67485e-39,903,131.71,9.46389,55,10.0,6.9,,-4.2412,71.747
2026-01-15,08:48:34,1157849977,403493214,485612,527.242,0.249904,0.933912,-0.00241823,0.79086,0.0224895,-0.0276192,0.61096,-4.08127,0.104765,75.3758,445.0,4294970000,50,4.67485e-39,903,134.055,9.67026,54,10.2,6.9,,-4.08127,75.3758
2026-01-15,08:48:35,1157850095,403493238,485624,527.142,0.160049,0.935588,0.0053953,0.767845,0.0189824,-0.0243689,0.63989,-3.5386,-0.116872,79.6223,445.0,4294970000,50,4.67485e-39,903,137.093,9.65,53,10.2,6.9,,-3.5386,79.6223
2026-01-15,08:48:36,1157850209,403493255,485645,527.091,0.060595,0.931179,-0.00391444,0.74544,0.017215,-0.0253681,0.665867,-3.48293,-0.466027,83.5662,445.0,4294970000,50,4.67485e-39,903,137.535,9.8917,50,10.5,6.9,,-3.48293,83.5662
2026-01-15,08:48:37,1157850319,403493263,485674,527.38,0.0262572,0.931259,-0.0115448,0.730622,0.0196712,-0.0315333,0.68177,-4.18089,-0.818878,86.0743,445.0,4294970000,50,4.67485e-39,903,136.83,9.96071,47,10.6,6.9,,-4.18089,86.0743
2026-01-15,08:48:38,1157850429,403493268,485664,526.925,0.0135863,0.948388,-0.00984665,0.730797,0.0176892,-0.0322181,0.681605,-4.08344,-1.03785,86.0539,445.0,4294970000,50,4.67485e-39,903,135.725,10.0269,46,10.7,6.9,,-4.08344,86.0539
2026-01-15,08:48:39,1157850539,403493272,485665,527.355,0.0141211,0.97392,0.000817746,0.730293,0.0187621,-0.0343507,0.682012,-4.34545,-1.11786,86.1328,445.0,4294970000,50,4.67485e-39,903,133.782,9.98591,44,10.7,6.9,,-4.34545,86.1328
2026-01-15,08:48:40,1157850654,403493274,485691,527.284,0.0400148,1.00403,-0.00305842,0.729907,0.0179442,-0.0338943,0.682469,-4.24248,-1.15316,86.2017,445.0,4294970000,50,4.67485e-39,903,133.049,9.87084,43,10.6,6.9,,-4.24248,86.2017
2026-01-15,08:48:41,1157850773,403493277,485703,527.304,0.0555243,1.00009,-0.0193239,0.730404,0.0162811,-0.0311435,0.68211,-3.88251,-1.07421,86.1264,445.0,4294970000,50,4.67485e-39,903,133.017,9.88381,43,10.6,6.9,,-3.88251,86.1264
2026-01-15,08:48:42,1157850893,403493280,485715,527.166,0.0548103,0.991374,-0.00362323,0.729208,0.020185,-0.0330317,0.683196,-4.3449,-0.902012,86.3088,445.0,4294970000,50,4.67485e-39,903,134.249,9.90446,44,10.6,6.9,,-4.3449,86.3088
2026-01-15,08:48:43,1157851014,403493281,485742,527.344,0.0635884,0.963004,-0.00433632,0.72991,0.0172304,-0.0330644,0.682526,-4.11702,-1.14798,86.2048,445.0,4294970000,50,4.67485e-39,903,135.081,10.0415,45,10.7,6.9,,-4.11702,86.2048
2026-01-15,08:48:44,1157851134,403493283,485758,527.35,0.0565938,0.948203,-0.00663118,0.729657,0.0169505,-0.0334984,0.682782,-4.13099,-1.20699,86.2484,445.0,4294970000,50,4.67485e-39,903,135.0,10.1473,45,10.8,6.9,,-4.13099,86.2484
2026-01-15,08:48:45,1157851253,403493286,485772,527.097,0.0324998,0.939832,-0.0102978,0.717557,0.0171725,-0.0295695,0.69566,-3.80339,-0.947355,88.2625,445.0,4294970000,50,4.67485e-39,903,137.011,10.1609,45,10.8,6.9,,-3.80339,88.2625
2026-01-15,08:48:46,1157851367,403493288,485775,527.294,-0.0609992,0.925383,-0.00539186,0.686277,0.0204806,-0.0282559,0.726502,-3.93049,-0.743527,93.2942,445.0,4294970000,50,4.67485e-39,903,140.875,10.1489,44,10.8,6.9,,-3.93049,93.2942
2026-01-15,08:48:47,1157851481,403493280,485781,527.122,-0.186304,0.916701,-0.00651313,0.645794,0.0212384,-0.0286707,0.762677,-3.98136,-0.936391,99.5276,445.0,4294970000,50,4.67485e-39,903,145.963,10.1143,43,10.8,6.9,,-3.98136,99.5276
2026-01-15,08:48:48,1157851592,403493261,485787,527.102,-0.292508,0.878166,0.000646622,0.603525,0.0168386,-0.0293684,0.796625,-3.5708,-1.51964,105.76,444.0,4294970000,50,4.67485e-39,903,149.938,10.1905,41,10.9,6.9,,-3.5708,105.76
2026-01-15,08:48:49,1157851700,403493232,485788,527.152,-0.356945,0.846439,-0.00288133,0.565062,0.0143995,-0.028467,0.824432,-3.20555,-1.76013,111.204,445.0,4294970000,50,4.67485e-39,903,152.215,10.1748,38,10.9,6.9,,-3.20555,111.204
2026-01-15,08:48:50,1157851805,403493198,485785,527.077,-0.443781,0.806849,-0.00999961,0.529414,0.0146186,-0.0286385,0.847754,-3.15936,-1.89861,116.092,445.0,4294970000,50,4.67485e-39,903,153.78,10.2337,35,11.0,6.9,,-3.15936,116.092
2026-01-15,08:48:51,1157851903,403493155,485773,527.275,-0.520551,0.744908,-0.0097091,0.486658,0.0150586,-0.0303912,0.872934,-3.20306,-2.20444,121.792,445.0,4294970000,50,4.67485e-39,903,157.246,10.2221,33,11.0,6.9,,-3.20306,121.792
2026-01-15,08:48:52,1157851996,403493105,485757,527.487,-0.617571,0.71997,0.000178842,0.44321,0.00747077,-0.0332626,0.895769,-2.45714,-3.03934,127.424,445.0,4294970000,50,4.67485e-39,903,160.848,10.1701,31,11.0,6.9,,-2.45714,127.424
2026-01-15,08:48:53,1157852083,403493048,485750,527.302,-0.628318,0.626752,0.00683466,0.401253,0.00461637,-0.0307472,0.91544,-1.89851,-3.01644,132.722,445.0,4294970000,50,4.67485e-39,903,161.746,10.1998,27,11.0,6.9,,-1.89851,132.722
2026-01-15,08:48:54,1157852160,403492987,485756,527.581,-0.715107,0.570367,-0.00882051,0.350392,0.00446845,-0.0353162,0.935927,-1.89774,-3.61286,139.02,445.0,4294970000,50,4.67485e-39,903,165.951,10.0613,25,10.9,6.9,,-1.89774,139.02
2026-01-15,08:48:55,1157852231,403492919,485736,527.591,-0.75073,0.51895,0.00987559,0.304131,0.00293276,-0.0306402,0.952133,-1.38806,-3.24375,144.621,445.0,4294970000,50,4.67485e-39,903,165.24,9.8373,19,10.7,6.9,,-1.38806,144.621
2026-01-15,08:48:56,1157852295,403492847,485737,527.651,-0.760903,0.475176,0.000934724,0.27356,-0.00189599,-0.034185,0.961245,-0.862873,-3.8285,148.268,445.0,4294970000,50,4.67485e-39,903,165.707,9.64182,16,10.5,6.9,,-0.862873,148.268
2026-01-15,08:48:57,1157852355,403492772,485726,527.35,-0.768733,0.466723,0.00167855,0.270911,0.000661489,-0.0328874,0.962042,-1.09403,-3.60834,148.591,445.0,4294970000,50,4.67485e-39,903,163.842,9.52911,14,10.4,6.9,,-1.09403,148.591
2026-01-15,08:48:58,1157852415,403492696,485726,527.625,-0.753851,0.464832,0.00415798,0.27157,-0.000530759,-0.0333447,0.961841,-0.979297,-3.69511,148.509,445.0,4294970000,50,4.67485e-39,903,160.501,9.53255,11,10.4,6.9,,-0.979297,148.509
2026-01-15,08:48:59,1157852476,403492622,485730,528.111,-0.751093,0.452223,0.0107212,0.27066,0.00147978,-0.0342858,0.962063,-1.22671,-3.7377,148.625,445.0,4294970000,50,4.67485e-39,903,158.371,9.63408,9,10.5,6.9,,-1.22671,148.625
2026-01-15,08:49:00,1157852537,403492548,485732,527.572,-0.751061,0.470337,0.0100879,0.271768,0.000930749,-0.0315581,0.961845,-1.08552,-3.45229,148.489,445.0,4294970000,50,4.67485e-39,903,158.337,9.52709,9,10.4,6.9,,-1.08552,148.489
2026-01-15,08:49:01,1157852599,403492473,485733,527.433,-0.764323,0.470148,0.00691762,0.272215,0.00243215,-0.0335304,0.961649,-1.31416,-3.62271,148.442,445.0,4294970000,50,4.67485e-39,903,158.256,9.41476,9,10.3,6.9,,-1.31416,148.442
2026-01-15,08:49:02,1157852661,403492397,485742,527.612,-0.758873,0.455011,0.00285793,0.271995,0.00499938,-0.0340078,0.961685,-1.61123,-3.59591,148.476,445.0,4294970000,50,4.67485e-39,903,158.216,9.32565,9,10.2,6.9,,-1.61123,148.476
2026-01-15,08:49:03,1157852723,403492322,485738,527.549,-0.780711,0.473766,-0.00390122,0.271273,0.000356528,-0.0331054,0.961933,-1.06854,-3.64145,148.547,445.0,4294970000,50,4.67485e-39,903,160.527,9.60442,11,10.5,6.9,,-1.06854,148.547
2026-01-15,08:49:04,1157852786,403492245,485732,527.38,-0.781383,0.483467,-0.000319488,0.270925,0.000575367,-0.0310781,0.962098,-1.02841,-3.41126,148.587,445.0,4294970000,50,4.67485e-39,903,160.628,9.60068,11,10.5,6.9,,-1.02841,148.587
2026-01-15,08:49:05,1157852850,403492169,485723,527.519,-0.771437,0.475267,-0.00866767,0.270259,0.000615679,-0.0293909,0.962339,-0.978232,-3.22444,148.665,445.0,4294970000,50,4.67485e-39,903,160.688,9.61311,11,10.5,6.9,,-0.978232,148.665
2026-01-15,08:49:06,1157852912,403492093,485706,527.557,-0.750166,0.442071,-0.00334768,0.267463,0.00299796,-0.0257803,0.963219,-1.1212,-2.75545,149.001,445.0,4294970000,50,4.67485e-39,903,160.918,9.54522,11,10.4,6.9,,-1.1212,149.001
2026-01-15,08:49:07,1157852970,403492018,485702,527.282,-0.801764,0.390793,0.000203541,0.239703,0.00710666,-0.026057,0.97047,-1.50633,-2.70468,152.298,445.0,4294970000,50,4.67485e-39,903,161.922,9.51606,9,10.4,6.9,,-1.50633,152.298
2026-01-15,08:49:08,1157853023,403491939,485714,527.176,-0.851364,0.327435,-0.00432376,0.199013,0.0022249,-0.0235941,0.97971,-0.787933,-2.59942,157.064,445.0,4294970000,50,4.67485e-39,903,167.81,9.4978,10,10.4,6.9,,-0.787933,157.064
2026-01-15,08:49:09,1157853066,403491856,485703,526.776,-0.907331,0.253483,0.00291667,0.155599,-0.00131812,-0.0199787,0.987617,-0.207068,-2.28534,162.109,445.0,4294970000,50,4.67485e-39,903,168.473,9.1601,6,10.1,6.9,,-0.207068,162.109
2026-01-15,08:49:10,1157853100,403491769,485711,526.288,-0.895649,0.169166,0.00375041,0.116926,-0.00386557,-0.0215037,0.9929,0.151706,-2.49943,166.576,445.0,4294970000,50,4.67485e-39,903,172.872,8.99019,6,9.9,6.9,,0.151706,166.576
2026-01-15,08:49:11,1157853120,403491682,485713,526.836,-0.888418,0.10162,0.00350594,0.082634,-0.00508732,-0.0188077,0.99639,0.402799,-2.19635,170.523,445.0,4294970000,50,4.67485e-39,903,174.575,8.90604,4,9.8,6.9,,0.402799,170.523
2026-01-15,08:49:12,1157853132,403491598,485711,526.729,-0.892145,0.0423474,-0.00297574,0.0486749,-0.00246762,-0.0177084,0.998655,0.18363,-2.04085,174.429,445.0,4294970000,50,4.67485e-39,903,176.317,8.80696,2,9.7,6.8,,0.18363,174.429
2026-01-15,08:49:13,1157853137,403491511,485700,526.981,-0.924011,-0.00247784,0.0198723,0.0110839,-0.00626644,-0.0150628,0.999806,0.698879,-1.73421,178.732,445.0,4294970000,50,4.67485e-39,903,178.758,8.77644,2,9.7,6.8,,0.698879,178.732
2026-01-15,08:49:14,1157853136,403491420,485699,527.001,-0.915818,-0.0583467,-0.000135301,0.0191917,0.0097066,0.0152782,-0.999652,1.14567,-1.72954,-177.831,445.0,4294970000,50,4.67485e-39,903,178.466,7.98346,359,8.9,6.8,,1.14567,-177.831
2026-01-15,08:49:15,1157853130,403491331,485692,526.851,-0.881521,-0.120463,-0.00316023,0.0613757,0.00844299,0.0106363,-0.998022,1.04052,-1.15739,-172.985,445.0,4294970000,50,4.67485e-39,903,177.298,7.91377,356,8.8,6.8,,1.04052,-172.985
2026-01-15,08:49:16,1157853113,403491244,485685,526.656,-0.851088,-0.22597,-0.00337737,0.101087,0.0113408,0.0116571,-0.994745,1.42802,-1.19797,-168.422,445.0,4294970000,50,4.67485e-39,903,177.357,7.43858,352,8.3,6.8,,1.42802,-168.422
2026-01-15,08:49:17,1157853087,403491159,485661,526.738,-0.850278,-0.315725,-0.00364121,0.14329,0.0117046,0.00935831,-0.989567,1.4812,-0.869395,-163.545,444.0,4294970000,50,4.67485e-39,903,175.029,7.32299,350,8.2,6.8,,1.4812,-163.545
2026-01-15,08:49:18,1157853048,403491074,485679,526.639,-0.827399,-0.374657,0.0119084,0.176302,0.013875,0.0143538,-0.984134,1.85518,-1.33934,-159.721,444.0,4294970000,50,4.67485e-39,904,176.766,6.64886,345,7.5,6.8,,1.85518,-159.721
2026-01-15,08:49:19,1157853000,403490990,485694,526.722,-0.8126,-0.366272,-0.00485452,0.183752,0.014442,0.017866,-0.982704,2.00305,-1.70921,-158.859,444.0,4294970000,50,4.67485e-39,904,177.562,6.38987,340,7.2,6.8,,2.00305,-158.859
2026-01-15,08:49:20,1157852951,403490906,485704,526.616,-0.821097,-0.335031,-0.00078887,0.182229,0.0157127,0.0188908,-0.982949,2.165,-1.80142,-159.04,444.0,4294970000,50,4.67485e-39,903,174.475,6.30196,337,7.1,6.8,,2.165,-159.04
2026-01-15,08:49:21,1157852905,403490823,485706,526.528,-0.829564,-0.302711,-0.00324235,0.186132,0.0152111,0.0171915,-0.982257,2.07943,-1.61199,-158.581,445.0,4294970000,50,4.67485e-39,903,173.037,6.20108,335,7.0,6.8,,2.07943,-158.581
2026-01-15,08:49:22,1157852860,403490740,485706,526.523,-0.811093,-0.30951,0.00125679,0.186518,0.0142648,0.0183135,-0.982177,1.99747,-1.75776,-158.537,445.0,4294970000,50,4.67485e-39,904,172.844,5.82067,335,6.6,6.8,,1.99747,-158.537
2026-01-15,08:49:23,1157852816,403490657,485698,526.539,-0.813192,-0.301341,-0.0041837,0.186632,0.0157981,0.0175555,-0.982146,2.15412,-1.63943,-158.524,445.0,4294970000,50,4.67485e-39,903,173.995,5.81066,336,6.6,6.8,,2.15412,-158.524
2026-01-15,08:49:24,1157852774,403490574,485704,526.675,-0.816152,-0.288027,-0.00537688,0.185451,0.0137668,0.0187057,-0.982379,1.9478,-1.81467,-158.662,444.0,4294970000,50,4.67485e-39,903,175.186,5.90071,337,6.7,6.8,,1.9478,-158.662
2026-01-15,08:49:25,1157852733,403490491,485691,526.695,-0.822875,-0.302592,0.00976951,0.185094,0.0145347,0.0159993,-0.982483,1.97626,-1.49415,-158.699,445.0,4294970000,50,4.67485e-39,903,176.235,6.48881,338,7.3,6.8,,1.97626,-158.699
2026-01-15,08:49:26,1157852693,403490409,485672,526.588,-0.81434,-0.331018,-0.00426653,0.187238,0.0155686,0.0117929,-0.98212,2.00572,-0.993903,-158.442,445.0,4294970000,50,4.67485e-39,903,175.149,6.40402,337,7.2,6.8,,2.00572,-158.442
2026-01-15,08:49:27,1157852650,403490327,485665,526.441,-0.79911,-0.39336,-0.000207733,0.215324,0.0139763,0.00769872,-0.976412,1.75416,-0.51683,-155.147,445.0,4294970000,50,4.67485e-39,903,177.824,6.29955,337,7.1,6.8,,1.75416,-155.147
2026-01-15,08:49:28,1157852599,403490248,485661,526.634,-0.755185,-0.494152,0.00150211,0.256993,0.0168001,0.00865035,-0.966229,2.11552,-0.463384,-150.231,445.0,4294970000,50,4.67485e-39,903,177.359,5.91407,336,6.7,6.8,,2.11552,-150.231
2026-01-15,08:49:29,1157852537,403490174,485652,526.493,-0.689067,-0.571436,0.00272052,0.302321,0.018594,0.00880673,-0.952984,2.33645,-0.317858,-144.815,445.0,4294970000,50,4.67485e-39,903,174.711,5.94659,334,6.7,6.8,,2.33645,-144.815
2026-01-15,08:49:30,1157852466,403490106,485637,526.503,-0.640122,-0.611399,0.00566463,0.344687,0.0186071,0.00501969,-0.93852,2.20009,0.195254,-139.673,445.0,4294970000,50,4.67485e-39,903,173.154,5.57329,331,6.3,6.8,,2.20009,-139.673
2026-01-15,08:49:31,1157852385,403490044,485614,526.594,-0.600443,-0.663244,0.00335102,0.378619,0.0192104,0.00740847,-0.925324,2.35923,0.0479645,-135.503,445.0,4294970000,50,4.67485e-39,903,173.717,5.40624,327,6.1,6.8,,2.35923,-135.503
2026-01-15,08:49:32,1157852298,403489986,485586,526.55,-0.569341,-0.699678,0.00869774,0.410829,0.0186005,0.00379227,-0.911515,2.12203,0.479927,-131.478,445.0,4294970000,50,4.67485e-39,903,173.339,5.12415,324,5.8,6.8,,2.12203,-131.478
2026-01-15,08:49:33,1157852209,403489932,485571,526.552,-0.497684,-0.700475,-0.00543379,0.443996,0.0198325,0.00104538,-0.895809,2.08965,0.902432,-127.263,445.0,4294970000,50,4.67485e-39,903,174.718,4.80644,319,5.4,6.8,,2.08965,-127.263
2026-01-15,08:49:34,1157852116,403489885,485556,526.526,-0.4513,-0.739002,0.00452803,0.476296,0.0206145,-0.00194556,-0.879041,1.97086,1.3221,-123.086,446.0,4294970000,50,4.67485e-39,903,176.51,4.26631,314,4.8,6.8,,1.97086,-123.086
2026-01-15,08:49:35,1157852020,403489840,485561,526.487,-0.407866,-0.795239,0.0129603,0.511903,0.0226212,-0.00416355,-0.858735,1.98232,1.7381,-118.379,446.0,4294970000,50,4.67485e-39,903,175.741,4.08813,311,4.6,6.8,,1.98232,-118.379
2026-01-15,08:49:36,1157851916,403489802,485557,526.411,-0.310052,-0.859934,-0.00750303,0.550042,0.024532,-0.0057959,-0.834756,1.98186,2.10255,-113.208,446.0,4294970000,50,4.67485e-39,903,175.555,3.7576,308,4.2,6.8,,1.98186,-113.208
2026-01-15,08:49:37,1157851807,403489772,485544,526.511,-0.230437,-0.896125,-0.00592568,0.588148,0.0227951,-0.00630816,-0.808407,1.68688,2.12225,-107.902,446.0,4294970000,50,4.67485e-39,903,170.362,3.33409,310,3.8,6.8,,1.68688,-107.902
2026-01-15,08:49:38,1157851691,403489751,485539,526.529,-0.16914,-0.902712,-0.00157814,0.615372,0.0251032,-0.000611737,-0.787836,2.22388,1.82723,-103.986,446.0,4294970000,50,4.67485e-39,903,166.133,3.12641,311,3.6,6.9,,2.22388,-103.986
2026-01-15,08:49:39,1157851574,403489735,485538,526.471,-0.184589,-0.882885,-0.00664111,0.621627,0.0242098,-0.00161185,-0.782937,2.05784,1.87083,-103.077,446.0,4294970000,50,4.67485e-39,903,162.506,3.07509,313,3.6,6.9,,2.05784,-103.077
2026-01-15,08:49:40,1157851457,403489718,485538,526.448,-0.200373,-0.884026,0.00372509,0.621568,0.0243867,-0.000798401,-0.78298,2.13182,1.8103,-103.085,445.0,4294970000,50,4.67485e-39,904,163.263,2.86559,313,3.4,6.9,,2.13182,-103.085
2026-01-15,08:49:41,1157851343,403489700,485532,526.452,-0.200576,-0.882971,-0.0035869,0.621069,0.0240198,-0.00373297,-0.783378,1.89103,2.04627,-103.158,445.0,4294970000,50,4.67485e-39,903,164.315,2.67206,313,3.2,6.9,,1.89103,-103.158
2026-01-15,08:49:42,1157851230,403489681,485524,526.333,-0.199513,-0.87168,0.000255041,0.621008,0.0206224,-0.00117126,-0.783532,1.76867,1.57376,-103.184,445.0,4294970000,50,4.67485e-39,903,168.197,2.41485,311,2.9,6.9,,1.76867,-103.184
2026-01-15,08:49:43,1157851118,403489660,485522,526.526,-0.199569,-0.887771,0.000406842,0.620951,0.0246949,-0.00470039,-0.783446,1.88303,2.18103,-103.172,445.0,4294970000,50,4.67485e-39,903,166.646,2.49342,312,3.0,6.9,,1.88303,-103.172
2026-01-15,08:49:44,1157851006,403489639,485522,526.508,-0.196777,-0.893348,0.00186952,0.623273,0.0221288,-0.00702364,-0.78166,1.48074,2.21104,-102.843,445.0,4294970000,50,4.67485e-39,903,169.993,2.32764,310,2.8,6.9,,1.48074,-102.843
2026-01-15,08:49:45,1157850891,403489619,485524,526.509,-0.203659,-0.925167,-0.00435021,0.621206,0.0241009,-0.00201703,-0.783274,2.0202,1.89833,-103.139,445.0,4294970000,50,4.67485e-39,903,171.044,2.3204,310,2.8,6.9,,2.0202,-103.139
2026-01-15,08:49:46,1157850775,403489599,485506,526.296,-0.202999,-0.915715,0.00424392,0.620003,0.0227972,-0.0035042,-0.784261,1.80024,1.93606,-103.32,445.0,4294970000,50,4.67485e-39,903,166.967,2.37564,313,2.9,6.9,,1.80024,-103.32
2026-01-15,08:49:47,1157850660,403489580,485490,526.371,-0.199654,-0.925515,-0.00732412,0.620739,0.0223948,-0.0028889,-0.783692,1.8061,1.85379,-103.215,444.0,4294970000,50,4.67485e-39,903,168.14,2.5962,311,3.1,6.9,,1.8061,-103.215
2026-01-15,08:49:48,1157850544,403489560,485458,526.445,-0.209625,-0.923315,0.00159446,0.624727,0.0271105,-0.00393046,-0.780362,2.14359,2.29466,-102.606,444.0,4294970000,50,4.67485e-39,904,165.479,2.66023,312,3.2,6.9,,2.14359,-102.606
2026-01-15,08:49:49,1157850431,403489541,485445,526.445,-0.105094,-0.919988,0.00270954,0.647533,0.0266244,-0.00514787,-0.761554,1.94198,2.42712,-99.2186,444.0,4294970000,50,4.67485e-39,903,161.67,2.60054,313,3.1,6.9,,1.94198,-99.2186
2026-01-15,08:49:50,1157850319,403489530,485431,526.399,-0.016632,-0.932432,-0.00233509,0.680324,0.0287779,-0.00918299,-0.732289,1.69935,3.01703,-94.1757,444.0,4294970000,50,4.67485e-39,903,158.152,2.41252,313,2.9,6.9,,1.69935,-94.1757
2026-01-15,08:49:51,1157850206,403489527,485424,526.831,0.0554466,-0.932445,-0.00250945,0.714742,0.0300898,-0.00982096,-0.698672,1.605,3.254,-88.6581,445.0,4294970000,50,4.67485e-39,904,152.911,2.19022,314,2.7,6.9,,1.605,-88.6581
2026-01-15,08:49:52,1157850094,403489533,485433,527.113,0.145379,-0.923782,-0.00911598,0.744167,0.0274577,-0.0117566,-0.667326,1.09729,3.24305,-83.743,445.0,4294970000,50,4.67485e-39,903,147.055,2.1832,315,2.7,6.9,,1.09729,-83.743
2026-01-15,08:49:53,1157849982,403489547,485441,527.346,0.206046,-0.919582,-0.0042523,0.76782,0.0288693,-0.0144085,-0.639853,0.8491,3.59956,-79.5906,444.0,4294970000,50,4.67485e-39,904,165.378,2.39852,295,2.6,6.9,,0.8491,-79.5906
2026-01-15,08:49:54,1157849871,403489566,485464,527.101,0.267162,-0.907,-6.54e-05,0.791081,0.031497,-0.0151733,-0.610711,0.828847,3.92086,-75.3131,444.0,4294970000,50,4.67485e-39,903,175.484,2.7475,273,2.6,6.9,,0.828847,-75.3131
2026-01-15,08:49:55,1157849762,403489591,485485,526.876,0.332856,-0.869316,-0.0140134,0.813697,0.0333359,-0.014283,-0.580157,0.884516,4.06207,-70.9508,444.0,4294970000,50,4.67485e-39,903,164.513,3.14123,252,2.7,6.9,,0.884516,-70.9508
2026-01-15,08:49:56,1157849656,403489623,485484,526.974,0.421918,-0.832427,0.00153317,0.83495,0.0317393,-0.0152897,-0.549197,0.53462,4.00271,-66.657,444.0,4294970000,50,4.67485e-39,903,166.548,3.20251,249,2.7,6.9,,0.53462,-66.657
2026-01-15,08:49:57,1157849553,403489661,485501,526.988,0.501981,-0.816168,0.000550397,0.856943,0.032151,-0.0165227,-0.514141,0.271739,4.13457,-61.9198,444.0,4294970000,50,4.67485e-39,903,163.307,2.68374,279,2.6,6.9,,0.271739,-61.9198
2026-01-15,08:49:58,1157849453,403489705,485503,526.952,0.548889,-0.753582,0.00290131,0.879923,0.0331183,-0.0183729,-0.473604,-0.0552084,4.34096,-56.5875,444.0,4294970000,50,4.67485e-39,903,157.586,2.66333,279,2.6,6.9,,-0.0552084,-56.5875
2026-01-15,08:49:59,1157849361,403489755,485516,526.916,0.624489,-0.707257,0.000181304,0.900643,0.0334093,-0.0192272,-0.432847,-0.327263,4.40646,-51.3541,444.0,4294970000,50,4.67485e-39,903,152.641,2.66779,279,2.6,6.9,,-0.327263,-51.3541
2026-01-15,08:50:00,1157849275,403489812,485545,527.015,0.678142,-0.662169,0.00487719,0.916634,0.0317575,-0.0203348,-0.397945,-0.687829,4.26762,-46.964,444.0,4294970000,50,4.67485e-39,903,148.387,2.66639,279,2.6,6.9,,-0.687829,-46.964
2026-01-15,08:50:01,1157849195,403489874,485569,527.406,0.68963,-0.646288,-0.00408702,0.921623,0.0288496,-0.02137,-0.386422,-0.979532,3.99722,-45.5327,444.0,4294970000,50,4.67485e-39,903,146.967,2.66079,279,2.6,6.9,,-0.979532,-45.5327
2026-01-15,08:50:02,1157849114,403489941,485584,527.614,0.694086,-0.659259,0.00144057,0.922199,0.0268879,-0.022699,-0.385112,-1.21234,3.84716,-45.375,444.0,4294970000,50,4.67485e-39,903,147.101,2.65514,279,2.6,6.9,,-1.21234,-45.375
2026-01-15,08:50:03,1157849032,403490007,485613,527.21,0.666578,-0.661399,-0.00695644,0.921923,0.0282924,-0.0207102,-0.385784,-0.937288,3.90832,-45.4496,444.0,4294970000,50,4.67485e-39,903,129.098,2.65338,295,2.9,6.9,,-0.937288,-45.4496
2026-01-15,08:50:04,1157848949,403490070,485613,527.394,0.651263,-0.671251,-0.0127084,0.921763,0.0290726,-0.0229439,-0.38598,-1.13776,4.09023,-45.486,444.0,4294970000,50,4.67485e-39,903,152.952,3.24554,269,3.1,6.9,,-1.13776,-45.486
2026-01-15,08:50:05,1157848865,403490133,485628,527.372,0.673691,-0.684287,-0.0055036,0.921412,0.0290414,-0.0166039,-0.387145,-0.464799,3.80618,-45.5997,445.0,4294970000,50,4.67485e-39,903,41.4953,2.44157,3,3.4,6.9,,-0.464799,-45.5997
2026-01-15,08:50:06,1157848781,403490197,485622,527.589,0.663951,-0.676418,-0.00613813,0.921785,0.0313951,-0.0188329,-0.385969,-0.600781,4.15335,-45.4651,445.0,4294970000,50,4.67485e-39,903,19.0954,2.82917,20,3.7,6.9,,-0.600781,-45.4651
2026-01-15,08:50:07,1157848699,403490258,485633,527.614,0.665881,-0.703969,-0.00146883,0.921187,0.0286167,-0.0238293,-0.387333,-1.24546,4.08317,-45.6585,445.0,4294970000,50,4.67485e-39,903,18.9223,2.81737,20,3.7,6.9,,-1.24546,-45.6585
2026-01-15,08:50:08,1157848613,403490320,485633,527.778,0.659877,-0.68584,-0.0118514,0.921486,0.0341298,-0.0163321,-0.386563,-0.212755,4.33186,-45.5275,444.0,4294970000,50,4.67485e-39,903,18.9455,2.82945,20,3.7,6.9,,-0.212755,-45.5275
2026-01-15,08:50:09,1157848530,403490381,485631,527.608,0.667069,-0.669262,-0.00223725,0.921631,0.0332987,-0.0198948,-0.386124,-0.62782,4.4019,-45.4907,444.0,4294970000,50,4.67485e-39,903,15.3062,3.64571,49,4.2,6.9,,-0.62782,-45.4907
2026-01-15,08:50:10,1157848448,403490444,485641,527.732,0.665226,-0.677192,-0.00416826,0.921923,0.0334818,-0.021791,-0.385308,-0.823864,4.50474,-45.3997,445.0,4294970000,50,4.67485e-39,903,15.597,3.65124,49,4.2,6.9,,-0.823864,-45.3997
2026-01-15,08:50:11,1157848367,403490507,485647,527.39,0.679199,-0.678233,-0.0050616,0.922135,0.0326894,-0.0207377,-0.384928,-0.749487,4.37392,-45.3463,445.0,4294970000,50,4.67485e-39,903,15.6826,3.63875,49,4.2,6.9,,-0.749487,-45.3463
2026-01-15,08:50:12,1157848286,403490570,485660,527.631,0.729884,-0.624265,-0.00329162,0.934061,0.0357776,-0.0241688,-0.354495,-1.13372,4.81823,-41.6163,445.0,4294970000,50,4.67485e-39,903,34.5335,3.84464,63,4.2,6.8,,-1.13372,-41.6163
2026-01-15,08:50:13,1157848212,403490636,485666,527.606,0.800629,-0.525581,-0.00964932,0.952375,0.0382719,-0.0206256,-0.301813,-0.92742,4.89708,-35.2097,445.0,4294970000,50,4.67485e-39,903,42.2553,4.05958,65,4.4,6.8,,-0.92742,-35.2097
2026-01-15,08:50:14,1157848146,403490709,485672,527.367,0.856363,-0.466088,-0.00212542,0.966128,0.038753,-0.0204814,-0.254312,-1.13832,4.89449,-29.5454,445.0,4294970000,50,4.67485e-39,903,59.4866,4.25544,76,4.4,6.8,,-1.13832,-29.5454
2026-01-15,08:50:15,1157848087,403490789,485659,527.802,0.891758,-0.379927,-0.0141792,0.975838,0.041234,-0.0241462,-0.213206,-1.69305,5.21067,-24.7281,445.0,4294970000,50,4.67485e-39,903,68.2051,4.7222,81,4.8,6.8,,-1.69305,-24.7281
2026-01-15,08:50:16,1157848038,403490871,485632,527.821,0.914604,-0.303436,-0.00588583,0.98385,0.040849,-0.0273533,-0.172109,-2.27897,5.15623,-19.9492,445.0,4294970000,50,4.67485e-39,903,61.0995,4.83362,70,5.1,6.8,,-2.27897,-19.9492
2026-01-15,08:50:17,1157848000,403490956,485606,527.41,0.94615,-0.200157,-0.00227189,0.990125,0.0423784,-0.0281739,-0.130623,-2.56332,5.2429,-15.1493,445.0,4294970000,50,4.67485e-39,903,66.2955,5.11828,71,5.4,6.8,,-2.56332,-15.1493
2026-01-15,08:50:18,1157847976,403491045,485601,527.204,0.951205,-0.0739281,0.0085169,0.996096,0.0392168,-0.0277157,-0.0740757,-2.83206,4.72309,-8.6235,445.0,4294970000,50,4.67485e-39,903,61.3251,5.34158,61,5.8,6.8,,-2.83206,-8.6235
2026-01-15,08:50:19,1157847968,403491134,485625,526.958,0.968379,0.0279537,-0.00305048,0.998961,0.0289689,-0.0257818,-0.0239491,-2.87322,3.39339,-2.83201,445.0,4294970000,50,4.67485e-39,903,59.0985,5.52414,54,6.1,6.8,,-2.87322,-2.83201
2026-01-15,08:50:20,1157847971,403491226,485647,527.108,0.960618,0.0104278,0.00882431,0.999122,0.0245954,-0.0281334,-0.0189605,-3.16943,2.88291,-2.25429,445.0,4294970000,50,4.67485e-39,903,61.6348,5.77754,56,6.3,6.8,,-3.16943,-2.25429
2026-01-15,08:50:21,1157847971,403491320,485678,526.991,0.944949,-0.0088514,-0.00417867,0.999211,0.0242145,-0.0260228,-0.0177392,-2.93191,2.83055,-2.10675,445.0,4294970000,50,4.67485e-39,903,65.7375,6.06221,60,6.5,6.8,,-2.93191,-2.10675
2026-01-15,08:50:22,1157847970,403491411,485697,527.172,0.945664,-0.0358485,0.00108784,0.999132,0.0250528,-0.0280715,-0.0178601,-3.16453,2.93177,-2.12932,445.0,4294970000,50,4.67485e-39,903,67.7063,6.31506,62,6.7,6.8,,-3.16453,-2.12932
2026-01-15,08:50:23,1157847965,403491500,485721,527.174,0.924555,-0.0479946,0.0026347,0.999096,0.0246241,-0.0286289,-0.019526,-3.2245,2.88923,-2.32075,445.0,4294970000,50,4.67485e-39,903,67.1448,6.52966,62,6.9,6.8,,-3.2245,-2.32075
2026-01-15,08:50:24,1157847958,403491587,485742,527.121,0.928374,-0.0403828,0.0026733,0.999075,0.0266065,-0.02676,-0.0206303,-3.00232,3.11536,-2.44774,445.0,4294970000,50,4.67485e-39,903,65.9622,6.50405,61,6.9,6.8,,-3.00232,-2.44774
2026-01-15,08:50:25,1157847950,403491675,485756,527.224,0.944958,-0.0422934,0.000572585,0.999015,0.028917,-0.0262074,-0.0211266,-2.93167,3.38046,-2.50966,445.0,4294970000,50,4.67485e-39,903,63.9399,6.46792,59,6.9,6.8,,-2.93167,-2.50966
2026-01-15,08:50:26,1157847940,403491764,485755,527.295,0.955713,-0.0471413,-0.00199684,0.998888,0.0339112,-0.0251279,-0.0210197,-2.79587,3.95026,-2.50761,445.0,4294970000,50,4.67485e-39,903,63.1227,6.35358,58,6.8,6.8,,-2.79587,-2.50761
2026-01-15,08:50:27,1157847934,403491852,485767,527.229,0.940646,-0.00725633,-0.0023176,0.998866,0.0291692,-0.0317966,-0.0201225,-3.57481,3.42101,-2.41512,445.0,4294970000,50,4.67485e-39,903,63.9381,6.44109,59,6.9,6.8,,-3.57481,-2.41512
2026-01-15,08:50:28,1157847929,403491941,485762,527.373,0.924643,-0.0252488,0.00431262,0.999269,0.030804,-0.0112304,-0.0196396,-1.21682,3.55592,-2.28982,445.0,4294970000,50,4.67485e-39,903,64.7486,6.57661,60,7.0,6.8,,-1.21682,-2.28982
2026-01-15,08:50:29,1157847924,403492001,485744,527.352,0.105755,-0.0629694,-0.0167255,0.99877,0.0308149,-0.0318305,-0.0222648,-3.56697,3.61766,-2.66694,445.0,4294970000,50,4.67485e-39,903,58.7099,6.5989,60,6.6,6.8,,-3.56697,-2.66694
2026-01-15,08:50:30,1157847919,403492011,485730,527.587,-0.00676821,-0.0215031,0.000592431,0.998819,0.0370528,-0.0177857,-0.0258976,-1.92623,4.30049,-3.04304,445.0,4294970000,50,4.67485e-39,903,57.1875,6.3216,60,6.3,6.8,,-1.92623,-3.04304
2026-01-15,08:50:31,1157847916,403492009,485730,527.294,-0.0639088,0.00963204,-0.00115508,0.99913,0.0312412,-0.0140811,-0.0237711,-1.52736,3.61918,-2.77428,445.0,4294970000,50,4.67485e-39,903,52.7952,5.9308,56,5.9,6.8,,-1.52736,-2.77428
2026-01-15,08:50:32,1157847917,403492000,485739,527.456,-0.0719799,0.00240704,0.00236367,0.998926,0.0338416,-0.0216266,-0.0230939,-2.38688,3.93783,-2.731,445.0,4294970000,50,4.67485e-39,903,50.9044,5.74306,54,5.7,6.8,,-2.38688,-2.731
2026-01-15,08:50:33,1157847919,403491991,485734,527.349,-0.0340503,0.0138562,-0.00235804,0.998951,0.0328075,-0.0218689,-0.0233036,-2.41665,3.82042,-2.75352,445.0,4294970000,50,4.67485e-39,903,50.0969,5.51134,53,5.5,6.8,,-2.41665,-2.75352
1 日期 时间 经度 纬度 高程 融合高程 速度x 速度y 速度z 四元数_q0 四元数_q1 四元数_q2 四元数_q3 pitch roll yaw CO2 H2O GS温度 气体分压/压力 环境气压/压力 修正风向 修正风速 原始风向 原始风速 风温 pressure course_elevation course_azimuth
2 2026-01-15 08:37:11 1157847424 403491658 526176 568.036 -0.431397 -1.05424 -0.00270356 0.554143 0.162897 0.0906232 -0.811281 21.3936 2.06168 -110.949 434.0 4294970000 50 4.67485e-39 898 54.148 3.53296 43 4.2 7.4 21.3936 -110.949
3 2026-01-15 08:37:12 1157847420 403491622 526222 568.364 0.317856 0.708263 0.0077085 0.903667 0.0823575 -0.0147862 -0.419981 2.43333 9.2896 -49.6595 434.0 4294970000 50 4.67485e-39 898 38.409 3.91526 23 3.8 7.4 2.43333 -49.6595
4 2026-01-15 08:37:13 1157847493 403491592 526317 569.358 0.19251 0.606989 0.00131379 0.9508 0.0108044 -0.0263268 0.308497 -3.25233 0.246908 35.9481 435.0 4294970000 50 4.67485e-39 898 57.728 3.38187 24 4.0 7.4 -3.25233 35.9481
5 2026-01-15 08:37:14 1157847552 403491608 526334 568.077 0.494951 0.722547 0.0120639 0.92956 -0.000731488 -0.0471219 0.365647 -4.99546 -2.06075 43.038 435.0 4294970000 49 4.67485e-39 899 71.9454 4.15446 26 5.0 7.4 -4.99546 43.038
6 2026-01-15 08:37:15 1157847632 403491653 526355 568.048 0.738053 0.692506 -0.00551199 0.926082 0.0313723 -0.0776984 0.367899 -9.6138 0.0544119 43.3309 435.0 4294970000 49 4.67485e-39 898 75.9181 6.93926 28 7.8 7.4 -9.6138 43.3309
7 2026-01-15 08:37:16 1157847728 403491731 526342 568.514 0.964757 0.869655 0.0106683 0.928709 0.0210133 -0.0316462 0.368859 -4.26029 0.901251 43.293 435.0 4294970000 49 4.67485e-39 898 113.456 9.51072 63 10.0 7.4 -4.26029 43.293
8 2026-01-15 08:37:17 1157847830 403491815 526367 568.295 0.882373 0.802198 -0.00186864 0.928731 0.019612 -0.0303259 0.368991 -4.06038 0.807034 43.311 436.0 4294970000 49 4.67485e-39 899 112.715 9.73967 63 10.2 7.4 -4.06038 43.311
9 2026-01-15 08:37:18 1157847918 403491891 526368 568.556 0.770966 0.712884 -0.00220221 0.928612 0.0248359 -0.0331453 0.368732 -4.58165 1.24649 43.2673 436.0 4294970000 49 4.67485e-39 898 110.755 9.96234 62 10.4 7.4 -4.58165 43.2673
10 2026-01-15 08:37:19 1157847998 403491958 526392 568.498 0.72494 0.668851 0.00150071 0.929389 0.0276926 -0.0377194 0.366122 -5.18641 1.37261 42.9438 437.0 4294970000 49 4.67485e-39 899 110.02 10.182 62 10.6 7.4 -5.18641 42.9438
11 2026-01-15 08:37:20 1157848079 403492023 526414 568.339 0.712296 0.668851 0.0119353 0.929583 0.0265017 -0.0342417 0.366061 -4.76502 1.39172 42.9334 437.0 4294970000 49 4.67485e-39 898 110.986 10.1798 63 10.6 7.4 -4.76502 42.9334
12 2026-01-15 08:37:21 1157848164 403492088 526415 568.211 0.692253 0.686897 -0.00459407 0.928543 0.0263055 -0.0385301 0.368283 -5.21746 1.17799 43.2185 437.0 4294970000 49 4.67485e-39 899 112.279 10.0897 64 10.5 7.4 -5.21746 43.2185
13 2026-01-15 08:37:22 1157848249 403492153 526410 568.456 0.699185 0.700427 -0.00147237 0.929261 0.0229442 -0.0370253 0.366846 -4.91356 0.89015 43.0504 437.0 4294970000 49 4.67485e-39 898 113.18 10.0922 65 10.5 7.4 -4.91356 43.0504
14 2026-01-15 08:37:23 1157848329 403492218 526406 568.513 0.710728 0.687664 -0.00735078 0.929091 0.0245581 -0.0364428 0.367231 -4.91977 1.08518 43.0902 437.0 4294970000 50 4.67485e-39 898 113.212 10.2093 65 10.6 7.4 -4.91977 43.0902
15 2026-01-15 08:37:24 1157848408 403492283 526398 568.791 0.705312 0.692438 -0.00535891 0.929026 0.0288814 -0.0370198 0.367023 -5.16312 1.52418 43.0486 437.0 4294970000 50 4.67485e-39 898 112.198 10.0874 64 10.5 7.4 -5.16312 43.0486
16 2026-01-15 08:37:25 1157848491 403492348 526390 568.118 0.704869 0.695147 -0.00736932 0.928809 0.0263649 -0.0366991 0.367795 -5.024 1.26443 43.1534 437.0 4294970000 49 4.67485e-39 899 111.355 9.87086 63 10.3 7.4 -5.024 43.1534
17 2026-01-15 08:37:26 1157848575 403492412 526388 568.552 0.697602 0.701938 -0.00776543 0.929213 0.0245842 -0.0381249 0.36675 -5.09983 1.01964 43.0349 437.0 4294970000 49 4.67485e-39 898 111.148 9.95938 63 10.4 7.4 -5.09983 43.0349
18 2026-01-15 08:37:27 1157848656 403492477 526372 568.314 0.712533 0.690524 -0.0126902 0.928629 0.0257564 -0.0392165 0.368032 -5.26718 1.09168 43.1915 437.0 4294970000 50 4.67485e-39 899 111.278 10.1777 63 10.6 7.4 -5.26718 43.1915
19 2026-01-15 08:37:28 1157848733 403492542 526357 568.582 0.725056 0.698439 -0.00466166 0.928982 0.0255822 -0.0377991 0.367301 -5.10772 1.13704 43.0982 437.0 4294970000 49 4.67485e-39 898 112.15 10.4879 64 10.9 7.4 -5.10772 43.0982
20 2026-01-15 08:37:29 1157848810 403492609 526339 568.355 0.727463 0.707813 -0.00165912 0.929208 0.0249444 -0.0342734 0.367118 -4.70442 1.21851 43.0698 437.0 4294970000 50 4.67485e-39 898 112.187 10.3795 64 10.8 7.4 -4.70442 43.0698
21 2026-01-15 08:37:30 1157848886 403492675 526347 568.34 0.716103 0.699016 -0.00430534 0.929205 0.0300181 -0.0368326 0.366497 -5.19005 1.65657 42.9786 437.0 4294970000 49 4.67485e-39 899 112.154 10.184 64 10.6 7.4 -5.19005 42.9786
22 2026-01-15 08:37:31 1157848971 403492740 526355 568.74 0.71099 0.732633 -0.0092883 0.929136 0.0234411 -0.0363168 0.367202 -4.85923 0.971263 43.0906 437.0 4294970000 49 4.67485e-39 898 112.318 10.0521 64 10.5 7.4 -4.85923 43.0906
23 2026-01-15 08:37:32 1157849057 403492804 526370 568.41 0.695103 0.703962 -0.00710248 0.926764 0.0261015 -0.037862 0.372817 -5.14331 1.15926 43.7789 437.0 4294970000 50 4.67485e-39 899 111.92 9.96855 63 10.4 7.4 -5.14331 43.7789
24 2026-01-15 08:37:33 1157849141 403492867 526373 568.347 0.660863 0.72982 -0.00842205 0.916906 0.0257808 -0.033892 0.396824 -4.73909 1.1718 46.7595 437.0 4294970000 49 4.67485e-39 898 115.858 10.0935 64 10.5 7.4 -4.73909 46.7595
25 2026-01-15 08:37:34 1157849225 403492926 526372 568.521 0.600395 0.790153 -0.00366857 0.901489 0.025694 -0.0342669 0.430677 -4.81393 0.966655 51.0345 437.0 4294970000 49 4.67485e-39 898 118.011 10.1476 62 10.6 7.4 -4.81393 51.0345
26 2026-01-15 08:37:35 1157849312 403492980 526357 568.423 0.545751 0.834252 -0.0045222 0.885339 0.0258764 -0.0349848 0.462905 -4.92835 0.772386 55.177 437.0 4294970000 50 4.67485e-39 899 121.08 10.2312 61 10.7 7.4 -4.92835 55.177
27 2026-01-15 08:37:36 1157849403 403493029 526348 568.465 0.49066 0.888836 -0.00841354 0.8703 0.0246978 -0.0348599 0.490665 -4.87143 0.50492 58.8104 437.0 4294970000 50 4.67485e-39 899 123.714 10.1968 60 10.7 7.4 -4.87143 58.8104
28 2026-01-15 08:37:37 1157849503 403493074 526331 568.625 0.444179 0.900959 -0.00896646 0.856571 0.0248763 -0.0365168 0.514134 -5.05687 0.291512 61.938 437.0 4294970000 50 4.67485e-39 898 123.572 10.3624 57 10.9 7.4 -5.05687 61.938
29 2026-01-15 08:37:38 1157849606 403493114 526320 568.492 0.391449 0.938451 -0.00559586 0.842161 0.0216678 -0.0340751 0.537713 -4.62889 -0.00860678 65.121 437.0 4294970000 49 4.67485e-39 899 124.58 10.5181 55 11.1 7.4 -4.62889 65.121
30 2026-01-15 08:37:39 1157849712 403493150 526307 568.582 0.337139 0.95601 -0.00988557 0.82749 0.0207109 -0.0370878 0.559872 -4.85168 -0.417076 68.1865 437.0 4294970000 50 4.67485e-39 898 123.312 10.6593 51 11.3 7.4 -4.85168 68.1865
31 2026-01-15 08:37:40 1157849819 403493182 526285 568.538 0.284329 0.969314 -0.00748816 0.811928 0.0221068 -0.0371624 0.582154 -4.93881 -0.423895 71.3048 437.0 4294970000 49 4.67485e-39 898 125.355 10.6481 50 11.3 7.4 -4.93881 71.3048
32 2026-01-15 08:37:41 1157849929 403493207 526270 568.468 0.220556 0.984368 -0.00517097 0.79336 0.0195242 -0.0379069 0.607257 -4.81084 -0.865967 74.9046 437.0 4294970000 49 4.67485e-39 898 126.695 10.9188 48 11.6 7.4 -4.81084 74.9046
33 2026-01-15 08:37:42 1157850039 403493227 526259 568.773 0.149383 1.01545 -0.00345043 0.7704 0.0221986 -0.0394592 0.635952 -5.10837 -0.919611 79.125 437.0 4294970000 49 4.67485e-39 898 128.785 11.08 46 11.8 7.4 -5.10837 79.125
34 2026-01-15 08:37:43 1157850154 403493241 526249 568.532 0.0908148 1.01176 -0.0127735 0.748035 0.0192708 -0.0386786 0.662251 -4.78381 -1.28808 83.0982 437.0 4294970000 49 4.67485e-39 898 130.554 11.2703 44 12.0 7.4 -4.78381 83.0982
35 2026-01-15 08:37:44 1157850270 403493249 526235 568.513 0.0437174 1.02315 -0.00430365 0.732364 0.0137257 -0.0405074 0.679569 -4.47323 -2.00921 85.8019 437.0 4294970000 49 4.67485e-39 899 130.101 11.1265 41 11.9 7.4 -4.47323 85.8019
36 2026-01-15 08:37:45 1157850388 403493254 526231 568.422 0.0449134 1.01818 -0.000842101 0.729269 0.0129828 -0.040804 0.682886 -4.43059 -2.11504 86.3258 437.0 4294970000 49 4.67485e-39 898 127.443 11.1019 38 11.9 7.4 -4.43059 86.3258
37 2026-01-15 08:37:46 1157850505 403493258 526240 568.784 0.04023 1.01906 -0.0136841 0.730111 0.0161958 -0.0428704 0.681791 -4.85824 -2.00208 86.1711 437.0 4294970000 49 4.67485e-39 898 127.291 10.9979 38 11.8 7.4 -4.85824 86.1711
38 2026-01-15 08:37:47 1157850623 403493264 526242 568.616 0.0582931 1.0206 -0.00686456 0.730288 0.0164606 -0.0404904 0.68174 -4.67991 -1.79207 86.1413 437.0 4294970000 49 4.67485e-39 898 126.276 10.9956 37 11.8 7.4 -4.67991 86.1413
39 2026-01-15 08:37:48 1157850741 403493271 526248 568.603 0.0544318 1.00223 -0.00128037 0.730072 0.016949 -0.0398698 0.681996 -4.66559 -1.70394 86.1758 437.0 4294970000 50 4.67485e-39 898 126.271 10.9084 37 11.7 7.4 -4.66559 86.1758
40 2026-01-15 08:37:49 1157850857 403493277 526258 568.657 0.0482004 0.997268 -0.00503159 0.72951 0.0174466 -0.0422078 0.682444 -4.89908 -1.8495 86.2671 437.0 4294970000 50 4.67485e-39 898 127.336 11.1207 38 11.9 7.4 -4.89908 86.2671
41 2026-01-15 08:37:50 1157850974 403493283 526253 568.61 0.0374311 1.00535 -0.00910842 0.729696 0.0151869 -0.042711 0.682268 -4.76455 -2.07714 86.245 437.0 4294970000 50 4.67485e-39 898 126.138 11.396 37 12.2 7.4 -4.76455 86.245
42 2026-01-15 08:37:51 1157851092 403493288 526244 568.635 0.033227 1.01268 -0.00906904 0.729422 0.0159588 -0.0422632 0.682571 -4.78676 -1.97921 86.2882 437.0 4294970000 49 4.67485e-39 898 126.116 11.6878 37 12.5 7.4 -4.78676 86.2882
43 2026-01-15 08:37:52 1157851208 403493293 526240 568.614 0.00893365 1.00525 -0.00387154 0.718708 0.018412 -0.0424177 0.693773 -4.96376 -1.86331 88.0646 437.0 4294970000 50 4.67485e-39 898 128.937 11.8093 38 12.6 7.4 -4.96376 88.0646
44 2026-01-15 08:37:53 1157851322 403493295 526244 568.481 -0.0875946 1.01321 -0.0099838 0.688535 0.0177547 -0.0383997 0.723968 -4.50767 -1.79077 92.9513 437.0 4294970000 49 4.67485e-39 898 133.839 11.694 38 12.5 7.4 -4.50767 92.9513
45 2026-01-15 08:37:54 1157851435 403493290 526261 568.573 -0.203972 1.0118 -0.00555363 0.647389 0.0168781 -0.0372779 0.761061 -4.24161 -2.00499 99.3099 437.0 4294970000 49 4.67485e-39 898 140.224 11.6805 38 12.5 7.4 -4.24161 99.3099
46 2026-01-15 08:37:55 1157851548 403493273 526280 568.692 -0.318393 0.98292 -0.00483251 0.608439 0.0138549 -0.0387622 0.792532 -3.9643 -2.56146 105.068 436.0 4294970000 49 4.67485e-39 898 143.822 11.4488 36 12.3 7.4 -3.9643 105.068
47 2026-01-15 08:37:56 1157851659 403493245 526301 568.873 -0.40851 0.944526 -0.0061596 0.569717 0.0121735 -0.0393402 0.820809 -3.71621 -2.9131 110.574 436.0 4294970000 50 4.67485e-39 898 146.089 11.4223 33 12.3 7.4 -3.71621 110.574
48 2026-01-15 08:37:57 1157851767 403493207 526315 568.95 -0.494089 0.916452 -0.00322138 0.529758 0.00671439 -0.0401867 0.84717 -3.09312 -3.5012 116.065 436.0 4294970000 49 4.67485e-39 899 147.404 11.0797 29 12.0 7.4 -3.09312 116.065
49 2026-01-15 08:37:58 1157851871 403493163 526318 569.007 -0.566462 0.861309 -0.00161581 0.490142 0.000660659 -0.0397231 0.870737 -2.2978 -3.93297 121.337 436.0 4294970000 49 4.67485e-39 898 149.466 10.8658 26 11.8 7.4 -2.2978 121.337
50 2026-01-15 08:37:59 1157851966 403493118 526326 568.982 -0.630004 0.783151 6.49412e-05 0.450333 0.00200798 -0.04056 0.891937 -2.29909 -4.04888 126.513 436.0 4294970000 49 4.67485e-39 898 152.407 10.772 24 11.7 7.4 -2.29909 126.513
51 2026-01-15 08:38:00 1157852053 403493069 526343 569.143 -0.717758 0.720405 0.00900896 0.406478 0.00416935 -0.039629 0.912791 -2.28276 -3.95749 132.08 436.0 4294970000 50 4.67485e-39 898 153.596 10.8323 20 11.8 7.4 -2.28276 132.08
52 2026-01-15 08:38:01 1157852133 403493010 526357 569.26 -0.797449 0.642309 -0.00589846 0.357583 0.00334325 -0.0404657 0.932998 -2.01613 -4.19599 138.144 436.0 4294970000 49 4.67485e-39 898 154.202 10.8005 15 11.8 7.4 -2.01613 138.144
53 2026-01-15 08:38:02 1157852207 403492942 526351 568.879 -0.866652 0.613476 0.000143114 0.309549 -0.00225857 -0.036154 0.950193 -1.03665 -4.02097 143.958 437.0 4294970000 49 4.67485e-39 898 158.11 10.7646 13 11.8 7.4 -1.03665 143.958
54 2026-01-15 08:38:03 1157852277 403492868 526325 569.117 -0.870389 0.539441 -0.00361792 0.276997 -0.00740786 -0.0355041 0.960186 -0.311899 -4.14561 147.838 437.0 4294970000 49 4.67485e-39 898 157.614 10.7886 9 11.8 7.4 -0.311899 147.838
55 2026-01-15 08:38:04 1157852339 403492791 526310 569.039 -0.863942 0.510906 -0.00281384 0.271667 -0.00822604 -0.0380588 0.961603 -0.278379 -4.45471 148.47 437.0 4294970000 50 4.67485e-39 898 153.813 10.999 5 12.0 7.4 -0.278379 148.47
56 2026-01-15 08:38:05 1157852400 403492717 526305 569.465 -0.881606 0.502528 0.00302127 0.271199 -0.00807922 -0.0377854 0.961747 -0.283889 -4.4201 148.526 437.0 4294970000 50 4.67485e-39 898 152.707 10.886 4 11.9 7.4 -0.283889 148.526
57 2026-01-15 08:38:06 1157852462 403492645 526304 568.994 -0.883712 0.508698 0.00322529 0.271509 -0.00485303 -0.0369698 0.961713 -0.615461 -4.22961 148.503 437.0 4294970000 50 4.67485e-39 898 151.615 10.7807 3 11.8 7.4 -0.615461 148.503
58 2026-01-15 08:38:07 1157852524 403492572 526306 569.324 -0.893611 0.51288 -0.00451859 0.271878 -0.00234937 -0.0339563 0.96173 -0.799076 -3.81886 148.467 438.0 4294970000 50 4.67485e-39 898 150.472 10.5698 2 11.6 7.4 -0.799076 148.467
59 2026-01-15 08:38:08 1157852584 403492492 526309 569.017 -0.892962 0.506339 -0.00205077 0.270566 -0.00496166 -0.0368123 0.961984 -0.594457 -4.21619 148.615 438.0 4294970000 50 4.67485e-39 898 149.516 10.7737 1 11.8 7.4 -0.594457 148.615
60 2026-01-15 08:38:09 1157852642 403492410 526309 569.337 -0.871262 0.517195 -0.00180474 0.271456 -0.00908244 -0.0374805 0.961678 -0.165019 -4.4176 148.491 438.0 4294970000 50 4.67485e-39 898 150.584 10.787 2 11.8 7.4 -0.165019 148.491
61 2026-01-15 08:38:10 1157852703 403492329 526315 568.94 -0.843847 0.525024 0.000824943 0.272062 -0.00835847 -0.0364132 0.961554 -0.214247 -4.27712 148.422 438.0 4294970000 50 4.67485e-39 898 150.619 10.707 2 11.7 7.4 -0.214247 148.422
62 2026-01-15 08:38:11 1157852764 403492251 526323 569.473 -0.829306 0.512532 -0.00049944 0.27105 -0.00565722 -0.0357807 0.961883 -0.487834 -4.12361 148.554 437.0 4294970000 49 4.67485e-39 898 150.742 10.6259 2 11.6 7.4 -0.487834 148.554
63 2026-01-15 08:38:12 1157852824 403492175 526330 569.066 -0.848281 0.516275 0.000345239 0.271782 -0.00857816 -0.039239 0.96152 -0.276916 -4.59591 148.455 437.0 4294970000 49 4.67485e-39 898 150.6 10.8075 2 11.8 7.4 -0.276916 148.455
64 2026-01-15 08:38:13 1157852886 403492103 526329 569.092 -0.846523 0.508209 -0.00104353 0.269016 -0.00499381 -0.0342485 0.962514 -0.505022 -3.93495 148.798 438.0 4294970000 49 4.67485e-39 898 150.937 11.0132 2 12.0 7.4 -0.505022 148.798
65 2026-01-15 08:38:14 1157852947 403492032 526328 569.013 -0.903772 0.470018 -0.00294653 0.24344 -0.00481879 -0.0292963 0.969462 -0.281947 -3.39128 151.828 438.0 4294970000 49 4.67485e-39 898 152.841 10.9814 1 12.0 7.4 -0.281947 151.828
66 2026-01-15 08:38:15 1157853002 403491954 526316 569.509 -0.946316 0.388983 0.00586595 0.204864 -0.00685203 -0.0251777 0.978443 0.177208 -2.9854 156.356 437.0 4294970000 49 4.67485e-39 898 156.215 10.4772 0 11.5 7.4 0.177208 156.356
67 2026-01-15 08:38:16 1157853048 403491871 526324 569.404 -0.976983 0.288334 0.00530884 0.160972 -0.00811484 -0.0251049 0.986606 0.454389 -2.98963 161.467 437.0 4294970000 49 4.67485e-39 898 160.141 10.1831 359 11.2 7.4 0.454389 161.467
68 2026-01-15 08:38:17 1157853080 403491782 526335 568.966 -1.00395 0.200454 0.000402792 0.121994 -0.0109893 -0.0280469 0.992074 0.857313 -3.34461 165.966 437.0 4294970000 49 4.67485e-39 898 161.258 9.98412 356 11.0 7.4 0.857313 165.966
69 2026-01-15 08:38:18 1157853104 403491694 526331 568.532 -0.987195 0.142831 0.0033202 0.0874612 -0.015312 -0.0267107 0.995692 1.47964 -3.20407 169.931 437.0 4294970000 49 4.67485e-39 898 163.102 10.0131 354 11.0 7.4 1.47964 169.931
70 2026-01-15 08:38:19 1157853121 403491609 526337 568.42 -0.994188 0.0582949 0.00042371 0.0539512 -0.015682 -0.0250192 0.998107 1.63929 -2.96126 173.782 437.0 4294970000 49 4.67485e-39 898 163.513 9.62779 351 10.6 7.4 1.63929 173.782
71 2026-01-15 08:38:20 1157853131 403491524 526329 568.378 -1.02073 -0.0158077 0.00584194 0.0188493 -0.0171637 -0.0234111 0.999401 1.91557 -2.72092 177.807 437.0 4294970000 49 4.67485e-39 898 161.914 9.32937 346 10.3 7.4 1.91557 177.807
72 2026-01-15 08:38:21 1157853132 403491437 526321 568.48 -1.01146 -0.0824614 0.0124565 0.0158778 0.0182998 0.0246089 -0.999404 2.14118 -2.78824 -178.245 437.0 4294970000 49 4.67485e-39 898 163.658 9.14625 344 10.1 7.4 2.14118 -178.245
73 2026-01-15 08:38:22 1157853126 403491351 526310 568.548 -1.00599 -0.167656 0.00211219 0.0560607 0.0159338 0.0222849 -0.998052 1.96601 -2.44869 -173.625 437.0 4294970000 49 4.67485e-39 898 162.657 8.77876 339 9.7 7.4 1.96601 -173.625
74 2026-01-15 08:38:23 1157853108 403491264 526293 568.149 -0.987524 -0.247403 0.00563047 0.0988523 0.0219239 0.0205133 -0.994649 2.73245 -2.09272 -168.711 437.0 4294970000 49 4.67485e-39 898 164.074 8.40407 336 9.3 7.4 2.73245 -168.711
75 2026-01-15 08:38:24 1157853080 403491178 526272 568.231 -0.945976 -0.320776 0.00232856 0.142789 0.0240044 0.019137 -0.989277 3.03597 -1.77957 -163.633 437.0 4294970000 50 4.67485e-39 898 168.008 8.32617 335 9.2 7.4 3.03597 -163.633
76 2026-01-15 08:38:25 1157853045 403491095 526245 568.081 -0.917339 -0.354544 0.00617657 0.177175 0.0232667 0.0158993 -0.983776 2.94722 -1.32195 -159.627 437.0 4294970000 49 4.67485e-39 899 168.696 7.8529 332 8.7 7.4 2.94722 -159.627
77 2026-01-15 08:38:26 1157853003 403491012 526235 567.916 -0.903451 -0.39336 0.00342198 0.185577 0.0242132 0.0207858 -0.982111 3.16887 -1.8276 -158.662 437.0 4294970000 50 4.67485e-39 898 168.294 7.5748 331 8.4 7.4 3.16887 -158.662
78 2026-01-15 08:38:27 1157852959 403490931 526239 567.888 -0.917116 -0.394825 0.00475766 0.186237 0.0209578 0.0204768 -0.982068 2.79683 -1.85981 -158.581 437.0 4294970000 50 4.67485e-39 899 168.418 7.5607 331 8.4 7.4 2.79683 -158.581
79 2026-01-15 08:38:28 1157852915 403490848 526230 568.015 -0.923943 -0.3836 0.0030032 0.186559 0.0229657 0.0210787 -0.981949 3.03644 -1.884 -158.547 437.0 4294970000 50 4.67485e-39 898 165.179 7.48211 328 8.3 7.4 3.03644 -158.547
80 2026-01-15 08:38:29 1157852871 403490764 526232 567.822 -0.918227 -0.388528 0.00247195 0.183337 0.0246079 0.0226733 -0.982481 3.24877 -2.03953 -158.929 437.0 4294970000 50 4.67485e-39 899 163.695 7.60352 327 8.4 7.4 3.24877 -158.929
81 2026-01-15 08:38:30 1157852826 403490681 526234 567.862 -0.915677 -0.38315 0.000469251 0.185106 0.0218312 0.0231406 -0.982204 2.94952 -2.14495 -158.721 437.0 4294970000 50 4.67485e-39 898 163.954 7.50222 327 8.3 7.4 2.94952 -158.721
82 2026-01-15 08:38:31 1157852780 403490596 526241 567.751 -0.927796 -0.375091 0.00312335 0.184792 0.0248115 0.0253161 -0.982138 3.33061 -2.32854 -158.768 437.0 4294970000 50 4.67485e-39 899 162.88 7.59956 326 8.4 7.4 3.33061 -158.768
83 2026-01-15 08:38:32 1157852738 403490512 526236 567.82 -0.925811 -0.363181 0.00342039 0.185652 0.0222816 0.021249 -0.982133 2.96125 -1.92049 -158.653 437.0 4294970000 50 4.67485e-39 899 165.378 7.77545 328 8.6 7.4 2.96125 -158.653
84 2026-01-15 08:38:33 1157852697 403490428 526229 567.714 -0.912974 -0.381584 0.000619284 0.186887 0.023842 0.0227555 -0.981828 3.17162 -2.05335 -158.514 437.0 4294970000 50 4.67485e-39 899 165.56 8.09031 328 8.9 7.4 3.17162 -158.514
85 2026-01-15 08:38:34 1157852656 403490346 526222 567.711 -0.895063 -0.422425 0.00545318 0.211287 0.0227958 0.0164861 -0.977019 2.95286 -1.29576 -155.64 437.0 4294970000 50 4.67485e-39 899 168.371 8.08756 328 8.9 7.4 2.95286 -155.64
86 2026-01-15 08:38:35 1157852607 403490266 526204 567.895 -0.855946 -0.504967 0.00354485 0.253781 0.0250296 0.0125382 -0.966856 3.13955 -0.662319 -150.615 437.0 4294970000 50 4.67485e-39 898 172.831 7.68829 328 8.5 7.4 3.13955 -150.615
87 2026-01-15 08:38:36 1157852549 403490189 526184 567.807 -0.796007 -0.585726 0.00311599 0.29937 0.0277999 0.0109682 -0.953669 3.41659 -0.2454 -145.162 437.0 4294970000 49 4.67485e-39 899 173.587 7.64121 324 8.4 7.4 3.41659 -145.162
88 2026-01-15 08:38:37 1157852483 403490120 526171 567.673 -0.737182 -0.665307 0.00375219 0.341098 0.0251821 0.00986541 -0.939639 3.09882 -0.0780837 -140.11 437.0 4294970000 49 4.67485e-39 899 175.944 7.47005 322 8.2 7.4 3.09882 -140.11
89 2026-01-15 08:38:38 1157852408 403490054 526150 568.267 -0.689307 -0.729643 -0.00433286 0.374579 0.0278495 0.0093472 -0.926729 3.36088 0.203137 -135.987 437.0 4294970000 49 4.67485e-39 899 173.413 7.04955 316 7.7 7.4 3.36088 -135.987
90 2026-01-15 08:38:39 1157852327 403489994 526126 568.452 -0.644081 -0.767046 0.0016621 0.407346 0.0289819 0.00551554 -0.912797 3.29098 0.777273 -131.889 437.0 4294970000 49 4.67485e-39 898 171.532 6.41688 311 7.0 7.4 3.29098 -131.889
91 2026-01-15 08:38:40 1157852242 403489936 526112 568.321 -0.595032 -0.812143 0.00153923 0.440303 0.0294846 0.004001 -0.897356 3.23572 1.07809 -127.708 437.0 4294970000 49 4.67485e-39 899 173.1 6.24007 309 6.8 7.4 3.23572 -127.708
92 2026-01-15 08:38:41 1157852151 403489883 526100 568.25 -0.53742 -0.872657 0.00363869 0.472437 0.0317862 0.00194113 -0.880789 3.31539 1.52775 -123.549 437.0 4294970000 49 4.67485e-39 898 172.309 6.00493 305 6.5 7.4 3.31539 -123.549
93 2026-01-15 08:38:42 1157852057 403489835 526090 568.129 -0.463245 -0.925887 0.00130176 0.506927 0.0318237 -0.00396745 -0.861392 2.91226 2.24388 -118.998 437.0 4294970000 49 4.67485e-39 899 170.861 5.69759 300 6.1 7.4 2.91226 -118.998
94 2026-01-15 08:38:43 1157851954 403489794 526083 568.007 -0.362294 -0.976533 0.0010949 0.545981 0.0351518 -0.00432174 -0.837049 3.10308 2.61874 -113.707 437.0 4294970000 49 4.67485e-39 899 172.903 5.45155 298 5.8 7.4 3.10308 -113.707
95 2026-01-15 08:38:44 1157851844 403489761 526075 568.033 -0.267418 -1.01241 -0.000503984 0.584462 0.037751 -0.00513473 -0.810526 3.16423 3.01146 -108.335 437.0 4294970000 49 4.67485e-39 898 172.674 4.93584 294 5.2 7.4 3.16423 -108.335
96 2026-01-15 08:38:45 1157851729 403489736 526072 567.93 -0.206312 -1.02361 0.000503627 0.613766 0.0390699 -0.00314423 -0.788514 3.31119 3.0387 -104.127 437.0 4294970000 49 4.67485e-39 899 168.836 4.46249 287 4.6 7.4 3.31119 -104.127
97 2026-01-15 08:38:46 1157851613 403489716 526083 567.828 -0.194356 -1.00037 0.00361152 0.621713 0.0383386 -0.00418891 -0.782295 3.14021 3.1133 -102.972 437.0 4294970000 49 4.67485e-39 898 165.002 4.34363 282 4.4 7.4 3.14021 -102.972
98 2026-01-15 08:38:47 1157851497 403489696 526095 567.825 -0.195123 -0.997315 0.00259452 0.621595 0.0376815 -0.00381449 -0.782422 3.10853 3.03213 -102.995 437.0 4294970000 49 4.67485e-39 899 165.046 4.34234 282 4.4 7.4 3.10853 -102.995
99 2026-01-15 08:38:48 1157851381 403489678 526102 567.692 -0.198335 -0.980782 5.00728e-05 0.62158 0.0375318 -0.00357641 -0.782443 3.11218 2.99999 -102.998 437.0 4294970000 49 4.67485e-39 898 161.175 4.30715 278 4.3 7.4 3.11218 -102.998
100 2026-01-15 08:38:49 1157851266 403489658 526097 567.809 -0.200396 -0.978672 0.00355746 0.621159 0.0370427 -0.00382801 -0.782799 3.052 2.98587 -103.063 437.0 4294970000 49 4.67485e-39 899 156.125 4.29431 273 4.2 7.4 3.052 -103.063
101 2026-01-15 08:38:50 1157851152 403489638 526094 567.866 -0.204937 -0.980458 0.00369942 0.621569 0.0387948 -0.00539413 -0.78238 3.09564 3.25356 -102.988 437.0 4294970000 49 4.67485e-39 898 153.597 4.12964 271 4.0 7.4 3.09564 -102.988
102 2026-01-15 08:38:51 1157851037 403489618 526088 567.845 -0.199214 -0.982839 0.000261763 0.620569 0.0378855 -0.0044584 -0.783224 3.08492 3.10049 -103.143 437.0 4294970000 49 4.67485e-39 899 150.399 4.09139 268 3.9 7.4 3.08492 -103.143
103 2026-01-15 08:38:52 1157850922 403489599 526070 567.757 -0.197763 -0.993265 0.00314646 0.621035 0.0374088 -0.00421648 -0.782878 3.0576 3.04647 -103.078 437.0 4294970000 49 4.67485e-39 899 151.443 3.8697 270 3.7 7.4 3.0576 -103.078
104 2026-01-15 08:38:53 1157850805 403489580 526045 567.805 -0.194745 -0.979823 -9.47e-05 0.620618 0.0383703 -0.00283022 -0.783169 3.24422 2.98916 -103.133 437.0 4294970000 49 4.67485e-39 898 151.592 3.86685 270 3.7 7.4 3.24422 -103.133
105 2026-01-15 08:38:54 1157850691 403489561 526034 567.795 -0.205923 -0.9781 0.00360904 0.621231 0.0382583 -0.00379197 -0.782684 3.16324 3.06999 -103.043 437.0 4294970000 50 4.67485e-39 899 151.978 3.95156 270 3.8 7.4 3.16324 -103.043
106 2026-01-15 08:38:55 1157850577 403489541 526003 567.538 -0.199269 -0.97492 0.000427499 0.623909 0.0400971 -0.00745517 -0.780432 3.05458 3.54099 -102.633 437.0 4294970000 50 4.67485e-39 898 151.228 4.17645 268 4.0 7.4 3.05458 -102.633
107 2026-01-15 08:38:56 1157850465 403489522 525990 567.848 -0.138566 -0.989143 0.00162081 0.643704 0.0438351 -0.0090209 -0.763965 3.17394 4.03294 -99.6618 437.0 4294970000 50 4.67485e-39 899 152.26 4.22125 266 4.0 7.4 3.17394 -99.6618
108 2026-01-15 08:38:57 1157850353 403489508 525979 567.84 -0.0464023 -1.01238 0.00180388 0.676928 0.0450519 -0.0127386 -0.734559 2.8054 4.57764 -94.571 437.0 4294970000 50 4.67485e-39 898 154.6 4.06942 264 3.8 7.4 2.8054 -94.571
109 2026-01-15 08:38:58 1157850239 403489502 525957 568.363 0.059275 -1.00556 0.000867248 0.711066 0.0469137 -0.0134451 -0.70143 2.67646 4.91505 -89.11 437.0 4294970000 50 4.67485e-39 899 155.363 4.05819 259 3.7 7.4 2.67646 -89.11
110 2026-01-15 08:38:59 1157850124 403489506 525933 568.621 0.163699 -1.00697 0.00184223 0.740807 0.0460542 -0.0135738 -0.67 2.38446 4.96256 -84.1565 437.0 4294970000 50 4.67485e-39 898 154.784 4.0721 253 3.6 7.4 2.38446 -84.1565
111 2026-01-15 08:39:00 1157850009 403489519 525915 568.827 0.239577 -0.99338 0.00340162 0.765558 0.0461649 -0.0156862 -0.641516 2.01816 5.21382 -79.8381 437.0 4294970000 50 4.67485e-39 898 144.987 3.99391 237 3.3 7.4 2.01816 -79.8381
112 2026-01-15 08:39:01 1157849898 403489538 525944 569.324 0.320093 -0.969977 0.00482546 0.78879 0.04565 -0.015517 -0.612768 1.80333 5.22603 -75.6067 437.0 4294970000 50 4.67485e-39 898 136.905 4.26038 221 3.4 7.4 1.80333 -75.6067
113 2026-01-15 08:39:02 1157849791 403489563 525983 568.927 0.393826 -0.939913 0.00046536 0.811337 0.0433902 -0.0185025 -0.582673 1.17709 5.27845 -71.3201 437.0 4294970000 50 4.67485e-39 898 136.71 4.40587 215 3.5 7.4 1.17709 -71.3201
114 2026-01-15 08:39:03 1157849686 403489594 525996 569.422 0.457805 -0.906677 0.00150803 0.832084 0.0435489 -0.0198668 -0.55258 0.863358 5.41945 -67.1397 438.0 4294970000 49 4.67485e-39 898 133.271 4.66242 205 3.7 7.4 0.863358 -67.1397
115 2026-01-15 08:39:04 1157849581 403489632 525985 569.217 0.522407 -0.873284 0.00376318 0.854228 0.0450659 -0.0209989 -0.517516 0.617072 5.66665 -62.3914 438.0 4294970000 50 4.67485e-39 898 127.725 4.80843 192 3.8 7.4 0.617072 -62.3914
116 2026-01-15 08:39:05 1157849481 403489676 525980 569.534 0.591528 -0.815264 0.00665245 0.876419 0.0455174 -0.0237297 -0.478805 0.11423 5.88408 -57.2956 438.0 4294970000 49 4.67485e-39 898 128.118 4.90638 186 3.9 7.4 0.11423 -57.2956
117 2026-01-15 08:39:06 1157849385 403489727 525981 569.866 0.672687 -0.772338 0.0064996 0.897495 0.0455174 -0.0236457 -0.438031 -0.147131 5.8789 -52.0416 438.0 4294970000 49 4.67485e-39 898 123.837 5.01396 174 4.0 7.4 -0.147131 -52.0416
118 2026-01-15 08:39:07 1157849295 403489785 525980 569.913 0.712008 -0.737899 -0.0022199 0.91374 0.0455581 -0.0266217 -0.402858 -0.684394 6.0111 -47.6237 438.0 4294970000 49 4.67485e-39 898 115.761 5.26187 159 4.3 7.4 -0.684394 -47.6237
119 2026-01-15 08:39:08 1157849207 403489848 525985 569.915 0.725387 -0.722411 -0.00260176 0.920204 0.0446079 -0.0244786 -0.388119 -0.597322 5.80315 -45.7712 438.0 4294970000 49 4.67485e-39 898 105.662 5.46312 145 4.6 7.4 -0.597322 -45.7712
120 2026-01-15 08:39:09 1157849122 403489910 525998 570.171 0.740958 -0.69593 -0.00555645 0.921612 0.0418521 -0.0258631 -0.384982 -0.885143 5.57077 -45.3896 438.0 4294970000 49 4.67485e-39 898 100.191 5.47618 138 4.7 7.4 -0.885143 -45.3896
121 2026-01-15 08:39:10 1157849037 403489974 525986 570.032 0.740734 -0.689119 -0.0115847 0.921576 0.0426658 -0.0257359 -0.384988 -0.835664 5.65126 -45.39 438.0 4294970000 49 4.67485e-39 898 97.3701 5.63519 135 4.9 7.4 -0.835664 -45.39
122 2026-01-15 08:39:11 1157848953 403490038 525968 569.562 0.74699 -0.688188 -0.00310471 0.921458 0.0420362 -0.026162 -0.38531 -0.906554 5.60384 -45.4324 438.0 4294970000 49 4.67485e-39 898 93.2356 5.47581 130 4.8 7.4 -0.906554 -45.4324
123 2026-01-15 08:39:12 1157848869 403490103 525950 569.96 0.745123 -0.699498 -0.00264189 0.921136 0.0420875 -0.0249536 -0.386154 -0.771672 5.55633 -45.5291 438.0 4294970000 49 4.67485e-39 898 90.5223 5.44774 127 4.8 7.4 -0.771672 -45.5291
124 2026-01-15 08:39:13 1157848783 403490167 525936 569.866 0.717926 -0.681894 -0.0076711 0.921984 0.0416472 -0.026482 -0.384071 -0.965035 5.57559 -45.2806 438.0 4294970000 49 4.67485e-39 898 88.8829 5.30954 125 4.7 7.4 -0.965035 -45.2806
125 2026-01-15 08:39:14 1157848700 403490230 525933 569.782 0.730649 -0.702965 -0.00373597 0.92091 0.0428349 -0.0272258 -0.386456 -0.976295 5.73682 -45.5825 438.0 4294970000 49 4.67485e-39 898 87.9027 5.31312 124 4.7 7.4 -0.976295 -45.5825
126 2026-01-15 08:39:15 1157848615 403490293 525936 569.732 0.727547 -0.698938 -0.00574641 0.920757 0.0445164 -0.0250432 -0.386778 -0.669363 5.81774 -45.6085 438.0 4294970000 49 4.67485e-39 898 87.8355 5.30869 124 4.7 7.4 -0.669363 -45.6085
127 2026-01-15 08:39:16 1157848531 403490355 525940 569.811 0.720231 -0.691701 -0.00934785 0.921169 0.0437533 -0.0267627 -0.385768 -0.890973 5.81268 -45.4946 438.0 4294970000 49 4.67485e-39 898 91.3364 5.35437 128 4.7 7.4 -0.890973 -45.4946
128 2026-01-15 08:39:17 1157848448 403490417 525935 569.897 0.735636 -0.69055 -0.010543 0.920904 0.044242 -0.0276888 -0.38628 -0.963704 5.90611 -45.5651 438.0 4294970000 49 4.67485e-39 898 92.3128 5.36535 129 4.7 7.4 -0.963704 -45.5651
129 2026-01-15 08:39:18 1157848365 403490481 525918 569.631 0.748672 -0.67878 -0.0089084 0.921721 0.0452101 -0.0227228 -0.384539 -0.407864 5.78684 -45.3154 438.0 4294970000 49 4.67485e-39 898 92.6424 5.35657 129 4.7 7.4 -0.407864 -45.3154
130 2026-01-15 08:39:19 1157848284 403490544 525902 569.891 0.770889 -0.63447 0.00143012 0.931781 0.0462349 -0.0277677 -0.358992 -1.06303 6.09196 -42.2005 438.0 4294970000 49 4.67485e-39 898 93.0534 5.31495 126 4.7 7.4 -1.06303 -42.2005
131 2026-01-15 08:39:20 1157848210 403490608 525892 569.857 0.811125 -0.557678 -0.00518359 0.949718 0.0517768 -0.0313523 -0.3072 -1.58971 6.75727 -35.9455 438.0 4294970000 49 4.67485e-39 898 95.4235 5.3707 122 4.8 7.4 -1.58971 -35.9455
132 2026-01-15 08:39:21 1157848144 403490678 525880 569.337 0.889026 -0.476043 -0.0127951 0.963797 0.0511714 -0.0330184 -0.259589 -2.12512 6.6537 -30.2743 438.0 4294970000 49 4.67485e-39 898 98.5625 5.43546 119 4.9 7.4 -2.12512 -30.2743
133 2026-01-15 08:39:22 1157848088 403490755 525869 569.271 0.940066 -0.400588 -0.0079466 0.973379 0.0520341 -0.0375449 -0.220038 -2.8772 6.7754 -25.6482 438.0 4294970000 50 4.67485e-39 898 96.1096 5.92467 112 5.5 7.4 -2.8772 -25.6482
134 2026-01-15 08:39:23 1157848042 403490837 525851 569.38 0.982337 -0.295505 0.0023611 0.982089 0.048825 -0.0334887 -0.178875 -2.76928 6.20094 -20.7966 437.0 4294970000 50 4.67485e-39 898 96.3223 6.52833 108 6.2 7.4 -2.76928 -20.7966
135 2026-01-15 08:39:24 1157848005 403490921 525856 569.087 1.02444 -0.209235 -0.00164481 0.988791 0.049631 -0.034819 -0.136441 -3.17111 6.18989 -15.8857 437.0 4294970000 50 4.67485e-39 898 92.4981 6.67322 99 6.5 7.4 -3.17111 -15.8857
136 2026-01-15 08:39:25 1157847978 403491005 525860 568.738 1.04654 -0.0913634 -0.00331291 0.994801 0.049987 -0.0376331 -0.0803494 -3.8329 6.07015 -9.4394 437.0 4294970000 50 4.67485e-39 899 81.9222 6.66176 82 6.8 7.4 -3.8329 -9.4394
137 2026-01-15 08:39:26 1157847967 403491093 525869 568.512 1.05027 0.00901863 0.0027082 0.997922 0.0435536 -0.0374527 -0.0292036 -4.141 5.12641 -3.5382 437.0 4294970000 49 4.67485e-39 899 73.5402 6.31777 68 6.7 7.4 -4.141 -3.5382
138 2026-01-15 08:39:27 1157847970 403491186 525891 568.437 1.05685 0.0466237 0.00315684 0.998822 0.0314762 -0.0326271 -0.0173034 -3.67477 3.6777 -2.10312 437.0 4294970000 50 4.67485e-39 898 68.4962 6.19911 62 6.7 7.4 -3.67477 -2.10312
139 2026-01-15 08:39:28 1157847972 403491278 525909 568.79 1.0148 -0.00498876 -0.00270954 0.998659 0.0312493 -0.0370019 -0.0183031 -4.17287 3.66619 -2.23371 437.0 4294970000 49 4.67485e-39 899 71.2526 6.41032 65 6.8 7.4 -4.17287 -2.23371
140 2026-01-15 08:39:29 1157847966 403491368 525917 568.643 0.991826 -0.0268741 -0.00118964 0.998438 0.0359244 -0.0384279 -0.0187967 -4.32368 4.20904 -2.31616 437.0 4294970000 50 4.67485e-39 898 70.6286 6.83411 65 7.2 7.4 -4.32368 -2.31616
141 2026-01-15 08:39:30 1157847962 403491458 525930 568.802 0.996724 -0.0411697 0.00624587 0.998374 0.0382325 -0.03788 -0.0187737 -4.25565 4.47268 -2.32097 437.0 4294970000 49 4.67485e-39 898 69.4583 7.02698 64 7.4 7.4 -4.25565 -2.32097
142 2026-01-15 08:39:31 1157847957 403491548 525942 568.73 0.994782 -0.0141877 -0.00606466 0.998471 0.0371667 -0.0358521 -0.0197445 -4.02157 4.34878 -2.41864 437.0 4294970000 50 4.67485e-39 898 69.231 7.00171 64 7.4 7.4 -4.02157 -2.41864
143 2026-01-15 08:39:32 1157847951 403491636 525958 568.595 0.99505 -0.00860835 0.0044565 0.998445 0.0361708 -0.037481 -0.0198624 -4.2101 4.23934 -2.43536 437.0 4294970000 50 4.67485e-39 899 68.1627 6.97909 63 7.4 7.4 -4.2101 -2.43536
144 2026-01-15 08:39:33 1157847944 403491725 525966 568.802 0.993915 -0.0472423 -0.00401939 0.998252 0.0419285 -0.0353427 -0.0220335 -3.94043 4.90341 -2.69782 437.0 4294970000 49 4.67485e-39 898 74.4519 6.91357 69 7.2 7.4 -3.94043 -2.69782
145 2026-01-15 08:39:34 1157847933 403491814 525968 568.992 0.99722 -0.0210996 -0.00213436 0.998248 0.0422677 -0.0359573 -0.0205094 -4.01744 4.93814 -2.52746 437.0 4294970000 49 4.67485e-39 898 73.6867 6.77463 68 7.1 7.4 -4.01744 -2.52746
146 2026-01-15 08:39:35 1157847926 403491903 525980 568.644 0.996916 -0.00143393 0.00516613 0.998313 0.0424559 -0.0338051 -0.0206468 -3.76979 4.9541 -2.53291 437.0 4294970000 49 4.67485e-39 898 74.6388 6.77132 69 7.1 7.4 -3.76979 -2.53291
147 2026-01-15 08:39:36 1157847923 403491970 525976 568.904 0.0858846 -0.0177982 -0.0187528 0.999057 0.0318419 -0.022838 -0.0186795 -2.54745 3.70076 -2.22475 437.0 4294970000 49 4.67485e-39 898 65.6673 7.08172 67 7.1 7.4 -2.54745 -2.22475
148 2026-01-15 08:39:37 1157847913 403491976 526005 568.755 -0.00426781 -0.0274976 0.00613778 0.998568 0.0417842 -0.0258174 -0.0211816 -2.85419 4.85611 -2.55157 437.0 4294970000 50 4.67485e-39 898 59.8218 7.12516 62 7.1 7.4 -2.85419 -2.55157
149 2026-01-15 08:39:38 1157847901 403491969 526030 569.024 -0.0145071 0.0059347 0.000888114 0.99803 0.0489491 -0.0330478 -0.0211493 -3.66368 5.69964 -2.61055 438.0 4294970000 49 4.67485e-39 898 58.7086 6.70239 61 6.7 7.4 -3.66368 -2.61055
150 2026-01-15 08:39:39 1157847893 403491964 526045 569.081 0.0209697 0.0503903 0.00218942 0.998038 0.0494767 -0.032682 -0.0200851 -3.62654 5.75531 -2.48831 438.0 4294970000 49 4.67485e-39 898 63.9173 6.34565 66 6.4 7.4 -3.62654 -2.48831
151 2026-01-15 08:39:40 1157847893 403491964 526048 568.971 0.0168895 0.061108 0.000602148 0.998172 0.047631 -0.0311792 -0.0203062 -3.45786 5.53978 -2.49837 438.0 4294970000 50 4.67485e-39 898 62.7959 6.73829 65 6.8 7.4 -3.45786 -2.49837
152 2026-01-15 08:39:41 1157847894 403491963 526040 569.03 0.0332375 0.0661723 -0.000908747 0.997901 0.050695 -0.0346568 -0.0205586 -3.84679 5.90281 -2.55903 438.0 4294970000 49 4.67485e-39 898 69.9708 6.82705 72 6.9 7.4 -3.84679 -2.55903
153 2026-01-15 08:39:42 1157847897 403491966 526030 568.949 0.0447944 0.0736784 0.00312667 0.998129 0.0491199 -0.0300028 -0.0206177 -3.31768 5.70848 -2.53232 439.0 4294970000 49 4.67485e-39 898 83.1115 6.92147 85 7.0 7.4 -3.31768 -2.53232
154 2026-01-15 08:39:43 1157847900 403491968 526020 568.928 0.021231 0.0539257 -0.00136937 0.998377 0.0451184 -0.0284632 -0.0199178 -3.1552 5.24239 -2.43046 439.0 4294970000 50 4.67485e-39 898 77.9652 6.84324 80 6.9 7.4 -3.1552 -2.43046
155 2026-01-15 08:39:44 1157847913 403491995 525996 569.097 -0.00350757 -0.0167827 0.00160529 0.847284 0.0367648 -0.0322834 -0.528881 -0.906409 5.53581 -63.994 440.0 4294970000 50 4.67485e-39 898 24.8006 6.50986 88 6.5 7.4 -0.906409 -63.994
156 2026-01-15 08:39:45 1157847844 403492037 526005 567.452 0.0165774 -0.0402801 -0.00802061 0.29665 0.0368907 0.0280828 -0.95386 4.99364 -1.82289 -145.539 440.0 4294970000 49 4.67485e-39 899 112.63 5.9439 258 5.9 7.4 4.99364 -145.539
157 2026-01-15 08:39:46 1157847820 403492036 526045 567.424 -0.140178 0.0163294 0.0123256 0.259739 -0.00149479 0.0284177 -0.965259 0.68055 -3.1899 -149.908 441.0 4294970000 50 4.67485e-39 899 66.8841 6.43807 218 6.4 7.4 0.68055 -149.908
158 2026-01-15 08:39:47 1157847801 403491991 526097 568.055 -1.40855 -0.634086 -0.0266369 0.260406 -0.0543894 0.00105751 -0.963965 -5.98775 -1.74976 -149.685 440.0 4294970000 49 4.67485e-39 898 46.5799 8.19857 201 6.8 7.4 -5.98775 -149.685
159 2026-01-15 08:39:48 1157847707 403491841 526007 568.356 -1.72208 -0.859205 0.0016496 0.25412 0.0513295 0.0258931 -0.965462 6.44685 -1.37889 -150.596 440.0 4294970000 49 4.67485e-39 898 155.759 6.331 318 7.7 7.4 6.44685 -150.596
160 2026-01-15 08:39:49 1157847621 403491710 525946 567.584 -0.409222 -0.174332 -0.0149836 0.255553 0.097884 0.0369405 -0.961117 11.9496 -1.22881 -150.36 440.0 4294970000 50 4.67485e-39 899 168.373 6.91294 326 7.3 7.4 11.9496 -150.36
161 2026-01-15 08:39:50 1157847611 403491688 525568 567.406 0.142645 0.0664876 -1.83884 0.259813 0.053308 0.0304573 -0.963705 6.81025 -1.78941 -149.941 440.0 4294970000 49 4.67485e-39 899 170.221 7.51671 327 7.3 7.4 6.81025 -149.941
162 2026-01-15 08:39:51 1157847619 403491705 523063 567.095 0.284891 0.201806 -3.33822 0.255353 0.0244831 0.0132015 -0.966448 3.09945 -0.746784 -150.431 440.0 4294970000 49 4.67485e-39 899 157.941 8.34342 324 7.5 7.4 3.09945 -150.431
163 2026-01-15 08:39:52 1157847634 403491737 519759 564.909 0.23071 0.138299 -3.16865 0.256353 0.0106021 0.0189563 -0.966339 1.73126 -1.7889 -150.323 439.0 4294970000 49 4.67485e-39 900 155.738 8.50555 318 7.7 7.4 1.73126 -150.323
164 2026-01-15 08:39:53 1157847647 403491759 516685 561.851 0.0166067 -0.0417274 -2.14148 0.25651 -0.00285906 0.0110629 -0.966474 0.00854253 -1.30946 -150.283 439.0 4294970000 49 4.67485e-39 900 158.131 7.95374 316 7.6 7.4 0.00854253 -150.283
165 2026-01-15 08:39:54 1157847643 403491758 515391 558.837 0.120496 0.0412887 0.222399 0.151602 0.0205657 0.0123132 -0.988151 2.54367 -1.03815 -162.59 439.0 4294970000 49 4.67485e-39 901 153.948 7.89718 316 7.8 7.4 2.54367 -162.59
166 2026-01-15 08:39:55 1157847604 403491712 515599 557.955 0.112019 -0.215796 0.0905181 0.591297 -0.00655182 -0.019981 0.80618 -0.748677 -2.29079 107.506 439.0 4294970000 49 4.67485e-39 899 74.6009 8.87414 326 8.7 7.4 -0.748677 107.506
167 2026-01-15 08:39:56 1157847635 403491671 515661 557.822 -0.0355617 -0.190923 0.0141063 0.931839 0.0249571 -0.0503587 0.358492 -6.41646 0.600012 42.0544 439.0 4294970000 50 4.67485e-39 900 23.5908 9.50381 340 9.4 7.4 -6.41646 42.0544
168 2026-01-15 08:39:57 1157847634 403491670 515779 557.693 0.290341 0.350729 0.1152 0.927325 0.0529617 -0.0969213 0.357589 -12.5709 1.69744 41.9907 439.0 4294970000 49 4.67485e-39 899 61.651 9.63771 18 10.1 7.3 -12.5709 41.9907
169 2026-01-15 08:39:58 1157847708 403491720 515878 558.194 0.791479 0.882341 0.102057 0.93027 0.0301254 -0.0456694 0.362774 -6.1329 1.32065 42.5406 440.0 4294970000 50 4.67485e-39 900 99.9043 9.61973 52 10.4 7.3 -6.1329 42.5406
170 2026-01-15 08:39:59 1157847814 403491795 515951 557.786 0.83786 0.857788 0.0399702 0.92936 0.0247467 -0.0406668 0.366093 -5.37732 0.933641 42.9602 440.0 4294970000 50 4.67485e-39 900 111.002 10.0425 62 10.6 7.3 -5.37732 42.9602
171 2026-01-15 08:40:00 1157847915 403491871 515983 558.191 0.786571 0.758139 0.039631 0.929952 0.0235751 -0.0372621 0.365028 -4.96352 0.957338 42.824 439.0 4294970000 49 4.67485e-39 899 114.212 10.7828 66 11.2 7.3 -4.96352 42.824
172 2026-01-15 08:40:01 1157848001 403491941 516006 558.02 0.74976 0.679889 0.0128519 0.92942 0.0275399 -0.0399526 0.365818 -5.41804 1.26415 42.9124 439.0 4294970000 49 4.67485e-39 900 113.988 10.8428 66 11.2 7.3 -5.41804 42.9124
173 2026-01-15 08:40:02 1157848082 403492009 516000 558.024 0.733562 0.694239 0.0201043 0.929541 0.0252165 -0.0408165 0.365584 -5.41251 0.980569 42.8958 439.0 4294970000 50 4.67485e-39 899 113.954 10.7225 66 11.1 7.3 -5.41251 42.8958
174 2026-01-15 08:40:03 1157848163 403492075 516008 558.189 0.726969 0.688678 0.00874234 0.928971 0.025184 -0.0395747 0.367168 -5.28028 1.02027 43.0881 439.0 4294970000 50 4.67485e-39 900 114.149 10.629 66 11.0 7.3 -5.28028 43.0881
175 2026-01-15 08:40:04 1157848238 403492139 516018 558.287 0.717952 0.69956 -0.00235679 0.928812 0.0255757 -0.0440793 0.36703 -5.77743 0.872744 43.0832 438.0 4294970000 50 4.67485e-39 900 114.089 10.7158 66 11.1 7.4 -5.77743 43.0832
176 2026-01-15 08:40:05 1157848317 403492204 516012 558.302 0.729482 0.710485 -0.00113164 0.929137 0.0268839 -0.0427989 0.366264 -5.69499 1.07148 42.9784 438.0 4294970000 50 4.67485e-39 900 113.038 10.6924 65 11.1 7.4 -5.69499 42.9784
177 2026-01-15 08:40:06 1157848397 403492272 515998 558.083 0.736833 0.69243 0.00864194 0.929175 0.0280108 -0.0412904 0.366259 -5.58127 1.25565 42.9683 438.0 4294970000 50 4.67485e-39 900 112.987 10.8109 65 11.2 7.4 -5.58127 42.9683
178 2026-01-15 08:40:07 1157848478 403492339 515988 557.918 0.729806 0.689426 0.00286348 0.929061 0.0270361 -0.0406166 0.366694 -5.46891 1.17715 43.0246 438.0 4294970000 49 4.67485e-39 900 114.069 10.7288 66 11.1 7.4 -5.46891 43.0246
179 2026-01-15 08:40:08 1157848563 403492406 515979 558.046 0.723744 0.690967 0.00404921 0.929086 0.0246489 -0.0364199 0.36724 -4.92116 1.0958 43.0909 438.0 4294970000 50 4.67485e-39 899 114.129 10.6256 66 11.0 7.4 -4.92116 43.0909
180 2026-01-15 08:40:09 1157848641 403492472 515981 558.235 0.7185 0.674517 -0.00747271 0.928731 0.0284946 -0.040833 0.367396 -5.55438 1.31985 43.1056 438.0 4294970000 49 4.67485e-39 900 114.213 10.4411 66 10.8 7.4 -5.55438 43.1056
181 2026-01-15 08:40:10 1157848720 403492538 515986 557.922 0.715261 0.707782 -0.00193427 0.928971 0.0254582 -0.0391182 0.367199 -5.24315 1.06867 43.0896 438.0 4294970000 50 4.67485e-39 899 114.229 10.4082 66 10.8 7.4 -5.24315 43.0896
182 2026-01-15 08:40:11 1157848799 403492603 515992 557.949 0.716869 0.699752 -0.00339056 0.929212 0.0279534 -0.0411192 0.366188 -5.56048 1.25714 42.9594 438.0 4294970000 49 4.67485e-39 900 114.108 10.4147 66 10.8 7.4 -5.56048 42.9594
183 2026-01-15 08:40:12 1157848880 403492668 516001 557.99 0.718841 0.725631 -0.000986376 0.929288 0.0267075 -0.0414456 0.366049 -5.54281 1.11091 42.9486 438.0 4294970000 50 4.67485e-39 899 114.157 10.3914 66 10.8 7.4 -5.54281 42.9486
184 2026-01-15 08:40:13 1157848962 403492733 516000 558.37 0.714816 0.708651 -0.0114505 0.928648 0.0291164 -0.0424924 0.367368 -5.75767 1.31647 43.1039 438.0 4294970000 49 4.67485e-39 900 114.278 10.409 66 10.8 7.4 -5.75767 43.1039
185 2026-01-15 08:40:14 1157849046 403492798 515987 557.996 0.709427 0.712761 -0.00812732 0.927841 0.0275768 -0.0395812 0.369843 -5.38543 1.26031 43.409 438.0 4294970000 49 4.67485e-39 900 114.462 10.6066 66 11.0 7.4 -5.38543 43.409
186 2026-01-15 08:40:15 1157849127 403492862 515969 558.002 0.665255 0.75842 -0.00322552 0.918861 0.0271368 -0.038688 0.391741 -5.29973 1.12558 46.1317 438.0 4294970000 50 4.67485e-39 900 117.108 10.6899 66 11.1 7.4 -5.29973 46.1317
187 2026-01-15 08:40:16 1157849207 403492921 515955 557.937 0.616939 0.799797 -0.00585486 0.903676 0.0319621 -0.0391967 0.42522 -5.62581 1.40688 50.3328 438.0 4294970000 49 4.67485e-39 900 120.274 10.7835 65 11.2 7.4 -5.62581 50.3328
188 2026-01-15 08:40:17 1157849292 403492976 515941 557.994 0.56524 0.869906 -0.00205495 0.887283 0.0306653 -0.0417485 0.458308 -5.86594 0.930315 54.5918 438.0 4294970000 49 4.67485e-39 900 123.55 10.8493 64 11.3 7.4 -5.86594 54.5918
189 2026-01-15 08:40:18 1157849387 403493027 515919 558.392 0.505789 0.900239 -0.00660463 0.87257 0.0289885 -0.0398024 0.486001 -5.60357 0.685222 58.2043 438.0 4294970000 49 4.67485e-39 900 126.024 10.9329 63 11.4 7.4 -5.60357 58.2043
190 2026-01-15 08:40:19 1157849490 403493072 515907 558.582 0.459811 0.93036 -0.00439653 0.858479 0.025295 -0.0414324 0.510546 -5.56491 0.0647128 61.4822 438.0 4294970000 49 4.67485e-39 900 127.139 11.1004 61 11.6 7.4 -5.56491 61.4822
191 2026-01-15 08:40:20 1157849595 403493114 515893 558.197 0.415613 0.94649 -0.00595372 0.844421 0.0256778 -0.0383647 0.533687 -5.29056 0.139046 64.5853 438.0 4294970000 49 4.67485e-39 900 128.071 11.2778 59 11.8 7.4 -5.29056 64.5853
192 2026-01-15 08:40:21 1157849702 403493151 515888 558.21 0.35554 0.965051 -0.00325665 0.829467 0.0224014 -0.0400528 0.556667 -5.24369 -0.427511 67.7567 438.0 4294970000 49 4.67485e-39 900 129.014 11.4428 57 12.0 7.4 -5.24369 67.7567
193 2026-01-15 08:40:22 1157849809 403493184 515889 558.355 0.309596 0.966077 -0.00392065 0.813968 0.0249806 -0.0390719 0.579055 -5.30996 -0.263729 70.8734 438.0 4294970000 49 4.67485e-39 899 131.057 11.4452 56 12.0 7.4 -5.30996 70.8734
194 2026-01-15 08:40:23 1157849920 403493212 515898 557.82 0.236556 0.972114 -0.00469891 0.79623 0.0240988 -0.0404189 0.603162 -5.36173 -0.597512 74.323 439.0 4294970000 49 4.67485e-39 900 131.222 11.4988 53 12.1 7.4 -5.36173 74.323
195 2026-01-15 08:40:24 1157850031 403493233 515911 558.34 0.161923 0.993538 -0.0119821 0.774493 0.024629 -0.0408087 0.630784 -5.41047 -0.767423 78.3641 439.0 4294970000 49 4.67485e-39 900 133.054 11.7613 51 12.4 7.3 -5.41047 78.3641
196 2026-01-15 08:40:25 1157850143 403493247 515902 558.393 0.0886623 1.00802 -0.00471756 0.75033 0.0227334 -0.0434284 0.659244 -5.46006 -1.33236 82.6751 439.0 4294970000 49 4.67485e-39 900 135.257 11.7307 49 12.4 7.3 -5.46006 82.6751
197 2026-01-15 08:40:26 1157850258 403493255 515904 558.385 0.0421633 1.01108 -0.00350647 0.733007 0.0206154 -0.0437872 0.678498 -5.28871 -1.68036 85.6609 439.0 4294970000 50 4.67485e-39 900 136.134 11.708 47 12.4 7.3 -5.28871 85.6609
198 2026-01-15 08:40:27 1157850376 403493258 515892 558.265 0.0498655 1.01211 0.000759894 0.730008 0.0193267 -0.0451205 0.681674 -5.29206 -1.91648 86.173 439.0 4294970000 50 4.67485e-39 899 134.644 11.4933 45 12.2 7.3 -5.29206 86.173
199 2026-01-15 08:40:28 1157850493 403493263 515896 558.044 0.0493644 0.989917 0.000416377 0.729997 0.0196437 -0.0455513 0.681647 -5.353 -1.92373 86.173 439.0 4294970000 49 4.67485e-39 900 133.449 11.6959 44 12.4 7.3 -5.353 86.173
200 2026-01-15 08:40:29 1157850609 403493268 515909 558.163 0.0449419 1.01253 -0.00305266 0.729743 0.0191742 -0.0465296 0.681867 -5.39749 -2.04188 86.2176 440.0 4294970000 50 4.67485e-39 899 132.493 11.6646 43 12.4 7.3 -5.39749 86.2176
201 2026-01-15 08:40:30 1157850727 403493274 515918 558.017 0.0517692 1.00898 0.00418826 0.729756 0.0196196 -0.0460051 0.681876 -5.38848 -1.96324 86.2135 440.0 4294970000 50 4.67485e-39 900 132.477 11.7714 43 12.5 7.3 -5.38848 86.2135
202 2026-01-15 08:40:31 1157850845 403493281 515918 558.565 0.0478018 1.0119 0.000705971 0.728884 0.0214643 -0.046561 0.682715 -5.57739 -1.85911 86.3504 440.0 4294970000 50 4.67485e-39 899 132.593 11.8685 43 12.6 7.3 -5.57739 86.3504
203 2026-01-15 08:40:32 1157850964 403493285 515923 557.99 0.0450269 1.01821 -0.00120012 0.729582 0.0194625 -0.0467 0.682019 -5.43391 -2.03234 86.2432 440.0 4294970000 50 4.67485e-39 899 132.484 11.8604 43 12.6 7.3 -5.43391 86.2432
204 2026-01-15 08:40:33 1157851084 403493291 515920 558.324 0.0419567 1.01348 2.0301e-05 0.729499 0.0167472 -0.0461396 0.682218 -5.17365 -2.2168 86.27 440.0 4294970000 50 4.67485e-39 900 132.452 11.9615 43 12.7 7.3 -5.17365 86.27
205 2026-01-15 08:40:34 1157851204 403493297 515933 557.892 0.0152967 1.00735 -0.00657727 0.722382 0.0202331 -0.0446061 0.689757 -5.29961 -1.85922 87.4455 440.0 4294970000 50 4.67485e-39 899 133.62 11.8634 43 12.6 7.3 -5.29961 87.4455
206 2026-01-15 08:40:35 1157851320 403493299 515946 558.234 -0.0790365 1.00978 -0.00727005 0.693824 0.0190555 -0.0445108 0.718515 -5.11501 -2.15907 92.1064 440.0 4294970000 50 4.67485e-39 899 138.212 11.9504 43 12.7 7.3 -5.11501 92.1064
207 2026-01-15 08:40:36 1157851433 403493295 515945 558.254 -0.181411 0.990908 -0.0116846 0.654814 0.0206678 -0.0431028 0.754277 -5.02748 -2.18379 98.1783 440.0 4294970000 50 4.67485e-39 899 143.2 11.9446 42 12.7 7.3 -5.02748 98.1783
208 2026-01-15 08:40:37 1157851546 403493280 515938 558.514 -0.305108 0.984186 -0.0145619 0.61388 0.0172224 -0.0448816 0.787934 -4.71791 -2.85192 104.281 440.0 4294970000 50 4.67485e-39 900 147.102 12.1939 40 13.0 7.3 -4.71791 104.281
209 2026-01-15 08:40:38 1157851657 403493254 515917 558.414 -0.413986 0.942259 -0.00560645 0.575248 0.0119228 -0.045926 0.816602 -4.14698 -3.52332 109.811 440.0 4294970000 49 4.67485e-39 900 149.373 12.0503 37 12.9 7.3 -4.14698 109.811
210 2026-01-15 08:40:39 1157851761 403493223 515882 558.488 -0.487037 0.901219 -0.00650277 0.535617 0.0104945 -0.0471964 0.843076 -3.91398 -3.92801 115.286 440.0 4294970000 50 4.67485e-39 899 152.74 12.0417 35 12.9 7.3 -3.91398 115.286
211 2026-01-15 08:40:40 1157851862 403493183 515863 558.599 -0.565441 0.863636 -0.00718559 0.495999 0.0076022 -0.0478933 0.866968 -3.47978 -4.33843 120.592 440.0 4294970000 49 4.67485e-39 900 153.83 11.9011 31 12.8 7.3 -3.47978 120.592
212 2026-01-15 08:40:41 1157851959 403493134 515859 558.745 -0.635752 0.810381 0.00303557 0.457714 0.00255464 -0.0485457 0.88777 -2.80744 -4.8164 125.578 440.0 4294970000 49 4.67485e-39 899 156.698 11.6859 29 12.6 7.3 -2.80744 125.578
213 2026-01-15 08:40:42 1157852051 403493080 515868 558.717 -0.700507 0.742728 0.0061466 0.413494 0.00518708 -0.0494047 0.90915 -2.88276 -4.91384 131.22 440.0 4294970000 49 4.67485e-39 899 158.118 11.2657 25 12.2 7.3 -2.88276 131.22
214 2026-01-15 08:40:43 1157852137 403493020 515891 558.816 -0.755554 0.679495 0.00324888 0.366806 0.000306156 -0.0458892 0.929165 -1.96198 -4.88228 137.009 440.0 4294970000 49 4.67485e-39 900 159.744 10.8499 21 11.8 7.3 -1.96198 137.009
215 2026-01-15 08:40:44 1157852215 403492953 515904 558.786 -0.823478 0.614794 -0.00274716 0.316411 -0.00459414 -0.0435084 0.947613 -1.0788 -4.89827 143.128 440.0 4294970000 49 4.67485e-39 899 163.755 11.0321 19 12.0 7.3 -1.0788 143.128
216 2026-01-15 08:40:45 1157852286 403492881 515900 558.365 -0.839352 0.552645 0.00348423 0.282043 -0.0076731 -0.0416186 0.958468 -0.502392 -4.82531 147.237 440.0 4294970000 49 4.67485e-39 899 162.472 11.0302 14 12.0 7.3 -0.502392 147.237
217 2026-01-15 08:40:46 1157852350 403492809 515909 558.361 -0.832607 0.515236 0.000982607 0.272831 -0.0042401 -0.039196 0.961254 -0.758454 -4.45527 148.35 440.0 4294970000 49 4.67485e-39 899 159.172 11.3372 10 12.3 7.3 -0.758454 148.35
218 2026-01-15 08:40:47 1157852410 403492734 515902 558.578 -0.840753 0.512714 0.00696577 0.272175 -0.00282821 -0.0417136 0.961339 -0.989565 -4.68971 148.436 440.0 4294970000 49 4.67485e-39 899 157.076 11.2251 8 12.2 7.3 -0.989565 148.436
219 2026-01-15 08:40:48 1157852470 403492657 515906 558.962 -0.857295 0.504488 0.00534727 0.27014 -0.00500622 -0.0445549 0.961777 -0.827577 -5.07296 148.67 441.0 4294970000 50 4.67485e-39 899 154.002 11.2081 5 12.2 7.3 -0.827577 148.67
220 2026-01-15 08:40:49 1157852529 403492578 515899 558.783 -0.861644 0.511744 0.0123537 0.271465 -0.00658114 -0.0451606 0.961366 -0.679895 -5.18764 148.505 440.0 4294970000 49 4.67485e-39 899 153.854 11.0007 5 12.0 7.3 -0.679895 148.505
221 2026-01-15 08:40:50 1157852591 403492501 515910 558.918 -0.86588 0.519382 0.00779582 0.27147 -0.00916413 -0.0444648 0.961376 -0.373678 -5.19116 148.491 440.0 4294970000 50 4.67485e-39 899 153.864 10.9936 5 12.0 7.3 -0.373678 148.491
222 2026-01-15 08:40:51 1157852654 403492429 515909 558.585 -0.857354 0.519953 0.00963632 0.271994 -0.00333901 -0.0403776 0.961446 -0.890728 -4.5583 148.454 440.0 4294970000 50 4.67485e-39 899 153.848 11.0009 5 12.0 7.3 -0.890728 148.454
223 2026-01-15 08:40:52 1157852717 403492352 515915 558.409 -0.869942 0.527748 0.00500807 0.272234 -0.00511325 -0.0416802 0.961314 -0.737053 -4.75715 148.418 440.0 4294970000 50 4.67485e-39 899 152.721 11.1847 4 12.2 7.3 -0.737053 148.418
224 2026-01-15 08:40:53 1157852780 403492275 515910 559.194 -0.871164 0.522878 0.00728664 0.271881 -0.0074762 -0.0407539 0.961438 -0.446063 -4.72874 148.449 440.0 4294970000 50 4.67485e-39 899 152.738 10.9859 4 12.0 7.3 -0.446063 148.449
225 2026-01-15 08:40:54 1157852844 403492198 515907 558.943 -0.879065 0.508336 -0.000841064 0.272922 -0.00893147 -0.0405546 0.96114 -0.28465 -4.7518 148.318 440.0 4294970000 49 4.67485e-39 899 153.597 10.9864 5 12.0 7.3 -0.28465 148.318
226 2026-01-15 08:40:55 1157852907 403492124 515916 558.602 -0.8963 0.493024 0.0113643 0.269992 -0.00582471 -0.0399318 0.962016 -0.593388 -4.58773 148.681 440.0 4294970000 50 4.67485e-39 899 153.885 10.8781 5 11.9 7.3 -0.593388 148.681
227 2026-01-15 08:40:56 1157852969 403492049 515917 558.593 -0.932252 0.461791 0.00446956 0.250055 -0.00480023 -0.034632 0.9676 -0.460146 -3.98113 151.048 440.0 4294970000 50 4.67485e-39 899 155.157 10.96 4 12.0 7.3 -0.460146 151.048
228 2026-01-15 08:40:57 1157853025 403491970 515916 558.921 -0.979251 0.389017 0.00627677 0.211468 -0.0071754 -0.033387 0.976788 -0.00589275 -3.91427 155.58 440.0 4294970000 50 4.67485e-39 899 158.583 10.9463 3 12.0 7.3 -0.00589275 155.58
229 2026-01-15 08:40:58 1157853072 403491889 515909 558.72 -1.00997 0.296209 0.00202072 0.167586 -0.00949136 -0.0307641 0.985332 0.480927 -3.65875 160.691 439.0 4294970000 50 4.67485e-39 899 160.381 10.7491 0 11.8 7.3 0.480927 160.691
230 2026-01-15 08:40:59 1157853107 403491803 515909 559.026 -1.01019 0.208652 0.0121692 0.128539 -0.0111962 -0.0307914 0.991163 0.818195 -3.66531 165.208 439.0 4294970000 50 4.67485e-39 900 162.675 10.4733 358 11.5 7.3 0.818195 165.208
231 2026-01-15 08:41:00 1157853131 403491715 515912 558.362 -1.01718 0.132938 0.00658606 0.0938094 -0.0117556 -0.0294286 0.995086 1.02425 -3.48503 169.21 439.0 4294970000 50 4.67485e-39 899 164.455 10.3836 356 11.4 7.3 1.02425 169.21
232 2026-01-15 08:41:01 1157853146 403491626 515905 558.098 -0.999689 0.0724238 0.008378 0.0583391 -0.0113472 -0.0297449 0.997789 1.09871 -3.47987 173.287 439.0 4294970000 49 4.67485e-39 899 164.232 10.1165 352 11.1 7.3 1.09871 173.287
233 2026-01-15 08:41:02 1157853154 403491538 515912 558.254 -1.018 0.0067829 0.0128086 0.0234608 -0.0164319 -0.0304384 0.999126 1.79991 -3.53335 177.267 439.0 4294970000 50 4.67485e-39 899 163.759 9.81738 348 10.8 7.3 1.79991 177.267
234 2026-01-15 08:41:03 1157853155 403491448 515908 558.464 -1.00563 -0.0580812 0.00343007 0.00993949 0.0181243 0.0276777 -0.999403 2.1078 -3.15304 -178.932 440.0 4294970000 49 4.67485e-39 899 165.359 9.63718 346 10.6 7.3 2.1078 -178.932
235 2026-01-15 08:41:04 1157853149 403491358 515921 558.262 -1.00022 -0.14274 0.00940327 0.0465389 0.0207037 0.0271476 -0.998333 2.51428 -2.99977 -174.741 440.0 4294970000 49 4.67485e-39 900 166.104 9.45643 343 10.4 7.3 2.51428 -174.741
236 2026-01-15 08:41:05 1157853133 403491271 515945 558.297 -0.982106 -0.218472 0.00903839 0.0912834 0.0228939 0.025026 -0.995247 2.87418 -2.61906 -169.597 440.0 4294970000 49 4.67485e-39 900 167.808 8.87682 340 9.8 7.3 2.87418 -169.597
237 2026-01-15 08:41:06 1157853108 403491185 515952 557.766 -0.952367 -0.311038 0.0104914 0.134944 0.0256093 0.0250324 -0.990206 3.29502 -2.44937 -164.562 440.0 4294970000 49 4.67485e-39 900 169.307 8.60871 337 9.5 7.3 3.29502 -164.562
238 2026-01-15 08:41:07 1157853075 403491102 515965 557.899 -0.92474 -0.362208 0.00530121 0.173091 0.0227525 0.022614 -0.984383 3.01669 -2.10316 -160.122 439.0 4294970000 49 4.67485e-39 900 168.262 8.05099 332 8.9 7.3 3.01669 -160.122
239 2026-01-15 08:41:08 1157853032 403491019 515973 557.699 -0.908748 -0.401612 -0.00423606 0.185756 0.0268688 0.0268322 -0.981862 3.59687 -2.4528 -158.663 439.0 4294970000 49 4.67485e-39 900 167.211 7.68079 330 8.5 7.3 3.59687 -158.663
240 2026-01-15 08:41:09 1157852988 403490938 515987 557.329 -0.915578 -0.391221 0.00965937 0.186293 0.0226634 0.0269141 -0.981864 3.12626 -2.5492 -158.595 439.0 4294970000 49 4.67485e-39 900 166.334 7.68148 329 8.5 7.3 3.12626 -158.595
241 2026-01-15 08:41:10 1157852943 403490856 516000 557.578 -0.910775 -0.379143 0.00378453 0.184464 0.0235044 0.0257753 -0.98222 3.19224 -2.4089 -158.806 439.0 4294970000 49 4.67485e-39 900 167.263 7.67542 330 8.5 7.3 3.19224 -158.806
242 2026-01-15 08:41:11 1157852898 403490773 516018 557.414 -0.927244 -0.387245 0.00112471 0.184941 0.0244977 0.0268084 -0.982078 3.32718 -2.50298 -158.755 439.0 4294970000 49 4.67485e-39 900 166.143 7.67077 329 8.5 7.3 3.32718 -158.755
243 2026-01-15 08:41:12 1157852853 403490688 516029 557.385 -0.938716 -0.382472 0.00619426 0.184996 0.0240123 0.0267152 -0.982083 3.27066 -2.5025 -158.747 439.0 4294970000 50 4.67485e-39 900 165.08 7.66899 328 8.5 7.3 3.27066 -158.747
244 2026-01-15 08:41:13 1157852811 403490604 516033 557.525 -0.925126 -0.383246 0.00262191 0.184927 0.0250884 0.0264632 -0.982075 3.3864 -2.45165 -158.756 440.0 4294970000 50 4.67485e-39 900 164.096 7.89256 327 8.7 7.3 3.3864 -158.756
245 2026-01-15 08:41:14 1157852766 403490521 516025 557.6 -0.924303 -0.391705 0.00603875 0.185536 0.0249303 0.0289077 -0.981896 3.42197 -2.72866 -158.693 440.0 4294970000 50 4.67485e-39 900 163.1 8.00565 326 8.8 7.3 3.42197 -158.693
246 2026-01-15 08:41:15 1157852723 403490438 516018 557.476 -0.917568 -0.388658 -0.001582 0.185649 0.0242297 0.0266527 -0.981956 3.29549 -2.48869 -158.671 440.0 4294970000 49 4.67485e-39 900 164.284 8.09969 327 8.9 7.3 3.29549 -158.671
247 2026-01-15 08:41:16 1157852678 403490355 515997 557.338 -0.899351 -0.422799 -0.000808626 0.205795 0.0271374 0.0232133 -0.977943 3.59117 -1.9658 -156.306 440.0 4294970000 50 4.67485e-39 900 166.555 8.10077 327 8.9 7.3 3.59117 -156.306
248 2026-01-15 08:41:17 1157852633 403490276 515985 557.291 -0.869159 -0.494347 0.0049172 0.245622 0.0259008 0.0158892 -0.968889 3.325 -1.03699 -151.591 440.0 4294970000 50 4.67485e-39 900 169.916 7.90517 326 8.7 7.3 3.325 -151.591
249 2026-01-15 08:41:18 1157852582 403490201 515974 557.576 -0.807309 -0.581817 -0.000116064 0.291852 0.0264044 0.0115069 -0.95603 3.27955 -0.378203 -146.069 441.0 4294970000 50 4.67485e-39 900 170.636 7.46433 322 8.2 7.3 3.27955 -146.069
250 2026-01-15 08:41:19 1157852519 403490131 515988 557.488 -0.75067 -0.669729 0.00436204 0.334865 0.0266032 0.0106932 -0.94183 3.28353 -0.133468 -140.869 441.0 4294970000 50 4.67485e-39 900 172.96 6.99418 320 7.7 7.3 3.28353 -140.869
251 2026-01-15 08:41:20 1157852444 403490064 516002 557.998 -0.697634 -0.742203 -0.00256002 0.369084 0.0295515 0.0116921 -0.928852 3.64265 0.00536888 -136.669 441.0 4294970000 50 4.67485e-39 900 170.134 6.58462 314 7.2 7.3 3.64265 -136.669
252 2026-01-15 08:41:21 1157852363 403490001 516010 558.122 -0.648559 -0.780846 0.000911796 0.400983 0.0295961 0.0082284 -0.915571 3.48562 0.497587 -132.692 441.0 4294970000 49 4.67485e-39 900 168.472 6.35793 309 6.9 7.3 3.48562 -132.692
253 2026-01-15 08:41:22 1157852276 403489942 516024 558.028 -0.597128 -0.817996 0.000129678 0.434519 0.0295399 0.00482704 -0.900165 3.28948 0.974666 -128.447 441.0 4294970000 50 4.67485e-39 900 172.246 6.15073 309 6.7 7.3 3.28948 -128.447
254 2026-01-15 08:41:23 1157852184 403489888 516046 558.123 -0.542309 -0.855533 0.00295379 0.466776 0.0312396 0.00226528 -0.883821 3.28711 1.44417 -124.288 441.0 4294970000 50 4.67485e-39 900 170.406 5.729 304 6.2 7.3 3.28711 -124.288
255 2026-01-15 08:41:24 1157852086 403489838 516062 558.111 -0.477782 -0.910731 0.00447998 0.500965 0.0354106 0.000322145 -0.864743 3.5299 2.00523 -119.778 441.0 4294970000 50 4.67485e-39 900 169.663 5.39902 300 5.8 7.3 3.5299 -119.778
256 2026-01-15 08:41:25 1157851985 403489794 516080 557.935 -0.388947 -0.960474 -0.00206951 0.53802 0.0392008 -0.00382008 -0.842011 3.54939 2.79208 -114.767 441.0 4294970000 50 4.67485e-39 900 171.365 5.14716 298 5.5 7.3 3.54939 -114.767
257 2026-01-15 08:41:26 1157851878 403489759 516094 558.065 -0.268966 -0.992481 -0.00573546 0.577186 0.0372829 -0.00675917 -0.815733 3.03966 3.10385 -109.362 441.0 4294970000 49 4.67485e-39 900 166.281 4.95903 288 5.1 7.3 3.03966 -109.362
258 2026-01-15 08:41:27 1157851766 403489733 516099 557.872 -0.207875 -1.01295 -0.000550692 0.609885 0.0374585 -0.0045063 -0.791591 3.08463 3.03268 -104.701 441.0 4294970000 49 4.67485e-39 899 168.302 4.77984 286 4.9 7.3 3.08463 -104.701
259 2026-01-15 08:41:28 1157851649 403489713 516103 557.526 -0.18251 -1.01213 0.000634402 0.622075 0.0384025 -0.00276932 -0.78201 3.24588 2.99205 -102.92 441.0 4294970000 49 4.67485e-39 900 170.012 4.77287 286 4.9 7.3 3.24588 -102.92
260 2026-01-15 08:41:29 1157851530 403489694 516123 557.719 -0.194436 -0.99678 0.00227859 0.621586 0.0388194 -0.00386295 -0.782374 3.20705 3.11802 -102.987 441.0 4294970000 49 4.67485e-39 899 170.036 4.76007 286 4.9 7.3 3.20705 -102.987
261 2026-01-15 08:41:30 1157851413 403489674 516134 557.786 -0.197334 -0.984524 -0.000923486 0.6215 0.0382659 -0.00419332 -0.782468 3.13423 3.10764 -103.004 441.0 4294970000 49 4.67485e-39 899 163.844 4.56696 280 4.6 7.3 3.13423 -103.004
262 2026-01-15 08:41:31 1157851297 403489654 516140 557.458 -0.202574 -0.97205 0.00013951 0.621468 0.0400244 -0.00444026 -0.782404 3.27427 3.25574 -102.994 440.0 4294970000 49 4.67485e-39 900 163.923 4.55875 280 4.6 7.3 3.27427 -102.994
263 2026-01-15 08:41:32 1157851182 403489634 516161 557.64 -0.204594 -0.976563 -0.00141039 0.621541 0.0372271 -0.00336229 -0.78249 3.1003 2.95879 -103.006 440.0 4294970000 49 4.67485e-39 899 163.954 4.55768 280 4.6 7.3 3.1003 -103.006
264 2026-01-15 08:41:33 1157851066 403489613 516175 557.621 -0.197629 -0.973727 0.0011501 0.6211 0.039466 -0.00358718 -0.782729 3.2866 3.13761 -103.053 440.0 4294970000 49 4.67485e-39 900 153.382 4.34542 270 4.2 7.3 3.2866 -103.053
265 2026-01-15 08:41:34 1157850951 403489593 516186 557.496 -0.196469 -0.978619 0.000687677 0.620744 0.0391951 -0.00404451 -0.783023 3.23115 3.15778 -103.107 440.0 4294970000 49 4.67485e-39 900 151.134 4.28557 268 4.1 7.3 3.23115 -103.107
266 2026-01-15 08:41:35 1157850836 403489572 516204 557.564 -0.20039 -0.972638 -0.00137418 0.621029 0.0393332 -0.00457285 -0.782786 3.20469 3.21627 -103.064 440.0 4294970000 49 4.67485e-39 899 151.213 4.27848 268 4.1 7.3 3.20469 -103.064
267 2026-01-15 08:41:36 1157850721 403489552 516221 557.613 -0.20066 -0.977289 -0.00430821 0.620991 0.0396163 -0.00345084 -0.782808 3.31023 3.13568 -103.068 440.0 4294970000 50 4.67485e-39 900 149.932 4.19978 267 4.0 7.3 3.31023 -103.068
268 2026-01-15 08:41:37 1157850606 403489531 516228 557.512 -0.193045 -0.97576 0.00125382 0.622137 0.0386073 -0.00470416 -0.781942 3.12578 3.18049 -102.907 440.0 4294970000 49 4.67485e-39 899 147.417 4.25201 264 4.0 7.3 3.12578 -102.907
269 2026-01-15 08:41:38 1157850493 403489511 516246 557.7 -0.145957 -0.984721 0.00345983 0.639497 0.04238 -0.00680274 -0.767595 3.23118 3.71278 -100.306 440.0 4294970000 49 4.67485e-39 900 149.924 4.25556 264 4.0 7.3 3.23118 -100.306
270 2026-01-15 08:41:39 1157850379 403489495 516270 557.505 -0.0683358 -1.00685 0.00112741 0.67139 0.045767 -0.0106845 -0.739613 3.05857 4.43774 -95.4248 440.0 4294970000 50 4.67485e-39 900 152.664 4.28803 262 4.0 7.3 3.05857 -95.4248
271 2026-01-15 08:41:40 1157850265 403489487 516279 558.092 0.0391086 -1.0168 -0.00196106 0.705457 0.0484292 -0.0116665 -0.707 2.982 4.87299 -90.0049 440.0 4294970000 50 4.67485e-39 900 157.892 4.30219 262 4.0 7.3 2.982 -90.0049
272 2026-01-15 08:41:41 1157850149 403489488 516297 558.485 0.141493 -1.01 -0.00107093 0.736439 0.0487297 -0.0131793 -0.674618 2.65603 5.14392 -84.8697 440.0 4294970000 50 4.67485e-39 900 162.875 4.31327 262 4.0 7.3 2.65603 -84.8697
273 2026-01-15 08:41:42 1157850034 403489499 516312 558.584 0.225464 -1.00501 -0.00118294 0.762442 0.0466497 -0.0151018 -0.645197 2.13021 5.20342 -80.3866 440.0 4294970000 50 4.67485e-39 899 153.902 4.35379 247 3.8 7.3 2.13021 -80.3866
274 2026-01-15 08:41:43 1157849919 403489517 516314 558.669 0.300525 -0.977456 -5.94e-05 0.784553 0.047056 -0.0155882 -0.618077 1.93189 5.34572 -76.378 440.0 4294970000 50 4.67485e-39 900 139.593 4.41916 225 3.6 7.3 1.93189 -76.378
275 2026-01-15 08:41:44 1157849807 403489542 516315 558.701 0.379488 -0.935191 0.0048286 0.807686 0.0463738 -0.0175966 -0.587523 1.49377 5.48742 -71.9992 440.0 4294970000 50 4.67485e-39 899 135.439 4.50385 214 3.6 7.3 1.49377 -71.9992
276 2026-01-15 08:41:45 1157849698 403489573 516303 558.737 0.441267 -0.914542 0.000832724 0.828849 0.0453725 -0.0192421 -0.557297 1.07011 5.54831 -67.7849 440.0 4294970000 50 4.67485e-39 899 129.554 4.87848 201 3.9 7.3 1.07011 -67.7849
277 2026-01-15 08:41:46 1157849593 403489610 516289 558.754 0.49875 -0.874912 -0.00228567 0.850376 0.047478 -0.0225311 -0.523544 0.652882 5.98999 -63.2086 440.0 4294970000 50 4.67485e-39 899 124.575 5.20252 189 4.2 7.3 0.652882 -63.2086
278 2026-01-15 08:41:47 1157849491 403489654 516286 559.453 0.585034 -0.835907 -0.000614453 0.872858 0.0467845 -0.0220014 -0.485227 0.400756 5.9139 -58.1234 440.0 4294970000 50 4.67485e-39 899 122.454 5.51906 180 4.5 7.3 0.400756 -58.1234
279 2026-01-15 08:41:48 1157849397 403489703 516302 559.516 0.648801 -0.777382 -0.000465684 0.894524 0.0490322 -0.0254922 -0.44359 -0.120696 6.33524 -52.7638 440.0 4294970000 50 4.67485e-39 899 124.494 5.40711 176 4.4 7.3 -0.120696 -52.7638
280 2026-01-15 08:41:49 1157849307 403489759 516304 559.649 0.717593 -0.727357 -0.00450716 0.91186 0.0480269 -0.0264855 -0.406822 -0.528615 6.26631 -48.1201 440.0 4294970000 49 4.67485e-39 899 116.608 5.9616 161 5.0 7.3 -0.528615 -48.1201
281 2026-01-15 08:41:50 1157849223 403489821 516309 559.605 0.736835 -0.710425 -0.00838008 0.920271 0.0449859 -0.0234099 -0.387982 -0.468689 5.79528 -45.7472 440.0 4294970000 50 4.67485e-39 899 118.818 5.96839 161 5.0 7.3 -0.468689 -45.7472
282 2026-01-15 08:41:51 1157849138 403489885 516309 559.709 0.732794 -0.701874 -0.000610623 0.921066 0.0457633 -0.0253465 -0.385876 -0.651725 5.9625 -45.4993 441.0 4294970000 49 4.67485e-39 899 112.965 6.21659 154 5.3 7.3 -0.651725 -45.4993
283 2026-01-15 08:41:52 1157849055 403489949 516322 559.869 0.736639 -0.694901 -0.0068382 0.921157 0.0456292 -0.0272279 -0.385548 -0.858267 6.03167 -45.4718 441.0 4294970000 49 4.67485e-39 899 101.666 6.3987 141 5.6 7.3 -0.858267 -45.4718
284 2026-01-15 08:41:53 1157848972 403490013 516338 559.957 0.734317 -0.694997 -0.00406908 0.921383 0.045674 -0.023098 -0.385271 -0.422326 5.8529 -45.4089 441.0 4294970000 49 4.67485e-39 899 101.678 6.39843 141 5.6 7.3 -0.422326 -45.4089
285 2026-01-15 08:41:54 1157848888 403490077 516339 559.993 0.729898 -0.685517 -0.00735985 0.921586 0.0458692 -0.0245808 -0.38467 -0.574019 5.93895 -45.3444 441.0 4294970000 49 4.67485e-39 899 96.5918 6.22576 135 5.5 7.3 -0.574019 -45.3444
286 2026-01-15 08:41:55 1157848804 403490141 516331 559.446 0.723796 -0.678643 -0.00667323 0.921639 0.0457564 -0.0255866 -0.384492 -0.686314 5.97142 -45.3293 441.0 4294970000 49 4.67485e-39 899 96.5627 6.21848 135 5.5 7.3 -0.686314 -45.3293
287 2026-01-15 08:41:56 1157848721 403490205 516330 559.928 0.723055 -0.683276 -0.00517343 0.921204 0.0450407 -0.0257476 -0.385605 -0.727829 5.90366 -45.468 441.0 4294970000 49 4.67485e-39 899 95.6635 6.11078 134 5.4 7.3 -0.727829 -45.468
288 2026-01-15 08:41:57 1157848638 403490269 516328 559.599 0.733901 -0.690873 -0.000249664 0.921591 0.0427914 -0.0281579 -0.384767 -1.08708 5.77178 -45.3795 441.0 4294970000 49 4.67485e-39 899 95.8417 6.12046 134 5.4 7.3 -1.08708 -45.3795
289 2026-01-15 08:41:58 1157848553 403490333 516329 559.763 0.725762 -0.687686 -0.00502073 0.921188 0.0441447 -0.0252586 -0.38578 -0.714865 5.78724 -45.4859 441.0 4294970000 49 4.67485e-39 899 94.7881 6.10365 133 5.4 7.3 -0.714865 -45.4859
290 2026-01-15 08:41:59 1157848468 403490396 516334 559.75 0.722867 -0.701176 -0.00102815 0.920947 0.045938 -0.0277944 -0.385971 -0.901525 6.08995 -45.5286 441.0 4294970000 49 4.67485e-39 899 93.11 5.99361 131 5.3 7.3 -0.901525 -45.5286
291 2026-01-15 08:42:00 1157848384 403490460 516336 559.908 0.727108 -0.685757 -0.00210488 0.921094 0.0446324 -0.0262037 -0.385885 -0.792265 5.88095 -45.5057 441.0 4294970000 49 4.67485e-39 899 93.1622 5.97865 131 5.3 7.3 -0.792265 -45.5057
292 2026-01-15 08:42:01 1157848301 403490525 516333 560.13 0.758114 -0.642566 -0.00885924 0.928995 0.0492187 -0.0282413 -0.365715 -0.94389 6.43799 -43.0321 441.0 4294970000 49 4.67485e-39 899 95.6994 5.96852 131 5.3 7.3 -0.94389 -43.0321
293 2026-01-15 08:42:02 1157848224 403490588 516330 559.436 0.804399 -0.580875 -0.00801607 0.945916 0.053308 -0.0317074 -0.318427 -1.49202 6.95517 -37.3033 441.0 4294970000 50 4.67485e-39 899 101.309 5.98328 131 5.3 7.3 -1.49202 -37.3033
294 2026-01-15 08:42:03 1157848157 403490656 516331 559.484 0.854171 -0.488533 -0.00495229 0.961051 0.0542588 -0.036607 -0.268509 -2.36283 7.12671 -31.3692 441.0 4294970000 49 4.67485e-39 900 102.357 6.31213 126 5.7 7.3 -2.36283 -31.3692
295 2026-01-15 08:42:04 1157848099 403490730 516342 559.304 0.924263 -0.419369 -0.00649446 0.971607 0.0544216 -0.0358913 -0.227443 -2.57873 7.01977 -26.5104 441.0 4294970000 49 4.67485e-39 899 105.223 6.69636 124 6.1 7.3 -2.57873 -26.5104
296 2026-01-15 08:42:05 1157848050 403490809 516342 559.039 0.98621 -0.327913 -0.00777193 0.980472 0.0535676 -0.0363982 -0.185687 -2.95119 6.81862 -21.6253 441.0 4294970000 49 4.67485e-39 900 101.507 7.15668 115 6.7 7.3 -2.95119 -21.6253
297 2026-01-15 08:42:06 1157848011 403490891 516345 559.071 1.01183 -0.24258 -0.000668594 0.987129 0.0554819 -0.0412168 -0.144217 -3.74836 6.98983 -16.8541 441.0 4294970000 50 4.67485e-39 899 98.4617 7.42187 107 7.1 7.3 -3.74836 -16.8541
298 2026-01-15 08:42:07 1157847982 403490976 516346 558.917 1.06248 -0.111815 0.00290173 0.993576 0.0542831 -0.0405269 -0.0906556 -4.05397 6.63329 -10.6624 441.0 4294970000 49 4.67485e-39 899 102.781 7.57294 105 7.3 7.3 -4.05397 -10.6624
299 2026-01-15 08:42:08 1157847968 403491066 516372 558.535 1.04537 0.00468238 -0.00266345 0.997369 0.0468371 -0.0409199 -0.0372546 -4.48168 5.55375 -4.49613 441.0 4294970000 50 4.67485e-39 899 100.808 7.62094 97 7.5 7.3 -4.48168 -4.49613
300 2026-01-15 08:42:09 1157847967 403491158 516383 558.538 1.05414 0.0130505 -0.00718372 0.998327 0.039144 -0.038034 -0.0191134 -4.26962 4.57927 -2.36458 441.0 4294970000 50 4.67485e-39 900 87.7654 7.67518 82 7.8 7.3 -4.26962 -2.36458
301 2026-01-15 08:42:10 1157847964 403491251 516380 558.268 1.02475 -0.0151786 -0.000592587 0.998154 0.0426397 -0.0385631 -0.0195674 -4.31964 4.98438 -2.43437 442.0 4294970000 50 4.67485e-39 900 85.4194 7.7668 80 7.9 7.3 -4.31964 -2.43437
302 2026-01-15 08:42:11 1157847959 403491342 516391 558.521 0.99916 -0.0160169 -0.00666289 0.998203 0.0416966 -0.038937 -0.0183568 -4.37068 4.87177 -2.29324 442.0 4294970000 50 4.67485e-39 899 72.968 7.76618 68 8.1 7.3 -4.37068 -2.29324
303 2026-01-15 08:42:12 1157847955 403491433 516399 558.43 0.999754 -0.0248879 -0.00134058 0.998045 0.0427722 -0.0404917 -0.020921 -4.53346 5.01123 -2.60036 442.0 4294970000 50 4.67485e-39 900 71.5879 7.85185 67 8.2 7.3 -4.53346 -2.60036
304 2026-01-15 08:42:13 1157847951 403491524 516379 558.475 0.989239 -0.020464 -0.00626259 0.998309 0.0398074 -0.0375204 -0.0196834 -4.20655 4.6565 -2.43034 442.0 4294970000 50 4.67485e-39 899 71.5285 7.95257 67 8.3 7.3 -4.20655 -2.43034
305 2026-01-15 08:42:14 1157847947 403491613 516373 558.383 0.982991 -0.0177787 0.00327418 0.998336 0.0389164 -0.0381912 -0.0187399 -4.28986 4.55195 -2.32149 442.0 4294970000 50 4.67485e-39 899 66.5615 7.6737 62 8.1 7.3 -4.28986 -2.32149
306 2026-01-15 08:42:15 1157847943 403491702 516364 558.728 0.990467 -0.021075 0.00443966 0.998153 0.0413322 -0.0399687 -0.0196168 -4.48361 4.83831 -2.44146 442.0 4294970000 50 4.67485e-39 899 72.7733 7.77002 68 8.1 7.3 -4.48361 -2.44146
307 2026-01-15 08:42:16 1157847939 403491790 516360 558.545 0.996515 -0.0216137 -0.00410797 0.998244 0.0395947 -0.0396233 -0.0192791 -4.44985 4.63614 -2.3932 442.0 4294970000 49 4.67485e-39 900 72.8476 7.77015 68 8.1 7.3 -4.44985 -2.3932
308 2026-01-15 08:42:17 1157847934 403491880 516342 558.348 1.01004 -0.0224012 0.00104038 0.998189 0.0400699 -0.0394994 -0.0212743 -4.42514 4.69925 -2.62374 441.0 4294970000 50 4.67485e-39 899 73.6518 7.87872 69 8.2 7.3 -4.42514 -2.62374
309 2026-01-15 08:42:18 1157847930 403491958 516280 558.828 0.180223 0.0111836 -0.016748 0.999121 0.0362373 0.0119818 -0.017334 1.44405 4.13023 -1.93595 441.0 4294970000 49 4.67485e-39 900 67.1325 7.91903 68 8.0 7.3 1.44405 -1.93595
310 2026-01-15 08:42:19 1157847926 403491971 516280 558.659 0.0282349 -0.0164909 0.00376309 0.998321 0.0459941 -0.0282473 -0.0210113 -3.1225 5.34577 -2.55738 441.0 4294970000 50 4.67485e-39 899 66.0158 8.00302 68 8.0 7.3 -3.1225 -2.55738
311 2026-01-15 08:42:20 1157847924 403491973 516280 558.934 -0.0228778 -0.00350658 0.00652101 0.998641 0.0406112 -0.0257091 -0.0201664 -2.84958 4.71829 -2.43131 441.0 4294970000 50 4.67485e-39 900 63.7044 7.71262 66 7.7 7.3 -2.84958 -2.43131
312 2026-01-15 08:42:21 1157847921 403491972 516268 558.762 -0.019157 0.0163404 0.0027241 0.998374 0.0437434 -0.0308328 -0.0196475 -3.43125 5.09006 -2.40753 441.0 4294970000 50 4.67485e-39 899 56.7799 7.2966 59 7.3 7.3 -3.43125 -2.40753
313 2026-01-15 08:42:22 1157847920 403491970 516256 558.715 -0.00693427 0.0299991 -0.000150005 0.997893 0.0502464 -0.0356496 -0.0203284 -3.96294 5.8533 -2.5369 441.0 4294970000 50 4.67485e-39 899 56.7943 6.97895 59 7.0 7.3 -3.96294 -2.5369
314 2026-01-15 08:42:23 1157847924 403491971 516251 558.585 -0.00872051 0.029276 -0.00580441 0.998088 0.0468611 -0.0353328 -0.0193746 -3.94046 5.45961 -2.41224 441.0 4294970000 49 4.67485e-39 899 63.8753 6.97841 66 7.0 7.3 -3.94046 -2.41224
315 2026-01-15 08:42:24 1157847928 403491973 516242 558.565 -0.0127404 0.0111572 -0.00362147 0.998543 0.041515 -0.0285155 -0.01939 -3.17249 4.82714 -2.3588 441.0 4294970000 49 4.67485e-39 899 70.8158 6.79404 73 6.8 7.3 -3.17249 -2.3588
316 2026-01-15 08:42:25 1157847929 403491973 516233 558.64 -0.0087392 0.00897487 0.00675456 0.998401 0.0434056 -0.0306607 -0.0192566 -3.41434 5.04947 -2.36064 441.0 4294970000 50 4.67485e-39 900 70.8906 6.99374 73 7.0 7.3 -3.41434 -2.36064
317 2026-01-15 08:42:26 1157847930 403491973 516218 558.876 0.00502085 0.0115119 0.000914395 0.998401 0.0452129 -0.027639 -0.0196698 -3.06191 5.25024 -2.39788 441.0 4294970000 49 4.67485e-39 899 70.9292 6.88745 73 6.9 7.3 -3.06191 -2.39788
318 2026-01-15 08:42:27 1157847930 403491973 516209 558.858 -0.0181493 -0.00347151 -0.00306094 0.998458 0.0440465 -0.0275878 -0.0194888 -3.05977 5.11564 -2.37329 441.0 4294970000 49 4.67485e-39 900 63.8312 7.0114 66 7.0 7.3 -3.05977 -2.37329
319 2026-01-15 08:42:28 1157847941 403491989 516167 558.748 0.00591428 0.0414101 0.00452949 0.893816 0.0361511 -0.0380416 -0.445352 -2.05203 5.65736 -53.0757 441.0 4294970000 49 4.67485e-39 900 23.4728 6.47808 76 6.5 7.3 -2.05203 -53.0757
320 2026-01-15 08:42:29 1157847888 403492038 516168 558.145 0.0131623 -0.0747558 0.00382856 0.353749 0.0416396 0.023432 -0.934119 5.4155 -0.824046 -138.566 441.0 4294970000 49 4.67485e-39 900 32.0086 5.84891 106 5.9 7.3 5.4155 -138.566
321 2026-01-15 08:42:30 1157847852 403492038 516206 557.402 -0.0709674 0.0273386 0.0102471 0.272715 0.00600933 0.0284307 -0.961656 1.551 -2.9478 -148.385 441.0 4294970000 49 4.67485e-39 900 86.7114 6.33154 61 6.3 7.3 1.551 -148.385
322 2026-01-15 08:42:31 1157847836 403492004 516274 557.42 -1.22653 -0.597495 -0.0184469 0.27391 -0.0637311 -0.00190389 -0.959639 -7.08663 -1.80523 -148.038 440.0 4294970000 49 4.67485e-39 899 112.285 5.92824 28 7.0 7.3 -7.08663 -148.038
323 2026-01-15 08:42:32 1157847742 403491863 516187 558.279 -1.81352 -0.987229 -0.00609989 0.267391 0.0406401 0.023255 -0.96245 5.20222 -1.32519 -149.018 440.0 4294970000 49 4.67485e-39 900 137.236 6.78552 301 7.7 7.3 5.20222 -149.018
324 2026-01-15 08:42:33 1157847641 403491719 516122 557.544 -0.607648 -0.326443 0.0002318 0.266151 0.120404 0.043943 -0.955372 14.683 -1.1772 -149.029 440.0 4294970000 50 4.67485e-39 900 163.159 6.77264 321 7.3 7.3 14.683 -149.029
325 2026-01-15 08:42:34 1157847624 403491688 515933 557.01 0.10417 0.0509882 -1.37713 0.269713 0.0572976 0.0283534 -0.960816 7.20436 -1.36185 -148.737 441.0 4294970000 50 4.67485e-39 900 172.178 7.50793 323 7.4 7.2 7.20436 -148.737
326 2026-01-15 08:42:35 1157847631 403491702 513695 557.25 0.265237 0.187021 -3.31993 0.268916 0.026016 0.0184836 -0.962635 3.44172 -1.23966 -148.832 441.0 4294970000 50 4.67485e-39 900 157.254 8.23239 321 7.4 7.2 3.44172 -148.832
327 2026-01-15 08:42:36 1157847650 403491733 510375 555.029 0.235624 0.131126 -3.18892 0.269939 0.0145825 0.0174597 -0.962609 2.14928 -1.47616 -148.709 441.0 4294970000 50 4.67485e-39 900 156.229 8.49656 317 7.7 7.2 2.14928 -148.709
328 2026-01-15 08:42:37 1157847663 403491758 507227 551.969 0.0637855 0.0243486 -2.54461 0.27147 -0.00653748 0.0105434 -0.962367 -0.392994 -1.36634 -148.5 441.0 4294970000 50 4.67485e-39 901 155.622 8.21478 313 7.7 7.2 -0.392994 -148.5
329 2026-01-15 08:42:38 1157847651 403491757 505465 549.207 0.127247 0.0852812 0.0299786 0.260041 0.033505 0.0335708 -0.964432 4.70883 -2.72212 -149.943 441.0 4294970000 50 4.67485e-39 901 162.928 8.09645 312 8.0 7.2 4.70883 -149.943
330 2026-01-15 08:42:39 1157847607 403491723 505662 547.672 0.15153 -0.117772 0.159976 0.472644 -0.0137482 -0.0267238 0.880741 -0.0598515 -3.44406 123.571 441.0 4294970000 50 4.67485e-39 901 81.6781 9.08776 317 9.0 7.2 -0.0598515 123.571
331 2026-01-15 08:42:40 1157847632 403491673 505723 548.206 -0.082468 -0.180634 0.024895 0.926341 0.0310649 -0.0526841 0.371687 -6.933 1.06154 43.6644 441.0 4294970000 50 4.67485e-39 901 30.7902 10.4578 346 10.3 7.2 -6.933 43.6644
332 2026-01-15 08:42:41 1157847633 403491670 505790 547.603 0.155794 0.259413 0.11861 0.929424 0.0500257 -0.0795311 0.356853 -10.5768 2.11223 41.8163 441.0 4294970000 50 4.67485e-39 901 65.8148 10.2828 23 10.6 7.2 -10.5768 41.8163
333 2026-01-15 08:42:42 1157847694 403491711 505892 548.106 0.789465 0.919947 0.100293 0.930964 0.0341537 -0.0451804 0.360693 -6.24433 1.78714 42.2624 441.0 4294970000 50 4.67485e-39 901 88.7743 9.42944 42 10.4 7.2 -6.24433 42.2624
334 2026-01-15 08:42:43 1157847803 403491785 505949 547.889 0.80738 0.892004 0.0598339 0.929793 0.0264201 -0.0394218 0.365012 -5.31333 1.17126 42.8161 441.0 4294970000 49 4.67485e-39 901 113.117 9.63599 64 10.2 7.2 -5.31333 42.8161
335 2026-01-15 08:42:44 1157847907 403491860 505961 547.663 0.774159 0.800442 0.0309443 0.929877 0.0239717 -0.0357159 0.365347 -4.81536 1.06295 42.858 441.0 4294970000 50 4.67485e-39 901 115.628 10.1611 67 10.6 7.2 -4.81536 42.858
336 2026-01-15 08:42:45 1157847996 403491930 505958 547.827 0.745658 0.70011 0.0204365 0.929624 0.0273267 -0.0390979 0.365409 -5.31725 1.2796 42.8605 441.0 4294970000 49 4.67485e-39 901 115.175 10.4398 67 10.8 7.2 -5.31725 42.8605
337 2026-01-15 08:42:46 1157848080 403491999 505957 548.043 0.725418 0.675823 0.018873 0.929122 0.0288522 -0.0396624 0.366506 -5.44317 1.41274 42.9911 441.0 4294970000 49 4.67485e-39 901 115.213 10.356 67 10.7 7.2 -5.44317 42.9911
338 2026-01-15 08:42:47 1157848163 403492066 505944 547.704 0.718947 0.66634 0.0141465 0.928986 0.0293847 -0.0442984 0.366278 -5.96027 1.2759 42.9731 442.0 4294970000 49 4.67485e-39 901 115.156 10.3621 67 10.7 7.2 -5.96027 42.9731
339 2026-01-15 08:42:48 1157848246 403492132 505927 548.014 0.714863 0.66287 -0.000869543 0.929137 0.0253586 -0.0407592 0.366607 -5.41344 0.992216 43.0214 442.0 4294970000 50 4.67485e-39 901 115.134 10.3642 67 10.7 7.2 -5.41344 43.0214
340 2026-01-15 08:42:49 1157848326 403492198 505906 547.744 0.725654 0.666819 0.00272137 0.929251 0.026025 -0.038659 0.366497 -5.21715 1.15261 42.9993 442.0 4294970000 49 4.67485e-39 901 115.175 10.3648 67 10.7 7.2 -5.21715 42.9993
341 2026-01-15 08:42:50 1157848400 403492264 505890 547.759 0.722962 0.66566 0.00430323 0.928726 0.0325757 -0.0434946 0.366762 -6.00941 1.64826 43.0156 443.0 4294970000 49 4.67485e-39 901 114.213 10.3502 66 10.7 7.2 -6.00941 43.0156
342 2026-01-15 08:42:51 1157848476 403492330 505874 547.875 0.736379 0.674347 0.00224289 0.92871 0.0333688 -0.0402535 0.367103 -5.69739 1.86754 43.0463 442.0 4294970000 49 4.67485e-39 901 114.326 10.3484 66 10.7 7.2 -5.69739 43.0463
343 2026-01-15 08:42:52 1157848558 403492397 505873 547.779 0.716834 0.705773 -0.000326384 0.929118 0.027808 -0.0412798 0.366418 -5.57182 1.23344 42.9889 442.0 4294970000 50 4.67485e-39 900 114.25 10.2103 66 10.6 7.2 -5.57182 42.9889
344 2026-01-15 08:42:53 1157848637 403492462 505847 548.319 0.715494 0.685785 -0.0118398 0.92832 0.0299754 -0.0424771 0.36813 -5.7934 1.40425 43.1943 443.0 4294970000 49 4.67485e-39 901 114.427 10.2325 66 10.6 7.2 -5.7934 43.1943
345 2026-01-15 08:42:54 1157848715 403492528 505827 548.06 0.722702 0.700653 -0.000965158 0.928897 0.0281 -0.0409181 0.366997 -5.54627 1.27644 43.0582 443.0 4294970000 50 4.67485e-39 901 114.341 10.2186 66 10.6 7.2 -5.54627 43.0582
346 2026-01-15 08:42:55 1157848794 403492594 505807 547.976 0.706736 0.710944 0.00176587 0.928477 0.0297275 -0.042076 0.3678 -5.73963 1.39675 43.1534 443.0 4294970000 50 4.67485e-39 901 114.3 10.4037 66 10.8 7.2 -5.73963 43.1534
347 2026-01-15 08:42:56 1157848872 403492658 505800 547.922 0.719102 0.709076 -0.000754255 0.928547 0.029801 -0.0435112 0.367451 -5.8954 1.34616 43.1139 443.0 4294970000 49 4.67485e-39 901 114.321 10.4101 66 10.8 7.2 -5.8954 43.1139
348 2026-01-15 08:42:57 1157848952 403492724 505790 547.737 0.730257 0.718894 0.00622808 0.928493 0.0306375 -0.044921 0.367348 -6.08102 1.37678 43.1015 443.0 4294970000 49 4.67485e-39 901 114.399 10.4053 66 10.8 7.2 -6.08102 43.1015
349 2026-01-15 08:42:58 1157849038 403492790 505797 547.65 0.728516 0.710581 0.00232994 0.928363 0.0292347 -0.040917 0.36825600000000003 -5.59584 1.39026 43.209 443.0 4294970000 50 4.67485e-39 901 114.458 10.4137 66 10.8 7.2 -5.59584 43.209
350 2026-01-15 08:42:59 1157849123 403492854 505803 547.845 0.692553 0.743801 -0.000615262 0.920692 0.0292495 -0.040472 0.387083 -5.57655 1.29707 45.5465 443.0 4294970000 50 4.67485e-39 901 117.794 10.4238 67 10.8 7.2 -5.57655 45.5465
351 2026-01-15 08:43:00 1157849207 403492916 505805 547.725 0.640816 0.772198 0.000231057 0.906221 0.0324191 -0.041586 0.419503 -5.88773 1.37495 49.6131 443.0 4294970000 50 4.67485e-39 901 120.702 10.6244 66 11.0 7.2 -5.88773 49.6131
352 2026-01-15 08:43:01 1157849295 403492972 505811 547.568 0.570777 0.823778 0.00294936 0.890421 0.0315392 -0.0421657 0.452081 -5.94735 1.03944 53.7852 443.0 4294970000 49 4.67485e-39 901 124.771 10.7107 66 11.1 7.2 -5.94735 53.7852
353 2026-01-15 08:43:02 1157849392 403493022 505819 547.711 0.517596 0.874168 0.00213903 0.874109 0.0293832 -0.0424106 0.482981 -5.88509 0.599154 57.8184 442.0 4294970000 50 4.67485e-39 901 125.603 10.9542 63 11.4 7.2 -5.88509 57.8184
354 2026-01-15 08:43:03 1157849492 403493068 505828 547.881 0.475713 0.889169 0.000850914 0.860247 0.0289561 -0.0420116 0.507319 -5.83524 0.414264 61.0422 442.0 4294970000 50 4.67485e-39 901 125.688 10.9212 60 11.4 7.2 -5.83524 61.0422
355 2026-01-15 08:43:04 1157849594 403493110 505819 547.975 0.422338 0.913995 0.000117937 0.847155 0.026249 -0.0403235 0.529163 -5.51507 0.103533 63.9804 442.0 4294970000 50 4.67485e-39 901 127.452 11.0985 59 11.6 7.2 -5.51507 63.9804
356 2026-01-15 08:43:05 1157849698 403493148 505820 548.238 0.362605 0.951488 0.00232371 0.83178 0.0251899 -0.0428279 0.552877 -5.68781 -0.313962 67.2439 442.0 4294970000 50 4.67485e-39 901 127.398 11.5348 56 12.1 7.2 -5.68781 67.2439
357 2026-01-15 08:43:06 1157849805 403493182 505814 548.147 0.322977 0.965904 0.0014289 0.817153 0.0259104 -0.0407075 0.574398 -5.52622 -0.254398 70.2262 443.0 4294970000 50 4.67485e-39 901 128.207 11.8133 54 12.4 7.2 -5.52622 70.2262
358 2026-01-15 08:43:07 1157849916 403493210 505815 547.864 0.249558 0.997999 -0.00110942 0.799126 0.0247376 -0.0429116 0.59912 -5.63739 -0.68413 73.7583 443.0 4294970000 50 4.67485e-39 901 129.582 11.8642 52 12.5 7.2 -5.63739 73.7583
359 2026-01-15 08:43:08 1157850029 403493232 505808 547.711 0.187785 0.997362 -0.00842545 0.778529 0.0217542 -0.0410519 0.625886 -5.23025 -1.00786 77.6457 443.0 4294970000 50 4.67485e-39 901 131.377 11.6515 50 12.3 7.2 -5.23025 77.6457
360 2026-01-15 08:43:09 1157850143 403493247 505810 547.796 0.107333 0.993042 0.000382678 0.75429 0.0220024 -0.0435522 0.654726 -5.42369 -1.37214 81.9873 443.0 4294970000 50 4.67485e-39 901 132.438 11.7185 47 12.4 7.2 -5.42369 81.9873
361 2026-01-15 08:43:10 1157850259 403493256 505813 548.024 0.0653137 0.998237 -0.000894493 0.735455 0.0205638 -0.044389 0.675805 -5.34159 -1.71232 85.2456 443.0 4294970000 50 4.67485e-39 901 134.675 11.7149 46 12.4 7.2 -5.34159 85.2456
362 2026-01-15 08:43:11 1157850375 403493261 505813 547.909 0.0567037 0.983963 -0.00132586 0.729837 0.0185108 -0.0459581 0.681823 -5.29783 -2.052 86.2053 443.0 4294970000 50 4.67485e-39 901 132.373 11.8929 43 12.6 7.2 -5.29783 86.2053
363 2026-01-15 08:43:12 1157850492 403493266 505812 547.912 0.0427692 1.00447 0.00196602 0.729923 0.0173669 -0.0478516 0.681631 -5.36721 -2.29588 86.1951 443.0 4294970000 50 4.67485e-39 901 130.226 11.9437 41 12.7 7.2 -5.36721 86.1951
364 2026-01-15 08:43:13 1157850609 403493271 505807 547.707 0.0689245 1.00041 -0.00171221 0.729566 0.019322 -0.0445294 0.682185 -5.2409 -1.87393 86.2476 443.0 4294970000 49 4.67485e-39 901 130.378 11.9649 41 12.7 7.2 -5.2409 86.2476
365 2026-01-15 08:43:14 1157850726 403493276 505820 547.884 0.0622081 0.993987 -0.000574315 0.729997 0.0177953 -0.0452354 0.681719 -5.18161 -2.05413 86.182 443.0 4294970000 50 4.67485e-39 900 130.258 11.9643 41 12.7 7.2 -5.18161 86.182
366 2026-01-15 08:43:15 1157850844 403493282 505828 547.804 0.0680863 1.00043 -0.00235736 0.729845 0.0183844 -0.0442562 0.681931 -5.14524 -1.92905 86.2054 443.0 4294970000 49 4.67485e-39 901 130.382 11.764 41 12.5 7.2 -5.14524 86.2054
367 2026-01-15 08:43:16 1157850961 403493289 505834 547.617 0.0606153 1.01506 -0.00145509 0.729261 0.0194915 -0.0442549 0.682525 -5.23037 -1.84051 86.2983 443.0 4294970000 49 4.67485e-39 901 130.474 11.8492 41 12.6 7.2 -5.23037 86.2983
368 2026-01-15 08:43:17 1157851078 403493295 505840 547.685 0.048683 1.002 0.000961501 0.729355 0.020134 -0.0454615 0.682327 -5.38213 -1.88059 86.2788 443.0 4294970000 49 4.67485e-39 901 130.395 11.7512 41 12.5 7.2 -5.38213 86.2788
369 2026-01-15 08:43:18 1157851195 403493299 505865 547.661 0.0362855 1.0014 0.00617032 0.725533 0.0199239 -0.044828 0.686437 -5.30217 -1.8782 86.9213 443.0 4294970000 49 4.67485e-39 901 131.003 11.8508 41 12.6 7.2 -5.30217 86.9213
370 2026-01-15 08:43:19 1157851311 403493302 505875 548.021 -0.0322381 0.99801 -0.000791865 0.700263 0.022847 -0.0422293 0.712269 -5.26121 -1.62058 91.0551 443.0 4294970000 49 4.67485e-39 901 135.132 11.8565 41 12.6 7.2 -5.26121 91.0551
371 2026-01-15 08:43:20 1157851427 403493296 505888 547.86 -0.154128 1.00291 -0.00307613 0.662185 0.0183057 -0.0424301 0.747915 -4.79446 -2.25605 97.0599 443.0 4294970000 49 4.67485e-39 901 140.02 11.9212 40 12.7 7.2 -4.79446 97.0599
372 2026-01-15 08:43:21 1157851541 403493282 505903 548.088 -0.267868 0.97707 -0.00171555 0.619878 0.015184 -0.042138 0.783419 -4.36083 -2.71336 103.406 443.0 4294970000 49 4.67485e-39 901 144.152 12.0959 38 12.9 7.2 -4.36083 103.406
373 2026-01-15 08:43:22 1157851652 403493259 505913 548.216 -0.372055 0.950427 -0.00807528 0.581879 0.0138806 -0.0435741 0.811988 -4.20107 -3.13914 108.872 443.0 4294970000 49 4.67485e-39 901 145.252 12.3414 34 13.2 7.2 -4.20107 108.872
374 2026-01-15 08:43:23 1157851760 403493226 505920 548.458 -0.452022 0.896666 -0.00330929 0.542022 0.0117834 -0.0452437 0.839063 -3.94651 -3.62958 114.41 443.0 4294970000 50 4.67485e-39 901 148.668 12.0374 32 12.9 7.2 -3.94651 114.41
375 2026-01-15 08:43:24 1157851862 403493187 505912 548.499 -0.545856 0.854935 0.000204819 0.501429 0.00452201 -0.0459573 0.863966 -3.0901 -4.30069 119.865 443.0 4294970000 50 4.67485e-39 901 149.882 11.6904 28 12.6 7.2 -3.0901 119.865
376 2026-01-15 08:43:25 1157851959 403493140 505911 548.59 -0.602199 0.797608 -0.000203588 0.462849 0.00448803 -0.0476357 0.885145 -2.98332 -4.60518 124.918 443.0 4294970000 49 4.67485e-39 901 150.668 11.478 24 12.4 7.2 -2.98332 124.918
377 2026-01-15 08:43:26 1157852050 403493088 505897 548.542 -0.671816 0.743043 -0.00134278 0.421658 0.000699193 -0.0468321 0.905544 -2.33623 -4.83599 130.171 443.0 4294970000 50 4.67485e-39 900 154.879 11.3702 23 12.3 7.2 -2.33623 130.171
378 2026-01-15 08:43:27 1157852134 403493031 505907 548.658 -0.759531 0.691827 0.0086252 0.37474 0.00071717 -0.0464487 0.925965 -2.0713 -4.90733 136.032 443.0 4294970000 50 4.67485e-39 901 158.702 11.0354 21 12.0 7.2 -2.0713 136.032
379 2026-01-15 08:43:28 1157852213 403492969 505910 548.624 -0.827235 0.617952 -0.00320109 0.324773 -0.00181801 -0.042742 0.944824 -1.3941 -4.7023 142.128 443.0 4294970000 50 4.67485e-39 901 160.537 10.9102 17 11.9 7.2 -1.3941 142.128
380 2026-01-15 08:43:29 1157852284 403492898 505902 548.689 -0.843917 0.550704 -6.87e-05 0.285946 -0.00315469 -0.0390713 0.957444 -0.934243 -4.39529 146.79 443.0 4294970000 50 4.67485e-39 901 163.075 11.029 15 12.0 7.2 -0.934243 146.79
381 2026-01-15 08:43:30 1157852347 403492821 505894 548.29 -0.857677 0.519933 0.000883784 0.27085 -0.00712489 -0.0415076 0.9617 -0.503137 -4.80154 148.574 443.0 4294970000 50 4.67485e-39 901 159.392 11.2128 10 12.2 7.2 -0.503137 148.574
382 2026-01-15 08:43:31 1157852409 403492742 505897 548.49 -0.837709 0.511719 0.000937052 0.271402 -0.00589035 -0.0428066 0.961496 -0.682374 -4.9063 148.515 443.0 4294970000 50 4.67485e-39 901 156.064 11.5261 7 12.5 7.2 -0.682374 148.515
383 2026-01-15 08:43:32 1157852469 403492667 505896 548.654 -0.816195 0.523098 3.08672e-05 0.273967 -0.00214765 -0.0411677 0.960855 -1.0561 -4.60631 148.225 443.0 4294970000 50 4.67485e-39 901 154.767 11.4381 6 12.4 7.2 -1.0561 148.225
384 2026-01-15 08:43:33 1157852529 403492592 505891 548.389 -0.846135 0.514226 0.00589936 0.271023 -0.0052773 -0.0438741 0.961558 -0.78119 -5.00542 148.563 443.0 4294970000 50 4.67485e-39 900 153.956 11.2137 5 12.2 7.2 -0.78119 148.563
385 2026-01-15 08:43:34 1157852590 403492515 505889 548.438 -0.835915 0.524217 -0.00145202 0.272034 -0.00503794 -0.0430265 0.961312 -0.786371 -4.90358 148.443 443.0 4294970000 50 4.67485e-39 901 153.908 10.9183 5 11.9 7.2 -0.786371 148.443
386 2026-01-15 08:43:35 1157852650 403492438 505887 548.669 -0.818072 0.533427 0.00141033 0.273247 -0.00287298 -0.0404662 0.961088 -0.950776 -4.55236 148.307 443.0 4294970000 50 4.67485e-39 901 153.838 11.03 5 12.0 7.2 -0.950776 148.307
387 2026-01-15 08:43:36 1157852712 403492359 505911 548.208 -0.848068 0.528697 0.00473087 0.269643 -0.00649568 -0.043772 0.961943 -0.636541 -5.03287 148.721 443.0 4294970000 50 4.67485e-39 900 154.201 11.0059 5 12.0 7.2 -0.636541 148.721
388 2026-01-15 08:43:37 1157852774 403492280 505916 548.421 -0.837572 0.533339 -0.00103755 0.272998 -0.00587653 -0.0426824 0.961049 -0.68814 -4.89102 148.325 443.0 4294970000 49 4.67485e-39 901 153.81 11.1126 5 12.1 7.2 -0.68814 148.325
389 2026-01-15 08:43:38 1157852836 403492205 505929 548.66 -0.839001 0.531144 0.000170879 0.272571 -0.00753751 -0.0434823 0.961123 -0.528034 -5.03147 148.368 443.0 4294970000 50 4.67485e-39 900 153.848 11.0123 5 12.0 7.1 -0.528034 148.368
390 2026-01-15 08:43:39 1157852900 403492132 505958 548.605 -0.872161 0.522749 0.000479852 0.271438 -0.00736305 -0.0405652 0.961573 -0.450476 -4.7046 148.502 443.0 4294970000 50 4.67485e-39 901 152.793 10.9852 4 12.0 7.1 -0.450476 148.502
391 2026-01-15 08:43:40 1157852963 403492061 505966 548.545 -0.893798 0.492728 0.0063084 0.253936 -0.00382844 -0.0351873 0.966573 -0.599923 -4.01258 150.592 443.0 4294970000 49 4.67485e-39 901 154.895 10.7814 4 11.8 7.1 -0.599923 150.592
392 2026-01-15 08:43:41 1157853018 403491984 505965 548.43 -0.948422 0.42179 -0.00646787 0.21802 -0.00745825 -0.0323246 0.97538 0.0260377 -3.80234 154.811 443.0 4294970000 50 4.67485e-39 900 156.87 10.5621 2 11.6 7.1 0.0260377 154.811
393 2026-01-15 08:43:42 1157853065 403491901 505967 548.7 -0.987878 0.320154 -0.00076053 0.175127 -0.0101097 -0.0321128 0.98397 0.49552 -3.82702 159.812 443.0 4294970000 50 4.67485e-39 901 160.665 10.4619 1 11.5 7.1 0.49552 159.812
394 2026-01-15 08:43:43 1157853102 403491818 505971 548.666 -0.977837 0.232731 0.00124193 0.13408 -0.00888711 -0.0284371 0.990522 0.571866 -3.36667 164.578 444.0 4294970000 50 4.67485e-39 900 164.357 10.4956 0 11.5 7.1 0.571866 164.578
395 2026-01-15 08:43:44 1157853129 403491733 505987 548.282 -0.984661 0.165041 0.0026948 0.0987857 -0.00886503 -0.0281663 0.994671 0.691668 -3.3131 168.649 444.0 4294970000 50 4.67485e-39 901 165.157 10.2056 357 11.2 7.1 0.691668 168.649
396 2026-01-15 08:43:45 1157853148 403491647 505999 548.237 -1.00139 0.0829969 0.00351769 0.0654144 -0.0102528 -0.0284334 0.9974 0.95881 -3.32919 172.48 444.0 4294970000 50 4.67485e-39 901 167.773 10.1031 356 11.1 7.1 0.95881 172.48
397 2026-01-15 08:43:46 1157853157 403491559 506017 547.4 -1.0104 0.0176601 -0.00269233 0.0307431 -0.0121906 -0.0286043 0.999044 1.29504 -3.32057 176.45 444.0 4294970000 50 4.67485e-39 900 166.221 9.61209 351 10.6 7.1 1.29504 176.45
398 2026-01-15 08:43:47 1157853161 403491470 506023 548.119 -1.01227 -0.0411532 -0.00278198 0.00419643 0.0140544 0.0259965 -0.999554 1.62263 -2.97363 -179.574 444.0 4294970000 50 4.67485e-39 901 166.885 9.1198 348 10.1 7.1 1.62263 -179.574
399 2026-01-15 08:43:48 1157853156 403491381 506023 548.257 -0.995815 -0.125347 -0.00223063 0.0404087 0.0159762 0.0240306 -0.998767 1.94027 -2.67904 -175.425 444.0 4294970000 49 4.67485e-39 900 168.685 8.94281 346 9.9 7.1 1.94027 -175.425
400 2026-01-15 08:43:49 1157853142 403491294 506032 547.947 -0.979886 -0.210017 0.00473877 0.0823755 0.0194622 0.0230512 -0.996145 2.44011 -2.45073 -170.61 444.0 4294970000 50 4.67485e-39 901 169.958 8.46373 343 9.4 7.1 2.44011 -170.61
401 2026-01-15 08:43:50 1157853118 403491210 506041 548.11 -0.945163 -0.290953 0.00302617 0.127415 0.0179076 0.0210235 -0.991465 2.34232 -2.12952 -165.41 444.0 4294970000 49 4.67485e-39 901 171.728 7.99573 340 8.9 7.1 2.34232 -165.41
402 2026-01-15 08:43:51 1157853084 403491127 506067 547.595 -0.933434 -0.356857 0.0051894 0.165983 0.021318 0.0214283 -0.985665 2.81676 -2.01783 -160.944 444.0 4294970000 49 4.67485e-39 901 173.695 7.69737 338 8.6 7.1 2.81676 -160.944
403 2026-01-15 08:43:52 1157853042 403491044 506093 547.493 -0.9182 -0.382142 -0.000502172 0.184361 0.0217465 0.0222943 -0.982365 2.92049 -2.05352 -158.806 444.0 4294970000 49 4.67485e-39 901 172.481 7.32289 335 8.2 7.1 2.92049 -158.806
404 2026-01-15 08:43:53 1157852994 403490960 506118 547.698 -0.898296 -0.38013 -0.00241226 0.185746 0.0217553 0.0243236 -0.982056 2.96751 -2.27803 -158.65 444.0 4294970000 49 4.67485e-39 901 169.539 7.46736 332 8.3 7.1 2.96751 -158.65
405 2026-01-15 08:43:54 1157852945 403490878 506136 547.657 -0.905098 -0.371051 -0.00173808 0.185338 0.0221633 0.0272366 -0.982047 3.07429 -2.59916 -158.706 444.0 4294970000 49 4.67485e-39 901 167.53 7.7777 330 8.6 7.1 3.07429 -158.706
406 2026-01-15 08:43:55 1157852900 403490795 506156 547.468 -0.91418 -0.366831 0.00258353 0.184936 0.0228711 0.0280104 -0.982085 3.16933 -2.67282 -158.757 444.0 4294970000 49 4.67485e-39 901 167.529 7.86833 330 8.7 7.1 3.16933 -158.757
407 2026-01-15 08:43:56 1157852862 403490714 506169 547.424 -0.919634 -0.368474 -0.00363745 0.185921 0.0198588 0.0260087 -0.98202 2.79016 -2.50765 -158.631 444.0 4294970000 49 4.67485e-39 901 166.39 7.47261 329 8.3 7.1 2.79016 -158.631
408 2026-01-15 08:43:57 1157852824 403490633 506176 547.518 -0.928782 -0.374911 -0.00386721 0.184693 0.0189391 0.0225672 -0.982355 2.61068 -2.14243 -158.765 444.0 4294970000 50 4.67485e-39 901 165.996 7.16747 329 8.0 7.1 2.61068 -158.765
409 2026-01-15 08:43:58 1157852782 403490550 506179 547.7 -0.92908 -0.385624 -0.00225498 0.184794 0.0203356 0.0235992 -0.982283 2.79004 -2.2291 -158.757 444.0 4294970000 50 4.67485e-39 901 165.849 7.07004 329 7.9 7.1 2.79004 -158.757
410 2026-01-15 08:43:59 1157852737 403490466 506192 547.568 -0.934184 -0.381907 -0.000616549 0.185705 0.021778 0.0239333 -0.982073 2.96168 -2.23366 -158.654 444.0 4294970000 49 4.67485e-39 901 167.232 7.35222 330 8.2 7.1 2.96168 -158.654
411 2026-01-15 08:44:00 1157852690 403490382 506198 547.486 -0.915571 -0.410281 -0.00514775 0.201276 0.0233708 0.0209099 -0.979033 3.10597 -1.80991 -156.826 444.0 4294970000 50 4.67485e-39 901 167.792 7.16865 329 8.0 7.1 3.10597 -156.826
412 2026-01-15 08:44:01 1157852642 403490302 506191 547.39 -0.865109 -0.46552 -0.00559289 0.239024 0.0233807 0.0171392 -0.970581 3.07155 -1.26785 -152.375 444.0 4294970000 50 4.67485e-39 901 173.296 7.27259 330 8.1 7.1 3.07155 -152.375
413 2026-01-15 08:44:02 1157852589 403490227 506176 547.399 -0.833342 -0.54637 -0.00264416 0.284426 0.0244724 0.0129472 -0.958298 3.11113 -0.625124 -146.966 443.0 4294970000 49 4.67485e-39 901 175.834 7.07771 328 7.9 7.1 3.11113 -146.966
414 2026-01-15 08:44:03 1157852529 403490155 506155 547.509 -0.762848 -0.626154 -0.00258166 0.328682 0.0264674 0.00911245 -0.944026 3.2083 0.0111318 -141.617 443.0 4294970000 50 4.67485e-39 901 176.711 6.82739 325 7.6 7.1 3.2083 -141.617
415 2026-01-15 08:44:04 1157852458 403490089 506127 547.483 -0.699119 -0.696425 0.000895535 0.36449 0.0247558 0.0101422 -0.930823 3.06587 -0.0478995 -137.243 443.0 4294970000 50 4.67485e-39 901 177.288 6.56531 323 7.3 7.1 3.06587 -137.243
416 2026-01-15 08:44:05 1157852378 403490027 506106 547.51 -0.658826 -0.748572 -0.00729303 0.396346 0.0264269 0.00766647 -0.917689 3.12902 0.394673 -133.28 443.0 4294970000 50 4.67485e-39 901 176.59 6.02271 318 6.7 7.1 3.12902 -133.28
417 2026-01-15 08:44:06 1157852294 403489970 506072 547.872 -0.607383 -0.791296 -0.00734834 0.43022 0.0273951 0.00440904 -0.902298 3.05157 0.896067 -129.002 443.0 4294970000 50 4.67485e-39 901 174.342 5.60484 312 6.2 7.1 3.05157 -129.002
418 2026-01-15 08:44:07 1157852204 403489917 506038 547.756 -0.560689 -0.849444 -0.00735112 0.46103 0.0276985 0.00227305 -0.886949 2.93678 1.2341 -125.047 443.0 4294970000 50 4.67485e-39 901 171.409 5.39244 306 5.9 7.1 2.93678 -125.047
419 2026-01-15 08:44:08 1157852108 403489869 506022 547.797 -0.490342 -0.898917 -0.00580387 0.494907 0.0309183 0.000239843 -0.868396 3.09204 1.73249 -120.604 443.0 4294970000 50 4.67485e-39 901 173.193 5.42908 304 5.9 7.1 3.09204 -120.604
420 2026-01-15 08:44:09 1157852007 403489827 505997 547.531 -0.40935 -0.938397 -0.00844597 0.532865 0.0346943 -0.0028598 -0.845484 3.18862 2.40016 -115.499 443.0 4294970000 50 4.67485e-39 901 173.672 4.98593 301 5.4 7.1 3.18862 -115.499
421 2026-01-15 08:44:10 1157851900 403489793 505973 547.564 -0.299438 -0.99647 -0.00980672 0.571949 0.0350985 -0.00500605 -0.819522 2.96956 2.77551 -110.113 443.0 4294970000 50 4.67485e-39 901 172.352 4.50582 296 4.8 7.1 2.96956 -110.113
422 2026-01-15 08:44:11 1157851787 403489768 505939 547.49 -0.213511 -1.01508 -0.0104846 0.605611 0.0357996 -0.00366993 -0.794946 3.00805 2.82397 -105.331 443.0 4294970000 50 4.67485e-39 901 175.657 4.50758 296 4.8 7.1 3.00805 -105.331
423 2026-01-15 08:44:12 1157851673 403489749 505926 547.546 -0.189361 -1.0077 -0.0038304 0.621711 0.0336279 -0.00439632 -0.782512 2.70339 2.79438 -103.007 443.0 4294970000 50 4.67485e-39 901 176.021 4.49067 296 4.8 7.1 2.70339 -103.007
424 2026-01-15 08:44:13 1157851556 403489731 505915 547.475 -0.198346 -0.996238 -0.00711906 0.621351 0.0346216 -0.00348168 -0.782759 2.85897 2.78217 -103.053 442.0 4294970000 49 4.67485e-39 901 175.978 4.48264 296 4.8 7.1 2.85897 -103.053
425 2026-01-15 08:44:14 1157851438 403489713 505901 547.464 -0.198874 -0.993207 -0.00372364 0.621432 0.0358041 -0.00371619 -0.782641 2.94794 2.88818 -103.033 442.0 4294970000 49 4.67485e-39 901 173.325 4.17895 291 4.4 7.1 2.94794 -103.033
426 2026-01-15 08:44:15 1157851321 403489694 505900 547.462 -0.211685 -0.981332 -0.00588179 0.621225 0.0358591 -0.003293 -0.782804 2.98381 2.85335 -103.063 442.0 4294970000 50 4.67485e-39 901 173.44 4.16551 291 4.4 7.2 2.98381 -103.063
427 2026-01-15 08:44:16 1157851206 403489674 505897 547.395 -0.210132 -0.983014 -0.00594717 0.620995 0.0363147 -0.0041757 -0.782962 2.96258 2.96433 -103.093 442.0 4294970000 50 4.67485e-39 901 173.338 4.16778 291 4.4 7.2 2.96258 -103.093
428 2026-01-15 08:44:17 1157851090 403489655 505900 547.404 -0.206854 -0.976668 -0.00810197 0.621256 0.0342944 -0.00587821 -0.782835 2.65909 2.97351 -103.068 442.0 4294970000 50 4.67485e-39 901 173.529 4.16953 291 4.4 7.2 2.65909 -103.068
429 2026-01-15 08:44:18 1157850974 403489634 505916 547.467 -0.209179 -0.970511 -0.00795452 0.621466 0.035468 -0.0047941 -0.782623 2.8408 2.96096 -103.029 443.0 4294970000 49 4.67485e-39 901 173.58 4.16621 291 4.4 7.2 2.8408 -103.029
430 2026-01-15 08:44:19 1157850860 403489613 505935 547.41 -0.208491 -0.974125 -0.00452146 0.621044 0.0367061 -0.00343304 -0.782908 3.05042 2.92586 -103.083 443.0 4294970000 49 4.67485e-39 901 173.433 4.1686 291 4.4 7.2 3.05042 -103.083
431 2026-01-15 08:44:20 1157850746 403489592 505960 547.557 -0.198865 -0.984097 -0.00976531 0.620861 0.0356483 -0.00287186 -0.783104 2.99624 2.79907 -103.118 443.0 4294970000 50 4.67485e-39 901 173.444 4.17918 291 4.4 7.2 2.99624 -103.118
432 2026-01-15 08:44:21 1157850631 403489571 505991 547.424 -0.205686 -0.977923 -0.00724312 0.620742 0.0368496 -0.00558144 -0.783129 2.91133 3.12787 -103.124 443.0 4294970000 49 4.67485e-39 901 173.298 4.17224 291 4.4 7.2 2.91133 -103.124
433 2026-01-15 08:44:22 1157850517 403489550 506017 547.477 -0.165879 -0.987931 -0.00606174 0.634737 0.0393213 -0.00728352 -0.771692 2.94891 3.51124 -101.041 443.0 4294970000 49 4.67485e-39 901 174.438 4.17694 291 4.4 7.2 2.94891 -101.041
434 2026-01-15 08:44:23 1157850403 403489532 506036 547.696 -0.0886712 -1.00087 -0.00419422 0.665527 0.0421028 -0.00992784 -0.745119 2.83915 4.0673 -96.3649 443.0 4294970000 50 4.67485e-39 901 171.172 3.81077 284 3.9 7.2 2.83915 -96.3649
435 2026-01-15 08:44:24 1157850287 403489523 506034 548.034 0.0129188 -1.00975 -0.00568359 0.700177 0.0444497 -0.0124659 -0.712475 2.62996 4.59425 -90.8987 443.0 4294970000 49 4.67485e-39 901 174.466 3.81671 284 3.9 7.2 2.62996 -90.8987
436 2026-01-15 08:44:25 1157850170 403489524 506026 547.893 0.117621 -1.00326 -0.00755771 0.731279 0.0435844 -0.0118333 -0.680582 2.40838 4.58444 -85.7969 443.0 4294970000 49 4.67485e-39 901 155.432 3.91063 256 3.5 7.2 2.40838 -85.7969
437 2026-01-15 08:44:26 1157850054 403489534 506018 548.378 0.203152 -0.996367 -0.00896255 0.75848 0.0432072 -0.014021 -0.650112 2.00074 4.80882 -81.1234 443.0 4294970000 49 4.67485e-39 901 137.534 3.86309 230 3.1 7.2 2.00074 -81.1234
438 2026-01-15 08:44:27 1157849938 403489552 506017 548.365 0.281734 -0.984883 -0.00477162 0.781135 0.043622 -0.0155915 -0.622641 1.71717 5.02617 -77.0468 444.0 4294970000 49 4.67485e-39 901 132.745 4.18147 218 3.3 7.2 1.71717 -77.0468
439 2026-01-15 08:44:28 1157849825 403489576 506004 548.835 0.353819 -0.938006 -0.0099198 0.804537 0.0414178 -0.015876 -0.592243 1.34743 4.90358 -72.6634 444.0 4294970000 50 4.67485e-39 901 128.036 4.24297 206 3.3 7.2 1.34743 -72.6634
440 2026-01-15 08:44:29 1157849717 403489607 505996 548.414 0.422791 -0.914991 -0.00664402 0.825893 0.0393619 -0.0156967 -0.562232 1.05056 4.74308 -68.4522 444.0 4294970000 50 4.67485e-39 901 127.508 4.17547 200 3.2 7.2 1.05056 -68.4522
441 2026-01-15 08:44:30 1157849612 403489642 505994 548.692 0.485492 -0.877042 -0.00886913 0.846626 0.0428249 -0.0185386 -0.530138 0.80312 5.28934 -64.0753 445.0 4294970000 50 4.67485e-39 901 128.719 4.08318 196 3.1 7.2 0.80312 -64.0753
442 2026-01-15 08:44:31 1157849510 403489683 505995 548.982 0.55309 -0.843694 -0.00745322 0.868807 0.0461268 -0.0215767 -0.492524 0.455258 5.82068 -59.0787 445.0 4294970000 50 4.67485e-39 900 127.534 4.20507 188 3.2 7.2 0.455258 -59.0787
443 2026-01-15 08:44:32 1157849414 403489731 506004 549.776 0.655577 -0.789072 -0.00119004 0.891196 0.0429608 -0.0250499 -0.450884 -0.338539 5.69144 -53.6933 445.0 4294970000 50 4.67485e-39 901 126.313 4.52352 179 3.5 7.2 -0.338539 -53.6933
444 2026-01-15 08:44:33 1157849324 403489786 506012 549.446 0.702964 -0.743763 -0.00634847 0.909922 0.042534 -0.0226595 -0.411971 -0.354765 5.51372 -48.7383 445.0 4294970000 50 4.67485e-39 901 123.863 4.80554 170 3.8 7.2 -0.354765 -48.7383
445 2026-01-15 08:44:34 1157849239 403489845 506033 549.496 0.721586 -0.728087 -0.0128877 0.919187 0.0413365 -0.0241044 -0.390905 -0.687363 5.44273 -46.1135 445.0 4294970000 50 4.67485e-39 900 126.224 4.8108 170 3.8 7.2 -0.687363 -46.1135
446 2026-01-15 08:44:35 1157849153 403489909 506023 549.22 0.723607 -0.697754 -0.0149383 0.92122 0.0429377 -0.0237485 -0.385936 -0.608122 5.59256 -45.4946 444.0 4294970000 50 4.67485e-39 900 118.853 4.94942 160 4.0 7.2 -0.608122 -45.4946
447 2026-01-15 08:44:36 1157849070 403489974 506015 549.505 0.724385 -0.690229 -0.0102672 0.921485 0.040969 -0.0235581 -0.385529 -0.677726 5.37551 -45.4419 444.0 4294970000 50 4.67485e-39 901 118.942 4.94337 160 4.0 7.2 -0.677726 -45.4419
448 2026-01-15 08:44:37 1157848987 403490038 506005 549.241 0.726265 -0.704915 -0.00586231 0.921009 0.0422475 -0.0249529 -0.386438 -0.762782 5.57346 -45.5644 444.0 4294970000 50 4.67485e-39 900 111.421 4.99982 151 4.1 7.2 -0.762782 -45.5644
449 2026-01-15 08:44:38 1157848904 403490102 505979 549.542 0.724465 -0.68102 -0.010914 0.921287 0.0408588 -0.0232696 -0.38603 -0.64925 5.3514 -45.5022 444.0 4294970000 49 4.67485e-39 900 99.5135 5.14965 137 4.4 7.2 -0.64925 -45.5022
450 2026-01-15 08:44:39 1157848821 403490166 505961 549.324 0.723822 -0.692401 -0.0105972 0.921234 0.0418142 -0.0216291 -0.38615 -0.433067 5.37967 -45.5072 444.0 4294970000 50 4.67485e-39 901 99.4754 5.16054 137 4.4 7.2 -0.433067 -45.5072
451 2026-01-15 08:44:40 1157848740 403490229 505939 549.297 0.715301 -0.684803 -0.0109983 0.922125 0.0393909 -0.0224586 -0.384225 -0.638867 5.15884 -45.2725 444.0 4294970000 50 4.67485e-39 901 99.5915 5.15419 137 4.4 7.2 -0.638867 -45.2725
452 2026-01-15 08:44:41 1157848657 403490293 505922 549.666 0.719403 -0.698072 -0.0133424 0.921055 0.0417545 -0.0222934 -0.386545 -0.503499 5.40307 -45.5604 444.0 4294970000 50 4.67485e-39 900 99.375 5.16505 137 4.4 7.1 -0.503499 -45.5604
453 2026-01-15 08:44:42 1157848573 403490356 505908 549.199 0.707809 -0.692376 -0.00560379 0.921775 0.0406424 -0.023004 -0.384902 -0.637327 5.31593 -45.3604 444.0 4294970000 50 4.67485e-39 901 93.6661 4.98402 130 4.3 7.1 -0.637327 -45.3604
454 2026-01-15 08:44:43 1157848490 403490418 505907 549.34 0.687488 -0.675117 -0.00770543 0.922202 0.0409363 -0.0226385 -0.383869 -0.5917 5.33019 -45.2302 444.0 4294970000 50 4.67485e-39 900 91.6686 5.04304 128 4.4 7.1 -0.5917 -45.2302
455 2026-01-15 08:44:44 1157848409 403490480 505908 549.308 0.706017 -0.688662 -0.0116922 0.921792 0.0387476 -0.0218801 -0.385122 -0.601237 5.06575 -45.38 444.0 4294970000 49 4.67485e-39 900 92.5896 5.06738 129 4.4 7.1 -0.601237 -45.38
456 2026-01-15 08:44:45 1157848327 403490542 505915 548.843 0.739979 -0.673851 -0.00932216 0.926555 0.0442065 -0.0233945 -0.372819 -0.595388 5.70324 -43.8698 444.0 4294970000 49 4.67485e-39 901 93.4509 5.0605 128 4.4 7.1 -0.595388 -43.8698
457 2026-01-15 08:44:46 1157848250 403490604 505922 549.535 0.787845 -0.588069 -0.00940237 0.943734 0.0479535 -0.0243962 -0.3263 -0.845351 6.11077 -38.194 443.0 4294970000 49 4.67485e-39 901 98.9941 5.04933 128 4.4 7.1 -0.845351 -38.194
458 2026-01-15 08:44:47 1157848183 403490670 505940 549.441 0.852349 -0.508409 -0.0039038 0.959844 0.0481237 -0.0298624 -0.274756 -1.76982 6.24916 -32.0466 443.0 4294970000 50 4.67485e-39 900 104.021 5.24476 127 4.6 7.1 -1.76982 -32.0466
459 2026-01-15 08:44:48 1157848124 403490742 505955 549.02 0.885644 -0.434868 -0.010171 0.970791 0.0496229 -0.0302994 -0.232774 -2.04759 6.34595 -27.0829 443.0 4294970000 49 4.67485e-39 901 101.406 5.43808 119 4.9 7.1 -2.04759 -27.0829
460 2026-01-15 08:44:49 1157848074 403490817 505959 548.957 0.938945 -0.343164 -0.00506767 0.97964 0.0490769 -0.0342916 -0.191626 -2.77314 6.28268 -22.2895 443.0 4294970000 49 4.67485e-39 901 103.46 5.58317 116 5.1 7.1 -2.77314 -22.2895
461 2026-01-15 08:44:50 1157848036 403490898 505980 548.725 0.977183 -0.268454 -0.00476742 0.986482 0.0502588 -0.0375813 -0.151378 -3.37867 6.35782 -17.6372 443.0 4294970000 49 4.67485e-39 900 101.096 5.97696 109 5.6 7.1 -3.37867 -17.6372
462 2026-01-15 08:44:51 1157848006 403490984 505994 548.951 1.03134 -0.16279 -0.00121282 0.992969 0.0522564 -0.0332946 -0.10086 -3.18637 6.35414 -11.7775 443.0 4294970000 49 4.67485e-39 901 103.552 6.52389 106 6.2 7.1 -3.18637 -11.7775
463 2026-01-15 08:44:52 1157847987 403491074 506016 548.549 1.04384 -0.0556215 -0.000278843 0.997117 0.0495562 -0.0340794 -0.0462687 -3.63391 5.86548 -5.50013 444.0 4294970000 49 4.67485e-39 901 108.593 6.71119 105 6.4 7.1 -3.63391 -5.50013
464 2026-01-15 08:44:53 1157847981 403491164 506038 548.334 1.00825 0.00330555 -0.00644677 0.998237 0.0425297 -0.0366984 -0.01919 -4.1082 4.96496 -2.38096 444.0 4294970000 49 4.67485e-39 901 107.344 6.8272 101 6.6 7.1 -4.1082 -2.38096
465 2026-01-15 08:44:54 1157847983 403491256 506040 548.316 0.993897 -0.018687 -0.00955135 0.998339 0.0414655 -0.03548 -0.018474 -3.97466 4.83652 -2.28832 444.0 4294970000 49 4.67485e-39 901 92.2156 6.98717 86 7.0 7.1 -3.97466 -2.28832
466 2026-01-15 08:44:55 1157847982 403491347 506036 548.463 0.998347 -0.0224061 -0.00535707 0.998496 0.0391653 -0.0331125 -0.0193638 -3.70465 4.56945 -2.37 444.0 4294970000 50 4.67485e-39 901 86.0325 6.98325 80 7.1 7.1 -3.70465 -2.37
467 2026-01-15 08:44:56 1157847977 403491436 506042 548.497 0.984777 -0.0296314 0.000234458 0.998302 0.043193 -0.0343515 -0.01864 -3.8406 5.03265 -2.30836 444.0 4294970000 49 4.67485e-39 900 73.5964 6.98763 68 7.3 7.1 -3.8406 -2.30836
468 2026-01-15 08:44:57 1157847971 403491524 506040 548.347 0.989317 -0.0240777 -0.00995587 0.997988 0.0457714 -0.0392692 -0.019552 -4.39294 5.34628 -2.45007 444.0 4294970000 50 4.67485e-39 901 72.4309 7.06402 67 7.4 7.1 -4.39294 -2.45007
469 2026-01-15 08:44:58 1157847968 403491614 506027 548.313 0.999493 -0.0157578 -0.0112768 0.998203 0.0441437 -0.0345395 -0.0211999 -3.84675 5.15222 -2.60664 444.0 4294970000 50 4.67485e-39 901 78.6427 6.95231 73 7.2 7.1 -3.84675 -2.60664
470 2026-01-15 08:44:59 1157847965 403491703 506028 548.372 0.989328 -0.0113013 0.00248425 0.998261 0.0429857 -0.0347042 -0.0205701 -3.87179 5.01725 -2.53079 444.0 4294970000 50 4.67485e-39 900 78.734 6.85057 73 7.1 7.1 -3.87179 -2.53079
471 2026-01-15 08:45:00 1157847961 403491793 506007 548.442 0.987478 -0.01906 -0.0065445 0.998294 0.0431907 -0.0333831 -0.0207139 -3.71926 5.03754 -2.54118 444.0 4294970000 49 4.67485e-39 901 80.9829 6.69493 75 6.9 7.1 -3.71926 -2.54118
472 2026-01-15 08:45:01 1157847957 403491882 505979 548.341 0.996964 -0.0257528 -0.00078139 0.998152 0.0454076 -0.0348578 -0.0203903 -3.88419 5.29522 -2.5204 444.0 4294970000 50 4.67485e-39 901 80.1114 6.68319 74 6.9 7.1 -3.88419 -2.5204
473 2026-01-15 08:45:02 1157847954 403491968 505917 548.361 0.370914 0.00494863 -0.00617127 0.998018 0.044632 0.0404721 -0.0181491 4.7271 5.04416 -1.87547 444.0 4294970000 50 4.67485e-39 901 69.706 6.65823 69 6.8 7.1 4.7271 -1.87547
474 2026-01-15 08:45:03 1157847951 403491989 505919 548.667 0.0407894 -0.0248184 0.00233819 0.998431 0.0487716 -0.0164534 -0.0220305 -1.75975 5.63373 -2.61483 444.0 4294970000 50 4.67485e-39 901 71.9831 6.61044 74 6.6 7.1 -1.75975 -2.61483
475 2026-01-15 08:45:04 1157847950 403491992 505908 548.648 -0.0287087 -0.00404636 0.00292949 0.998606 0.0420367 -0.0229197 -0.022223 -2.51669 4.87965 -2.65713 444.0 4294970000 50 4.67485e-39 901 63.3846 6.51614 66 6.5 7.1 -2.51669 -2.65713
476 2026-01-15 08:45:05 1157847948 403491991 505895 548.525 -0.0181358 0.0123594 -0.0067696 0.998171 0.0470205 -0.0310237 -0.0219426 -3.43263 5.47483 -2.68299 444.0 4294970000 50 4.67485e-39 901 69.5073 6.39556 72 6.4 7.1 -3.43263 -2.68299
477 2026-01-15 08:45:06 1157847949 403491990 505880 548.58 -0.0275691 0.0137742 -0.00358923 0.998587 0.0421093 -0.0239328 -0.0218785 -2.63417 4.89 -2.62291 444.0 4294970000 50 4.67485e-39 901 68.3625 6.3977 71 6.4 7.1 -2.63417 -2.62291
478 2026-01-15 08:45:07 1157847948 403491989 505859 548.696 -0.00947942 0.0150817 -0.00716735 0.998333 0.0461544 -0.0271652 -0.0215299 -2.99542 5.36264 -2.61137 444.0 4294970000 50 4.67485e-39 901 69.5841 6.29 72 6.3 7.1 -2.99542 -2.61137
479 2026-01-15 08:45:08 1157847951 403491989 505851 548.669 -0.0100741 0.0261206 -0.00117542 0.998231 0.0471428 -0.0291878 -0.0214447 -3.22485 5.48177 -2.61595 444.0 4294970000 50 4.67485e-39 901 75.5791 6.27746 78 6.3 7.1 -3.22485 -2.61595
480 2026-01-15 08:45:09 1157847956 403491992 505841 548.381 -0.0143104 0.00798256 -0.00806281 0.998619 0.0423321 -0.0219065 -0.0220974 -2.40052 4.91034 -2.63839 444.0 4294970000 50 4.67485e-39 901 77.4415 6.09608 80 6.1 7.1 -2.40052 -2.63839
481 2026-01-15 08:45:10 1157847955 403491992 505821 548.659 -0.0375997 -0.0110423 0.00271095 0.998284 0.0485551 -0.0243595 -0.0218889 -2.66597 5.63111 -2.6435 443.0 4294970000 50 4.67485e-39 901 78.3171 6.11799 81 6.1 7.1 -2.66597 -2.6435
482 2026-01-15 08:45:11 1157847965 403492003 505784 548.546 -0.0147071 0.0726596 0.00352458 0.921507 0.0349745 -0.0361243 -0.385093 -2.27201 5.29941 -45.4681 443.0 4294970000 50 4.67485e-39 901 35.4432 5.96972 81 6.0 7.1 -2.27201 -45.4681
483 2026-01-15 08:45:12 1157847925 403492059 505785 548.194 0.00887578 -0.0949173 0.0108858 0.410389 0.0381683 0.0210901 -0.910867 4.98237 -0.407969 -131.52 443.0 4294970000 50 4.67485e-39 901 12.6877 5.06955 118 5.1 7.1 4.98237 -131.52
484 2026-01-15 08:45:13 1157847881 403492064 505802 547.116 -0.0688572 0.0202743 -0.00553354 0.267422 0.00755884 0.0303772 -0.963071 1.76549 -3.12404 -149.022 444.0 4294970000 50 4.67485e-39 901 74.3423 5.6374 74 5.6 7.1 1.76549 -149.022
485 2026-01-15 08:45:14 1157847875 403492034 505869 547.361 -1.14346 -0.546816 -0.00903066 0.268554 -0.0721154 -0.00183303 -0.96056 -8.02105 -2.03802 -148.628 444.0 4294970000 49 4.67485e-39 901 104.376 6.12231 36 7.0 7.1 -8.02105 -148.628
486 2026-01-15 08:45:15 1157847791 403491897 505811 547.807 -1.88772 -1.03562 -0.00488843 0.263627 0.0318536 0.0198217 -0.963895 4.12102 -1.23048 -149.462 444.0 4294970000 50 4.67485e-39 901 148.401 6.4026 312 7.7 7.1 4.12102 -149.462
487 2026-01-15 08:45:16 1157847683 403491744 505736 547.391 -0.832576 -0.497294 -0.00867289 0.263007 0.120855 0.0431406 -0.956222 14.7048 -1.12165 -149.398 444.0 4294970000 49 4.67485e-39 901 165.704 6.60642 330 7.4 7.1 14.7048 -149.398
488 2026-01-15 08:45:17 1157847654 403491701 505632 547.194 0.062763 -0.00692257 -1.06793 0.265132 0.0555889 0.0285585 -0.962185 7.01483 -1.4712 -149.29 444.0 4294970000 49 4.67485e-39 901 176.264 7.43696 332 7.4 7.1 7.01483 -149.29
489 2026-01-15 08:45:18 1157847659 403491715 503672 547.166 0.261779 0.142694 -3.26646 0.266751 0.0282156 0.0205864 -0.963132 3.74628 -1.41284 -149.096 444.0 4294970000 49 4.67485e-39 901 159.197 8.29426 330 7.5 7.1 3.74628 -149.096
490 2026-01-15 08:45:19 1157847674 403491746 500366 545.908 0.23849 0.11454 -3.22913 0.26314 0.00784747 0.0115138 -0.964657 1.21483 -1.03648 -149.506 443.0 4294970000 49 4.67485e-39 902 157.677 8.72485 322 7.9 7.1 1.21483 -149.506
491 2026-01-15 08:45:20 1157847681 403491773 497179 542.158 0.105969 -0.00311469 -2.77864 0.261666 -0.00492641 0.0112531 -0.96508 -0.207406 -1.39245 -149.668 443.0 4294970000 49 4.67485e-39 902 155.014 8.33412 315 7.7 7.1 -0.207406 -149.668
492 2026-01-15 08:45:21 1157847677 403491775 495136 538.617 0.0195836 0.0767549 -0.152845 0.270041 0.0371131 0.0274576 -0.961741 4.94631 -1.88508 -148.725 444.0 4294970000 49 4.67485e-39 903 166.809 7.89691 315 7.9 7.1 4.94631 -148.725
493 2026-01-15 08:45:22 1157847646 403491744 495252 537.317 0.125109 -0.0574732 0.186771 0.378945 -0.0230871 -0.016553 0.924983 1.72872 -2.7596 135.413 444.0 4294970000 49 4.67485e-39 902 94.3011 8.2661 318 8.2 7.1 1.72872 135.413
494 2026-01-15 08:45:23 1157847659 403491688 495332 538.289 -0.11339 -0.242006 0.0223578 0.910167 0.0346161 -0.0400662 0.410845 -5.81893 1.73339 48.5039 444.0 4294970000 49 4.67485e-39 902 36.5179 9.83066 347 9.6 7.1 -5.81893 48.5039
495 2026-01-15 08:45:24 1157847661 403491679 495387 537.733 0.0736265 0.108233 0.125123 0.930957 0.0437144 -0.066681 0.356317 -8.93524 1.96517 41.7375 445.0 4294970000 49 4.67485e-39 902 46.2494 9.65359 4 9.8 7.1 -8.93524 41.7375
496 2026-01-15 08:45:25 1157847705 403491711 495531 537.72 0.805624 0.882863 0.106623 0.930785 0.0316725 -0.0444169 0.361474 -6.06118 1.54731 42.369 446.0 4294970000 49 4.67485e-39 902 86.9138 9.14048 40 10.1 7.1 -6.06118 42.369
497 2026-01-15 08:45:26 1157847809 403491784 495606 537.826 0.85188 0.921796 0.0559938 0.930576 0.0239077 -0.037047 0.363433 -4.95275 1.01046 42.6253 445.0 4294970000 50 4.67485e-39 902 111.301 9.28445 62 9.9 7.1 -4.95275 42.6253
498 2026-01-15 08:45:27 1157847911 403491861 495642 537.483 0.815891 0.809937 0.0325449 0.929947 0.0252365 -0.0359999 0.365057 -4.89832 1.18785 42.818 445.0 4294970000 50 4.67485e-39 902 113.995 9.73457 65 10.2 7.1 -4.89832 42.818
499 2026-01-15 08:45:28 1157848003 403491934 495665 537.399 0.761594 0.755149 0.0250745 0.929265 0.023807 -0.031609 0.367288 -4.37247 1.20844 43.0894 445.0 4294970000 50 4.67485e-39 902 113.72 9.96649 65 10.4 7.1 -4.37247 43.0894
500 2026-01-15 08:45:29 1157848087 403492001 495670 537.474 0.739812 0.710898 0.00757559 0.929417 0.0247599 -0.0351061 0.366522 -4.78476 1.16678 42.9987 446.0 4294970000 50 4.67485e-39 902 112.388 9.9813 64 10.4 7.1 -4.78476 42.9987
501 2026-01-15 08:45:30 1157848165 403492067 495670 537.545 0.728001 0.673928 0.00936081 0.929639 0.0261298 -0.0376095 0.365614 -5.10838 1.21287 42.8871 446.0 4294970000 50 4.67485e-39 902 112.198 9.90981 64 10.3 7.1 -5.10838 42.8871
502 2026-01-15 08:45:31 1157848245 403492130 495683 537.977 0.724464 0.691333 0.00779817 0.929277 0.0233102 -0.0364173 0.366846 -4.86408 0.954907 43.0473 445.0 4294970000 50 4.67485e-39 902 111.272 9.97795 63 10.4 7.1 -4.86408 43.0473
503 2026-01-15 08:45:32 1157848322 403492195 495672 537.754 0.729656 0.692072 0.00495427 0.928972 0.0254598 -0.0380842 0.367305 -5.13299 1.1119 43.0999 445.0 4294970000 50 4.67485e-39 902 111.323 10.0802 63 10.5 7.1 -5.13299 43.0999
504 2026-01-15 08:45:33 1157848400 403492260 495658 537.737 0.73717 0.686122 0.00286817 0.928951 0.0266578 -0.0384454 0.367235 -5.22193 1.22513 43.0873 445.0 4294970000 50 4.67485e-39 902 111.297 10.1883 63 10.6 7.1 -5.22193 43.0873
505 2026-01-15 08:45:34 1157848478 403492326 495643 537.794 0.721231 0.688554 0.00848898 0.929278 0.0270539 -0.0356451 0.366661 -4.93893 1.38862 43.0082 444.0 4294970000 50 4.67485e-39 902 111.181 10.0789 63 10.5 7.1 -4.93893 43.0082
506 2026-01-15 08:45:35 1157848555 403492392 495634 537.813 0.745345 0.693171 0.00768392 0.929073 0.0312607 -0.035204 0.366889 -5.06921 1.85579 43.019 444.0 4294970000 50 4.67485e-39 902 112.495 9.90172 64 10.3 7.1 -5.06921 43.019
507 2026-01-15 08:45:36 1157848634 403492458 495628 538.056 0.723962 0.704226 -0.00487823 0.929162 0.024599 -0.0388213 0.366804 -5.17484 0.991552 43.0435 444.0 4294970000 50 4.67485e-39 902 112.394 9.88343 64 10.3 7.1 -5.17484 43.0435
508 2026-01-15 08:45:37 1157848714 403492523 495618 537.672 0.730026 0.696309 -0.000566014 0.92889 0.027397 -0.0411446 0.367043 -5.54091 1.19141 43.0676 444.0 4294970000 50 4.67485e-39 902 112.409 9.99348 64 10.4 7.1 -5.54091 43.0676
509 2026-01-15 08:45:38 1157848796 403492589 495611 537.968 0.724717 0.693451 -0.00371475 0.929249 0.0247625 -0.0352293 0.366936 -4.79853 1.15973 43.05 444.0 4294970000 50 4.67485e-39 902 112.221 10.1924 64 10.6 7.1 -4.79853 43.05
510 2026-01-15 08:45:39 1157848877 403492655 495602 537.643 0.744912 0.696082 0.00020849 0.929123 0.0254507 -0.0364041 0.367094 -4.95307 1.18294 43.0698 444.0 4294970000 49 4.67485e-39 902 113.497 10.0154 65 10.4 7.1 -4.95307 43.0698
511 2026-01-15 08:45:40 1157848955 403492722 495604 537.581 0.736081 0.693746 0.00273596 0.929336 0.0269413 -0.036119 0.366476 -4.98451 1.35763 42.9868 444.0 4294970000 50 4.67485e-39 902 112.335 9.99625 64 10.4 7.1 -4.98451 42.9868
512 2026-01-15 08:45:41 1157849037 403492787 495604 537.468 0.721295 0.714661 -0.00114223 0.92863 0.0262254 -0.0363478 0.36829 -4.98131 1.2617 43.2143 444.0 4294970000 50 4.67485e-39 902 112.585 9.87557 64 10.3 7.1 -4.98131 43.2143
513 2026-01-15 08:45:42 1157849116 403492852 495584 537.681 0.704013 0.708861 -0.000985315 0.922295 0.0341033 -0.0381122 0.383089 -5.53407 1.94076 45.0221 445.0 4294970000 50 4.67485e-39 902 114.407 9.90519 64 10.3 7.1 -5.53407 45.0221
514 2026-01-15 08:45:43 1157849202 403492915 495564 537.676 0.63142 0.772852 -0.00584389 0.908774 0.0283487 -0.0333386 0.414987 -4.82597 1.37188 49.033 444.0 4294970000 50 4.67485e-39 902 117.248 9.86325 63 10.3 7.1 -4.82597 49.033
515 2026-01-15 08:45:44 1157849295 403492971 495552 537.846 0.571515 0.836019 -0.00188644 0.893127 0.0249095 -0.0315776 0.448003 -4.5156 0.931252 53.245 444.0 4294970000 50 4.67485e-39 902 121.474 9.84526 63 10.3 7.1 -4.5156 53.245
516 2026-01-15 08:45:45 1157849388 403493022 495540 537.712 0.516312 0.84781 0.0063552 0.877036 0.0269282 -0.0358195 0.47833 -5.08293 0.745959 57.1866 444.0 4294970000 50 4.67485e-39 902 123.172 10.0358 61 10.5 7.1 -5.08293 57.1866
517 2026-01-15 08:45:46 1157849484 403493068 495523 537.717 0.47164 0.876158 0.00156116 0.862435 0.0258447 -0.036505 0.504188 -5.10805 0.446887 60.6065 444.0 4294970000 50 4.67485e-39 902 125.465 10.2241 60 10.7 7.1 -5.10805 60.6065
518 2026-01-15 08:45:47 1157849584 403493110 495515 537.756 0.436526 0.89832 0.00033233 0.849553 0.026824 -0.038687 0.525399 -5.38956 0.283436 63.4601 444.0 4294970000 50 4.67485e-39 902 125.087 10.4828 57 11.0 7.1 -5.38956 63.4601
519 2026-01-15 08:45:48 1157849687 403493148 495504 537.657 0.372576 0.948791 -0.0100461 0.833936 0.027044 -0.0373245 0.549933 -5.27891 0.23329 66.7993 444.0 4294970000 50 4.67485e-39 902 126.229 10.7246 55 11.3 7.1 -5.27891 66.7993
520 2026-01-15 08:45:49 1157849797 403493181 495496 537.785 0.314673 0.963789 0.00184914 0.818857 0.0251586 -0.0396779 0.572072 -5.3807 -0.241415 69.8946 444.0 4294970000 50 4.67485e-39 902 127.205 10.5933 53 11.2 7.1 -5.3807 69.8946
521 2026-01-15 08:45:50 1157849910 403493209 495527 537.587 0.275242 0.97721 0.00761399 0.802054 0.0234908 -0.0382684 0.595562 -5.12757 -0.454528 73.2169 444.0 4294970000 50 4.67485e-39 902 129.436 10.7908 52 11.4 7.1 -5.12757 73.2169
522 2026-01-15 08:45:51 1157850026 403493231 495543 537.63 0.20515 0.98894 -0.0035704 0.781919 0.0228959 -0.0362696 0.621903 -4.88776 -0.535243 77.0229 444.0 4294970000 50 4.67485e-39 902 131.008 10.9622 50 11.6 7.0 -4.88776 77.0229
523 2026-01-15 08:45:52 1157850140 403493247 495558 537.955 0.129844 0.981644 -0.00871412 0.757984 0.021473 -0.0404812 0.650661 -5.12438 -1.15796 81.344 444.0 4294970000 49 4.67485e-39 902 131.995 11.1352 47 11.8 7.0 -5.12438 81.344
524 2026-01-15 08:45:53 1157850255 403493256 495575 538.173 0.0657981 0.991735 -0.0047298 0.736582 0.0179879 -0.0413995 0.674841 -4.89168 -1.6897 85.069 444.0 4294970000 49 4.67485e-39 902 134.62 11.2183 46 11.9 7.0 -4.89168 85.069
525 2026-01-15 08:45:54 1157850370 403493261 495610 538.113 0.0338301 0.993235 -0.00310982 0.729229 0.0167312 -0.043788 0.682662 -4.97453 -2.03555 86.3167 444.0 4294970000 49 4.67485e-39 902 132.578 11.3727 43 12.1 7.0 -4.97453 86.3167
526 2026-01-15 08:45:55 1157850485 403493264 495629 537.905 0.0728436 0.988696 -0.0081344 0.730334 0.0198301 -0.0419976 0.681509 -5.07041 -1.62693 86.1171 444.0 4294970000 49 4.67485e-39 902 131.42 11.4881 42 12.2 7.0 -5.07041 86.1171
527 2026-01-15 08:45:56 1157850604 403493267 495662 537.695 0.0626946 1.01852 -0.00425844 0.730035 0.0178017 -0.0419757 0.681887 -4.90887 -1.79772 86.1772 444.0 4294970000 49 4.67485e-39 902 131.51 11.5592 42 12.3 7.0 -4.90887 86.1772
528 2026-01-15 08:45:57 1157850723 403493274 495672 537.379 0.0737981 1.02115 -0.00741943 0.729983 0.0203359 -0.0373227 0.682143 -4.71732 -1.22065 86.176 444.0 4294970000 49 4.67485e-39 902 131.664 11.2657 42 12.0 7.0 -4.71732 86.176
529 2026-01-15 08:45:58 1157850843 403493280 495699 537.375 0.0599889 1.00612 0.00998991 0.730144 0.0181581 -0.0393915 0.681915 -4.72041 -1.56447 86.1585 444.0 4294970000 49 4.67485e-39 902 131.537 11.2664 42 12.0 7.0 -4.72041 86.1585
530 2026-01-15 08:45:59 1157850958 403493285 495735 537.69 0.0553332 0.995822 0.00625543 0.729935 0.0204876 -0.0395539 0.682064 -4.91613 -1.38314 86.1823 445.0 4294970000 50 4.67485e-39 902 131.575 11.0721 42 11.8 7.0 -4.91613 86.1823
531 2026-01-15 08:46:00 1157851073 403493288 495755 537.425 0.0447483 0.997625 -0.00315268 0.729098 0.0211471 -0.0407409 0.682869 -5.06559 -1.42703 86.319 445.0 4294970000 50 4.67485e-39 902 131.652 11.1658 42 11.9 7.0 -5.06559 86.319
532 2026-01-15 08:46:01 1157851188 403493292 495773 537.578 0.03943 1.02174 0.0081454 0.725945 0.0207355 -0.0416557 0.686177 -5.10277 -1.55695 86.8496 445.0 4294970000 50 4.67485e-39 902 132.405 10.751 42 11.5 7.0 -5.10277 86.8496
533 2026-01-15 08:46:02 1157851304 403493295 495808 537.893 -0.0235417 1.02441 0.0104366 0.705964 0.0225409 -0.0396335 0.706778 -5.03872 -1.39206 90.1339 445.0 4294970000 50 4.67485e-39 902 135.677 10.7464 42 11.5 7.0 -5.03872 90.1339
534 2026-01-15 08:46:03 1157851419 403493293 495846 537.835 -0.137781 1.01124 -0.00863258 0.668536 0.0202462 -0.033414 0.742652 -4.2871 -1.29638 96.0685 445.0 4294970000 50 4.67485e-39 902 141.581 10.6436 42 11.4 7.0 -4.2871 96.0685
535 2026-01-15 08:46:04 1157851531 403493282 495872 537.621 -0.232992 0.990082 -0.00457586 0.629107 0.023243 -0.033075 0.776267 -4.45675 -1.27058 102.013 445.0 4294970000 50 4.67485e-39 902 146.359 10.939 41 11.7 7.0 -4.45675 102.013
536 2026-01-15 08:46:05 1157851642 403493261 495892 537.836 -0.333057 0.962313 0.00529858 0.588222 0.0161508 -0.0320478 0.807903 -3.65816 -1.88261 107.952 445.0 4294970000 50 4.67485e-39 902 150.146 11.0138 39 11.8 7.0 -3.65816 107.952
537 2026-01-15 08:46:06 1157851749 403493231 495912 537.749 -0.440223 0.932141 0.00358545 0.551409 0.0163263 -0.030739 0.833508 -3.50412 -1.90842 113.093 445.0 4294970000 50 4.67485e-39 902 151.061 10.5486 35 11.4 7.0 -3.50412 113.093
538 2026-01-15 08:46:07 1157851854 403493193 495951 537.776 -0.520789 0.876795 -0.00500959 0.510556 0.0172521 -0.0316827 0.859088 -3.55451 -2.11434 118.628 445.0 4294970000 50 4.67485e-39 902 152.253 10.4197 31 11.3 7.0 -3.55451 118.628
539 2026-01-15 08:46:08 1157851952 403493146 495950 538.05 -0.616723 0.821328 -0.00628949 0.468287 0.00782333 -0.0333817 0.882911 -2.5839 -2.9621 124.194 444.0 4294970000 50 4.67485e-39 902 155.635 10.3889 29 11.3 7.0 -2.5839 124.194
540 2026-01-15 08:46:09 1157852043 403493094 495949 537.958 -0.655447 0.73961 0.00303586 0.427166 0.00805003 -0.0314464 0.90359 -2.37368 -2.8659 129.465 444.0 4294970000 50 4.67485e-39 902 156.523 10.3967 25 11.3 7.0 -2.37368 129.465
541 2026-01-15 08:46:10 1157852126 403493036 495962 538.065 -0.755464 0.668462 -0.00420526 0.379935 0.0042323 -0.0331459 0.92441 -1.89189 -3.3308 135.379 444.0 4294970000 50 4.67485e-39 902 159.18 10.0506 22 11.0 7.0 -1.89189 135.379
542 2026-01-15 08:46:11 1157852200 403492974 495961 538.371 -0.802237 0.59146 0.00553411 0.330206 0.00706738 -0.0340797 0.943267 -2.05405 -3.42075 141.485 445.0 4294970000 50 4.67485e-39 902 162.067 10.0502 19 11.0 7.0 -2.05405 141.485
543 2026-01-15 08:46:12 1157852267 403492903 495966 538.398 -0.869048 0.537052 0.00422495 0.287801 0.00188683 -0.0364986 0.956993 -1.41087 -3.94493 146.584 445.0 4294970000 50 4.67485e-39 902 166.179 9.92329 18 10.9 7.0 -1.41087 146.584
544 2026-01-15 08:46:13 1157852329 403492826 495983 538.48 -0.897128 0.517202 -0.00294705 0.269243 -0.00285921 -0.0363674 0.962381 -0.806812 -4.10306 148.78 445.0 4294970000 50 4.67485e-39 902 162.952 9.8882 13 10.9 7.0 -0.806812 148.78
545 2026-01-15 08:46:14 1157852391 403492747 495979 538.42 -0.858873 0.509473 -0.00319814 0.271398 -0.00490748 -0.0361007 0.961778 -0.581921 -4.13545 148.516 446.0 4294970000 50 4.67485e-39 902 158.326 9.61253 9 10.6 7.0 -0.581921 148.516
546 2026-01-15 08:46:15 1157852451 403492672 495985 538.679 -0.862647 0.483061 -0.00151924 0.269791 -0.00154391 -0.0386889 0.96214 -1.02601 -4.3184 148.722 446.0 4294970000 49 4.67485e-39 902 157.287 9.71719 8 10.7 7.0 -1.02601 148.722
547 2026-01-15 08:46:16 1157852508 403492597 495983 538.332 -0.871662 0.500432 -0.00255561 0.272229 -0.00242838 -0.0421723 0.961305 -1.0482 -4.72784 148.431 446.0 4294970000 49 4.67485e-39 902 155.914 10.0996 7 11.1 7.0 -1.0482 148.431
548 2026-01-15 08:46:17 1157852567 403492520 495975 537.774 -0.8809 0.525162 -0.0013043 0.270512 -0.000311677 -0.0394792 0.961907 -1.18961 -4.3668 148.642 446.0 4294970000 50 4.67485e-39 902 156.233 10.3816 7 11.4 7.0 -1.18961 148.642
549 2026-01-15 08:46:18 1157852631 403492443 495967 537.85 -0.884819 0.532592 0.00615091 0.27121 -0.00504301 -0.0376094 0.961772 -0.613102 -4.30631 148.538 446.0 4294970000 49 4.67485e-39 902 155.057 10.4726 6 11.5 7.0 -0.613102 148.538
550 2026-01-15 08:46:19 1157852695 403492364 495964 538.185 -0.8748 0.530792 0.00182206 0.271698 -0.00577788 -0.0371781 0.961647 -0.520857 -4.28126 148.477 446.0 4294970000 50 4.67485e-39 902 155.009 10.3823 6 11.4 7.0 -0.520857 148.477
551 2026-01-15 08:46:20 1157852758 403492287 495966 538.123 -0.864287 0.524301 0.00970432 0.272441 -0.00411592 -0.0338711 0.961567 -0.603969 -3.8641 148.393 446.0 4294970000 49 4.67485e-39 902 153.827 10.1927 5 11.2 7.0 -0.603969 148.393
552 2026-01-15 08:46:21 1157852821 403492211 495977 538.014 -0.837078 0.527326 -0.00877869 0.274014 -0.00531824 -0.0337345 0.961119 -0.473565 -3.88578 148.201 446.0 4294970000 49 4.67485e-39 902 153.71 10.0155 5 11.0 7.0 -0.473565 148.201
553 2026-01-15 08:46:22 1157852883 403492137 495974 538.031 -0.862485 0.520192 0.00361739 0.27099 -0.000465981 -0.0359197 0.961912 -1.0642 -3.97797 148.581 446.0 4294970000 49 4.67485e-39 902 154.016 9.99648 5 11.0 7.0 -1.0642 148.581
554 2026-01-15 08:46:23 1157852944 403492060 495966 538.077 -0.862083 0.491875 -0.00150329 0.258313 0.00142974 -0.0326502 0.965508 -1.1248 -3.57333 150.09 446.0 4294970000 49 4.67485e-39 902 155.527 10.0114 5 11.0 7.0 -1.1248 150.09
555 2026-01-15 08:46:24 1157853001 403491982 495968 538.101 -0.917346 0.424478 -0.00463333 0.224292 -0.00314149 -0.0285838 0.974098 -0.384028 -3.27345 154.089 446.0 4294970000 49 4.67485e-39 902 159.463 9.9918 5 11.0 7.0 -0.384028 154.089
556 2026-01-15 08:46:25 1157853050 403491903 495943 538.128 -0.96615 0.342853 -0.00774045 0.17985 -0.00486 -0.027004 0.983311 -0.00891352 -3.14476 159.282 446.0 4294970000 50 4.67485e-39 902 164.655 9.87729 5 10.9 7.0 -0.00891352 159.282
557 2026-01-15 08:46:26 1157853093 403491823 495927 537.631 -0.982747 0.276228 0.000937535 0.138664 -0.00603498 -0.0206382 0.990106 0.356808 -2.43842 164.06 446.0 4294970000 49 4.67485e-39 902 168.428 9.58164 4 10.6 7.0 0.356808 164.06
558 2026-01-15 08:46:27 1157853122 403491737 495920 537.787 -1.00141 0.167451 0.0024357 0.10195 -0.00585662 -0.0250717 0.994456 0.374526 -2.92705 168.296 446.0 4294970000 50 4.67485e-39 902 168.033 9.28558 0 10.3 7.0 0.374526 168.296
559 2026-01-15 08:46:28 1157853139 403491646 495911 537.832 -1.01002 0.0915143 0.00323127 0.0709129 -0.0101673 -0.0278868 0.997041 0.935144 -3.2712 171.85 445.0 4294970000 50 4.67485e-39 902 169.256 9.29026 358 10.3 7.0 0.935144 171.85
560 2026-01-15 08:46:29 1157853151 403491557 495900 537.371 -0.995281 0.0296671 0.0083073 0.0366226 -0.013611 -0.0258172 0.998903 1.44991 -3.01489 175.775 445.0 4294970000 50 4.67485e-39 902 169.866 9.2142 355 10.2 7.0 1.44991 175.775
561 2026-01-15 08:46:30 1157853155 403491468 495900 537.835 -0.995045 -0.0331103 0.00352503 0.00129109 -0.0127813 -0.0231804 0.999649 1.46095 -2.65925 179.831 445.0 4294970000 50 4.67485e-39 902 170.627 8.92174 352 9.9 7.0 1.46095 179.831
562 2026-01-15 08:46:31 1157853153 403491381 495902 537.537 -0.987811 -0.0979959 0.00105426 0.0349157 0.0130417 0.0206172 -0.999093 1.57592 -2.3099 -176.042 445.0 4294970000 50 4.67485e-39 902 173.626 8.72677 351 9.7 7.0 1.57592 -176.042
563 2026-01-15 08:46:32 1157853142 403491293 495899 537.54 -0.999964 -0.18513 0.0039875 0.0761952 0.0151047 0.02098 -0.996758 1.90894 -2.26647 -171.308 445.0 4294970000 50 4.67485e-39 902 173.667 8.02129 347 9.0 7.0 1.90894 -171.308
564 2026-01-15 08:46:33 1157853122 403491207 495900 537.441 -0.95986 -0.274315 0.00905031 0.120843 0.0179357 0.0185445 -0.992336 2.29711 -1.86235 -166.163 445.0 4294970000 50 4.67485e-39 902 175.084 7.55824 344 8.5 7.0 2.29711 -166.163
565 2026-01-15 08:46:34 1157853091 403491122 495920 537.311 -0.93014 -0.355852 0.00666907 0.161806 0.0189603 0.0184544 -0.986468 2.48643 -1.73657 -161.42 445.0 4294970000 50 4.67485e-39 902 177.648 7.46844 343 8.4 7.0 2.48643 -161.42
566 2026-01-15 08:46:35 1157853052 403491039 495940 537.144 -0.918523 -0.395869 0.00864538 0.184111 0.0178365 0.0180753 -0.982577 2.39051 -1.66068 -158.821 445.0 4294970000 50 4.67485e-39 902 175.571 7.29928 338 8.2 7.0 2.39051 -158.821
567 2026-01-15 08:46:36 1157853008 403490958 495954 537.121 -0.905473 -0.40677 0.00767575 0.184986 0.0142346 0.0193437 -0.982448 2.01314 -1.8776 -158.718 445.0 4294970000 49 4.67485e-39 902 173.515 7.02937 336 7.9 7.0 2.01314 -158.718
568 2026-01-15 08:46:37 1157852963 403490876 495964 537.249 -0.923857 -0.41409 0.00216447 0.184312 0.0132112 0.0208389 -0.982558 1.92812 -2.06905 -158.798 446.0 4294970000 50 4.67485e-39 902 172.179 6.82203 335 7.7 7.0 1.92812 -158.798
569 2026-01-15 08:46:38 1157852917 403490792 495964 537.283 -0.925572 -0.376118 -0.000822778 0.184772 0.0171315 0.0197908 -0.982433 2.34851 -1.86733 -158.747 446.0 4294970000 50 4.67485e-39 902 169.152 6.84204 332 7.7 7.0 2.34851 -158.747
570 2026-01-15 08:46:39 1157852872 403490706 495962 537.344 -0.928814 -0.376163 0.0012335 0.186235 0.0196376 0.0233075 -0.982032 2.70849 -2.20693 -158.587 446.0 4294970000 49 4.67485e-39 902 171.496 6.81923 334 7.7 7.0 2.70849 -158.587
571 2026-01-15 08:46:40 1157852827 403490621 495960 537.413 -0.914108 -0.358583 -0.00389263 0.185128 0.0200857 0.0214055 -0.982276 2.71617 -1.98608 -158.712 445.0 4294970000 50 4.67485e-39 902 169.255 6.74999 332 7.6 7.0 2.71617 -158.712
572 2026-01-15 08:46:41 1157852784 403490539 495962 537.145 -0.899558 -0.359698 -1.95e-05 0.185135 0.0170052 0.0224465 -0.98231 2.39125 -2.16848 -158.71 445.0 4294970000 49 4.67485e-39 902 169.149 6.46511 332 7.3 7.0 2.39125 -158.71
573 2026-01-15 08:46:42 1157852742 403490458 495955 537.16 -0.910542 -0.370652 0.000509559 0.183506 0.0153695 0.0236474 -0.982614 2.22858 -2.34209 -158.901 445.0 4294970000 50 4.67485e-39 902 170.032 6.54857 333 7.4 7.0 2.22858 -158.901
574 2026-01-15 08:46:43 1157852701 403490377 495940 537.104 -0.930624 -0.366214 0.00736308 0.198752 0.0161917 0.011902 -0.979844 2.08972 -0.968365 -157.097 444.0 4294970000 49 4.67485e-39 902 173.136 6.70393 334 7.6 7.0 2.08972 -157.097
575 2026-01-15 08:46:44 1157852658 403490296 495919 537.096 -0.888608 -0.458152 -0.00537183 0.232667 0.0175872 0.0103137 -0.972343 2.23531 -0.680854 -153.111 444.0 4294970000 50 4.67485e-39 902 177.942 6.70245 336 7.6 7.0 2.23531 -153.111
576 2026-01-15 08:46:45 1157852605 403490220 495914 537.138 -0.822486 -0.55672 0.00301414 0.27748 0.0176513 0.00891352 -0.960528 2.227 -0.420194 -147.793 444.0 4294970000 50 4.67485e-39 902 177.717 6.5486 333 7.4 7.0 2.227 -147.793
577 2026-01-15 08:46:46 1157852543 403490147 495931 537.288 -0.778832 -0.633469 0.0036569 0.321973 0.017065 0.008545 -0.946557 2.16695 -0.297469 -142.444 444.0 4294970000 49 4.67485e-39 902 175.838 5.95814 331 6.8 7.0 2.16695 -142.444
578 2026-01-15 08:46:47 1157852473 403490080 495950 537.374 -0.725767 -0.69941 0.0112873 0.361507 0.0145567 0.00485911 -0.932243 1.75675 0.0839814 -137.618 444.0 4294970000 49 4.67485e-39 902 172.713 5.66651 330 6.5 7.0 1.75675 -137.618
579 2026-01-15 08:46:48 1157852394 403490014 495985 537.471 -0.6719 -0.753244 0.00139657 0.393383 0.0202657 0.00583161 -0.919133 2.39824 0.299616 -133.662 443.0 4294970000 49 4.67485e-39 902 172.62 5.20559 327 6.0 7.0 2.39824 -133.662
580 2026-01-15 08:46:49 1157852308 403489954 495987 537.922 -0.603874 -0.79345 -0.035184 0.426531 0.0238354 0.000984516 -0.904158 2.51868 1.06417 -129.475 443.0 4294970000 49 4.67485e-39 902 174.053 5.17817 322 5.9 7.0 2.51868 -129.475
581 2026-01-15 08:46:50 1157852216 403489899 495982 537.247 -0.583823 -0.825423 0.000921632 0.455216 0.0258152 -0.00118491 -0.890006 2.57206 1.46922 -125.799 443.0 4294970000 50 4.67485e-39 902 173.639 4.99002 319 5.7 7.0 2.57206 -125.799
582 2026-01-15 08:46:51 1157852121 403489847 496004 537.248 -0.49675 -0.905484 -0.00103501 0.489208 0.0270531 0.000734422 -0.871747 2.74488 1.44512 -121.374 443.0 4294970000 50 4.67485e-39 902 176.597 4.81321 312 5.4 7.0 2.74488 -121.374
583 2026-01-15 08:46:52 1157852019 403489804 496011 537.068 -0.403381 -0.952474 0.0038068 0.526053 0.0254149 -0.00248771 -0.850069 2.32654 1.77625 -116.471 443.0 4294970000 50 4.67485e-39 902 176.723 4.41625 307 4.9 7.0 2.32654 -116.471
584 2026-01-15 08:46:53 1157851910 403489769 496019 537.103 -0.31902200000000003 -0.984235 0.000822157 0.566422 0.0287352 0.00239274 -0.823611 2.86871 1.6417 -110.932 443.0 4294970000 50 4.67485e-39 902 175.807 4.44089 305 4.9 7.0 2.86871 -110.932
585 2026-01-15 08:46:54 1157851797 403489740 496023 537.126 -0.237497 -1.00693 -0.00385885 0.60021 0.0297096 -0.00460946 -0.799277 2.40497 2.4687 -106.147 444.0 4294970000 50 4.67485e-39 902 176.371 4.03663 300 4.4 7.0 2.40497 -106.147
586 2026-01-15 08:46:55 1157851682 403489717 496024 537.015 -0.216647 -0.999513 0.00153173 0.620571 0.0319769 -0.00369989 -0.78349 2.60891 2.60993 -103.186 444.0 4294970000 50 4.67485e-39 902 176.069 3.74993 298 4.1 7.0 2.60891 -103.186
587 2026-01-15 08:46:56 1157851565 403489697 496026 536.902 -0.206762 -0.98819 -0.00490385 0.621846 0.0329668 -0.00263401 -0.782441 2.76943 2.58942 -102.993 444.0 4294970000 50 4.67485e-39 902 176.036 3.75637 298 4.1 7.0 2.76943 -102.993
588 2026-01-15 08:46:57 1157851448 403489679 496025 537.035 -0.191151 -0.975268 0.000660251 0.621194 0.0278306 -0.000751279 -0.783162 2.44507 2.05096 -103.122 444.0 4294970000 50 4.67485e-39 902 176.599 3.774 298 4.1 7.0 2.44507 -103.122
589 2026-01-15 08:46:58 1157851333 403489662 496027 537.0 -0.195384 -0.965572 -0.00452774 0.621535 0.0286041 -0.00046917 -0.782864 2.53366 2.082 -103.068 445.0 4294970000 50 4.67485e-39 902 176.53 3.76887 298 4.1 7.0 2.53366 -103.068
590 2026-01-15 08:46:59 1157851218 403489644 496039 536.955 -0.192218 -0.975413 -0.000528149 0.62138 0.0298846 0.000152162 -0.782939 2.69321 2.11725 -103.083 445.0 4294970000 50 4.67485e-39 902 176.247 3.6126 296 3.9 7.0 2.69321 -103.083
591 2026-01-15 08:47:00 1157851105 403489625 496042 536.935 -0.219336 -0.971928 -0.00294404 0.622111 0.028529 -0.00111531 -0.782408 2.47928 2.13644 -102.983 445.0 4294970000 50 4.67485e-39 902 176.403 3.58339 296 3.9 7.0 2.47928 -102.983
592 2026-01-15 08:47:01 1157850991 403489605 496045 536.955 -0.224044 -0.975319 0.00058595 0.620196 0.0288439 -0.00015802 -0.783916 2.58089 2.06681 -103.262 445.0 4294970000 49 4.67485e-39 902 176.202 3.58382 296 3.9 7.0 2.58089 -103.262
593 2026-01-15 08:47:02 1157850876 403489584 496036 537.054 -0.208187 -0.983084 -0.00481316 0.62035 0.027609 -0.002162 -0.783836 2.32699 2.15928 -103.246 445.0 4294970000 49 4.67485e-39 902 176.267 3.59914 296 3.9 7.0 2.32699 -103.246
594 2026-01-15 08:47:03 1157850761 403489564 496039 536.994 -0.219816 -0.968151 -0.00161446 0.62125 0.0310442 -0.00364316 -0.782989 2.52706 2.5404 -103.092 445.0 4294970000 50 4.67485e-39 902 175.978 3.58507 296 3.9 7.0 2.52706 -103.092
595 2026-01-15 08:47:04 1157850647 403489545 496040 537.005 -0.214032 -0.962005 -0.00545513 0.622282 0.0293309 -0.00266092 -0.782239 2.44033 2.33299 -102.952 445.0 4294970000 49 4.67485e-39 902 176.364 3.58785 296 3.9 7.0 2.44033 -102.952
596 2026-01-15 08:47:05 1157850535 403489526 496034 536.926 -0.184187 -0.967979 -0.00985404 0.631631 0.0304301 -0.00712379 -0.774639 2.18626 2.83831 -101.567 445.0 4294970000 49 4.67485e-39 902 176.35 3.5941 296 3.9 7.0 2.18626 -101.567
597 2026-01-15 08:47:06 1157850424 403489509 496027 537.101 -0.121089 -0.98854 0.00114117 0.66093 0.0369342 -0.0106471 -0.749463 2.36646 3.71773 -97.114 445.0 4294970000 50 4.67485e-39 902 173.605 3.58243 296 3.9 7.0 2.36646 -97.114
598 2026-01-15 08:47:07 1157850312 403489499 496019 537.227 -0.0111792 -1.00406 -0.00873992 0.696002 0.0351544 -0.0122456 -0.717075 1.9125 3.81522 -91.6518 445.0 4294970000 49 4.67485e-39 902 169.149 3.17473 298 3.5 7.0 1.9125 -91.6518
599 2026-01-15 08:47:08 1157850197 403489499 495989 537.653 0.0973935 -1.00101 -0.00374435 0.727828 0.0374957 -0.0121013 -0.684627 1.93286 4.0827 -86.4336 445.0 4294970000 49 4.67485e-39 902 164.251 3.19183 298 3.5 7.0 1.93286 -86.4336
600 2026-01-15 08:47:09 1157850082 403489509 495976 537.709 0.202126 -1.01157 -0.00267676 0.754726 0.0368457 -0.0126092 -0.654883 1.6749 4.13852 -81.8425 445.0 4294970000 49 4.67485e-39 902 175.2 3.30415 282 3.3 7.0 1.6749 -81.8425
601 2026-01-15 08:47:10 1157849968 403489527 495972 537.765 0.271814 -0.994096 -0.0101527 0.778033 0.0368265 -0.0124313 -0.62702 1.538 4.18203 -77.6805 446.0 4294970000 50 4.67485e-39 902 159.313 3.58618 253 3.1 7.0 1.538 -77.6805
602 2026-01-15 08:47:11 1157849855 403489550 495968 538.077 0.335607 -0.956553 0.00366219 0.800627 0.0399545 -0.0130154 -0.597688 1.54269 4.56387 -73.4285 446.0 4294970000 50 4.67485e-39 902 141.638 4.00985 225 3.2 7.0 1.54269 -73.4285
603 2026-01-15 08:47:12 1157849745 403489579 495974 537.601 0.40895 -0.935809 -0.0074443 0.822567 0.0373039 -0.0125929 -0.567303 1.23825 4.34036 -69.1442 446.0 4294970000 50 4.67485e-39 902 129.06 4.273 203 3.3 7.0 1.23825 -69.1442
604 2026-01-15 08:47:13 1157849639 403489614 495976 537.905 0.457711 -0.884527 -0.00431685 0.843799 0.0396717 -0.0152836 -0.534973 0.954316 4.77943 -64.7148 446.0 4294970000 49 4.67485e-39 902 129.478 4.16683 198 3.2 7.0 0.954316 -64.7148
605 2026-01-15 08:47:14 1157849538 403489655 495985 538.046 0.528101 -0.838649 -0.0140947 0.865607 0.0393169 -0.0182691 -0.498843 0.435384 4.95087 -59.8947 445.0 4294970000 50 4.67485e-39 902 131.26 4.1747 194 3.2 7.0 0.435384 -59.8947
606 2026-01-15 08:47:15 1157849443 403489703 495997 538.872 0.630773 -0.78186 0.000311248 0.888515 0.0398216 -0.0182892 -0.45675 0.222124 5.01856 -54.406 445.0 4294970000 50 4.67485e-39 902 137.001 4.19128 194 3.2 7.0 0.222124 -54.406
607 2026-01-15 08:47:16 1157849352 403489757 495984 539.124 0.694486 -0.743155 -0.0129621 0.906511 0.0388558 -0.0201919 -0.419904 -0.227874 5.01468 -49.7217 445.0 4294970000 50 4.67485e-39 902 141.534 4.20204 194 3.2 7.0 -0.227874 -49.7217
608 2026-01-15 08:47:17 1157849266 403489816 495971 538.556 0.738492 -0.698404 -0.00947342 0.919418 0.0365317 -0.0229396 -0.39091 -0.78051 4.88318 -46.1042 445.0 4294970000 50 4.67485e-39 902 145.125 4.2009 194 3.2 7.0 -0.78051 -46.1042
609 2026-01-15 08:47:18 1157849183 403489881 495950 538.526 0.72804 -0.694561 -0.0124005 0.921483 0.0357199 -0.0181413 -0.386347 -0.334249 4.58026 -45.51 445.0 4294970000 50 4.67485e-39 902 145.554 4.1887 194 3.2 7.0 -0.334249 -45.51
610 2026-01-15 08:47:19 1157849098 403489947 495919 538.191 0.730857 -0.71144 -0.00146986 0.921701 0.0361412 -0.018648 -0.385763 -0.37199 4.64708 -45.4404 445.0 4294970000 50 4.67485e-39 902 145.433 4.20056 194 3.2 7.0 -0.37199 -45.4404
611 2026-01-15 08:47:20 1157849014 403490012 495895 538.316 0.714594 -0.69665 -0.0107412 0.921937 0.0371061 -0.0207036 -0.385004 -0.550253 4.83985 -45.3577 445.0 4294970000 50 4.67485e-39 902 145.533 4.17826 194 3.2 7.0 -0.550253 -45.3577
612 2026-01-15 08:47:21 1157848932 403490076 495892 538.921 0.696833 -0.70805 -0.00263518 0.921189 0.0364022 -0.022546 -0.386753 -0.766754 4.84841 -45.5852 445.0 4294970000 50 4.67485e-39 902 145.084 4.17091 194 3.2 7.0 -0.766754 -45.5852
613 2026-01-15 08:47:22 1157848850 403490139 495889 538.456 0.702736 -0.693029 -0.0173863 0.921352 0.0334141 -0.0204703 -0.386749 -0.680453 4.44011 -45.5713 445.0 4294970000 49 4.67485e-39 902 134.649 4.38669 180 3.4 7.0 -0.680453 -45.5713
614 2026-01-15 08:47:23 1157848768 403490202 495885 538.782 0.716181 -0.7073 -0.000147454 0.921626 0.033025 -0.0197936 -0.386164 -0.629079 4.36849 -45.495 445.0 4294970000 50 4.67485e-39 902 134.7 4.40644 180 3.4 7.0 -0.629079 -45.495
615 2026-01-15 08:47:24 1157848684 403490265 495881 538.569 0.706321 -0.714162 -0.00647967 0.921564 0.0357045 -0.0198241 -0.386072 -0.513951 4.65319 -45.4849 444.0 4294970000 49 4.67485e-39 902 134.555 4.40437 180 3.4 7.0 -0.513951 -45.4849
616 2026-01-15 08:47:25 1157848600 403490328 495880 538.543 0.709207 -0.704555 -0.0114817 0.921794 0.0371251 -0.0207986 -0.385337 -0.557696 4.84628 -45.3996 444.0 4294970000 49 4.67485e-39 902 134.736 4.39954 180 3.4 7.0 -0.557696 -45.3996
617 2026-01-15 08:47:26 1157848518 403490392 495888 538.646 0.710808 -0.707748 -0.00265282 0.921607 0.0367891 -0.0197202 -0.385874 -0.455913 4.76321 -45.4602 444.0 4294970000 50 4.67485e-39 902 134.674 4.40299 180 3.4 7.0 -0.455913 -45.4602
618 2026-01-15 08:47:27 1157848435 403490457 495905 538.523 0.709154 -0.711741 -0.014238 0.921819 0.0355317 -0.0198369 -0.385479 -0.525941 4.63514 -45.4113 444.0 4294970000 49 4.67485e-39 902 134.661 4.4046 180 3.4 7.0 -0.525941 -45.4113
619 2026-01-15 08:47:28 1157848352 403490519 495909 538.304 0.71151 -0.69064 -0.00698107 0.924427 0.0413325 -0.0207109 -0.378546 -0.401042 5.28482 -44.5592 444.0 4294970000 50 4.67485e-39 902 135.536 4.39151 180 3.4 7.0 -0.401042 -44.5592
620 2026-01-15 08:47:29 1157848274 403490580 495925 538.777 0.765304 -0.600795 -0.00345568 0.941357 0.0443545 -0.0251186 -0.333539 -1.01445 5.75564 -39.0741 444.0 4294970000 49 4.67485e-39 902 141.131 4.37269 180 3.4 7.0 -1.01445 -39.0741
621 2026-01-15 08:47:30 1157848207 403490645 495944 538.527 0.827759 -0.518685 -0.00641196 0.958914 0.0438812 -0.0266403 -0.279013 -1.52463 5.68533 -32.5247 444.0 4294970000 50 4.67485e-39 902 147.562 4.37642 180 3.4 7.0 -1.52463 -32.5247
622 2026-01-15 08:47:31 1157848149 403490716 495954 538.453 0.875926 -0.4492 -0.0101157 0.969922 0.046783 -0.0312828 -0.23682 -2.20806 6.06489 -27.5612 444.0 4294970000 49 4.67485e-39 902 141.515 4.66 166 3.7 7.0 -2.20806 -27.5612
623 2026-01-15 08:47:32 1157848097 403490792 495958 538.294 0.937636 -0.370659 -0.0134336 0.978676 0.0478261 -0.0359337 -0.196507 -2.95448 6.19348 -22.8682 444.0 4294970000 50 4.67485e-39 902 121.495 5.66852 137 4.9 7.0 -2.95448 -22.8682
624 2026-01-15 08:47:33 1157848056 403490875 495963 538.136 0.975974 -0.278529 -0.000703803 0.985671 0.0475743 -0.0347625 -0.158055 -3.06644 6.02324 -18.3827 444.0 4294970000 49 4.67485e-39 902 99.1039 6.1552 108 5.8 7.0 -3.06644 -18.3827
625 2026-01-15 08:47:34 1157848025 403490963 495971 537.98 1.01889 -0.183095 -0.00650052 0.992306 0.0474109 -0.0324005 -0.109687 -3.09007 5.81719 -12.7734 444.0 4294970000 50 4.67485e-39 902 84.7426 6.50629 88 6.5 7.0 -3.09007 -12.7734
626 2026-01-15 08:47:35 1157848007 403491055 495984 537.516 1.02657 -0.0616691 0.00611167 0.997415 0.0426115 -0.0250424 -0.0521543 -2.60865 5.032 -6.10155 444.0 4294970000 50 4.67485e-39 902 84.1203 6.47486 81 6.6 7.0 -2.60865 -6.10155
627 2026-01-15 08:47:36 1157848000 403491142 496031 537.751 0.998389 0.00316558 3.25617e-06 0.998642 0.0370214 -0.0320207 -0.0178223 -3.59132 4.31483 -2.18032 444.0 4294970000 50 4.67485e-39 902 72.7511 6.83766 67 7.2 7.0 -3.59132 -2.18032
628 2026-01-15 08:47:37 1157847998 403491229 496050 537.617 1.02769 -0.0028955 -0.0107537 0.998638 0.0357074 -0.0341726 -0.0167069 -3.84536 4.16495 -2.05691 444.0 4294970000 50 4.67485e-39 902 66.6433 6.93572 61 7.4 7.0 -3.84536 -2.05691
629 2026-01-15 08:47:38 1157847994 403491317 496067 537.808 1.01353 -0.0279914 -0.00910045 0.998425 0.038893 -0.035513 -0.0193221 -3.98045 4.54446 -2.37552 444.0 4294970000 50 4.67485e-39 902 67.3785 6.97601 62 7.4 7.0 -3.98045 -2.37552
630 2026-01-15 08:47:39 1157847992 403491409 496084 537.597 1.03638 -0.0166967 -0.00919147 0.998717 0.0357484 -0.0294265 -0.0204857 -3.28583 4.17112 -2.47003 444.0 4294970000 50 4.67485e-39 902 72.6499 6.93962 67 7.3 7.0 -3.28583 -2.47003
631 2026-01-15 08:47:40 1157847987 403491500 496091 537.696 1.00431 -0.0332069 0.00171247 0.998619 0.0381399 -0.0301598 -0.0198799 -3.36658 4.44563 -2.41178 444.0 4294970000 50 4.67485e-39 902 70.6673 6.7335 65 7.1 7.0 -3.36658 -2.41178
632 2026-01-15 08:47:41 1157847981 403491590 496110 537.733 0.985599 -0.0203313 0.00719748 0.998534 0.0407232 -0.029522 -0.0200194 -3.28663 4.74096 -2.43337 444.0 4294970000 50 4.67485e-39 902 71.5094 6.74322 66 7.1 7.0 -3.28663 -2.43337
633 2026-01-15 08:47:42 1157847979 403491681 496129 537.866 1.00882 -0.0238122 -0.00475943 0.998589 0.038772 -0.0301119 -0.0202402 -3.35795 4.51928 -2.45501 444.0 4294970000 50 4.67485e-39 902 65.5001 6.54188 60 7.0 7.0 -3.35795 -2.45501
634 2026-01-15 08:47:43 1157847976 403491772 496111 537.799 0.984122 -0.0260634 -0.00675969 0.998578 0.0383804 -0.0304604 -0.0210142 -3.39536 4.4779 -2.54408 444.0 4294970000 50 4.67485e-39 902 64.163 6.53736 59 7.0 7.0 -3.39536 -2.54408
635 2026-01-15 08:47:44 1157847972 403491863 496109 537.561 0.977465 -0.0247341 -0.00756497 0.9985 0.0400461 -0.0319259 -0.0193736 -3.56661 4.66747 -2.36867 445.0 4294970000 50 4.67485e-39 902 63.2662 6.52695 58 7.0 7.0 -3.56661 -2.36867
636 2026-01-15 08:47:45 1157847969 403491952 496081 537.773 0.56518 -0.00982498 -0.00382916 0.998119 0.0395292 0.0432781 -0.0179458 5.03813 4.4542 -1.86419 445.0 4294970000 49 4.67485e-39 902 59.8717 6.80769 58 7.1 7.0 5.03813 -1.86419
637 2026-01-15 08:47:46 1157847965 403491979 496090 538.286 0.0917929 -0.0301739 0.00707127 0.998848 0.0409313 -0.0115302 -0.0222503 -1.21556 4.72112 -2.60251 445.0 4294970000 50 4.67485e-39 902 64.3309 6.68604 66 6.7 7.0 -1.21556 -2.60251
638 2026-01-15 08:47:47 1157847946 403491981 496220 538.086 -0.0792946 -1.35736 -0.0366775 0.990181 -0.138041 -0.00530551 -0.0214105 -0.940785 -15.8548 -2.34659 445.0 4294970000 49 4.67485e-39 902 68.2818 7.43112 67 6.2 7.0 -0.940785 -2.34659
639 2026-01-15 08:47:48 1157847680 403491969 496263 537.083 -0.194458 -4.4715 0.0146238 0.980726 -0.193901 -0.0162575 -0.0177446 -2.22206 -22.3376 -1.63453 446.0 4294970000 50 4.67485e-39 902 72.9654 10.0727 65 6.0 7.0 -2.22206 -1.63453
640 2026-01-15 08:47:49 1157847196 403491956 496045 537.491 -0.133759 -1.79601 0.0435933 0.988358 0.148222 -0.0263515 -0.0220063 -2.61183 17.1263 -2.94453 446.0 4294970000 50 4.67485e-39 902 66.1217 7.99408 63 6.4 7.0 -2.61183 -2.94453
641 2026-01-15 08:47:50 1157847026 403491945 496167 537.463 -0.0505161 -0.700111 -0.00742281 0.997513 0.0630284 -0.021713 -0.0229053 -2.31731 7.28765 -2.77861 446.0 4294970000 50 4.67485e-39 902 54.748 7.08526 54 6.5 7.0 -2.31731 -2.77861
642 2026-01-15 08:47:51 1157846964 403491938 496193 538.086 -0.0403633 -0.328538 -0.00877441 0.997416 0.0626459 -0.0252442 -0.0244673 -2.71086 7.25895 -2.98263 446.0 4294970000 50 4.67485e-39 902 51.9823 6.57909 53 6.3 7.0 -2.71086 -2.98263
643 2026-01-15 08:47:52 1157846947 403491935 496190 537.999 -0.0201425 -0.038765 -0.000681878 0.998529 0.0462489 -0.0162221 -0.0231991 -1.73362 5.34565 -2.74299 446.0 4294970000 49 4.67485e-39 902 51.5404 5.64273 54 5.6 7.0 -1.73362 -2.74299
644 2026-01-15 08:47:53 1157846945 403491932 496198 538.048 -0.00519718 0.0321062 -0.000493596 0.998563 0.0428746 -0.0218837 -0.0235626 -2.38919 4.97603 -2.80748 446.0 4294970000 49 4.67485e-39 902 50.2081 5.57884 53 5.6 7.0 -2.38919 -2.80748
645 2026-01-15 08:47:54 1157846949 403491929 496221 537.871 -0.00896279 0.0485229 0.00453377 0.99841 0.0433781 -0.027839 -0.0228411 -3.0732 5.04988 -2.75685 446.0 4294970000 49 4.67485e-39 902 52.2219 5.66688 55 5.7 7.0 -3.0732 -2.75685
646 2026-01-15 08:47:55 1157846936 403491918 496229 537.992 0.00360718 -0.0959727 -0.0161335 0.94836 0.0365815 -0.0139896 0.314769 -2.84117 3.47752 36.6394 446.0 4294970000 50 4.67485e-39 902 105.516 6.09433 69 6.0 7.0 -2.84117 36.6394
647 2026-01-15 08:47:56 1157846857 403491927 496258 537.273 -0.137795 0.0019257 0.0186105 0.54985 0.0127255 -0.0338147 0.834482 -3.34963 -2.43678 113.317 446.0 4294970000 50 4.67485e-39 902 178.299 7.36265 68 7.5 7.0 -3.34963 113.317
648 2026-01-15 08:47:57 1157846859 403491918 496274 537.49 -0.0895068 0.323077 -0.0149818 0.533192 0.0423388 -0.0731201 0.841765 -8.58425 -4.52185 115.646 445.0 4294970000 50 4.67485e-39 902 179.501 8.30706 63 8.4 7.0 -8.58425 115.646
649 2026-01-15 08:47:58 1157846957 403491891 496324 537.464 -0.743549 2.1608 0.00391556 0.535579 0.105463 -0.106912 0.831025 -16.8475 -3.87807 114.981 445.0 4294970000 50 4.67485e-39 902 166.881 9.27507 45 10.5 6.9 -16.8475 114.981
650 2026-01-15 08:47:59 1157847259 403491803 496278 536.782 -1.18622 3.15284 0.0178523 0.539244 0.0460422 -0.060838 0.838687 -8.21299 -3.03459 114.747 445.0 4294970000 50 4.67485e-39 902 158.271 9.31121 32 11.8 6.9 -8.21299 114.747
651 2026-01-15 08:48:00 1157847612 403491697 496211 536.538 -0.863631 2.13427 -0.00564306 0.537574 -0.0806933 0.0192237 0.839127 8.9808 -3.16292 114.47 445.0 4294970000 50 4.67485e-39 902 153.03 10.9448 33 12.7 6.9 8.9808 114.47
652 2026-01-15 08:48:01 1157847780 403491648 496147 537.791 -0.0874974 0.0562057 -0.23582 0.539459 -0.0381552 -0.00211929 0.841144 3.54922 -2.5689 114.582 445.0 4294970000 50 4.67485e-39 902 150.504 12.8805 36 13.0 6.9 3.54922 114.582
653 2026-01-15 08:48:02 1157847764 403491651 495288 537.686 0.115607 -0.414756 -2.57786 0.541415 -0.0141317 -0.023627 0.840305 -0.105093 -3.15367 114.423 445.0 4294970000 50 4.67485e-39 902 142.853 12.6323 31 12.1 6.9 -0.105093 114.423
654 2026-01-15 08:48:03 1157847715 403491666 492281 535.257 0.128052 -0.233401 -3.40287 0.537408 -0.0121351 -0.0393703 0.842315 -1.2534 -4.55363 114.982 444.0 4294970000 50 4.67485e-39 902 139.67 11.8812 28 11.2 6.9 -1.2534 114.982
655 2026-01-15 08:48:04 1157847680 403491686 488940 532.297 0.0455426 -0.139215 -3.10656 0.54295 0.0157744 -0.0361996 0.838836 -3.77155 -2.50459 114.264 445.0 4294970000 50 4.67485e-39 903 132.967 11.397 22 10.7 6.9 -3.77155 114.264
656 2026-01-15 08:48:05 1157847659 403491702 486127 529.391 0.236633 -0.226239 -1.42167 0.54885 0.00669204 -0.0341008 0.835198 -2.78649 -2.84753 113.456 445.0 4294970000 50 4.67485e-39 903 131.922 11.3569 19 10.9 6.9 -2.78649 113.456
657 2026-01-15 08:48:06 1157847649 403491699 485548 527.644 -0.187112 0.081566 0.360552 0.751286 -0.0020561 -0.0296636 0.659307 -2.3993 -2.42114 82.5953 445.0 4294970000 50 4.67485e-39 903 103.712 10.6729 22 10.8 6.9 -2.3993 82.5953
658 2026-01-15 08:48:07 1157847695 403491669 485739 526.74 -0.0179301 -0.0952873 0.0656577 0.932033 0.0341733 -0.0257876 0.359834 -4.16728 2.59443 42.1293 445.0 4294970000 50 4.67485e-39 903 71.3451 10.4903 29 10.4 6.9 -4.16728 42.1293
659 2026-01-15 08:48:08 1157847703 403491677 485847 526.79 0.544601 0.546836 0.0938664 0.9264 0.0530559 -0.0931682 0.360953 -12.1774 1.82002 42.3838 446.0 4294970000 50 4.67485e-39 903 90.6458 8.73502 44 9.3 6.9 -12.1774 42.3838
660 2026-01-15 08:48:09 1157847790 403491742 485885 526.844 0.813725 0.847414 0.0703087 0.930666 0.0217037 -0.0336187 0.363675 -4.49474 0.916518 42.6552 446.0 4294970000 50 4.67485e-39 903 108.322 8.48934 59 9.1 6.9 -4.49474 42.6552
661 2026-01-15 08:48:10 1157847891 403491821 485922 527.131 0.792797 0.794799 0.035887 0.929887 0.0211299 -0.0270443 0.36624 -3.77154 1.11913 42.9607 446.0 4294970000 50 4.67485e-39 903 113.417 8.92688 64 9.4 6.9 -3.77154 42.9607
662 2026-01-15 08:48:11 1157847980 403491895 485932 526.723 0.762886 0.723042 0.025378 0.930072 0.0181023 -0.0275306 0.365895 -3.696 0.776695 42.928 446.0 4294970000 50 4.67485e-39 903 113.792 9.39566 65 9.8 6.9 -3.696 42.928
663 2026-01-15 08:48:12 1157848060 403491964 485929 527.211 0.724608 0.685082 0.033088 0.929151 0.0274676 -0.0275737 0.367647 -4.09683 1.76782 43.1154 446.0 4294970000 50 4.67485e-39 903 113.849 9.21959 65 9.6 6.9 -4.09683 43.1154
664 2026-01-15 08:48:13 1157848140 403492028 485947 527.034 0.718985 0.665073 0.0149486 0.92961 0.0261654 -0.0298758 0.366398 -4.28543 1.53751 42.9685 446.0 4294970000 50 4.67485e-39 903 114.833 8.95185 66 9.3 6.9 -4.28543 42.9685
665 2026-01-15 08:48:14 1157848216 403492093 485940 526.973 0.710554 0.681186 0.0188095 0.929511 0.0253315 -0.0311443 0.366603 -4.38607 1.39412 42.9987 445.0 4294970000 50 4.67485e-39 903 113.822 8.91777 65 9.3 6.9 -4.38607 42.9987
666 2026-01-15 08:48:15 1157848296 403492158 485937 527.401 0.73178 0.703818 0.00948729 0.929271 0.0221326 -0.0294231 0.367561 -4.0691 1.12052 43.1246 445.0 4294970000 50 4.67485e-39 903 114.112 8.90776 65 9.3 6.9 -4.0691 43.1246
667 2026-01-15 08:48:16 1157848376 403492223 485936 526.761 0.73989 0.699282 0.00563739 0.929705 0.0216123 -0.0305576 0.366398 -4.16689 1.02233 42.9849 445.0 4294970000 50 4.67485e-39 903 113.937 9.0125 65 9.4 6.9 -4.16689 42.9849
668 2026-01-15 08:48:17 1157848453 403492288 485922 526.954 0.73831 0.688477 0.0137523 0.929331 0.0235299 -0.0320516 0.3671 -4.40778 1.16108 43.0681 445.0 4294970000 50 4.67485e-39 903 113.097 8.80753 64 9.2 6.9 -4.40778 43.0681
669 2026-01-15 08:48:18 1157848532 403492353 485912 527.096 0.738128 0.699383 0.0131471 0.929042 0.024815 -0.0293828 0.36797 -4.17847 1.40683 43.1663 445.0 4294970000 50 4.67485e-39 903 114.263 8.81584 65 9.2 6.9 -4.17847 43.1663
670 2026-01-15 08:48:19 1157848613 403492420 485891 526.895 0.745738 0.697397 0.0102389 0.929176 0.0245861 -0.0290097 0.367676 -4.12858 1.39944 43.1303 445.0 4294970000 50 4.67485e-39 903 114.263 8.82027 65 9.2 6.9 -4.12858 43.1303
671 2026-01-15 08:48:20 1157848692 403492486 485869 526.953 0.739743 0.683136 0.0109302 0.929652 0.0227391 -0.0273421 0.366718 -3.87155 1.27652 43.0153 444.0 4294970000 50 4.67485e-39 903 113.99 8.92797 65 9.3 6.9 -3.87155 43.0153
672 2026-01-15 08:48:21 1157848772 403492552 485848 527.018 0.739595 0.679276 0.00864829 0.929765 0.0233514 -0.0256473 0.366517 -3.71617 1.41397 42.9864 444.0 4294970000 50 4.67485e-39 903 112.91 8.91454 64 9.3 6.9 -3.71617 42.9864
673 2026-01-15 08:48:22 1157848850 403492618 485842 526.877 0.718674 0.6895 0.00172405 0.929014 0.0250143 -0.0316499 0.367838 -4.42848 1.33307 43.1533 444.0 4294970000 50 4.67485e-39 903 112.947 9.00015 64 9.4 6.9 -4.42848 43.1533
674 2026-01-15 08:48:23 1157848931 403492683 485831 526.99 0.740593 0.695769 0.00529855 0.929551 0.0227382 -0.026973 0.367001 -3.83252 1.29078 43.0497 444.0 4294970000 50 4.67485e-39 903 113.09 8.8015 64 9.2 6.9 -3.83252 43.0497
675 2026-01-15 08:48:24 1157849010 403492749 485825 527.044 0.740456 0.684455 0.00382996 0.929442 0.0258478 -0.0291599 0.366904 -4.19652 1.53134 43.0311 444.0 4294970000 50 4.67485e-39 903 113.064 8.81221 64 9.2 6.9 -4.19652 43.0311
676 2026-01-15 08:48:25 1157849088 403492814 485807 526.946 0.710872 0.701657 0.00438141 0.926714 0.0256915 -0.030207 0.373669 -4.31227 1.43916 43.8695 444.0 4294970000 50 4.67485e-39 903 113.738 8.89791 64 9.3 6.9 -4.31227 43.8695
677 2026-01-15 08:48:26 1157849167 403492877 485776 526.795 0.691269 0.755618 0.00379728 0.915527 0.029252 -0.0265268 0.400313 -4.12871 1.85731 47.1711 444.0 4294970000 50 4.67485e-39 903 118.176 9.0119 65 9.4 6.9 -4.12871 47.1711
678 2026-01-15 08:48:27 1157849251 403492935 485749 526.714 0.634275 0.825149 0.00451308 0.899964 0.0287481 -0.0277097 0.434132 -4.29214 1.59103 51.4484 444.0 4294970000 50 4.67485e-39 903 121.479 8.97853 64 9.4 6.9 -4.29214 51.4484
679 2026-01-15 08:48:28 1157849341 403492989 485711 526.869 0.579137 0.867378 -0.00363568 0.883715 0.0278904 -0.0269157 0.466417 -4.22045 1.38979 55.6023 444.0 4294970000 50 4.67485e-39 903 125.575 9.08306 64 9.5 6.9 -4.22045 55.6023
680 2026-01-15 08:48:29 1157849438 403493038 485694 526.802 0.521319 0.913777 0.0117199 0.868917 0.0230518 -0.0240296 0.493836 -3.69997 0.937527 59.1962 444.0 4294970000 50 4.67485e-39 903 129.112 9.17019 64 9.6 6.9 -3.69997 59.1962
681 2026-01-15 08:48:30 1157849538 403493081 485682 526.912 0.466532 0.950778 -0.00235503 0.855217 0.0228914 -0.0269009 0.517065 -3.99619 0.651107 62.2962 444.0 4294970000 50 4.67485e-39 903 130.138 9.12611 62 9.6 6.9 -3.99619 62.2962
682 2026-01-15 08:48:31 1157849641 403493121 485648 526.891 0.418537 0.940094 0.00754667 0.840814 0.0224845 -0.0299958 0.540025 -4.2858 0.311065 65.4156 445.0 4294970000 50 4.67485e-39 903 129.926 9.20438 59 9.7 6.9 -4.2858 65.4156
683 2026-01-15 08:48:32 1157849748 403493156 485634 527.2 0.381505 0.957719 -0.00101637 0.825899 0.0250643 -0.0294179 0.562492 -4.40436 0.477374 68.5016 445.0 4294970000 50 4.67485e-39 903 131.894 9.40029 58 9.9 6.9 -4.40436 68.5016
684 2026-01-15 08:48:33 1157849861 403493187 485613 527.224 0.310427 0.946292 0.0037275 0.80981 0.0207229 -0.0306754 0.585523 -4.2412 -0.135549 71.747 445.0 4294970000 50 4.67485e-39 903 131.71 9.46389 55 10.0 6.9 -4.2412 71.747
685 2026-01-15 08:48:34 1157849977 403493214 485612 527.242 0.249904 0.933912 -0.00241823 0.79086 0.0224895 -0.0276192 0.61096 -4.08127 0.104765 75.3758 445.0 4294970000 50 4.67485e-39 903 134.055 9.67026 54 10.2 6.9 -4.08127 75.3758
686 2026-01-15 08:48:35 1157850095 403493238 485624 527.142 0.160049 0.935588 0.0053953 0.767845 0.0189824 -0.0243689 0.63989 -3.5386 -0.116872 79.6223 445.0 4294970000 50 4.67485e-39 903 137.093 9.65 53 10.2 6.9 -3.5386 79.6223
687 2026-01-15 08:48:36 1157850209 403493255 485645 527.091 0.060595 0.931179 -0.00391444 0.74544 0.017215 -0.0253681 0.665867 -3.48293 -0.466027 83.5662 445.0 4294970000 50 4.67485e-39 903 137.535 9.8917 50 10.5 6.9 -3.48293 83.5662
688 2026-01-15 08:48:37 1157850319 403493263 485674 527.38 0.0262572 0.931259 -0.0115448 0.730622 0.0196712 -0.0315333 0.68177 -4.18089 -0.818878 86.0743 445.0 4294970000 50 4.67485e-39 903 136.83 9.96071 47 10.6 6.9 -4.18089 86.0743
689 2026-01-15 08:48:38 1157850429 403493268 485664 526.925 0.0135863 0.948388 -0.00984665 0.730797 0.0176892 -0.0322181 0.681605 -4.08344 -1.03785 86.0539 445.0 4294970000 50 4.67485e-39 903 135.725 10.0269 46 10.7 6.9 -4.08344 86.0539
690 2026-01-15 08:48:39 1157850539 403493272 485665 527.355 0.0141211 0.97392 0.000817746 0.730293 0.0187621 -0.0343507 0.682012 -4.34545 -1.11786 86.1328 445.0 4294970000 50 4.67485e-39 903 133.782 9.98591 44 10.7 6.9 -4.34545 86.1328
691 2026-01-15 08:48:40 1157850654 403493274 485691 527.284 0.0400148 1.00403 -0.00305842 0.729907 0.0179442 -0.0338943 0.682469 -4.24248 -1.15316 86.2017 445.0 4294970000 50 4.67485e-39 903 133.049 9.87084 43 10.6 6.9 -4.24248 86.2017
692 2026-01-15 08:48:41 1157850773 403493277 485703 527.304 0.0555243 1.00009 -0.0193239 0.730404 0.0162811 -0.0311435 0.68211 -3.88251 -1.07421 86.1264 445.0 4294970000 50 4.67485e-39 903 133.017 9.88381 43 10.6 6.9 -3.88251 86.1264
693 2026-01-15 08:48:42 1157850893 403493280 485715 527.166 0.0548103 0.991374 -0.00362323 0.729208 0.020185 -0.0330317 0.683196 -4.3449 -0.902012 86.3088 445.0 4294970000 50 4.67485e-39 903 134.249 9.90446 44 10.6 6.9 -4.3449 86.3088
694 2026-01-15 08:48:43 1157851014 403493281 485742 527.344 0.0635884 0.963004 -0.00433632 0.72991 0.0172304 -0.0330644 0.682526 -4.11702 -1.14798 86.2048 445.0 4294970000 50 4.67485e-39 903 135.081 10.0415 45 10.7 6.9 -4.11702 86.2048
695 2026-01-15 08:48:44 1157851134 403493283 485758 527.35 0.0565938 0.948203 -0.00663118 0.729657 0.0169505 -0.0334984 0.682782 -4.13099 -1.20699 86.2484 445.0 4294970000 50 4.67485e-39 903 135.0 10.1473 45 10.8 6.9 -4.13099 86.2484
696 2026-01-15 08:48:45 1157851253 403493286 485772 527.097 0.0324998 0.939832 -0.0102978 0.717557 0.0171725 -0.0295695 0.69566 -3.80339 -0.947355 88.2625 445.0 4294970000 50 4.67485e-39 903 137.011 10.1609 45 10.8 6.9 -3.80339 88.2625
697 2026-01-15 08:48:46 1157851367 403493288 485775 527.294 -0.0609992 0.925383 -0.00539186 0.686277 0.0204806 -0.0282559 0.726502 -3.93049 -0.743527 93.2942 445.0 4294970000 50 4.67485e-39 903 140.875 10.1489 44 10.8 6.9 -3.93049 93.2942
698 2026-01-15 08:48:47 1157851481 403493280 485781 527.122 -0.186304 0.916701 -0.00651313 0.645794 0.0212384 -0.0286707 0.762677 -3.98136 -0.936391 99.5276 445.0 4294970000 50 4.67485e-39 903 145.963 10.1143 43 10.8 6.9 -3.98136 99.5276
699 2026-01-15 08:48:48 1157851592 403493261 485787 527.102 -0.292508 0.878166 0.000646622 0.603525 0.0168386 -0.0293684 0.796625 -3.5708 -1.51964 105.76 444.0 4294970000 50 4.67485e-39 903 149.938 10.1905 41 10.9 6.9 -3.5708 105.76
700 2026-01-15 08:48:49 1157851700 403493232 485788 527.152 -0.356945 0.846439 -0.00288133 0.565062 0.0143995 -0.028467 0.824432 -3.20555 -1.76013 111.204 445.0 4294970000 50 4.67485e-39 903 152.215 10.1748 38 10.9 6.9 -3.20555 111.204
701 2026-01-15 08:48:50 1157851805 403493198 485785 527.077 -0.443781 0.806849 -0.00999961 0.529414 0.0146186 -0.0286385 0.847754 -3.15936 -1.89861 116.092 445.0 4294970000 50 4.67485e-39 903 153.78 10.2337 35 11.0 6.9 -3.15936 116.092
702 2026-01-15 08:48:51 1157851903 403493155 485773 527.275 -0.520551 0.744908 -0.0097091 0.486658 0.0150586 -0.0303912 0.872934 -3.20306 -2.20444 121.792 445.0 4294970000 50 4.67485e-39 903 157.246 10.2221 33 11.0 6.9 -3.20306 121.792
703 2026-01-15 08:48:52 1157851996 403493105 485757 527.487 -0.617571 0.71997 0.000178842 0.44321 0.00747077 -0.0332626 0.895769 -2.45714 -3.03934 127.424 445.0 4294970000 50 4.67485e-39 903 160.848 10.1701 31 11.0 6.9 -2.45714 127.424
704 2026-01-15 08:48:53 1157852083 403493048 485750 527.302 -0.628318 0.626752 0.00683466 0.401253 0.00461637 -0.0307472 0.91544 -1.89851 -3.01644 132.722 445.0 4294970000 50 4.67485e-39 903 161.746 10.1998 27 11.0 6.9 -1.89851 132.722
705 2026-01-15 08:48:54 1157852160 403492987 485756 527.581 -0.715107 0.570367 -0.00882051 0.350392 0.00446845 -0.0353162 0.935927 -1.89774 -3.61286 139.02 445.0 4294970000 50 4.67485e-39 903 165.951 10.0613 25 10.9 6.9 -1.89774 139.02
706 2026-01-15 08:48:55 1157852231 403492919 485736 527.591 -0.75073 0.51895 0.00987559 0.304131 0.00293276 -0.0306402 0.952133 -1.38806 -3.24375 144.621 445.0 4294970000 50 4.67485e-39 903 165.24 9.8373 19 10.7 6.9 -1.38806 144.621
707 2026-01-15 08:48:56 1157852295 403492847 485737 527.651 -0.760903 0.475176 0.000934724 0.27356 -0.00189599 -0.034185 0.961245 -0.862873 -3.8285 148.268 445.0 4294970000 50 4.67485e-39 903 165.707 9.64182 16 10.5 6.9 -0.862873 148.268
708 2026-01-15 08:48:57 1157852355 403492772 485726 527.35 -0.768733 0.466723 0.00167855 0.270911 0.000661489 -0.0328874 0.962042 -1.09403 -3.60834 148.591 445.0 4294970000 50 4.67485e-39 903 163.842 9.52911 14 10.4 6.9 -1.09403 148.591
709 2026-01-15 08:48:58 1157852415 403492696 485726 527.625 -0.753851 0.464832 0.00415798 0.27157 -0.000530759 -0.0333447 0.961841 -0.979297 -3.69511 148.509 445.0 4294970000 50 4.67485e-39 903 160.501 9.53255 11 10.4 6.9 -0.979297 148.509
710 2026-01-15 08:48:59 1157852476 403492622 485730 528.111 -0.751093 0.452223 0.0107212 0.27066 0.00147978 -0.0342858 0.962063 -1.22671 -3.7377 148.625 445.0 4294970000 50 4.67485e-39 903 158.371 9.63408 9 10.5 6.9 -1.22671 148.625
711 2026-01-15 08:49:00 1157852537 403492548 485732 527.572 -0.751061 0.470337 0.0100879 0.271768 0.000930749 -0.0315581 0.961845 -1.08552 -3.45229 148.489 445.0 4294970000 50 4.67485e-39 903 158.337 9.52709 9 10.4 6.9 -1.08552 148.489
712 2026-01-15 08:49:01 1157852599 403492473 485733 527.433 -0.764323 0.470148 0.00691762 0.272215 0.00243215 -0.0335304 0.961649 -1.31416 -3.62271 148.442 445.0 4294970000 50 4.67485e-39 903 158.256 9.41476 9 10.3 6.9 -1.31416 148.442
713 2026-01-15 08:49:02 1157852661 403492397 485742 527.612 -0.758873 0.455011 0.00285793 0.271995 0.00499938 -0.0340078 0.961685 -1.61123 -3.59591 148.476 445.0 4294970000 50 4.67485e-39 903 158.216 9.32565 9 10.2 6.9 -1.61123 148.476
714 2026-01-15 08:49:03 1157852723 403492322 485738 527.549 -0.780711 0.473766 -0.00390122 0.271273 0.000356528 -0.0331054 0.961933 -1.06854 -3.64145 148.547 445.0 4294970000 50 4.67485e-39 903 160.527 9.60442 11 10.5 6.9 -1.06854 148.547
715 2026-01-15 08:49:04 1157852786 403492245 485732 527.38 -0.781383 0.483467 -0.000319488 0.270925 0.000575367 -0.0310781 0.962098 -1.02841 -3.41126 148.587 445.0 4294970000 50 4.67485e-39 903 160.628 9.60068 11 10.5 6.9 -1.02841 148.587
716 2026-01-15 08:49:05 1157852850 403492169 485723 527.519 -0.771437 0.475267 -0.00866767 0.270259 0.000615679 -0.0293909 0.962339 -0.978232 -3.22444 148.665 445.0 4294970000 50 4.67485e-39 903 160.688 9.61311 11 10.5 6.9 -0.978232 148.665
717 2026-01-15 08:49:06 1157852912 403492093 485706 527.557 -0.750166 0.442071 -0.00334768 0.267463 0.00299796 -0.0257803 0.963219 -1.1212 -2.75545 149.001 445.0 4294970000 50 4.67485e-39 903 160.918 9.54522 11 10.4 6.9 -1.1212 149.001
718 2026-01-15 08:49:07 1157852970 403492018 485702 527.282 -0.801764 0.390793 0.000203541 0.239703 0.00710666 -0.026057 0.97047 -1.50633 -2.70468 152.298 445.0 4294970000 50 4.67485e-39 903 161.922 9.51606 9 10.4 6.9 -1.50633 152.298
719 2026-01-15 08:49:08 1157853023 403491939 485714 527.176 -0.851364 0.327435 -0.00432376 0.199013 0.0022249 -0.0235941 0.97971 -0.787933 -2.59942 157.064 445.0 4294970000 50 4.67485e-39 903 167.81 9.4978 10 10.4 6.9 -0.787933 157.064
720 2026-01-15 08:49:09 1157853066 403491856 485703 526.776 -0.907331 0.253483 0.00291667 0.155599 -0.00131812 -0.0199787 0.987617 -0.207068 -2.28534 162.109 445.0 4294970000 50 4.67485e-39 903 168.473 9.1601 6 10.1 6.9 -0.207068 162.109
721 2026-01-15 08:49:10 1157853100 403491769 485711 526.288 -0.895649 0.169166 0.00375041 0.116926 -0.00386557 -0.0215037 0.9929 0.151706 -2.49943 166.576 445.0 4294970000 50 4.67485e-39 903 172.872 8.99019 6 9.9 6.9 0.151706 166.576
722 2026-01-15 08:49:11 1157853120 403491682 485713 526.836 -0.888418 0.10162 0.00350594 0.082634 -0.00508732 -0.0188077 0.99639 0.402799 -2.19635 170.523 445.0 4294970000 50 4.67485e-39 903 174.575 8.90604 4 9.8 6.9 0.402799 170.523
723 2026-01-15 08:49:12 1157853132 403491598 485711 526.729 -0.892145 0.0423474 -0.00297574 0.0486749 -0.00246762 -0.0177084 0.998655 0.18363 -2.04085 174.429 445.0 4294970000 50 4.67485e-39 903 176.317 8.80696 2 9.7 6.8 0.18363 174.429
724 2026-01-15 08:49:13 1157853137 403491511 485700 526.981 -0.924011 -0.00247784 0.0198723 0.0110839 -0.00626644 -0.0150628 0.999806 0.698879 -1.73421 178.732 445.0 4294970000 50 4.67485e-39 903 178.758 8.77644 2 9.7 6.8 0.698879 178.732
725 2026-01-15 08:49:14 1157853136 403491420 485699 527.001 -0.915818 -0.0583467 -0.000135301 0.0191917 0.0097066 0.0152782 -0.999652 1.14567 -1.72954 -177.831 445.0 4294970000 50 4.67485e-39 903 178.466 7.98346 359 8.9 6.8 1.14567 -177.831
726 2026-01-15 08:49:15 1157853130 403491331 485692 526.851 -0.881521 -0.120463 -0.00316023 0.0613757 0.00844299 0.0106363 -0.998022 1.04052 -1.15739 -172.985 445.0 4294970000 50 4.67485e-39 903 177.298 7.91377 356 8.8 6.8 1.04052 -172.985
727 2026-01-15 08:49:16 1157853113 403491244 485685 526.656 -0.851088 -0.22597 -0.00337737 0.101087 0.0113408 0.0116571 -0.994745 1.42802 -1.19797 -168.422 445.0 4294970000 50 4.67485e-39 903 177.357 7.43858 352 8.3 6.8 1.42802 -168.422
728 2026-01-15 08:49:17 1157853087 403491159 485661 526.738 -0.850278 -0.315725 -0.00364121 0.14329 0.0117046 0.00935831 -0.989567 1.4812 -0.869395 -163.545 444.0 4294970000 50 4.67485e-39 903 175.029 7.32299 350 8.2 6.8 1.4812 -163.545
729 2026-01-15 08:49:18 1157853048 403491074 485679 526.639 -0.827399 -0.374657 0.0119084 0.176302 0.013875 0.0143538 -0.984134 1.85518 -1.33934 -159.721 444.0 4294970000 50 4.67485e-39 904 176.766 6.64886 345 7.5 6.8 1.85518 -159.721
730 2026-01-15 08:49:19 1157853000 403490990 485694 526.722 -0.8126 -0.366272 -0.00485452 0.183752 0.014442 0.017866 -0.982704 2.00305 -1.70921 -158.859 444.0 4294970000 50 4.67485e-39 904 177.562 6.38987 340 7.2 6.8 2.00305 -158.859
731 2026-01-15 08:49:20 1157852951 403490906 485704 526.616 -0.821097 -0.335031 -0.00078887 0.182229 0.0157127 0.0188908 -0.982949 2.165 -1.80142 -159.04 444.0 4294970000 50 4.67485e-39 903 174.475 6.30196 337 7.1 6.8 2.165 -159.04
732 2026-01-15 08:49:21 1157852905 403490823 485706 526.528 -0.829564 -0.302711 -0.00324235 0.186132 0.0152111 0.0171915 -0.982257 2.07943 -1.61199 -158.581 445.0 4294970000 50 4.67485e-39 903 173.037 6.20108 335 7.0 6.8 2.07943 -158.581
733 2026-01-15 08:49:22 1157852860 403490740 485706 526.523 -0.811093 -0.30951 0.00125679 0.186518 0.0142648 0.0183135 -0.982177 1.99747 -1.75776 -158.537 445.0 4294970000 50 4.67485e-39 904 172.844 5.82067 335 6.6 6.8 1.99747 -158.537
734 2026-01-15 08:49:23 1157852816 403490657 485698 526.539 -0.813192 -0.301341 -0.0041837 0.186632 0.0157981 0.0175555 -0.982146 2.15412 -1.63943 -158.524 445.0 4294970000 50 4.67485e-39 903 173.995 5.81066 336 6.6 6.8 2.15412 -158.524
735 2026-01-15 08:49:24 1157852774 403490574 485704 526.675 -0.816152 -0.288027 -0.00537688 0.185451 0.0137668 0.0187057 -0.982379 1.9478 -1.81467 -158.662 444.0 4294970000 50 4.67485e-39 903 175.186 5.90071 337 6.7 6.8 1.9478 -158.662
736 2026-01-15 08:49:25 1157852733 403490491 485691 526.695 -0.822875 -0.302592 0.00976951 0.185094 0.0145347 0.0159993 -0.982483 1.97626 -1.49415 -158.699 445.0 4294970000 50 4.67485e-39 903 176.235 6.48881 338 7.3 6.8 1.97626 -158.699
737 2026-01-15 08:49:26 1157852693 403490409 485672 526.588 -0.81434 -0.331018 -0.00426653 0.187238 0.0155686 0.0117929 -0.98212 2.00572 -0.993903 -158.442 445.0 4294970000 50 4.67485e-39 903 175.149 6.40402 337 7.2 6.8 2.00572 -158.442
738 2026-01-15 08:49:27 1157852650 403490327 485665 526.441 -0.79911 -0.39336 -0.000207733 0.215324 0.0139763 0.00769872 -0.976412 1.75416 -0.51683 -155.147 445.0 4294970000 50 4.67485e-39 903 177.824 6.29955 337 7.1 6.8 1.75416 -155.147
739 2026-01-15 08:49:28 1157852599 403490248 485661 526.634 -0.755185 -0.494152 0.00150211 0.256993 0.0168001 0.00865035 -0.966229 2.11552 -0.463384 -150.231 445.0 4294970000 50 4.67485e-39 903 177.359 5.91407 336 6.7 6.8 2.11552 -150.231
740 2026-01-15 08:49:29 1157852537 403490174 485652 526.493 -0.689067 -0.571436 0.00272052 0.302321 0.018594 0.00880673 -0.952984 2.33645 -0.317858 -144.815 445.0 4294970000 50 4.67485e-39 903 174.711 5.94659 334 6.7 6.8 2.33645 -144.815
741 2026-01-15 08:49:30 1157852466 403490106 485637 526.503 -0.640122 -0.611399 0.00566463 0.344687 0.0186071 0.00501969 -0.93852 2.20009 0.195254 -139.673 445.0 4294970000 50 4.67485e-39 903 173.154 5.57329 331 6.3 6.8 2.20009 -139.673
742 2026-01-15 08:49:31 1157852385 403490044 485614 526.594 -0.600443 -0.663244 0.00335102 0.378619 0.0192104 0.00740847 -0.925324 2.35923 0.0479645 -135.503 445.0 4294970000 50 4.67485e-39 903 173.717 5.40624 327 6.1 6.8 2.35923 -135.503
743 2026-01-15 08:49:32 1157852298 403489986 485586 526.55 -0.569341 -0.699678 0.00869774 0.410829 0.0186005 0.00379227 -0.911515 2.12203 0.479927 -131.478 445.0 4294970000 50 4.67485e-39 903 173.339 5.12415 324 5.8 6.8 2.12203 -131.478
744 2026-01-15 08:49:33 1157852209 403489932 485571 526.552 -0.497684 -0.700475 -0.00543379 0.443996 0.0198325 0.00104538 -0.895809 2.08965 0.902432 -127.263 445.0 4294970000 50 4.67485e-39 903 174.718 4.80644 319 5.4 6.8 2.08965 -127.263
745 2026-01-15 08:49:34 1157852116 403489885 485556 526.526 -0.4513 -0.739002 0.00452803 0.476296 0.0206145 -0.00194556 -0.879041 1.97086 1.3221 -123.086 446.0 4294970000 50 4.67485e-39 903 176.51 4.26631 314 4.8 6.8 1.97086 -123.086
746 2026-01-15 08:49:35 1157852020 403489840 485561 526.487 -0.407866 -0.795239 0.0129603 0.511903 0.0226212 -0.00416355 -0.858735 1.98232 1.7381 -118.379 446.0 4294970000 50 4.67485e-39 903 175.741 4.08813 311 4.6 6.8 1.98232 -118.379
747 2026-01-15 08:49:36 1157851916 403489802 485557 526.411 -0.310052 -0.859934 -0.00750303 0.550042 0.024532 -0.0057959 -0.834756 1.98186 2.10255 -113.208 446.0 4294970000 50 4.67485e-39 903 175.555 3.7576 308 4.2 6.8 1.98186 -113.208
748 2026-01-15 08:49:37 1157851807 403489772 485544 526.511 -0.230437 -0.896125 -0.00592568 0.588148 0.0227951 -0.00630816 -0.808407 1.68688 2.12225 -107.902 446.0 4294970000 50 4.67485e-39 903 170.362 3.33409 310 3.8 6.8 1.68688 -107.902
749 2026-01-15 08:49:38 1157851691 403489751 485539 526.529 -0.16914 -0.902712 -0.00157814 0.615372 0.0251032 -0.000611737 -0.787836 2.22388 1.82723 -103.986 446.0 4294970000 50 4.67485e-39 903 166.133 3.12641 311 3.6 6.9 2.22388 -103.986
750 2026-01-15 08:49:39 1157851574 403489735 485538 526.471 -0.184589 -0.882885 -0.00664111 0.621627 0.0242098 -0.00161185 -0.782937 2.05784 1.87083 -103.077 446.0 4294970000 50 4.67485e-39 903 162.506 3.07509 313 3.6 6.9 2.05784 -103.077
751 2026-01-15 08:49:40 1157851457 403489718 485538 526.448 -0.200373 -0.884026 0.00372509 0.621568 0.0243867 -0.000798401 -0.78298 2.13182 1.8103 -103.085 445.0 4294970000 50 4.67485e-39 904 163.263 2.86559 313 3.4 6.9 2.13182 -103.085
752 2026-01-15 08:49:41 1157851343 403489700 485532 526.452 -0.200576 -0.882971 -0.0035869 0.621069 0.0240198 -0.00373297 -0.783378 1.89103 2.04627 -103.158 445.0 4294970000 50 4.67485e-39 903 164.315 2.67206 313 3.2 6.9 1.89103 -103.158
753 2026-01-15 08:49:42 1157851230 403489681 485524 526.333 -0.199513 -0.87168 0.000255041 0.621008 0.0206224 -0.00117126 -0.783532 1.76867 1.57376 -103.184 445.0 4294970000 50 4.67485e-39 903 168.197 2.41485 311 2.9 6.9 1.76867 -103.184
754 2026-01-15 08:49:43 1157851118 403489660 485522 526.526 -0.199569 -0.887771 0.000406842 0.620951 0.0246949 -0.00470039 -0.783446 1.88303 2.18103 -103.172 445.0 4294970000 50 4.67485e-39 903 166.646 2.49342 312 3.0 6.9 1.88303 -103.172
755 2026-01-15 08:49:44 1157851006 403489639 485522 526.508 -0.196777 -0.893348 0.00186952 0.623273 0.0221288 -0.00702364 -0.78166 1.48074 2.21104 -102.843 445.0 4294970000 50 4.67485e-39 903 169.993 2.32764 310 2.8 6.9 1.48074 -102.843
756 2026-01-15 08:49:45 1157850891 403489619 485524 526.509 -0.203659 -0.925167 -0.00435021 0.621206 0.0241009 -0.00201703 -0.783274 2.0202 1.89833 -103.139 445.0 4294970000 50 4.67485e-39 903 171.044 2.3204 310 2.8 6.9 2.0202 -103.139
757 2026-01-15 08:49:46 1157850775 403489599 485506 526.296 -0.202999 -0.915715 0.00424392 0.620003 0.0227972 -0.0035042 -0.784261 1.80024 1.93606 -103.32 445.0 4294970000 50 4.67485e-39 903 166.967 2.37564 313 2.9 6.9 1.80024 -103.32
758 2026-01-15 08:49:47 1157850660 403489580 485490 526.371 -0.199654 -0.925515 -0.00732412 0.620739 0.0223948 -0.0028889 -0.783692 1.8061 1.85379 -103.215 444.0 4294970000 50 4.67485e-39 903 168.14 2.5962 311 3.1 6.9 1.8061 -103.215
759 2026-01-15 08:49:48 1157850544 403489560 485458 526.445 -0.209625 -0.923315 0.00159446 0.624727 0.0271105 -0.00393046 -0.780362 2.14359 2.29466 -102.606 444.0 4294970000 50 4.67485e-39 904 165.479 2.66023 312 3.2 6.9 2.14359 -102.606
760 2026-01-15 08:49:49 1157850431 403489541 485445 526.445 -0.105094 -0.919988 0.00270954 0.647533 0.0266244 -0.00514787 -0.761554 1.94198 2.42712 -99.2186 444.0 4294970000 50 4.67485e-39 903 161.67 2.60054 313 3.1 6.9 1.94198 -99.2186
761 2026-01-15 08:49:50 1157850319 403489530 485431 526.399 -0.016632 -0.932432 -0.00233509 0.680324 0.0287779 -0.00918299 -0.732289 1.69935 3.01703 -94.1757 444.0 4294970000 50 4.67485e-39 903 158.152 2.41252 313 2.9 6.9 1.69935 -94.1757
762 2026-01-15 08:49:51 1157850206 403489527 485424 526.831 0.0554466 -0.932445 -0.00250945 0.714742 0.0300898 -0.00982096 -0.698672 1.605 3.254 -88.6581 445.0 4294970000 50 4.67485e-39 904 152.911 2.19022 314 2.7 6.9 1.605 -88.6581
763 2026-01-15 08:49:52 1157850094 403489533 485433 527.113 0.145379 -0.923782 -0.00911598 0.744167 0.0274577 -0.0117566 -0.667326 1.09729 3.24305 -83.743 445.0 4294970000 50 4.67485e-39 903 147.055 2.1832 315 2.7 6.9 1.09729 -83.743
764 2026-01-15 08:49:53 1157849982 403489547 485441 527.346 0.206046 -0.919582 -0.0042523 0.76782 0.0288693 -0.0144085 -0.639853 0.8491 3.59956 -79.5906 444.0 4294970000 50 4.67485e-39 904 165.378 2.39852 295 2.6 6.9 0.8491 -79.5906
765 2026-01-15 08:49:54 1157849871 403489566 485464 527.101 0.267162 -0.907 -6.54e-05 0.791081 0.031497 -0.0151733 -0.610711 0.828847 3.92086 -75.3131 444.0 4294970000 50 4.67485e-39 903 175.484 2.7475 273 2.6 6.9 0.828847 -75.3131
766 2026-01-15 08:49:55 1157849762 403489591 485485 526.876 0.332856 -0.869316 -0.0140134 0.813697 0.0333359 -0.014283 -0.580157 0.884516 4.06207 -70.9508 444.0 4294970000 50 4.67485e-39 903 164.513 3.14123 252 2.7 6.9 0.884516 -70.9508
767 2026-01-15 08:49:56 1157849656 403489623 485484 526.974 0.421918 -0.832427 0.00153317 0.83495 0.0317393 -0.0152897 -0.549197 0.53462 4.00271 -66.657 444.0 4294970000 50 4.67485e-39 903 166.548 3.20251 249 2.7 6.9 0.53462 -66.657
768 2026-01-15 08:49:57 1157849553 403489661 485501 526.988 0.501981 -0.816168 0.000550397 0.856943 0.032151 -0.0165227 -0.514141 0.271739 4.13457 -61.9198 444.0 4294970000 50 4.67485e-39 903 163.307 2.68374 279 2.6 6.9 0.271739 -61.9198
769 2026-01-15 08:49:58 1157849453 403489705 485503 526.952 0.548889 -0.753582 0.00290131 0.879923 0.0331183 -0.0183729 -0.473604 -0.0552084 4.34096 -56.5875 444.0 4294970000 50 4.67485e-39 903 157.586 2.66333 279 2.6 6.9 -0.0552084 -56.5875
770 2026-01-15 08:49:59 1157849361 403489755 485516 526.916 0.624489 -0.707257 0.000181304 0.900643 0.0334093 -0.0192272 -0.432847 -0.327263 4.40646 -51.3541 444.0 4294970000 50 4.67485e-39 903 152.641 2.66779 279 2.6 6.9 -0.327263 -51.3541
771 2026-01-15 08:50:00 1157849275 403489812 485545 527.015 0.678142 -0.662169 0.00487719 0.916634 0.0317575 -0.0203348 -0.397945 -0.687829 4.26762 -46.964 444.0 4294970000 50 4.67485e-39 903 148.387 2.66639 279 2.6 6.9 -0.687829 -46.964
772 2026-01-15 08:50:01 1157849195 403489874 485569 527.406 0.68963 -0.646288 -0.00408702 0.921623 0.0288496 -0.02137 -0.386422 -0.979532 3.99722 -45.5327 444.0 4294970000 50 4.67485e-39 903 146.967 2.66079 279 2.6 6.9 -0.979532 -45.5327
773 2026-01-15 08:50:02 1157849114 403489941 485584 527.614 0.694086 -0.659259 0.00144057 0.922199 0.0268879 -0.022699 -0.385112 -1.21234 3.84716 -45.375 444.0 4294970000 50 4.67485e-39 903 147.101 2.65514 279 2.6 6.9 -1.21234 -45.375
774 2026-01-15 08:50:03 1157849032 403490007 485613 527.21 0.666578 -0.661399 -0.00695644 0.921923 0.0282924 -0.0207102 -0.385784 -0.937288 3.90832 -45.4496 444.0 4294970000 50 4.67485e-39 903 129.098 2.65338 295 2.9 6.9 -0.937288 -45.4496
775 2026-01-15 08:50:04 1157848949 403490070 485613 527.394 0.651263 -0.671251 -0.0127084 0.921763 0.0290726 -0.0229439 -0.38598 -1.13776 4.09023 -45.486 444.0 4294970000 50 4.67485e-39 903 152.952 3.24554 269 3.1 6.9 -1.13776 -45.486
776 2026-01-15 08:50:05 1157848865 403490133 485628 527.372 0.673691 -0.684287 -0.0055036 0.921412 0.0290414 -0.0166039 -0.387145 -0.464799 3.80618 -45.5997 445.0 4294970000 50 4.67485e-39 903 41.4953 2.44157 3 3.4 6.9 -0.464799 -45.5997
777 2026-01-15 08:50:06 1157848781 403490197 485622 527.589 0.663951 -0.676418 -0.00613813 0.921785 0.0313951 -0.0188329 -0.385969 -0.600781 4.15335 -45.4651 445.0 4294970000 50 4.67485e-39 903 19.0954 2.82917 20 3.7 6.9 -0.600781 -45.4651
778 2026-01-15 08:50:07 1157848699 403490258 485633 527.614 0.665881 -0.703969 -0.00146883 0.921187 0.0286167 -0.0238293 -0.387333 -1.24546 4.08317 -45.6585 445.0 4294970000 50 4.67485e-39 903 18.9223 2.81737 20 3.7 6.9 -1.24546 -45.6585
779 2026-01-15 08:50:08 1157848613 403490320 485633 527.778 0.659877 -0.68584 -0.0118514 0.921486 0.0341298 -0.0163321 -0.386563 -0.212755 4.33186 -45.5275 444.0 4294970000 50 4.67485e-39 903 18.9455 2.82945 20 3.7 6.9 -0.212755 -45.5275
780 2026-01-15 08:50:09 1157848530 403490381 485631 527.608 0.667069 -0.669262 -0.00223725 0.921631 0.0332987 -0.0198948 -0.386124 -0.62782 4.4019 -45.4907 444.0 4294970000 50 4.67485e-39 903 15.3062 3.64571 49 4.2 6.9 -0.62782 -45.4907
781 2026-01-15 08:50:10 1157848448 403490444 485641 527.732 0.665226 -0.677192 -0.00416826 0.921923 0.0334818 -0.021791 -0.385308 -0.823864 4.50474 -45.3997 445.0 4294970000 50 4.67485e-39 903 15.597 3.65124 49 4.2 6.9 -0.823864 -45.3997
782 2026-01-15 08:50:11 1157848367 403490507 485647 527.39 0.679199 -0.678233 -0.0050616 0.922135 0.0326894 -0.0207377 -0.384928 -0.749487 4.37392 -45.3463 445.0 4294970000 50 4.67485e-39 903 15.6826 3.63875 49 4.2 6.9 -0.749487 -45.3463
783 2026-01-15 08:50:12 1157848286 403490570 485660 527.631 0.729884 -0.624265 -0.00329162 0.934061 0.0357776 -0.0241688 -0.354495 -1.13372 4.81823 -41.6163 445.0 4294970000 50 4.67485e-39 903 34.5335 3.84464 63 4.2 6.8 -1.13372 -41.6163
784 2026-01-15 08:50:13 1157848212 403490636 485666 527.606 0.800629 -0.525581 -0.00964932 0.952375 0.0382719 -0.0206256 -0.301813 -0.92742 4.89708 -35.2097 445.0 4294970000 50 4.67485e-39 903 42.2553 4.05958 65 4.4 6.8 -0.92742 -35.2097
785 2026-01-15 08:50:14 1157848146 403490709 485672 527.367 0.856363 -0.466088 -0.00212542 0.966128 0.038753 -0.0204814 -0.254312 -1.13832 4.89449 -29.5454 445.0 4294970000 50 4.67485e-39 903 59.4866 4.25544 76 4.4 6.8 -1.13832 -29.5454
786 2026-01-15 08:50:15 1157848087 403490789 485659 527.802 0.891758 -0.379927 -0.0141792 0.975838 0.041234 -0.0241462 -0.213206 -1.69305 5.21067 -24.7281 445.0 4294970000 50 4.67485e-39 903 68.2051 4.7222 81 4.8 6.8 -1.69305 -24.7281
787 2026-01-15 08:50:16 1157848038 403490871 485632 527.821 0.914604 -0.303436 -0.00588583 0.98385 0.040849 -0.0273533 -0.172109 -2.27897 5.15623 -19.9492 445.0 4294970000 50 4.67485e-39 903 61.0995 4.83362 70 5.1 6.8 -2.27897 -19.9492
788 2026-01-15 08:50:17 1157848000 403490956 485606 527.41 0.94615 -0.200157 -0.00227189 0.990125 0.0423784 -0.0281739 -0.130623 -2.56332 5.2429 -15.1493 445.0 4294970000 50 4.67485e-39 903 66.2955 5.11828 71 5.4 6.8 -2.56332 -15.1493
789 2026-01-15 08:50:18 1157847976 403491045 485601 527.204 0.951205 -0.0739281 0.0085169 0.996096 0.0392168 -0.0277157 -0.0740757 -2.83206 4.72309 -8.6235 445.0 4294970000 50 4.67485e-39 903 61.3251 5.34158 61 5.8 6.8 -2.83206 -8.6235
790 2026-01-15 08:50:19 1157847968 403491134 485625 526.958 0.968379 0.0279537 -0.00305048 0.998961 0.0289689 -0.0257818 -0.0239491 -2.87322 3.39339 -2.83201 445.0 4294970000 50 4.67485e-39 903 59.0985 5.52414 54 6.1 6.8 -2.87322 -2.83201
791 2026-01-15 08:50:20 1157847971 403491226 485647 527.108 0.960618 0.0104278 0.00882431 0.999122 0.0245954 -0.0281334 -0.0189605 -3.16943 2.88291 -2.25429 445.0 4294970000 50 4.67485e-39 903 61.6348 5.77754 56 6.3 6.8 -3.16943 -2.25429
792 2026-01-15 08:50:21 1157847971 403491320 485678 526.991 0.944949 -0.0088514 -0.00417867 0.999211 0.0242145 -0.0260228 -0.0177392 -2.93191 2.83055 -2.10675 445.0 4294970000 50 4.67485e-39 903 65.7375 6.06221 60 6.5 6.8 -2.93191 -2.10675
793 2026-01-15 08:50:22 1157847970 403491411 485697 527.172 0.945664 -0.0358485 0.00108784 0.999132 0.0250528 -0.0280715 -0.0178601 -3.16453 2.93177 -2.12932 445.0 4294970000 50 4.67485e-39 903 67.7063 6.31506 62 6.7 6.8 -3.16453 -2.12932
794 2026-01-15 08:50:23 1157847965 403491500 485721 527.174 0.924555 -0.0479946 0.0026347 0.999096 0.0246241 -0.0286289 -0.019526 -3.2245 2.88923 -2.32075 445.0 4294970000 50 4.67485e-39 903 67.1448 6.52966 62 6.9 6.8 -3.2245 -2.32075
795 2026-01-15 08:50:24 1157847958 403491587 485742 527.121 0.928374 -0.0403828 0.0026733 0.999075 0.0266065 -0.02676 -0.0206303 -3.00232 3.11536 -2.44774 445.0 4294970000 50 4.67485e-39 903 65.9622 6.50405 61 6.9 6.8 -3.00232 -2.44774
796 2026-01-15 08:50:25 1157847950 403491675 485756 527.224 0.944958 -0.0422934 0.000572585 0.999015 0.028917 -0.0262074 -0.0211266 -2.93167 3.38046 -2.50966 445.0 4294970000 50 4.67485e-39 903 63.9399 6.46792 59 6.9 6.8 -2.93167 -2.50966
797 2026-01-15 08:50:26 1157847940 403491764 485755 527.295 0.955713 -0.0471413 -0.00199684 0.998888 0.0339112 -0.0251279 -0.0210197 -2.79587 3.95026 -2.50761 445.0 4294970000 50 4.67485e-39 903 63.1227 6.35358 58 6.8 6.8 -2.79587 -2.50761
798 2026-01-15 08:50:27 1157847934 403491852 485767 527.229 0.940646 -0.00725633 -0.0023176 0.998866 0.0291692 -0.0317966 -0.0201225 -3.57481 3.42101 -2.41512 445.0 4294970000 50 4.67485e-39 903 63.9381 6.44109 59 6.9 6.8 -3.57481 -2.41512
799 2026-01-15 08:50:28 1157847929 403491941 485762 527.373 0.924643 -0.0252488 0.00431262 0.999269 0.030804 -0.0112304 -0.0196396 -1.21682 3.55592 -2.28982 445.0 4294970000 50 4.67485e-39 903 64.7486 6.57661 60 7.0 6.8 -1.21682 -2.28982
800 2026-01-15 08:50:29 1157847924 403492001 485744 527.352 0.105755 -0.0629694 -0.0167255 0.99877 0.0308149 -0.0318305 -0.0222648 -3.56697 3.61766 -2.66694 445.0 4294970000 50 4.67485e-39 903 58.7099 6.5989 60 6.6 6.8 -3.56697 -2.66694
801 2026-01-15 08:50:30 1157847919 403492011 485730 527.587 -0.00676821 -0.0215031 0.000592431 0.998819 0.0370528 -0.0177857 -0.0258976 -1.92623 4.30049 -3.04304 445.0 4294970000 50 4.67485e-39 903 57.1875 6.3216 60 6.3 6.8 -1.92623 -3.04304
802 2026-01-15 08:50:31 1157847916 403492009 485730 527.294 -0.0639088 0.00963204 -0.00115508 0.99913 0.0312412 -0.0140811 -0.0237711 -1.52736 3.61918 -2.77428 445.0 4294970000 50 4.67485e-39 903 52.7952 5.9308 56 5.9 6.8 -1.52736 -2.77428
803 2026-01-15 08:50:32 1157847917 403492000 485739 527.456 -0.0719799 0.00240704 0.00236367 0.998926 0.0338416 -0.0216266 -0.0230939 -2.38688 3.93783 -2.731 445.0 4294970000 50 4.67485e-39 903 50.9044 5.74306 54 5.7 6.8 -2.38688 -2.731
804 2026-01-15 08:50:33 1157847919 403491991 485734 527.349 -0.0340503 0.0138562 -0.00235804 0.998951 0.0328075 -0.0218689 -0.0233036 -2.41665 3.82042 -2.75352 445.0 4294970000 50 4.67485e-39 903 50.0969 5.51134 53 5.5 6.8 -2.41665 -2.75352

View File

@ -0,0 +1,69 @@
algorithmic_baseline_settings:
algorithm: fastchrom
dietrich:
poly_order: 5
smooth_half_window: 5
fabc:
diff_order: 2
lam: 10000
scale: 10
fastchrom:
half_window: 6
interp_half_window: 3
max_iter: 100
min_fwhm: null
min_length: 2
smooth_half_window: 3
threshold: custom
weights: null
golotvin:
half_window: 2
sections: 10
gases:
CO2:
- 400
- 450
ordinary_kriging_settings:
cut_ground: false
grid_resolution: 100
max_points: 20
min_nodes: 20
min_points: 1
y_min: null
required_cols:
height_ato:
- 0
- 60
latitude:
- -90
- 90
longitude:
- -180
- 180
pressure:
- 800
- 1100
temperature:
- -50
- 60
winddir:
- 0
- 360
windspeed:
- 0
- 50
semivariogram_settings:
azimuth: 0
bandwidth: 300
bin_func: even
estimator: cressie
fit_method: lm
maxlag: 5000
model: exponential
n_lags: 50
tolerance: 180
strategies:
background: algorithm
interpolation: kriging
sensor: insitu
spatial: spiral

View File

@ -0,0 +1,66 @@
# Required columns and their maximum valid ranges
required_cols:
latitude: [-90, 90]
longitude: [-180, 180]
height_ato: [0, 60] # meters above takeoff
windspeed: [0, 50] # m/s
winddir: [0, 360] # degrees
temperature: [-50, 60] # degrees Celsius
pressure: [800, 1100] # hPa/mb
# Optional gas columns and their maximum ppm concentration ranges.
# Relative concentrations are used, so absolute offset can be incorrect as long as gain and linearity are correct.
gases:
CO2: [400, 450]
strategies:
background: "algorithm" # Currently only algorithmic baseline correction (via pybaselines) is supported
sensor: "insitu" # Currently only in-situ sensor data is supported
spatial: "spiral" # Spatial processing mode: "curtain" and "spiral" are supported
interpolation: "kriging" # Currently only kriging interpolation is supported
# Baseline correction algorithm settings
algorithmic_baseline_settings:
algorithm: fastchrom
fastchrom: {
"half_window": 6,
"threshold": "custom", #
"min_fwhm": ~,
"interp_half_window": 3,
"smooth_half_window": 3,
"weights": ~,
"max_iter": 100,
"min_length": 2}
fabc : {
"lam": 10000, # The smoothing parameter. Larger values will create smoother baselines. Default is 1e6.
"scale": 10, # The scale at which to calculate the continuous wavelet transform. Should be approximately equal to the index-based full-width-at-half-maximum of the peaks or features in the data. Default is None, which will use half of the value from optimize_window(), which is not always a good value, but at least scales with the number of data points and gives a starting point for tuning the parameter.
"diff_order": 2} # The order of the differential matrix. Must be greater than 0. Default is 2 (second order differential matrix). Typical values are 2 or 1.
dietrich : {
"poly_order": 5,
"smooth_half_window": 5,}
golotvin : {
"half_window": 2,
"sections": 10}
# Kriging settings - aggressively optimized for Spiral mode
semivariogram_settings:
model: exponential # Changed to exponential model for better circular data fitting
estimator: cressie # Robust estimator for variogram calculation
n_lags: 50 # Further increased to 50 for better variogram resolution
bin_func: even # Even binning function
fit_method: lm # Least squares fitting method
### Aggressively increased search ranges for circular/spiral data distribution
maxlag: 5000 # Dramatically increased to 5000m for comprehensive coverage
tolerance: 180 # Increased to 180° to allow full circular search
azimuth: 0 # Horizontal direction maintained
bandwidth: 300 # Further increased to 300m for maximum search bandwidth
# fit_sigma: linear # this should allow for a spatial uncertainty but currently producing bugs
ordinary_kriging_settings:
min_points: 1 # Reduced to 1 to allow interpolation even with sparse data
max_points: 20 # Further reduced to 20 to minimize computational load
grid_resolution: 100 # Increased density to 100 for finer interpolation grid
min_nodes: 20 # Increased to 20 to ensure sufficient grid nodes
y_min: ~ # Automatically determine minimum y value
cut_ground: False # Keep ground cutting disabled